<?xml version="1.0" encoding="UTF-8" standalone="no" ?>
<gpx xmlns="http://www.topografix.com/GPX/1/1" xmlns:xsi="http://www.w3.org/2001/XMLSchema-instance" xsi:schemaLocation="http://www.topografix.com/GPX/1/1 http://www.topografix.com/GPX/1/1/gpx.xsd" version="1.1" creator="VisuGPX - https://www.visugpx.com">
  <metadata>
    <name>Regordane</name>
    <desc><![CDATA[Vista Hcx
Pradelles - La Bastide-Puylaurent
Pluie, vent, froid , départ 4° !
Longue étape, mais belle, beaucoup de revêtement goudronné !
]]></desc>
  </metadata>
  <trk>
    <name><![CDATA[ACTIVE LOG081139]]></name>
    <trkseg>
      <trkpt lat="44.76849" lon="3.88125">
        <ele>1108.371</ele>
        <time>2011-06-01T06:11:39Z</time>
      </trkpt>
      <trkpt lat="44.76849" lon="3.88125">
        <ele>1107.898</ele>
        <time>2011-06-01T06:11:48Z</time>
      </trkpt>
      <trkpt lat="44.76849" lon="3.88125">
        <ele>1107.169</ele>
        <time>2011-06-01T06:11:58Z</time>
      </trkpt>
      <trkpt lat="44.76849" lon="3.88125">
        <ele>1107.589</ele>
        <time>2011-06-01T06:12:07Z</time>
      </trkpt>
      <trkpt lat="44.76849" lon="3.88125">
        <ele>1107.637</ele>
        <time>2011-06-01T06:12:18Z</time>
      </trkpt>
      <trkpt lat="44.76849" lon="3.88125">
        <ele>1108.696</ele>
        <time>2011-06-01T06:12:28Z</time>
      </trkpt>
      <trkpt lat="44.76849" lon="3.88125">
        <ele>1109.203</ele>
        <time>2011-06-01T06:12:38Z</time>
      </trkpt>
      <trkpt lat="44.76849" lon="3.88125">
        <ele>1110.488</ele>
        <time>2011-06-01T06:12:47Z</time>
      </trkpt>
      <trkpt lat="44.76849" lon="3.88125">
        <ele>1111.756</ele>
        <time>2011-06-01T06:12:57Z</time>
      </trkpt>
      <trkpt lat="44.76849" lon="3.88125">
        <ele>1112.535</ele>
        <time>2011-06-01T06:13:06Z</time>
      </trkpt>
      <trkpt lat="44.76849" lon="3.88125">
        <ele>1113.569</ele>
        <time>2011-06-01T06:13:16Z</time>
      </trkpt>
      <trkpt lat="44.76849" lon="3.88125">
        <ele>1112.987</ele>
        <time>2011-06-01T06:13:25Z</time>
      </trkpt>
      <trkpt lat="44.76849" lon="3.88125">
        <ele>1113.846</ele>
        <time>2011-06-01T06:13:35Z</time>
      </trkpt>
      <trkpt lat="44.76849" lon="3.88125">
        <ele>1114.11</ele>
        <time>2011-06-01T06:13:45Z</time>
      </trkpt>
      <trkpt lat="44.76849" lon="3.88125">
        <ele>1113.978</ele>
        <time>2011-06-01T06:13:55Z</time>
      </trkpt>
    </trkseg>
  </trk>
  <trk>
    <name><![CDATA[ACTIVE LOG081404]]></name>
    <trkseg>
      <trkpt lat="44.77215" lon="3.87824">
        <ele>1114.065</ele>
        <time>2011-06-01T06:14:04Z</time>
      </trkpt>
      <trkpt lat="44.7721" lon="3.87829">
        <ele>1113.603</ele>
        <time>2011-06-01T06:14:14Z</time>
      </trkpt>
      <trkpt lat="44.77206" lon="3.87834">
        <ele>1113.067</ele>
        <time>2011-06-01T06:14:24Z</time>
      </trkpt>
      <trkpt lat="44.77203" lon="3.87838">
        <ele>1113.635</ele>
        <time>2011-06-01T06:14:34Z</time>
      </trkpt>
      <trkpt lat="44.77201" lon="3.8784">
        <ele>1113.933</ele>
        <time>2011-06-01T06:14:44Z</time>
      </trkpt>
      <trkpt lat="44.77189" lon="3.87847">
        <ele>1113.743</ele>
        <time>2011-06-01T06:14:54Z</time>
      </trkpt>
      <trkpt lat="44.77187" lon="3.87841">
        <ele>1113.397</ele>
        <time>2011-06-01T06:15:04Z</time>
      </trkpt>
      <trkpt lat="44.77187" lon="3.87842">
        <ele>1114.044</ele>
        <time>2011-06-01T06:15:14Z</time>
      </trkpt>
      <trkpt lat="44.77179" lon="3.8784">
        <ele>1114.06</ele>
        <time>2011-06-01T06:15:24Z</time>
      </trkpt>
      <trkpt lat="44.7717" lon="3.87824">
        <ele>1114.678</ele>
        <time>2011-06-01T06:15:34Z</time>
      </trkpt>
      <trkpt lat="44.77169" lon="3.87825">
        <ele>1114.76</ele>
        <time>2011-06-01T06:15:44Z</time>
      </trkpt>
      <trkpt lat="44.77167" lon="3.87834">
        <ele>1114.652</ele>
        <time>2011-06-01T06:15:54Z</time>
      </trkpt>
      <trkpt lat="44.77166" lon="3.87845">
        <ele>1114.224</ele>
        <time>2011-06-01T06:16:04Z</time>
      </trkpt>
      <trkpt lat="44.77167" lon="3.87855">
        <ele>1115.244</ele>
        <time>2011-06-01T06:16:14Z</time>
      </trkpt>
      <trkpt lat="44.77167" lon="3.87872">
        <ele>1115.54</ele>
        <time>2011-06-01T06:16:24Z</time>
      </trkpt>
      <trkpt lat="44.7716" lon="3.87891">
        <ele>1115.244</ele>
        <time>2011-06-01T06:16:34Z</time>
      </trkpt>
      <trkpt lat="44.77157" lon="3.87892">
        <ele>1113.965</ele>
        <time>2011-06-01T06:16:44Z</time>
      </trkpt>
      <trkpt lat="44.77155" lon="3.87891">
        <ele>1114.964</ele>
        <time>2011-06-01T06:16:54Z</time>
      </trkpt>
      <trkpt lat="44.77156" lon="3.87889">
        <ele>1115.104</ele>
        <time>2011-06-01T06:17:04Z</time>
      </trkpt>
      <trkpt lat="44.77151" lon="3.87889">
        <ele>1114.546</ele>
        <time>2011-06-01T06:17:14Z</time>
      </trkpt>
      <trkpt lat="44.77147" lon="3.87888">
        <ele>1114.752</ele>
        <time>2011-06-01T06:17:24Z</time>
      </trkpt>
      <trkpt lat="44.77145" lon="3.87883">
        <ele>1115.138</ele>
        <time>2011-06-01T06:17:34Z</time>
      </trkpt>
      <trkpt lat="44.7714" lon="3.8788">
        <ele>1115.135</ele>
        <time>2011-06-01T06:17:44Z</time>
      </trkpt>
      <trkpt lat="44.77133" lon="3.87876">
        <ele>1115.593</ele>
        <time>2011-06-01T06:17:54Z</time>
      </trkpt>
      <trkpt lat="44.77127" lon="3.87877">
        <ele>1115.31</ele>
        <time>2011-06-01T06:18:04Z</time>
      </trkpt>
      <trkpt lat="44.77121" lon="3.87877">
        <ele>1115.738</ele>
        <time>2011-06-01T06:18:14Z</time>
      </trkpt>
      <trkpt lat="44.77124" lon="3.87879">
        <ele>1115.096</ele>
        <time>2011-06-01T06:18:24Z</time>
      </trkpt>
      <trkpt lat="44.77128" lon="3.87876">
        <ele>1115.859</ele>
        <time>2011-06-01T06:18:34Z</time>
      </trkpt>
      <trkpt lat="44.77128" lon="3.87875">
        <ele>1114.887</ele>
        <time>2011-06-01T06:18:44Z</time>
      </trkpt>
      <trkpt lat="44.77126" lon="3.87875">
        <ele>1115.368</ele>
        <time>2011-06-01T06:18:54Z</time>
      </trkpt>
      <trkpt lat="44.7704" lon="3.88149">
        <ele>1116.005</ele>
        <time>2011-06-01T06:19:04Z</time>
      </trkpt>
      <trkpt lat="44.77034" lon="3.88161">
        <ele>1116.673</ele>
        <time>2011-06-01T06:19:14Z</time>
      </trkpt>
      <trkpt lat="44.77021" lon="3.88171">
        <ele>1115.772</ele>
        <time>2011-06-01T06:19:24Z</time>
      </trkpt>
      <trkpt lat="44.77013" lon="3.88172">
        <ele>1115.249</ele>
        <time>2011-06-01T06:19:31Z</time>
      </trkpt>
      <trkpt lat="44.77011" lon="3.88173">
        <ele>1115.188</ele>
        <time>2011-06-01T06:19:34Z</time>
      </trkpt>
      <trkpt lat="44.7702" lon="3.88189">
        <ele>1115.746</ele>
        <time>2011-06-01T06:19:44Z</time>
      </trkpt>
      <trkpt lat="44.77009" lon="3.88213">
        <ele>1116.446</ele>
        <time>2011-06-01T06:19:54Z</time>
      </trkpt>
      <trkpt lat="44.77011" lon="3.8822">
        <ele>1117.133</ele>
        <time>2011-06-01T06:20:04Z</time>
      </trkpt>
      <trkpt lat="44.76993" lon="3.88232">
        <ele>1115.833</ele>
        <time>2011-06-01T06:20:14Z</time>
      </trkpt>
      <trkpt lat="44.76985" lon="3.88235">
        <ele>1117.011</ele>
        <time>2011-06-01T06:20:24Z</time>
      </trkpt>
      <trkpt lat="44.76968" lon="3.88237">
        <ele>1116.084</ele>
        <time>2011-06-01T06:20:34Z</time>
      </trkpt>
      <trkpt lat="44.76959" lon="3.88233">
        <ele>1115.45</ele>
        <time>2011-06-01T06:20:44Z</time>
      </trkpt>
      <trkpt lat="44.76944" lon="3.88241">
        <ele>1114.826</ele>
        <time>2011-06-01T06:20:54Z</time>
      </trkpt>
      <trkpt lat="44.76928" lon="3.88248">
        <ele>1113.997</ele>
        <time>2011-06-01T06:21:04Z</time>
      </trkpt>
      <trkpt lat="44.76914" lon="3.88251">
        <ele>1113.854</ele>
        <time>2011-06-01T06:21:14Z</time>
      </trkpt>
    </trkseg>
  </trk>
  <trk>
    <name><![CDATA[ACTIVE LOG082118]]></name>
    <trkseg>
      <trkpt lat="44.7691" lon="3.88252">
        <ele>1114.311</ele>
        <time>2011-06-01T06:21:16Z</time>
      </trkpt>
      <trkpt lat="44.76859" lon="3.88234">
        <ele>1113.608</ele>
        <time>2011-06-01T06:21:26Z</time>
      </trkpt>
      <trkpt lat="44.76843" lon="3.88251">
        <ele>1112.977</ele>
        <time>2011-06-01T06:21:36Z</time>
      </trkpt>
      <trkpt lat="44.76832" lon="3.88256">
        <ele>1112.337</ele>
        <time>2011-06-01T06:21:46Z</time>
      </trkpt>
      <trkpt lat="44.76821" lon="3.88256">
        <ele>1110.992</ele>
        <time>2011-06-01T06:21:56Z</time>
      </trkpt>
      <trkpt lat="44.76819" lon="3.88259">
        <ele>1111.257</ele>
        <time>2011-06-01T06:22:06Z</time>
      </trkpt>
      <trkpt lat="44.76813" lon="3.88263">
        <ele>1109.88</ele>
        <time>2011-06-01T06:22:16Z</time>
      </trkpt>
      <trkpt lat="44.76798" lon="3.88268">
        <ele>1109.246</ele>
        <time>2011-06-01T06:22:26Z</time>
      </trkpt>
      <trkpt lat="44.7679" lon="3.88286">
        <ele>1117.506</ele>
        <time>2011-06-01T06:22:36Z</time>
      </trkpt>
      <trkpt lat="44.76779" lon="3.88289">
        <ele>1122.933</ele>
        <time>2011-06-01T06:22:46Z</time>
      </trkpt>
      <trkpt lat="44.76768" lon="3.88297">
        <ele>1126.585</ele>
        <time>2011-06-01T06:22:56Z</time>
      </trkpt>
      <trkpt lat="44.76754" lon="3.88298">
        <ele>1129.696</ele>
        <time>2011-06-01T06:23:06Z</time>
      </trkpt>
      <trkpt lat="44.76743" lon="3.88305">
        <ele>1131.987</ele>
        <time>2011-06-01T06:23:16Z</time>
      </trkpt>
      <trkpt lat="44.76728" lon="3.8831">
        <ele>1132.685</ele>
        <time>2011-06-01T06:23:26Z</time>
      </trkpt>
      <trkpt lat="44.76719" lon="3.88323">
        <ele>1134.969</ele>
        <time>2011-06-01T06:23:36Z</time>
      </trkpt>
      <trkpt lat="44.7671" lon="3.88324">
        <ele>1133.752</ele>
        <time>2011-06-01T06:23:46Z</time>
      </trkpt>
      <trkpt lat="44.76705" lon="3.88313">
        <ele>1132.636</ele>
        <time>2011-06-01T06:23:56Z</time>
      </trkpt>
      <trkpt lat="44.76695" lon="3.88316">
        <ele>1133.586</ele>
        <time>2011-06-01T06:24:06Z</time>
      </trkpt>
      <trkpt lat="44.76675" lon="3.88315">
        <ele>1134.155</ele>
        <time>2011-06-01T06:24:16Z</time>
      </trkpt>
      <trkpt lat="44.7667" lon="3.88318">
        <ele>1133.641</ele>
        <time>2011-06-01T06:24:26Z</time>
      </trkpt>
      <trkpt lat="44.76661" lon="3.88326">
        <ele>1131.824</ele>
        <time>2011-06-01T06:24:36Z</time>
      </trkpt>
      <trkpt lat="44.76657" lon="3.88326">
        <ele>1131.839</ele>
        <time>2011-06-01T06:24:46Z</time>
      </trkpt>
      <trkpt lat="44.76649" lon="3.88332">
        <ele>1131.559</ele>
        <time>2011-06-01T06:24:56Z</time>
      </trkpt>
      <trkpt lat="44.76653" lon="3.88325">
        <ele>1131.824</ele>
        <time>2011-06-01T06:25:06Z</time>
      </trkpt>
      <trkpt lat="44.76652" lon="3.88324">
        <ele>1132.493</ele>
        <time>2011-06-01T06:25:16Z</time>
      </trkpt>
      <trkpt lat="44.76649" lon="3.88332">
        <ele>1132.425</ele>
        <time>2011-06-01T06:25:26Z</time>
      </trkpt>
      <trkpt lat="44.76641" lon="3.88343">
        <ele>1130.489</ele>
        <time>2011-06-01T06:25:36Z</time>
      </trkpt>
      <trkpt lat="44.76628" lon="3.88349">
        <ele>1128.869</ele>
        <time>2011-06-01T06:25:46Z</time>
      </trkpt>
      <trkpt lat="44.76616" lon="3.88356">
        <ele>1126.84</ele>
        <time>2011-06-01T06:25:56Z</time>
      </trkpt>
      <trkpt lat="44.76605" lon="3.88364">
        <ele>1125.723</ele>
        <time>2011-06-01T06:26:06Z</time>
      </trkpt>
      <trkpt lat="44.76595" lon="3.88371">
        <ele>1126.126</ele>
        <time>2011-06-01T06:26:16Z</time>
      </trkpt>
      <trkpt lat="44.76586" lon="3.88379">
        <ele>1124.653</ele>
        <time>2011-06-01T06:26:26Z</time>
      </trkpt>
      <trkpt lat="44.76576" lon="3.88386">
        <ele>1124.449</ele>
        <time>2011-06-01T06:26:36Z</time>
      </trkpt>
      <trkpt lat="44.76568" lon="3.88391">
        <ele>1124.464</ele>
        <time>2011-06-01T06:26:46Z</time>
      </trkpt>
      <trkpt lat="44.76557" lon="3.88391">
        <ele>1124.363</ele>
        <time>2011-06-01T06:26:56Z</time>
      </trkpt>
      <trkpt lat="44.76547" lon="3.88382">
        <ele>1124.183</ele>
        <time>2011-06-01T06:27:06Z</time>
      </trkpt>
      <trkpt lat="44.76536" lon="3.88371">
        <ele>1122.265</ele>
        <time>2011-06-01T06:27:16Z</time>
      </trkpt>
      <trkpt lat="44.76532" lon="3.88354">
        <ele>1122.166</ele>
        <time>2011-06-01T06:27:26Z</time>
      </trkpt>
      <trkpt lat="44.7653" lon="3.88335">
        <ele>1122.642</ele>
        <time>2011-06-01T06:27:36Z</time>
      </trkpt>
      <trkpt lat="44.76527" lon="3.8832">
        <ele>1122.143</ele>
        <time>2011-06-01T06:27:46Z</time>
      </trkpt>
      <trkpt lat="44.76521" lon="3.88306">
        <ele>1121.062</ele>
        <time>2011-06-01T06:27:56Z</time>
      </trkpt>
      <trkpt lat="44.76519" lon="3.88306">
        <ele>1121.262</ele>
        <time>2011-06-01T06:28:06Z</time>
      </trkpt>
      <trkpt lat="44.76515" lon="3.88288">
        <ele>1120.453</ele>
        <time>2011-06-01T06:28:16Z</time>
      </trkpt>
      <trkpt lat="44.76506" lon="3.88271">
        <ele>1120.436</ele>
        <time>2011-06-01T06:28:26Z</time>
      </trkpt>
      <trkpt lat="44.76499" lon="3.88257">
        <ele>1119.843</ele>
        <time>2011-06-01T06:28:36Z</time>
      </trkpt>
      <trkpt lat="44.76489" lon="3.88246">
        <ele>1117.845</ele>
        <time>2011-06-01T06:28:46Z</time>
      </trkpt>
      <trkpt lat="44.76477" lon="3.88238">
        <ele>1117.43</ele>
        <time>2011-06-01T06:28:56Z</time>
      </trkpt>
      <trkpt lat="44.76462" lon="3.88228">
        <ele>1116.067</ele>
        <time>2011-06-01T06:29:06Z</time>
      </trkpt>
      <trkpt lat="44.76449" lon="3.88221">
        <ele>1116.022</ele>
        <time>2011-06-01T06:29:16Z</time>
      </trkpt>
      <trkpt lat="44.76438" lon="3.88218">
        <ele>1114.474</ele>
        <time>2011-06-01T06:29:26Z</time>
      </trkpt>
      <trkpt lat="44.76424" lon="3.88213">
        <ele>1112.927</ele>
        <time>2011-06-01T06:29:36Z</time>
      </trkpt>
      <trkpt lat="44.76411" lon="3.88209">
        <ele>1113.568</ele>
        <time>2011-06-01T06:29:46Z</time>
      </trkpt>
      <trkpt lat="44.764" lon="3.88205">
        <ele>1111.048</ele>
        <time>2011-06-01T06:29:56Z</time>
      </trkpt>
      <trkpt lat="44.76386" lon="3.88204">
        <ele>1110.587</ele>
        <time>2011-06-01T06:30:06Z</time>
      </trkpt>
      <trkpt lat="44.76371" lon="3.88198">
        <ele>1110.198</ele>
        <time>2011-06-01T06:30:16Z</time>
      </trkpt>
      <trkpt lat="44.76361" lon="3.88195">
        <ele>1109.876</ele>
        <time>2011-06-01T06:30:26Z</time>
      </trkpt>
      <trkpt lat="44.76349" lon="3.88189">
        <ele>1107.796</ele>
        <time>2011-06-01T06:30:36Z</time>
      </trkpt>
      <trkpt lat="44.76335" lon="3.88184">
        <ele>1106.606</ele>
        <time>2011-06-01T06:30:46Z</time>
      </trkpt>
      <trkpt lat="44.7632" lon="3.88177">
        <ele>1105.472</ele>
        <time>2011-06-01T06:30:56Z</time>
      </trkpt>
      <trkpt lat="44.7631" lon="3.88171">
        <ele>1104.684</ele>
        <time>2011-06-01T06:31:06Z</time>
      </trkpt>
      <trkpt lat="44.76299" lon="3.88163">
        <ele>1103.772</ele>
        <time>2011-06-01T06:31:16Z</time>
      </trkpt>
      <trkpt lat="44.76288" lon="3.88156">
        <ele>1102.869</ele>
        <time>2011-06-01T06:31:26Z</time>
      </trkpt>
      <trkpt lat="44.76276" lon="3.88144">
        <ele>1101.214</ele>
        <time>2011-06-01T06:31:36Z</time>
      </trkpt>
      <trkpt lat="44.76265" lon="3.88132">
        <ele>1101.101</ele>
        <time>2011-06-01T06:31:46Z</time>
      </trkpt>
      <trkpt lat="44.76256" lon="3.88121">
        <ele>1100.051</ele>
        <time>2011-06-01T06:31:56Z</time>
      </trkpt>
      <trkpt lat="44.76247" lon="3.88109">
        <ele>1100.027</ele>
        <time>2011-06-01T06:32:06Z</time>
      </trkpt>
      <trkpt lat="44.76237" lon="3.88098">
        <ele>1098.384</ele>
        <time>2011-06-01T06:32:16Z</time>
      </trkpt>
      <trkpt lat="44.76227" lon="3.88087">
        <ele>1097.866</ele>
        <time>2011-06-01T06:32:26Z</time>
      </trkpt>
      <trkpt lat="44.76219" lon="3.88075">
        <ele>1097.35</ele>
        <time>2011-06-01T06:32:36Z</time>
      </trkpt>
      <trkpt lat="44.7621" lon="3.88066">
        <ele>1096.515</ele>
        <time>2011-06-01T06:32:46Z</time>
      </trkpt>
      <trkpt lat="44.76201" lon="3.88056">
        <ele>1095.615</ele>
        <time>2011-06-01T06:32:56Z</time>
      </trkpt>
      <trkpt lat="44.7619" lon="3.88049">
        <ele>1094.784</ele>
        <time>2011-06-01T06:33:06Z</time>
      </trkpt>
      <trkpt lat="44.76192" lon="3.88049">
        <ele>1094.189</ele>
        <time>2011-06-01T06:33:16Z</time>
      </trkpt>
      <trkpt lat="44.76203" lon="3.88057">
        <ele>1094.779</ele>
        <time>2011-06-01T06:33:26Z</time>
      </trkpt>
      <trkpt lat="44.7621" lon="3.88063">
        <ele>1095.484</ele>
        <time>2011-06-01T06:33:36Z</time>
      </trkpt>
      <trkpt lat="44.76217" lon="3.88073">
        <ele>1096.346</ele>
        <time>2011-06-01T06:33:46Z</time>
      </trkpt>
      <trkpt lat="44.76225" lon="3.8808">
        <ele>1097.854</ele>
        <time>2011-06-01T06:33:56Z</time>
      </trkpt>
      <trkpt lat="44.76233" lon="3.8809">
        <ele>1098.066</ele>
        <time>2011-06-01T06:34:06Z</time>
      </trkpt>
      <trkpt lat="44.76242" lon="3.88099">
        <ele>1098.648</ele>
        <time>2011-06-01T06:34:16Z</time>
      </trkpt>
      <trkpt lat="44.76251" lon="3.8811">
        <ele>1098.858</ele>
        <time>2011-06-01T06:34:26Z</time>
      </trkpt>
      <trkpt lat="44.76258" lon="3.88119">
        <ele>1098.819</ele>
        <time>2011-06-01T06:34:36Z</time>
      </trkpt>
      <trkpt lat="44.76267" lon="3.88129">
        <ele>1101.076</ele>
        <time>2011-06-01T06:34:46Z</time>
      </trkpt>
      <trkpt lat="44.76261" lon="3.88133">
        <ele>1099.771</ele>
        <time>2011-06-01T06:34:56Z</time>
      </trkpt>
      <trkpt lat="44.76254" lon="3.88121">
        <ele>1099.557</ele>
        <time>2011-06-01T06:35:06Z</time>
      </trkpt>
      <trkpt lat="44.76245" lon="3.88111">
        <ele>1098.429</ele>
        <time>2011-06-01T06:35:16Z</time>
      </trkpt>
      <trkpt lat="44.76236" lon="3.88099">
        <ele>1097.251</ele>
        <time>2011-06-01T06:35:26Z</time>
      </trkpt>
      <trkpt lat="44.76228" lon="3.88091">
        <ele>1096.852</ele>
        <time>2011-06-01T06:35:36Z</time>
      </trkpt>
      <trkpt lat="44.76217" lon="3.8808">
        <ele>1096.237</ele>
        <time>2011-06-01T06:35:46Z</time>
      </trkpt>
      <trkpt lat="44.76203" lon="3.88069">
        <ele>1094.168</ele>
        <time>2011-06-01T06:35:56Z</time>
      </trkpt>
      <trkpt lat="44.7619" lon="3.88064">
        <ele>1092.521</ele>
        <time>2011-06-01T06:36:06Z</time>
      </trkpt>
      <trkpt lat="44.76181" lon="3.88063">
        <ele>1092.11</ele>
        <time>2011-06-01T06:36:16Z</time>
      </trkpt>
      <trkpt lat="44.7617" lon="3.88062">
        <ele>1090.736</ele>
        <time>2011-06-01T06:36:26Z</time>
      </trkpt>
      <trkpt lat="44.76159" lon="3.88061">
        <ele>1089.953</ele>
        <time>2011-06-01T06:36:36Z</time>
      </trkpt>
      <trkpt lat="44.76144" lon="3.88062">
        <ele>1087.748</ele>
        <time>2011-06-01T06:36:46Z</time>
      </trkpt>
      <trkpt lat="44.76132" lon="3.88062">
        <ele>1086.588</ele>
        <time>2011-06-01T06:36:56Z</time>
      </trkpt>
      <trkpt lat="44.7612" lon="3.88061">
        <ele>1084.986</ele>
        <time>2011-06-01T06:37:06Z</time>
      </trkpt>
      <trkpt lat="44.76105" lon="3.88061">
        <ele>1083.769</ele>
        <time>2011-06-01T06:37:16Z</time>
      </trkpt>
      <trkpt lat="44.76093" lon="3.88057">
        <ele>1082.655</ele>
        <time>2011-06-01T06:37:26Z</time>
      </trkpt>
      <trkpt lat="44.76081" lon="3.88052">
        <ele>1081.697</ele>
        <time>2011-06-01T06:37:36Z</time>
      </trkpt>
      <trkpt lat="44.76069" lon="3.88051">
        <ele>1081.072</ele>
        <time>2011-06-01T06:37:46Z</time>
      </trkpt>
      <trkpt lat="44.76056" lon="3.88046">
        <ele>1079.713</ele>
        <time>2011-06-01T06:37:56Z</time>
      </trkpt>
      <trkpt lat="44.76043" lon="3.88038">
        <ele>1078.603</ele>
        <time>2011-06-01T06:38:06Z</time>
      </trkpt>
      <trkpt lat="44.76033" lon="3.88033">
        <ele>1077.899</ele>
        <time>2011-06-01T06:38:16Z</time>
      </trkpt>
      <trkpt lat="44.76023" lon="3.88025">
        <ele>1076.951</ele>
        <time>2011-06-01T06:38:26Z</time>
      </trkpt>
      <trkpt lat="44.76013" lon="3.88015">
        <ele>1075.723</ele>
        <time>2011-06-01T06:38:36Z</time>
      </trkpt>
      <trkpt lat="44.76003" lon="3.88002">
        <ele>1074.449</ele>
        <time>2011-06-01T06:38:46Z</time>
      </trkpt>
      <trkpt lat="44.75991" lon="3.87995">
        <ele>1073.045</ele>
        <time>2011-06-01T06:38:56Z</time>
      </trkpt>
      <trkpt lat="44.7598" lon="3.87994">
        <ele>1073.068</ele>
        <time>2011-06-01T06:39:06Z</time>
      </trkpt>
      <trkpt lat="44.75967" lon="3.87996">
        <ele>1073.192</ele>
        <time>2011-06-01T06:39:16Z</time>
      </trkpt>
      <trkpt lat="44.75954" lon="3.88">
        <ele>1072.707</ele>
        <time>2011-06-01T06:39:26Z</time>
      </trkpt>
      <trkpt lat="44.75941" lon="3.88008">
        <ele>1071.55</ele>
        <time>2011-06-01T06:39:36Z</time>
      </trkpt>
      <trkpt lat="44.75929" lon="3.88016">
        <ele>1071.327</ele>
        <time>2011-06-01T06:39:46Z</time>
      </trkpt>
      <trkpt lat="44.75917" lon="3.88025">
        <ele>1071.041</ele>
        <time>2011-06-01T06:39:56Z</time>
      </trkpt>
      <trkpt lat="44.75906" lon="3.88035">
        <ele>1071.284</ele>
        <time>2011-06-01T06:40:06Z</time>
      </trkpt>
      <trkpt lat="44.75894" lon="3.88042">
        <ele>1071.288</ele>
        <time>2011-06-01T06:40:16Z</time>
      </trkpt>
      <trkpt lat="44.75883" lon="3.88049">
        <ele>1071.442</ele>
        <time>2011-06-01T06:40:26Z</time>
      </trkpt>
      <trkpt lat="44.75873" lon="3.88058">
        <ele>1072.323</ele>
        <time>2011-06-01T06:40:36Z</time>
      </trkpt>
      <trkpt lat="44.75862" lon="3.88066">
        <ele>1072.631</ele>
        <time>2011-06-01T06:40:46Z</time>
      </trkpt>
      <trkpt lat="44.75852" lon="3.88074">
        <ele>1072.781</ele>
        <time>2011-06-01T06:40:56Z</time>
      </trkpt>
      <trkpt lat="44.7584" lon="3.8808">
        <ele>1072.985</ele>
        <time>2011-06-01T06:41:06Z</time>
      </trkpt>
      <trkpt lat="44.75831" lon="3.88089">
        <ele>1073.125</ele>
        <time>2011-06-01T06:41:16Z</time>
      </trkpt>
      <trkpt lat="44.7582" lon="3.88098">
        <ele>1073.175</ele>
        <time>2011-06-01T06:41:26Z</time>
      </trkpt>
      <trkpt lat="44.75811" lon="3.88107">
        <ele>1071.964</ele>
        <time>2011-06-01T06:41:36Z</time>
      </trkpt>
      <trkpt lat="44.75798" lon="3.88117">
        <ele>1070.828</ele>
        <time>2011-06-01T06:41:46Z</time>
      </trkpt>
      <trkpt lat="44.75788" lon="3.88125">
        <ele>1069.854</ele>
        <time>2011-06-01T06:41:56Z</time>
      </trkpt>
      <trkpt lat="44.75774" lon="3.88134">
        <ele>1069.449</ele>
        <time>2011-06-01T06:42:06Z</time>
      </trkpt>
      <trkpt lat="44.7576" lon="3.88138">
        <ele>1069.46</ele>
        <time>2011-06-01T06:42:16Z</time>
      </trkpt>
      <trkpt lat="44.75747" lon="3.88142">
        <ele>1069.534</ele>
        <time>2011-06-01T06:42:26Z</time>
      </trkpt>
      <trkpt lat="44.75736" lon="3.88146">
        <ele>1068.943</ele>
        <time>2011-06-01T06:42:36Z</time>
      </trkpt>
      <trkpt lat="44.75724" lon="3.8815">
        <ele>1068.452</ele>
        <time>2011-06-01T06:42:46Z</time>
      </trkpt>
      <trkpt lat="44.75714" lon="3.88154">
        <ele>1068.967</ele>
        <time>2011-06-01T06:42:56Z</time>
      </trkpt>
      <trkpt lat="44.75703" lon="3.8816">
        <ele>1068.205</ele>
        <time>2011-06-01T06:43:06Z</time>
      </trkpt>
      <trkpt lat="44.75693" lon="3.88165">
        <ele>1067.086</ele>
        <time>2011-06-01T06:43:16Z</time>
      </trkpt>
      <trkpt lat="44.75681" lon="3.88172">
        <ele>1066.182</ele>
        <time>2011-06-01T06:43:26Z</time>
      </trkpt>
      <trkpt lat="44.75669" lon="3.88177">
        <ele>1064.96</ele>
        <time>2011-06-01T06:43:36Z</time>
      </trkpt>
      <trkpt lat="44.75654" lon="3.88178">
        <ele>1064.404</ele>
        <time>2011-06-01T06:43:46Z</time>
      </trkpt>
      <trkpt lat="44.75641" lon="3.88179">
        <ele>1061.911</ele>
        <time>2011-06-01T06:43:56Z</time>
      </trkpt>
      <trkpt lat="44.75629" lon="3.88176">
        <ele>1060.877</ele>
        <time>2011-06-01T06:44:06Z</time>
      </trkpt>
      <trkpt lat="44.75617" lon="3.88174">
        <ele>1059.505</ele>
        <time>2011-06-01T06:44:16Z</time>
      </trkpt>
      <trkpt lat="44.75606" lon="3.88177">
        <ele>1058.755</ele>
        <time>2011-06-01T06:44:26Z</time>
      </trkpt>
      <trkpt lat="44.75594" lon="3.88171">
        <ele>1057.699</ele>
        <time>2011-06-01T06:44:36Z</time>
      </trkpt>
      <trkpt lat="44.75582" lon="3.88165">
        <ele>1057.266</ele>
        <time>2011-06-01T06:44:46Z</time>
      </trkpt>
      <trkpt lat="44.75569" lon="3.88151">
        <ele>1056.225</ele>
        <time>2011-06-01T06:44:56Z</time>
      </trkpt>
      <trkpt lat="44.75556" lon="3.88143">
        <ele>1055.671</ele>
        <time>2011-06-01T06:45:06Z</time>
      </trkpt>
      <trkpt lat="44.75542" lon="3.88138">
        <ele>1055.054</ele>
        <time>2011-06-01T06:45:16Z</time>
      </trkpt>
      <trkpt lat="44.75531" lon="3.88129">
        <ele>1054.245</ele>
        <time>2011-06-01T06:45:26Z</time>
      </trkpt>
      <trkpt lat="44.75524" lon="3.88119">
        <ele>1054.993</ele>
        <time>2011-06-01T06:45:36Z</time>
      </trkpt>
      <trkpt lat="44.75513" lon="3.88109">
        <ele>1051.824</ele>
        <time>2011-06-01T06:45:46Z</time>
      </trkpt>
      <trkpt lat="44.75502" lon="3.88099">
        <ele>1053.908</ele>
        <time>2011-06-01T06:45:56Z</time>
      </trkpt>
      <trkpt lat="44.75492" lon="3.88089">
        <ele>1051.477</ele>
        <time>2011-06-01T06:46:06Z</time>
      </trkpt>
      <trkpt lat="44.75482" lon="3.8808">
        <ele>1050.631</ele>
        <time>2011-06-01T06:46:16Z</time>
      </trkpt>
      <trkpt lat="44.75473" lon="3.8807">
        <ele>1050.337</ele>
        <time>2011-06-01T06:46:26Z</time>
      </trkpt>
      <trkpt lat="44.75461" lon="3.8806">
        <ele>1050.201</ele>
        <time>2011-06-01T06:46:36Z</time>
      </trkpt>
      <trkpt lat="44.75449" lon="3.88049">
        <ele>1049.918</ele>
        <time>2011-06-01T06:46:46Z</time>
      </trkpt>
      <trkpt lat="44.75437" lon="3.8804">
        <ele>1048.654</ele>
        <time>2011-06-01T06:46:56Z</time>
      </trkpt>
      <trkpt lat="44.75427" lon="3.88029">
        <ele>1048.37</ele>
        <time>2011-06-01T06:47:06Z</time>
      </trkpt>
      <trkpt lat="44.75416" lon="3.8802">
        <ele>1046.52</ele>
        <time>2011-06-01T06:47:16Z</time>
      </trkpt>
      <trkpt lat="44.75405" lon="3.88009">
        <ele>1045.784</ele>
        <time>2011-06-01T06:47:26Z</time>
      </trkpt>
      <trkpt lat="44.75398" lon="3.88002">
        <ele>1044.976</ele>
        <time>2011-06-01T06:47:36Z</time>
      </trkpt>
      <trkpt lat="44.75398" lon="3.88001">
        <ele>1045.629</ele>
        <time>2011-06-01T06:47:46Z</time>
      </trkpt>
      <trkpt lat="44.75398" lon="3.88001">
        <ele>1044.56</ele>
        <time>2011-06-01T06:47:56Z</time>
      </trkpt>
      <trkpt lat="44.75398" lon="3.88001">
        <ele>1044.245</ele>
        <time>2011-06-01T06:48:06Z</time>
      </trkpt>
      <trkpt lat="44.75401" lon="3.88003">
        <ele>1044.901</ele>
        <time>2011-06-01T06:48:16Z</time>
      </trkpt>
      <trkpt lat="44.754" lon="3.88003">
        <ele>1044.443</ele>
        <time>2011-06-01T06:48:26Z</time>
      </trkpt>
      <trkpt lat="44.754" lon="3.88002">
        <ele>1044.402</ele>
        <time>2011-06-01T06:48:36Z</time>
      </trkpt>
      <trkpt lat="44.754" lon="3.88002">
        <ele>1044.199</ele>
        <time>2011-06-01T06:48:46Z</time>
      </trkpt>
      <trkpt lat="44.754" lon="3.88002">
        <ele>1045.156</ele>
        <time>2011-06-01T06:48:56Z</time>
      </trkpt>
      <trkpt lat="44.754" lon="3.88002">
        <ele>1044.678</ele>
        <time>2011-06-01T06:49:06Z</time>
      </trkpt>
      <trkpt lat="44.754" lon="3.88002">
        <ele>1044.047</ele>
        <time>2011-06-01T06:49:16Z</time>
      </trkpt>
      <trkpt lat="44.75405" lon="3.88007">
        <ele>1045.139</ele>
        <time>2011-06-01T06:49:26Z</time>
      </trkpt>
      <trkpt lat="44.75413" lon="3.88015">
        <ele>1045.3</ele>
        <time>2011-06-01T06:49:36Z</time>
      </trkpt>
      <trkpt lat="44.75422" lon="3.88025">
        <ele>1045.972</ele>
        <time>2011-06-01T06:49:46Z</time>
      </trkpt>
      <trkpt lat="44.75427" lon="3.88031">
        <ele>1047.019</ele>
        <time>2011-06-01T06:49:56Z</time>
      </trkpt>
      <trkpt lat="44.75437" lon="3.88038">
        <ele>1047.343</ele>
        <time>2011-06-01T06:50:06Z</time>
      </trkpt>
      <trkpt lat="44.75445" lon="3.88046">
        <ele>1048.081</ele>
        <time>2011-06-01T06:50:16Z</time>
      </trkpt>
      <trkpt lat="44.75454" lon="3.88055">
        <ele>1048.586</ele>
        <time>2011-06-01T06:50:26Z</time>
      </trkpt>
      <trkpt lat="44.75464" lon="3.88065">
        <ele>1048.524</ele>
        <time>2011-06-01T06:50:36Z</time>
      </trkpt>
      <trkpt lat="44.75475" lon="3.88075">
        <ele>1048.326</ele>
        <time>2011-06-01T06:50:46Z</time>
      </trkpt>
      <trkpt lat="44.75486" lon="3.88084">
        <ele>1049.412</ele>
        <time>2011-06-01T06:50:56Z</time>
      </trkpt>
      <trkpt lat="44.75496" lon="3.88095">
        <ele>1049.938</ele>
        <time>2011-06-01T06:51:06Z</time>
      </trkpt>
      <trkpt lat="44.75507" lon="3.88105">
        <ele>1050.928</ele>
        <time>2011-06-01T06:51:16Z</time>
      </trkpt>
      <trkpt lat="44.75514" lon="3.8811">
        <ele>1051.483</ele>
        <time>2011-06-01T06:51:26Z</time>
      </trkpt>
      <trkpt lat="44.75525" lon="3.88119">
        <ele>1051.823</ele>
        <time>2011-06-01T06:51:36Z</time>
      </trkpt>
      <trkpt lat="44.75535" lon="3.88126">
        <ele>1052.479</ele>
        <time>2011-06-01T06:51:46Z</time>
      </trkpt>
      <trkpt lat="44.75544" lon="3.88136">
        <ele>1052.607</ele>
        <time>2011-06-01T06:51:56Z</time>
      </trkpt>
      <trkpt lat="44.75554" lon="3.88141">
        <ele>1053.392</ele>
        <time>2011-06-01T06:52:06Z</time>
      </trkpt>
      <trkpt lat="44.75566" lon="3.88149">
        <ele>1053.45</ele>
        <time>2011-06-01T06:52:16Z</time>
      </trkpt>
      <trkpt lat="44.75574" lon="3.88159">
        <ele>1054.029</ele>
        <time>2011-06-01T06:52:26Z</time>
      </trkpt>
      <trkpt lat="44.75579" lon="3.88172">
        <ele>1055.576</ele>
        <time>2011-06-01T06:52:36Z</time>
      </trkpt>
      <trkpt lat="44.75587" lon="3.88174">
        <ele>1055.976</ele>
        <time>2011-06-01T06:52:46Z</time>
      </trkpt>
      <trkpt lat="44.75598" lon="3.88176">
        <ele>1056.352</ele>
        <time>2011-06-01T06:52:56Z</time>
      </trkpt>
      <trkpt lat="44.75592" lon="3.88182">
        <ele>1055.088</ele>
        <time>2011-06-01T06:53:06Z</time>
      </trkpt>
      <trkpt lat="44.75585" lon="3.88181">
        <ele>1053.397</ele>
        <time>2011-06-01T06:53:16Z</time>
      </trkpt>
      <trkpt lat="44.75572" lon="3.88184">
        <ele>1051.383</ele>
        <time>2011-06-01T06:53:26Z</time>
      </trkpt>
      <trkpt lat="44.7556" lon="3.88186">
        <ele>1049.225</ele>
        <time>2011-06-01T06:53:36Z</time>
      </trkpt>
      <trkpt lat="44.75554" lon="3.88188">
        <ele>1047.107</ele>
        <time>2011-06-01T06:53:46Z</time>
      </trkpt>
      <trkpt lat="44.75542" lon="3.8819">
        <ele>1044.511</ele>
        <time>2011-06-01T06:53:56Z</time>
      </trkpt>
      <trkpt lat="44.75532" lon="3.8819">
        <ele>1043.014</ele>
        <time>2011-06-01T06:54:06Z</time>
      </trkpt>
      <trkpt lat="44.75522" lon="3.88186">
        <ele>1040.301</ele>
        <time>2011-06-01T06:54:16Z</time>
      </trkpt>
      <trkpt lat="44.75513" lon="3.88192">
        <ele>1037.469</ele>
        <time>2011-06-01T06:54:26Z</time>
      </trkpt>
      <trkpt lat="44.75502" lon="3.88192">
        <ele>1035.438</ele>
        <time>2011-06-01T06:54:36Z</time>
      </trkpt>
      <trkpt lat="44.75493" lon="3.88188">
        <ele>1033.665</ele>
        <time>2011-06-01T06:54:46Z</time>
      </trkpt>
      <trkpt lat="44.75481" lon="3.88185">
        <ele>1031.324</ele>
        <time>2011-06-01T06:54:56Z</time>
      </trkpt>
      <trkpt lat="44.75477" lon="3.88184">
        <ele>1030.083</ele>
        <time>2011-06-01T06:55:06Z</time>
      </trkpt>
      <trkpt lat="44.75467" lon="3.88189">
        <ele>1028.89</ele>
        <time>2011-06-01T06:55:16Z</time>
      </trkpt>
      <trkpt lat="44.75458" lon="3.88193">
        <ele>1026.14</ele>
        <time>2011-06-01T06:55:26Z</time>
      </trkpt>
      <trkpt lat="44.75444" lon="3.88199">
        <ele>1026.276</ele>
        <time>2011-06-01T06:55:36Z</time>
      </trkpt>
      <trkpt lat="44.75433" lon="3.88203">
        <ele>1026.708</ele>
        <time>2011-06-01T06:55:46Z</time>
      </trkpt>
      <trkpt lat="44.75421" lon="3.88203">
        <ele>1026.314</ele>
        <time>2011-06-01T06:55:56Z</time>
      </trkpt>
      <trkpt lat="44.75408" lon="3.88203">
        <ele>1025.797</ele>
        <time>2011-06-01T06:56:06Z</time>
      </trkpt>
      <trkpt lat="44.75398" lon="3.88198">
        <ele>1026.193</ele>
        <time>2011-06-01T06:56:16Z</time>
      </trkpt>
      <trkpt lat="44.75387" lon="3.88193">
        <ele>1026.864</ele>
        <time>2011-06-01T06:56:26Z</time>
      </trkpt>
      <trkpt lat="44.75377" lon="3.88187">
        <ele>1029.105</ele>
        <time>2011-06-01T06:56:36Z</time>
      </trkpt>
      <trkpt lat="44.75367" lon="3.88183">
        <ele>1029.921</ele>
        <time>2011-06-01T06:56:46Z</time>
      </trkpt>
      <trkpt lat="44.75356" lon="3.88186">
        <ele>1030.782</ele>
        <time>2011-06-01T06:56:56Z</time>
      </trkpt>
      <trkpt lat="44.75345" lon="3.88191">
        <ele>1029.767</ele>
        <time>2011-06-01T06:57:06Z</time>
      </trkpt>
      <trkpt lat="44.75333" lon="3.88193">
        <ele>1030.781</ele>
        <time>2011-06-01T06:57:16Z</time>
      </trkpt>
      <trkpt lat="44.75322" lon="3.88194">
        <ele>1030.583</ele>
        <time>2011-06-01T06:57:26Z</time>
      </trkpt>
      <trkpt lat="44.7531" lon="3.88189">
        <ele>1031.277</ele>
        <time>2011-06-01T06:57:36Z</time>
      </trkpt>
      <trkpt lat="44.75297" lon="3.8819">
        <ele>1032.709</ele>
        <time>2011-06-01T06:57:46Z</time>
      </trkpt>
      <trkpt lat="44.75286" lon="3.88191">
        <ele>1033.402</ele>
        <time>2011-06-01T06:57:56Z</time>
      </trkpt>
      <trkpt lat="44.75275" lon="3.8819">
        <ele>1033.184</ele>
        <time>2011-06-01T06:58:06Z</time>
      </trkpt>
      <trkpt lat="44.75265" lon="3.8819">
        <ele>1033.59</ele>
        <time>2011-06-01T06:58:16Z</time>
      </trkpt>
      <trkpt lat="44.75257" lon="3.88194">
        <ele>1034.935</ele>
        <time>2011-06-01T06:58:26Z</time>
      </trkpt>
      <trkpt lat="44.75255" lon="3.88197">
        <ele>1035.113</ele>
        <time>2011-06-01T06:58:36Z</time>
      </trkpt>
      <trkpt lat="44.75256" lon="3.88197">
        <ele>1035.38</ele>
        <time>2011-06-01T06:58:46Z</time>
      </trkpt>
      <trkpt lat="44.75264" lon="3.88191">
        <ele>1032.786</ele>
        <time>2011-06-01T06:58:56Z</time>
      </trkpt>
      <trkpt lat="44.75272" lon="3.88183">
        <ele>1032.33</ele>
        <time>2011-06-01T06:59:06Z</time>
      </trkpt>
      <trkpt lat="44.75279" lon="3.8817">
        <ele>1030.714</ele>
        <time>2011-06-01T06:59:16Z</time>
      </trkpt>
      <trkpt lat="44.75285" lon="3.88157">
        <ele>1028.351</ele>
        <time>2011-06-01T06:59:26Z</time>
      </trkpt>
      <trkpt lat="44.7529" lon="3.88138">
        <ele>1026.252</ele>
        <time>2011-06-01T06:59:36Z</time>
      </trkpt>
      <trkpt lat="44.75291" lon="3.88122">
        <ele>1026.807</ele>
        <time>2011-06-01T06:59:46Z</time>
      </trkpt>
      <trkpt lat="44.75283" lon="3.8811">
        <ele>1026.83</ele>
        <time>2011-06-01T06:59:56Z</time>
      </trkpt>
      <trkpt lat="44.75274" lon="3.88102">
        <ele>1027.754</ele>
        <time>2011-06-01T07:00:06Z</time>
      </trkpt>
      <trkpt lat="44.75267" lon="3.88088">
        <ele>1028.409</ele>
        <time>2011-06-01T07:00:16Z</time>
      </trkpt>
      <trkpt lat="44.75267" lon="3.88072">
        <ele>1029.362</ele>
        <time>2011-06-01T07:00:26Z</time>
      </trkpt>
      <trkpt lat="44.75262" lon="3.88059">
        <ele>1030.531</ele>
        <time>2011-06-01T07:00:36Z</time>
      </trkpt>
      <trkpt lat="44.75252" lon="3.88052">
        <ele>1031.262</ele>
        <time>2011-06-01T07:00:46Z</time>
      </trkpt>
      <trkpt lat="44.7524" lon="3.88047">
        <ele>1032.031</ele>
        <time>2011-06-01T07:00:56Z</time>
      </trkpt>
      <trkpt lat="44.75228" lon="3.8805">
        <ele>1030.676</ele>
        <time>2011-06-01T07:01:06Z</time>
      </trkpt>
      <trkpt lat="44.75218" lon="3.8805">
        <ele>1030.817</ele>
        <time>2011-06-01T07:01:16Z</time>
      </trkpt>
      <trkpt lat="44.75208" lon="3.88041">
        <ele>1028.192</ele>
        <time>2011-06-01T07:01:26Z</time>
      </trkpt>
      <trkpt lat="44.75199" lon="3.88041">
        <ele>1025.965</ele>
        <time>2011-06-01T07:01:36Z</time>
      </trkpt>
      <trkpt lat="44.75189" lon="3.88043">
        <ele>1025.36</ele>
        <time>2011-06-01T07:01:46Z</time>
      </trkpt>
      <trkpt lat="44.75179" lon="3.88042">
        <ele>1023.395</ele>
        <time>2011-06-01T07:01:56Z</time>
      </trkpt>
      <trkpt lat="44.75169" lon="3.88039">
        <ele>1020.776</ele>
        <time>2011-06-01T07:02:06Z</time>
      </trkpt>
      <trkpt lat="44.75169" lon="3.88035">
        <ele>1022.434</ele>
        <time>2011-06-01T07:02:16Z</time>
      </trkpt>
      <trkpt lat="44.75166" lon="3.88033">
        <ele>1021.683</ele>
        <time>2011-06-01T07:02:26Z</time>
      </trkpt>
      <trkpt lat="44.75154" lon="3.88026">
        <ele>1022.846</ele>
        <time>2011-06-01T07:02:36Z</time>
      </trkpt>
      <trkpt lat="44.75143" lon="3.88023">
        <ele>1022.024</ele>
        <time>2011-06-01T07:02:46Z</time>
      </trkpt>
      <trkpt lat="44.75131" lon="3.88022">
        <ele>1022.335</ele>
        <time>2011-06-01T07:02:56Z</time>
      </trkpt>
      <trkpt lat="44.75119" lon="3.88022">
        <ele>1021.386</ele>
        <time>2011-06-01T07:03:06Z</time>
      </trkpt>
      <trkpt lat="44.75106" lon="3.88018">
        <ele>1021.111</ele>
        <time>2011-06-01T07:03:16Z</time>
      </trkpt>
      <trkpt lat="44.75095" lon="3.88018">
        <ele>1020.588</ele>
        <time>2011-06-01T07:03:26Z</time>
      </trkpt>
      <trkpt lat="44.75083" lon="3.88018">
        <ele>1020.599</ele>
        <time>2011-06-01T07:03:36Z</time>
      </trkpt>
      <trkpt lat="44.75072" lon="3.88016">
        <ele>1020.047</ele>
        <time>2011-06-01T07:03:46Z</time>
      </trkpt>
      <trkpt lat="44.75059" lon="3.88015">
        <ele>1019.307</ele>
        <time>2011-06-01T07:03:56Z</time>
      </trkpt>
      <trkpt lat="44.75047" lon="3.88011">
        <ele>1019.933</ele>
        <time>2011-06-01T07:04:06Z</time>
      </trkpt>
      <trkpt lat="44.75037" lon="3.88009">
        <ele>1018.972</ele>
        <time>2011-06-01T07:04:16Z</time>
      </trkpt>
      <trkpt lat="44.75036" lon="3.8801">
        <ele>1019.177</ele>
        <time>2011-06-01T07:04:26Z</time>
      </trkpt>
      <trkpt lat="44.75036" lon="3.88009">
        <ele>1019.788</ele>
        <time>2011-06-01T07:04:36Z</time>
      </trkpt>
      <trkpt lat="44.75036" lon="3.88009">
        <ele>1018.214</ele>
        <time>2011-06-01T07:04:46Z</time>
      </trkpt>
      <trkpt lat="44.75036" lon="3.88009">
        <ele>1020.284</ele>
        <time>2011-06-01T07:04:56Z</time>
      </trkpt>
      <trkpt lat="44.75034" lon="3.88008">
        <ele>1019.82</ele>
        <time>2011-06-01T07:05:06Z</time>
      </trkpt>
      <trkpt lat="44.75034" lon="3.88008">
        <ele>1019.615</ele>
        <time>2011-06-01T07:05:16Z</time>
      </trkpt>
      <trkpt lat="44.75034" lon="3.88008">
        <ele>1018.912</ele>
        <time>2011-06-01T07:05:26Z</time>
      </trkpt>
      <trkpt lat="44.75034" lon="3.88008">
        <ele>1018.927</ele>
        <time>2011-06-01T07:05:36Z</time>
      </trkpt>
      <trkpt lat="44.75027" lon="3.88007">
        <ele>1019.186</ele>
        <time>2011-06-01T07:05:46Z</time>
      </trkpt>
      <trkpt lat="44.75019" lon="3.88009">
        <ele>1020.334</ele>
        <time>2011-06-01T07:05:56Z</time>
      </trkpt>
      <trkpt lat="44.75011" lon="3.88015">
        <ele>1019.481</ele>
        <time>2011-06-01T07:06:06Z</time>
      </trkpt>
      <trkpt lat="44.75004" lon="3.88021">
        <ele>1019.465</ele>
        <time>2011-06-01T07:06:16Z</time>
      </trkpt>
      <trkpt lat="44.74997" lon="3.88031">
        <ele>1019.855</ele>
        <time>2011-06-01T07:06:26Z</time>
      </trkpt>
      <trkpt lat="44.74989" lon="3.88043">
        <ele>1020.303</ele>
        <time>2011-06-01T07:06:36Z</time>
      </trkpt>
      <trkpt lat="44.74984" lon="3.88054">
        <ele>1021.891</ele>
        <time>2011-06-01T07:06:46Z</time>
      </trkpt>
      <trkpt lat="44.74977" lon="3.88068">
        <ele>1021.536</ele>
        <time>2011-06-01T07:06:56Z</time>
      </trkpt>
      <trkpt lat="44.74971" lon="3.88077">
        <ele>1021.918</ele>
        <time>2011-06-01T07:07:06Z</time>
      </trkpt>
      <trkpt lat="44.74966" lon="3.88093">
        <ele>1021.693</ele>
        <time>2011-06-01T07:07:16Z</time>
      </trkpt>
      <trkpt lat="44.74962" lon="3.88107">
        <ele>1021.415</ele>
        <time>2011-06-01T07:07:26Z</time>
      </trkpt>
      <trkpt lat="44.74958" lon="3.88123">
        <ele>1021.91</ele>
        <time>2011-06-01T07:07:36Z</time>
      </trkpt>
      <trkpt lat="44.74953" lon="3.8814">
        <ele>1022.353</ele>
        <time>2011-06-01T07:07:46Z</time>
      </trkpt>
      <trkpt lat="44.74948" lon="3.88154">
        <ele>1022.612</ele>
        <time>2011-06-01T07:07:56Z</time>
      </trkpt>
      <trkpt lat="44.74944" lon="3.8817">
        <ele>1022.445</ele>
        <time>2011-06-01T07:08:06Z</time>
      </trkpt>
      <trkpt lat="44.74939" lon="3.88184">
        <ele>1022.673</ele>
        <time>2011-06-01T07:08:16Z</time>
      </trkpt>
      <trkpt lat="44.74932" lon="3.88196">
        <ele>1022.065</ele>
        <time>2011-06-01T07:08:26Z</time>
      </trkpt>
      <trkpt lat="44.74927" lon="3.88209">
        <ele>1021.536</ele>
        <time>2011-06-01T07:08:36Z</time>
      </trkpt>
      <trkpt lat="44.74924" lon="3.88226">
        <ele>1022.566</ele>
        <time>2011-06-01T07:08:46Z</time>
      </trkpt>
      <trkpt lat="44.74922" lon="3.88241">
        <ele>1023.186</ele>
        <time>2011-06-01T07:08:56Z</time>
      </trkpt>
      <trkpt lat="44.74922" lon="3.88256">
        <ele>1022.648</ele>
        <time>2011-06-01T07:09:06Z</time>
      </trkpt>
      <trkpt lat="44.7492" lon="3.88273">
        <ele>1025.001</ele>
        <time>2011-06-01T07:09:16Z</time>
      </trkpt>
      <trkpt lat="44.74916" lon="3.8829">
        <ele>1023.098</ele>
        <time>2011-06-01T07:09:26Z</time>
      </trkpt>
      <trkpt lat="44.74907" lon="3.883">
        <ele>1023.178</ele>
        <time>2011-06-01T07:09:36Z</time>
      </trkpt>
      <trkpt lat="44.74896" lon="3.88305">
        <ele>1024.207</ele>
        <time>2011-06-01T07:09:46Z</time>
      </trkpt>
      <trkpt lat="44.74889" lon="3.88303">
        <ele>1024.63</ele>
        <time>2011-06-01T07:09:56Z</time>
      </trkpt>
      <trkpt lat="44.74879" lon="3.88296">
        <ele>1025.595</ele>
        <time>2011-06-01T07:10:06Z</time>
      </trkpt>
      <trkpt lat="44.74869" lon="3.88291">
        <ele>1025.706</ele>
        <time>2011-06-01T07:10:16Z</time>
      </trkpt>
      <trkpt lat="44.74859" lon="3.88279">
        <ele>1025.857</ele>
        <time>2011-06-01T07:10:26Z</time>
      </trkpt>
      <trkpt lat="44.74852" lon="3.88269">
        <ele>1026.729</ele>
        <time>2011-06-01T07:10:36Z</time>
      </trkpt>
      <trkpt lat="44.74844" lon="3.88259">
        <ele>1027.329</ele>
        <time>2011-06-01T07:10:46Z</time>
      </trkpt>
      <trkpt lat="44.74837" lon="3.8825">
        <ele>1028.25</ele>
        <time>2011-06-01T07:10:56Z</time>
      </trkpt>
      <trkpt lat="44.74827" lon="3.88241">
        <ele>1028.146</ele>
        <time>2011-06-01T07:11:06Z</time>
      </trkpt>
      <trkpt lat="44.74819" lon="3.88227">
        <ele>1029.442</ele>
        <time>2011-06-01T07:11:16Z</time>
      </trkpt>
      <trkpt lat="44.74816" lon="3.88216">
        <ele>1029.752</ele>
        <time>2011-06-01T07:11:26Z</time>
      </trkpt>
      <trkpt lat="44.74815" lon="3.88199">
        <ele>1031.386</ele>
        <time>2011-06-01T07:11:36Z</time>
      </trkpt>
      <trkpt lat="44.74817" lon="3.88185">
        <ele>1031.776</ele>
        <time>2011-06-01T07:11:46Z</time>
      </trkpt>
      <trkpt lat="44.74819" lon="3.88172">
        <ele>1031.118</ele>
        <time>2011-06-01T07:11:56Z</time>
      </trkpt>
      <trkpt lat="44.74821" lon="3.88157">
        <ele>1033.01</ele>
        <time>2011-06-01T07:12:06Z</time>
      </trkpt>
      <trkpt lat="44.7482" lon="3.88141">
        <ele>1033.719</ele>
        <time>2011-06-01T07:12:16Z</time>
      </trkpt>
      <trkpt lat="44.74815" lon="3.88128">
        <ele>1034.344</ele>
        <time>2011-06-01T07:12:26Z</time>
      </trkpt>
      <trkpt lat="44.74806" lon="3.88117">
        <ele>1035.337</ele>
        <time>2011-06-01T07:12:36Z</time>
      </trkpt>
      <trkpt lat="44.74797" lon="3.88112">
        <ele>1037.012</ele>
        <time>2011-06-01T07:12:46Z</time>
      </trkpt>
      <trkpt lat="44.74785" lon="3.88109">
        <ele>1037.994</ele>
        <time>2011-06-01T07:12:56Z</time>
      </trkpt>
      <trkpt lat="44.74775" lon="3.88109">
        <ele>1037.883</ele>
        <time>2011-06-01T07:13:06Z</time>
      </trkpt>
      <trkpt lat="44.74766" lon="3.8811">
        <ele>1038.141</ele>
        <time>2011-06-01T07:13:16Z</time>
      </trkpt>
      <trkpt lat="44.74752" lon="3.88112">
        <ele>1038.246</ele>
        <time>2011-06-01T07:13:26Z</time>
      </trkpt>
      <trkpt lat="44.74741" lon="3.88111">
        <ele>1038.314</ele>
        <time>2011-06-01T07:13:36Z</time>
      </trkpt>
      <trkpt lat="44.74729" lon="3.88107">
        <ele>1038.533</ele>
        <time>2011-06-01T07:13:46Z</time>
      </trkpt>
      <trkpt lat="44.7472" lon="3.88105">
        <ele>1039.836</ele>
        <time>2011-06-01T07:13:56Z</time>
      </trkpt>
      <trkpt lat="44.74715" lon="3.88101">
        <ele>1040.771</ele>
        <time>2011-06-01T07:14:06Z</time>
      </trkpt>
      <trkpt lat="44.74714" lon="3.88101">
        <ele>1040.242</ele>
        <time>2011-06-01T07:14:16Z</time>
      </trkpt>
      <trkpt lat="44.74714" lon="3.88101">
        <ele>1040</ele>
        <time>2011-06-01T07:14:26Z</time>
      </trkpt>
      <trkpt lat="44.74714" lon="3.88101">
        <ele>1040.635</ele>
        <time>2011-06-01T07:14:36Z</time>
      </trkpt>
      <trkpt lat="44.74714" lon="3.88101">
        <ele>1040.767</ele>
        <time>2011-06-01T07:14:46Z</time>
      </trkpt>
      <trkpt lat="44.74714" lon="3.88101">
        <ele>1039.639</ele>
        <time>2011-06-01T07:14:56Z</time>
      </trkpt>
      <trkpt lat="44.74714" lon="3.88101">
        <ele>1040.71</ele>
        <time>2011-06-01T07:15:06Z</time>
      </trkpt>
      <trkpt lat="44.74714" lon="3.88101">
        <ele>1041.17</ele>
        <time>2011-06-01T07:15:16Z</time>
      </trkpt>
      <trkpt lat="44.74714" lon="3.88101">
        <ele>1040.258</ele>
        <time>2011-06-01T07:15:26Z</time>
      </trkpt>
      <trkpt lat="44.74714" lon="3.88101">
        <ele>1040.475</ele>
        <time>2011-06-01T07:15:36Z</time>
      </trkpt>
      <trkpt lat="44.74714" lon="3.88101">
        <ele>1040.711</ele>
        <time>2011-06-01T07:15:46Z</time>
      </trkpt>
      <trkpt lat="44.74714" lon="3.88101">
        <ele>1040.92</ele>
        <time>2011-06-01T07:15:56Z</time>
      </trkpt>
      <trkpt lat="44.74714" lon="3.88101">
        <ele>1040.82</ele>
        <time>2011-06-01T07:16:06Z</time>
      </trkpt>
      <trkpt lat="44.74714" lon="3.88101">
        <ele>1041.864</ele>
        <time>2011-06-01T07:16:16Z</time>
      </trkpt>
      <trkpt lat="44.74714" lon="3.88101">
        <ele>1040.932</ele>
        <time>2011-06-01T07:16:26Z</time>
      </trkpt>
      <trkpt lat="44.74714" lon="3.88101">
        <ele>1040.668</ele>
        <time>2011-06-01T07:16:36Z</time>
      </trkpt>
      <trkpt lat="44.74714" lon="3.88101">
        <ele>1041.73</ele>
        <time>2011-06-01T07:16:46Z</time>
      </trkpt>
      <trkpt lat="44.74714" lon="3.88101">
        <ele>1040.938</ele>
        <time>2011-06-01T07:16:56Z</time>
      </trkpt>
      <trkpt lat="44.74714" lon="3.88101">
        <ele>1040.58</ele>
        <time>2011-06-01T07:17:06Z</time>
      </trkpt>
      <trkpt lat="44.74714" lon="3.88101">
        <ele>1041.596</ele>
        <time>2011-06-01T07:17:16Z</time>
      </trkpt>
      <trkpt lat="44.74714" lon="3.88101">
        <ele>1042.501</ele>
        <time>2011-06-01T07:17:26Z</time>
      </trkpt>
      <trkpt lat="44.74713" lon="3.88101">
        <ele>1042.234</ele>
        <time>2011-06-01T07:17:36Z</time>
      </trkpt>
      <trkpt lat="44.74706" lon="3.88098">
        <ele>1041.847</ele>
        <time>2011-06-01T07:17:46Z</time>
      </trkpt>
      <trkpt lat="44.74697" lon="3.88093">
        <ele>1042.498</ele>
        <time>2011-06-01T07:17:56Z</time>
      </trkpt>
      <trkpt lat="44.7469" lon="3.88089">
        <ele>1043.253</ele>
        <time>2011-06-01T07:18:06Z</time>
      </trkpt>
      <trkpt lat="44.7468" lon="3.88086">
        <ele>1043.464</ele>
        <time>2011-06-01T07:18:16Z</time>
      </trkpt>
      <trkpt lat="44.74669" lon="3.88085">
        <ele>1043.149</ele>
        <time>2011-06-01T07:18:26Z</time>
      </trkpt>
      <trkpt lat="44.74659" lon="3.88085">
        <ele>1044.661</ele>
        <time>2011-06-01T07:18:36Z</time>
      </trkpt>
      <trkpt lat="44.74652" lon="3.88084">
        <ele>1045.561</ele>
        <time>2011-06-01T07:18:46Z</time>
      </trkpt>
      <trkpt lat="44.74644" lon="3.88083">
        <ele>1045.938</ele>
        <time>2011-06-01T07:18:56Z</time>
      </trkpt>
      <trkpt lat="44.74642" lon="3.88083">
        <ele>1046.665</ele>
        <time>2011-06-01T07:19:06Z</time>
      </trkpt>
      <trkpt lat="44.74643" lon="3.88083">
        <ele>1046.445</ele>
        <time>2011-06-01T07:19:16Z</time>
      </trkpt>
      <trkpt lat="44.74643" lon="3.88082">
        <ele>1046.667</ele>
        <time>2011-06-01T07:19:26Z</time>
      </trkpt>
      <trkpt lat="44.74641" lon="3.88081">
        <ele>1046.915</ele>
        <time>2011-06-01T07:19:36Z</time>
      </trkpt>
      <trkpt lat="44.74636" lon="3.88086">
        <ele>1047.527</ele>
        <time>2011-06-01T07:19:46Z</time>
      </trkpt>
      <trkpt lat="44.74634" lon="3.88086">
        <ele>1046.247</ele>
        <time>2011-06-01T07:19:56Z</time>
      </trkpt>
      <trkpt lat="44.74627" lon="3.8809">
        <ele>1047.089</ele>
        <time>2011-06-01T07:20:06Z</time>
      </trkpt>
      <trkpt lat="44.74621" lon="3.88093">
        <ele>1047.711</ele>
        <time>2011-06-01T07:20:16Z</time>
      </trkpt>
      <trkpt lat="44.74614" lon="3.881">
        <ele>1047.569</ele>
        <time>2011-06-01T07:20:26Z</time>
      </trkpt>
      <trkpt lat="44.74605" lon="3.88107">
        <ele>1047.182</ele>
        <time>2011-06-01T07:20:36Z</time>
      </trkpt>
      <trkpt lat="44.74596" lon="3.88114">
        <ele>1047.436</ele>
        <time>2011-06-01T07:20:46Z</time>
      </trkpt>
      <trkpt lat="44.74586" lon="3.88121">
        <ele>1047.721</ele>
        <time>2011-06-01T07:20:56Z</time>
      </trkpt>
      <trkpt lat="44.74576" lon="3.88125">
        <ele>1049.305</ele>
        <time>2011-06-01T07:21:06Z</time>
      </trkpt>
      <trkpt lat="44.74567" lon="3.8813">
        <ele>1048.478</ele>
        <time>2011-06-01T07:21:16Z</time>
      </trkpt>
      <trkpt lat="44.74558" lon="3.8814">
        <ele>1050.341</ele>
        <time>2011-06-01T07:21:26Z</time>
      </trkpt>
      <trkpt lat="44.74549" lon="3.88148">
        <ele>1050.527</ele>
        <time>2011-06-01T07:21:36Z</time>
      </trkpt>
      <trkpt lat="44.7454" lon="3.88155">
        <ele>1050.797</ele>
        <time>2011-06-01T07:21:46Z</time>
      </trkpt>
      <trkpt lat="44.7453" lon="3.88163">
        <ele>1050.873</ele>
        <time>2011-06-01T07:21:56Z</time>
      </trkpt>
      <trkpt lat="44.74521" lon="3.88167">
        <ele>1051.438</ele>
        <time>2011-06-01T07:22:06Z</time>
      </trkpt>
      <trkpt lat="44.74511" lon="3.88173">
        <ele>1052.396</ele>
        <time>2011-06-01T07:22:16Z</time>
      </trkpt>
      <trkpt lat="44.74501" lon="3.88179">
        <ele>1052.185</ele>
        <time>2011-06-01T07:22:26Z</time>
      </trkpt>
      <trkpt lat="44.74493" lon="3.88186">
        <ele>1051.935</ele>
        <time>2011-06-01T07:22:36Z</time>
      </trkpt>
      <trkpt lat="44.74483" lon="3.88194">
        <ele>1052.078</ele>
        <time>2011-06-01T07:22:46Z</time>
      </trkpt>
      <trkpt lat="44.74473" lon="3.88201">
        <ele>1052.445</ele>
        <time>2011-06-01T07:22:56Z</time>
      </trkpt>
      <trkpt lat="44.74464" lon="3.88208">
        <ele>1053.621</ele>
        <time>2011-06-01T07:23:06Z</time>
      </trkpt>
      <trkpt lat="44.74455" lon="3.88214">
        <ele>1054.771</ele>
        <time>2011-06-01T07:23:16Z</time>
      </trkpt>
      <trkpt lat="44.74444" lon="3.88221">
        <ele>1054.555</ele>
        <time>2011-06-01T07:23:26Z</time>
      </trkpt>
      <trkpt lat="44.74436" lon="3.88227">
        <ele>1055.113</ele>
        <time>2011-06-01T07:23:36Z</time>
      </trkpt>
      <trkpt lat="44.74425" lon="3.88235">
        <ele>1055.555</ele>
        <time>2011-06-01T07:23:46Z</time>
      </trkpt>
      <trkpt lat="44.74413" lon="3.88241">
        <ele>1057.606</ele>
        <time>2011-06-01T07:23:56Z</time>
      </trkpt>
      <trkpt lat="44.74404" lon="3.88252">
        <ele>1056.441</ele>
        <time>2011-06-01T07:24:06Z</time>
      </trkpt>
      <trkpt lat="44.74394" lon="3.88259">
        <ele>1056.924</ele>
        <time>2011-06-01T07:24:16Z</time>
      </trkpt>
      <trkpt lat="44.74386" lon="3.88269">
        <ele>1057.388</ele>
        <time>2011-06-01T07:24:26Z</time>
      </trkpt>
      <trkpt lat="44.74376" lon="3.8828">
        <ele>1058.615</ele>
        <time>2011-06-01T07:24:36Z</time>
      </trkpt>
      <trkpt lat="44.74365" lon="3.88288">
        <ele>1059.474</ele>
        <time>2011-06-01T07:24:46Z</time>
      </trkpt>
      <trkpt lat="44.74355" lon="3.88298">
        <ele>1060.351</ele>
        <time>2011-06-01T07:24:56Z</time>
      </trkpt>
      <trkpt lat="44.74346" lon="3.88308">
        <ele>1060.823</ele>
        <time>2011-06-01T07:25:06Z</time>
      </trkpt>
      <trkpt lat="44.74336" lon="3.88318">
        <ele>1063.939</ele>
        <time>2011-06-01T07:25:16Z</time>
      </trkpt>
      <trkpt lat="44.74327" lon="3.88327">
        <ele>1062.427</ele>
        <time>2011-06-01T07:25:26Z</time>
      </trkpt>
      <trkpt lat="44.74318" lon="3.88338">
        <ele>1062.562</ele>
        <time>2011-06-01T07:25:36Z</time>
      </trkpt>
      <trkpt lat="44.74308" lon="3.88347">
        <ele>1064.021</ele>
        <time>2011-06-01T07:25:46Z</time>
      </trkpt>
      <trkpt lat="44.743" lon="3.88356">
        <ele>1064.328</ele>
        <time>2011-06-01T07:25:56Z</time>
      </trkpt>
      <trkpt lat="44.7429" lon="3.88367">
        <ele>1064.686</ele>
        <time>2011-06-01T07:26:06Z</time>
      </trkpt>
      <trkpt lat="44.74278" lon="3.88377">
        <ele>1065.355</ele>
        <time>2011-06-01T07:26:16Z</time>
      </trkpt>
      <trkpt lat="44.7427" lon="3.88387">
        <ele>1065.924</ele>
        <time>2011-06-01T07:26:26Z</time>
      </trkpt>
      <trkpt lat="44.74264" lon="3.88398">
        <ele>1065.669</ele>
        <time>2011-06-01T07:26:36Z</time>
      </trkpt>
      <trkpt lat="44.74258" lon="3.88411">
        <ele>1065.632</ele>
        <time>2011-06-01T07:26:46Z</time>
      </trkpt>
      <trkpt lat="44.74252" lon="3.88424">
        <ele>1067.176</ele>
        <time>2011-06-01T07:26:56Z</time>
      </trkpt>
      <trkpt lat="44.74246" lon="3.88439">
        <ele>1066.058</ele>
        <time>2011-06-01T07:27:06Z</time>
      </trkpt>
      <trkpt lat="44.74239" lon="3.8845">
        <ele>1067.687</ele>
        <time>2011-06-01T07:27:16Z</time>
      </trkpt>
      <trkpt lat="44.74236" lon="3.88463">
        <ele>1067.112</ele>
        <time>2011-06-01T07:27:26Z</time>
      </trkpt>
      <trkpt lat="44.7423" lon="3.88474">
        <ele>1066.331</ele>
        <time>2011-06-01T07:27:36Z</time>
      </trkpt>
      <trkpt lat="44.74224" lon="3.88489">
        <ele>1067.973</ele>
        <time>2011-06-01T07:27:46Z</time>
      </trkpt>
      <trkpt lat="44.74223" lon="3.88503">
        <ele>1067.935</ele>
        <time>2011-06-01T07:27:56Z</time>
      </trkpt>
      <trkpt lat="44.74223" lon="3.88516">
        <ele>1068.56</ele>
        <time>2011-06-01T07:28:06Z</time>
      </trkpt>
      <trkpt lat="44.74221" lon="3.88529">
        <ele>1068.492</ele>
        <time>2011-06-01T07:28:16Z</time>
      </trkpt>
      <trkpt lat="44.74219" lon="3.88538">
        <ele>1069.092</ele>
        <time>2011-06-01T07:28:26Z</time>
      </trkpt>
      <trkpt lat="44.74217" lon="3.88554">
        <ele>1069.413</ele>
        <time>2011-06-01T07:28:36Z</time>
      </trkpt>
      <trkpt lat="44.74215" lon="3.88572">
        <ele>1070.759</ele>
        <time>2011-06-01T07:28:46Z</time>
      </trkpt>
      <trkpt lat="44.74215" lon="3.88586">
        <ele>1070.043</ele>
        <time>2011-06-01T07:28:56Z</time>
      </trkpt>
      <trkpt lat="44.74213" lon="3.886">
        <ele>1071.434</ele>
        <time>2011-06-01T07:29:06Z</time>
      </trkpt>
      <trkpt lat="44.74216" lon="3.88617">
        <ele>1072.342</ele>
        <time>2011-06-01T07:29:16Z</time>
      </trkpt>
      <trkpt lat="44.74215" lon="3.88628">
        <ele>1073.332</ele>
        <time>2011-06-01T07:29:26Z</time>
      </trkpt>
      <trkpt lat="44.74214" lon="3.88644">
        <ele>1073.341</ele>
        <time>2011-06-01T07:29:36Z</time>
      </trkpt>
      <trkpt lat="44.74211" lon="3.88662">
        <ele>1073.282</ele>
        <time>2011-06-01T07:29:46Z</time>
      </trkpt>
      <trkpt lat="44.74208" lon="3.88677">
        <ele>1074.786</ele>
        <time>2011-06-01T07:29:56Z</time>
      </trkpt>
      <trkpt lat="44.74203" lon="3.88691">
        <ele>1075.388</ele>
        <time>2011-06-01T07:30:06Z</time>
      </trkpt>
      <trkpt lat="44.74199" lon="3.88705">
        <ele>1075.009</ele>
        <time>2011-06-01T07:30:16Z</time>
      </trkpt>
      <trkpt lat="44.74194" lon="3.88718">
        <ele>1075.67</ele>
        <time>2011-06-01T07:30:26Z</time>
      </trkpt>
      <trkpt lat="44.74189" lon="3.88734">
        <ele>1076.344</ele>
        <time>2011-06-01T07:30:36Z</time>
      </trkpt>
      <trkpt lat="44.74181" lon="3.88746">
        <ele>1075.755</ele>
        <time>2011-06-01T07:30:46Z</time>
      </trkpt>
      <trkpt lat="44.74175" lon="3.88758">
        <ele>1076.987</ele>
        <time>2011-06-01T07:30:56Z</time>
      </trkpt>
      <trkpt lat="44.74168" lon="3.8877">
        <ele>1076.371</ele>
        <time>2011-06-01T07:31:06Z</time>
      </trkpt>
      <trkpt lat="44.74158" lon="3.88782">
        <ele>1079.012</ele>
        <time>2011-06-01T07:31:16Z</time>
      </trkpt>
      <trkpt lat="44.7415" lon="3.88792">
        <ele>1077.694</ele>
        <time>2011-06-01T07:31:26Z</time>
      </trkpt>
      <trkpt lat="44.74141" lon="3.88801">
        <ele>1078.134</ele>
        <time>2011-06-01T07:31:36Z</time>
      </trkpt>
      <trkpt lat="44.74131" lon="3.8881">
        <ele>1080.102</ele>
        <time>2011-06-01T07:31:46Z</time>
      </trkpt>
      <trkpt lat="44.74122" lon="3.88818">
        <ele>1081.883</ele>
        <time>2011-06-01T07:31:56Z</time>
      </trkpt>
      <trkpt lat="44.7411" lon="3.88827">
        <ele>1081.047</ele>
        <time>2011-06-01T07:32:06Z</time>
      </trkpt>
      <trkpt lat="44.741" lon="3.88833">
        <ele>1080.789</ele>
        <time>2011-06-01T07:32:16Z</time>
      </trkpt>
      <trkpt lat="44.74091" lon="3.88839">
        <ele>1080.244</ele>
        <time>2011-06-01T07:32:26Z</time>
      </trkpt>
      <trkpt lat="44.74079" lon="3.88845">
        <ele>1081.694</ele>
        <time>2011-06-01T07:32:36Z</time>
      </trkpt>
      <trkpt lat="44.7407" lon="3.88855">
        <ele>1081.666</ele>
        <time>2011-06-01T07:32:46Z</time>
      </trkpt>
      <trkpt lat="44.7406" lon="3.88863">
        <ele>1082.31</ele>
        <time>2011-06-01T07:32:56Z</time>
      </trkpt>
      <trkpt lat="44.7405" lon="3.88871">
        <ele>1081.614</ele>
        <time>2011-06-01T07:33:06Z</time>
      </trkpt>
      <trkpt lat="44.74039" lon="3.8888">
        <ele>1082.423</ele>
        <time>2011-06-01T07:33:16Z</time>
      </trkpt>
      <trkpt lat="44.74028" lon="3.88888">
        <ele>1082.979</ele>
        <time>2011-06-01T07:33:26Z</time>
      </trkpt>
      <trkpt lat="44.74017" lon="3.88896">
        <ele>1085.649</ele>
        <time>2011-06-01T07:33:36Z</time>
      </trkpt>
      <trkpt lat="44.74007" lon="3.88905">
        <ele>1085.392</ele>
        <time>2011-06-01T07:33:46Z</time>
      </trkpt>
      <trkpt lat="44.73997" lon="3.88914">
        <ele>1085.327</ele>
        <time>2011-06-01T07:33:56Z</time>
      </trkpt>
      <trkpt lat="44.73988" lon="3.88922">
        <ele>1084.646</ele>
        <time>2011-06-01T07:34:06Z</time>
      </trkpt>
      <trkpt lat="44.73977" lon="3.88928">
        <ele>1084.461</ele>
        <time>2011-06-01T07:34:16Z</time>
      </trkpt>
      <trkpt lat="44.73973" lon="3.88931">
        <ele>1086.504</ele>
        <time>2011-06-01T07:34:26Z</time>
      </trkpt>
      <trkpt lat="44.73974" lon="3.8893">
        <ele>1085.679</ele>
        <time>2011-06-01T07:34:36Z</time>
      </trkpt>
      <trkpt lat="44.73973" lon="3.88931">
        <ele>1086.117</ele>
        <time>2011-06-01T07:34:46Z</time>
      </trkpt>
      <trkpt lat="44.73973" lon="3.88931">
        <ele>1086.281</ele>
        <time>2011-06-01T07:34:56Z</time>
      </trkpt>
      <trkpt lat="44.73973" lon="3.88931">
        <ele>1086.182</ele>
        <time>2011-06-01T07:35:06Z</time>
      </trkpt>
      <trkpt lat="44.73973" lon="3.88931">
        <ele>1086.587</ele>
        <time>2011-06-01T07:35:16Z</time>
      </trkpt>
      <trkpt lat="44.73973" lon="3.88931">
        <ele>1086.551</ele>
        <time>2011-06-01T07:35:26Z</time>
      </trkpt>
      <trkpt lat="44.73971" lon="3.88923">
        <ele>1086.146</ele>
        <time>2011-06-01T07:35:36Z</time>
      </trkpt>
      <trkpt lat="44.73967" lon="3.88911">
        <ele>1084.025</ele>
        <time>2011-06-01T07:35:46Z</time>
      </trkpt>
      <trkpt lat="44.73968" lon="3.88904">
        <ele>1084.901</ele>
        <time>2011-06-01T07:35:56Z</time>
      </trkpt>
      <trkpt lat="44.73964" lon="3.88891">
        <ele>1086.9</ele>
        <time>2011-06-01T07:36:06Z</time>
      </trkpt>
      <trkpt lat="44.73963" lon="3.88887">
        <ele>1087.857</ele>
        <time>2011-06-01T07:36:16Z</time>
      </trkpt>
      <trkpt lat="44.73962" lon="3.88889">
        <ele>1087.562</ele>
        <time>2011-06-01T07:36:26Z</time>
      </trkpt>
      <trkpt lat="44.73963" lon="3.88889">
        <ele>1086.548</ele>
        <time>2011-06-01T07:36:36Z</time>
      </trkpt>
      <trkpt lat="44.73963" lon="3.88889">
        <ele>1087.155</ele>
        <time>2011-06-01T07:36:46Z</time>
      </trkpt>
      <trkpt lat="44.73963" lon="3.88889">
        <ele>1087.534</ele>
        <time>2011-06-01T07:36:56Z</time>
      </trkpt>
      <trkpt lat="44.73962" lon="3.88889">
        <ele>1087.83</ele>
        <time>2011-06-01T07:37:06Z</time>
      </trkpt>
      <trkpt lat="44.73962" lon="3.88889">
        <ele>1087.52</ele>
        <time>2011-06-01T07:37:16Z</time>
      </trkpt>
      <trkpt lat="44.73962" lon="3.88889">
        <ele>1086.682</ele>
        <time>2011-06-01T07:37:26Z</time>
      </trkpt>
      <trkpt lat="44.73962" lon="3.88889">
        <ele>1087.486</ele>
        <time>2011-06-01T07:37:36Z</time>
      </trkpt>
      <trkpt lat="44.73962" lon="3.88889">
        <ele>1087.053</ele>
        <time>2011-06-01T07:37:46Z</time>
      </trkpt>
      <trkpt lat="44.73962" lon="3.88889">
        <ele>1086.629</ele>
        <time>2011-06-01T07:37:56Z</time>
      </trkpt>
      <trkpt lat="44.73962" lon="3.88889">
        <ele>1086.495</ele>
        <time>2011-06-01T07:38:06Z</time>
      </trkpt>
      <trkpt lat="44.73962" lon="3.88889">
        <ele>1087.35</ele>
        <time>2011-06-01T07:38:16Z</time>
      </trkpt>
      <trkpt lat="44.73962" lon="3.88889">
        <ele>1086.987</ele>
        <time>2011-06-01T07:38:26Z</time>
      </trkpt>
      <trkpt lat="44.73962" lon="3.88889">
        <ele>1087.484</ele>
        <time>2011-06-01T07:38:36Z</time>
      </trkpt>
      <trkpt lat="44.73962" lon="3.88889">
        <ele>1087.338</ele>
        <time>2011-06-01T07:38:46Z</time>
      </trkpt>
      <trkpt lat="44.73962" lon="3.88889">
        <ele>1087.135</ele>
        <time>2011-06-01T07:38:56Z</time>
      </trkpt>
      <trkpt lat="44.73962" lon="3.88889">
        <ele>1087.694</ele>
        <time>2011-06-01T07:39:06Z</time>
      </trkpt>
      <trkpt lat="44.73962" lon="3.88889">
        <ele>1087.666</ele>
        <time>2011-06-01T07:39:16Z</time>
      </trkpt>
      <trkpt lat="44.73962" lon="3.88889">
        <ele>1087.697</ele>
        <time>2011-06-01T07:39:26Z</time>
      </trkpt>
      <trkpt lat="44.73962" lon="3.88889">
        <ele>1087.111</ele>
        <time>2011-06-01T07:39:36Z</time>
      </trkpt>
      <trkpt lat="44.73963" lon="3.88889">
        <ele>1087.11</ele>
        <time>2011-06-01T07:39:46Z</time>
      </trkpt>
      <trkpt lat="44.73963" lon="3.88889">
        <ele>1087.523</ele>
        <time>2011-06-01T07:39:56Z</time>
      </trkpt>
      <trkpt lat="44.73963" lon="3.88889">
        <ele>1087.13</ele>
        <time>2011-06-01T07:40:06Z</time>
      </trkpt>
      <trkpt lat="44.73962" lon="3.88889">
        <ele>1086.729</ele>
        <time>2011-06-01T07:40:16Z</time>
      </trkpt>
      <trkpt lat="44.73962" lon="3.88889">
        <ele>1087.609</ele>
        <time>2011-06-01T07:40:26Z</time>
      </trkpt>
      <trkpt lat="44.73963" lon="3.88889">
        <ele>1087.467</ele>
        <time>2011-06-01T07:40:36Z</time>
      </trkpt>
      <trkpt lat="44.73963" lon="3.88888">
        <ele>1088.641</ele>
        <time>2011-06-01T07:40:46Z</time>
      </trkpt>
      <trkpt lat="44.73964" lon="3.88888">
        <ele>1088.276</ele>
        <time>2011-06-01T07:40:56Z</time>
      </trkpt>
      <trkpt lat="44.73963" lon="3.88889">
        <ele>1087.035</ele>
        <time>2011-06-01T07:41:06Z</time>
      </trkpt>
      <trkpt lat="44.73963" lon="3.88889">
        <ele>1087.142</ele>
        <time>2011-06-01T07:41:16Z</time>
      </trkpt>
      <trkpt lat="44.73963" lon="3.88889">
        <ele>1087.057</ele>
        <time>2011-06-01T07:41:26Z</time>
      </trkpt>
      <trkpt lat="44.73963" lon="3.88889">
        <ele>1086.448</ele>
        <time>2011-06-01T07:41:36Z</time>
      </trkpt>
      <trkpt lat="44.73963" lon="3.88889">
        <ele>1087.099</ele>
        <time>2011-06-01T07:41:46Z</time>
      </trkpt>
      <trkpt lat="44.73963" lon="3.88889">
        <ele>1086.275</ele>
        <time>2011-06-01T07:41:56Z</time>
      </trkpt>
      <trkpt lat="44.73963" lon="3.88888">
        <ele>1085.597</ele>
        <time>2011-06-01T07:42:06Z</time>
      </trkpt>
      <trkpt lat="44.73963" lon="3.88889">
        <ele>1085.486</ele>
        <time>2011-06-01T07:42:16Z</time>
      </trkpt>
      <trkpt lat="44.73963" lon="3.88888">
        <ele>1086.118</ele>
        <time>2011-06-01T07:42:26Z</time>
      </trkpt>
      <trkpt lat="44.73963" lon="3.88888">
        <ele>1085.789</ele>
        <time>2011-06-01T07:42:36Z</time>
      </trkpt>
      <trkpt lat="44.73963" lon="3.88888">
        <ele>1086.727</ele>
        <time>2011-06-01T07:42:46Z</time>
      </trkpt>
      <trkpt lat="44.73964" lon="3.88893">
        <ele>1086.468</ele>
        <time>2011-06-01T07:42:56Z</time>
      </trkpt>
      <trkpt lat="44.73968" lon="3.88904">
        <ele>1086.914</ele>
        <time>2011-06-01T07:43:06Z</time>
      </trkpt>
      <trkpt lat="44.73967" lon="3.88914">
        <ele>1086.797</ele>
        <time>2011-06-01T07:43:16Z</time>
      </trkpt>
      <trkpt lat="44.73969" lon="3.88922">
        <ele>1087.006</ele>
        <time>2011-06-01T07:43:26Z</time>
      </trkpt>
      <trkpt lat="44.73972" lon="3.8893">
        <ele>1086.324</ele>
        <time>2011-06-01T07:43:36Z</time>
      </trkpt>
      <trkpt lat="44.73969" lon="3.8894">
        <ele>1087.912</ele>
        <time>2011-06-01T07:43:46Z</time>
      </trkpt>
      <trkpt lat="44.73962" lon="3.88949">
        <ele>1087.234</ele>
        <time>2011-06-01T07:43:56Z</time>
      </trkpt>
      <trkpt lat="44.73957" lon="3.88962">
        <ele>1087.335</ele>
        <time>2011-06-01T07:44:06Z</time>
      </trkpt>
      <trkpt lat="44.73956" lon="3.88963">
        <ele>1087.506</ele>
        <time>2011-06-01T07:44:16Z</time>
      </trkpt>
      <trkpt lat="44.73956" lon="3.88963">
        <ele>1087.899</ele>
        <time>2011-06-01T07:44:26Z</time>
      </trkpt>
      <trkpt lat="44.73952" lon="3.88974">
        <ele>1086.984</ele>
        <time>2011-06-01T07:44:36Z</time>
      </trkpt>
      <trkpt lat="44.73948" lon="3.8898">
        <ele>1086.869</ele>
        <time>2011-06-01T07:44:46Z</time>
      </trkpt>
      <trkpt lat="44.73947" lon="3.88983">
        <ele>1086.176</ele>
        <time>2011-06-01T07:44:56Z</time>
      </trkpt>
      <trkpt lat="44.73943" lon="3.88995">
        <ele>1086.411</ele>
        <time>2011-06-01T07:45:06Z</time>
      </trkpt>
      <trkpt lat="44.73937" lon="3.89006">
        <ele>1086.082</ele>
        <time>2011-06-01T07:45:16Z</time>
      </trkpt>
      <trkpt lat="44.73932" lon="3.89019">
        <ele>1084.917</ele>
        <time>2011-06-01T07:45:26Z</time>
      </trkpt>
      <trkpt lat="44.73927" lon="3.89034">
        <ele>1084.572</ele>
        <time>2011-06-01T07:45:36Z</time>
      </trkpt>
      <trkpt lat="44.7392" lon="3.89048">
        <ele>1084.216</ele>
        <time>2011-06-01T07:45:46Z</time>
      </trkpt>
      <trkpt lat="44.73916" lon="3.89061">
        <ele>1084.737</ele>
        <time>2011-06-01T07:45:56Z</time>
      </trkpt>
      <trkpt lat="44.73913" lon="3.89075">
        <ele>1084.303</ele>
        <time>2011-06-01T07:46:06Z</time>
      </trkpt>
      <trkpt lat="44.73908" lon="3.89093">
        <ele>1082.838</ele>
        <time>2011-06-01T07:46:16Z</time>
      </trkpt>
      <trkpt lat="44.73904" lon="3.89112">
        <ele>1081.443</ele>
        <time>2011-06-01T07:46:26Z</time>
      </trkpt>
      <trkpt lat="44.739" lon="3.89131">
        <ele>1080.841</ele>
        <time>2011-06-01T07:46:36Z</time>
      </trkpt>
      <trkpt lat="44.73894" lon="3.89148">
        <ele>1081.443</ele>
        <time>2011-06-01T07:46:46Z</time>
      </trkpt>
      <trkpt lat="44.73887" lon="3.89163">
        <ele>1081.167</ele>
        <time>2011-06-01T07:46:56Z</time>
      </trkpt>
      <trkpt lat="44.73876" lon="3.89171">
        <ele>1081.777</ele>
        <time>2011-06-01T07:47:06Z</time>
      </trkpt>
      <trkpt lat="44.73861" lon="3.89173">
        <ele>1081.076</ele>
        <time>2011-06-01T07:47:16Z</time>
      </trkpt>
      <trkpt lat="44.73846" lon="3.89173">
        <ele>1081.523</ele>
        <time>2011-06-01T07:47:26Z</time>
      </trkpt>
      <trkpt lat="44.73836" lon="3.89171">
        <ele>1081.052</ele>
        <time>2011-06-01T07:47:36Z</time>
      </trkpt>
      <trkpt lat="44.73822" lon="3.89174">
        <ele>1081.758</ele>
        <time>2011-06-01T07:47:46Z</time>
      </trkpt>
      <trkpt lat="44.7381" lon="3.89174">
        <ele>1081.797</ele>
        <time>2011-06-01T07:47:56Z</time>
      </trkpt>
      <trkpt lat="44.73795" lon="3.89178">
        <ele>1081.977</ele>
        <time>2011-06-01T07:48:06Z</time>
      </trkpt>
      <trkpt lat="44.73785" lon="3.89181">
        <ele>1082.429</ele>
        <time>2011-06-01T07:48:16Z</time>
      </trkpt>
      <trkpt lat="44.7377" lon="3.89184">
        <ele>1082.741</ele>
        <time>2011-06-01T07:48:26Z</time>
      </trkpt>
      <trkpt lat="44.73754" lon="3.89192">
        <ele>1082.429</ele>
        <time>2011-06-01T07:48:36Z</time>
      </trkpt>
      <trkpt lat="44.73741" lon="3.89197">
        <ele>1082.805</ele>
        <time>2011-06-01T07:48:46Z</time>
      </trkpt>
      <trkpt lat="44.73728" lon="3.89202">
        <ele>1083.751</ele>
        <time>2011-06-01T07:48:56Z</time>
      </trkpt>
      <trkpt lat="44.73718" lon="3.89206">
        <ele>1083.571</ele>
        <time>2011-06-01T07:49:06Z</time>
      </trkpt>
      <trkpt lat="44.73703" lon="3.89212">
        <ele>1083.815</ele>
        <time>2011-06-01T07:49:16Z</time>
      </trkpt>
      <trkpt lat="44.73692" lon="3.89216">
        <ele>1084.226</ele>
        <time>2011-06-01T07:49:26Z</time>
      </trkpt>
      <trkpt lat="44.7368" lon="3.89219">
        <ele>1084.448</ele>
        <time>2011-06-01T07:49:36Z</time>
      </trkpt>
      <trkpt lat="44.73667" lon="3.89222">
        <ele>1084.321</ele>
        <time>2011-06-01T07:49:46Z</time>
      </trkpt>
      <trkpt lat="44.73655" lon="3.89227">
        <ele>1084.377</ele>
        <time>2011-06-01T07:49:56Z</time>
      </trkpt>
      <trkpt lat="44.73638" lon="3.89229">
        <ele>1084.331</ele>
        <time>2011-06-01T07:50:06Z</time>
      </trkpt>
      <trkpt lat="44.73629" lon="3.89239">
        <ele>1085.611</ele>
        <time>2011-06-01T07:50:16Z</time>
      </trkpt>
      <trkpt lat="44.73614" lon="3.89243">
        <ele>1085.511</ele>
        <time>2011-06-01T07:50:26Z</time>
      </trkpt>
      <trkpt lat="44.73606" lon="3.89253">
        <ele>1085.219</ele>
        <time>2011-06-01T07:50:36Z</time>
      </trkpt>
      <trkpt lat="44.73593" lon="3.89259">
        <ele>1085.263</ele>
        <time>2011-06-01T07:50:46Z</time>
      </trkpt>
      <trkpt lat="44.73582" lon="3.89268">
        <ele>1085.12</ele>
        <time>2011-06-01T07:50:56Z</time>
      </trkpt>
      <trkpt lat="44.73573" lon="3.89282">
        <ele>1084.158</ele>
        <time>2011-06-01T07:51:06Z</time>
      </trkpt>
      <trkpt lat="44.73565" lon="3.89299">
        <ele>1083.735</ele>
        <time>2011-06-01T07:51:16Z</time>
      </trkpt>
      <trkpt lat="44.73555" lon="3.89309">
        <ele>1084.18</ele>
        <time>2011-06-01T07:51:26Z</time>
      </trkpt>
      <trkpt lat="44.73546" lon="3.89326">
        <ele>1083.696</ele>
        <time>2011-06-01T07:51:36Z</time>
      </trkpt>
      <trkpt lat="44.73538" lon="3.89345">
        <ele>1082.774</ele>
        <time>2011-06-01T07:51:46Z</time>
      </trkpt>
      <trkpt lat="44.73526" lon="3.89357">
        <ele>1082.53</ele>
        <time>2011-06-01T07:51:56Z</time>
      </trkpt>
      <trkpt lat="44.73514" lon="3.89366">
        <ele>1082.14</ele>
        <time>2011-06-01T07:52:06Z</time>
      </trkpt>
      <trkpt lat="44.73501" lon="3.89374">
        <ele>1080.146</ele>
        <time>2011-06-01T07:52:16Z</time>
      </trkpt>
      <trkpt lat="44.73489" lon="3.89385">
        <ele>1082.371</ele>
        <time>2011-06-01T07:52:26Z</time>
      </trkpt>
      <trkpt lat="44.73485" lon="3.89403">
        <ele>1081.581</ele>
        <time>2011-06-01T07:52:36Z</time>
      </trkpt>
      <trkpt lat="44.73479" lon="3.89421">
        <ele>1080.568</ele>
        <time>2011-06-01T07:52:46Z</time>
      </trkpt>
      <trkpt lat="44.73477" lon="3.89435">
        <ele>1081.379</ele>
        <time>2011-06-01T07:52:56Z</time>
      </trkpt>
      <trkpt lat="44.73475" lon="3.8946">
        <ele>1080.262</ele>
        <time>2011-06-01T07:53:06Z</time>
      </trkpt>
      <trkpt lat="44.73467" lon="3.89477">
        <ele>1079.419</ele>
        <time>2011-06-01T07:53:16Z</time>
      </trkpt>
      <trkpt lat="44.73458" lon="3.89487">
        <ele>1079.315</ele>
        <time>2011-06-01T07:53:26Z</time>
      </trkpt>
      <trkpt lat="44.73447" lon="3.89499">
        <ele>1078.952</ele>
        <time>2011-06-01T07:53:36Z</time>
      </trkpt>
      <trkpt lat="44.73433" lon="3.8951">
        <ele>1078.92</ele>
        <time>2011-06-01T07:53:46Z</time>
      </trkpt>
      <trkpt lat="44.73425" lon="3.89524">
        <ele>1078.328</ele>
        <time>2011-06-01T07:53:56Z</time>
      </trkpt>
      <trkpt lat="44.73419" lon="3.8954">
        <ele>1078.073</ele>
        <time>2011-06-01T07:54:06Z</time>
      </trkpt>
      <trkpt lat="44.73416" lon="3.89557">
        <ele>1078.114</ele>
        <time>2011-06-01T07:54:16Z</time>
      </trkpt>
      <trkpt lat="44.73418" lon="3.89574">
        <ele>1077.293</ele>
        <time>2011-06-01T07:54:26Z</time>
      </trkpt>
      <trkpt lat="44.7342" lon="3.89591">
        <ele>1077.184</ele>
        <time>2011-06-01T07:54:36Z</time>
      </trkpt>
      <trkpt lat="44.73416" lon="3.89612">
        <ele>1076.781</ele>
        <time>2011-06-01T07:54:46Z</time>
      </trkpt>
      <trkpt lat="44.73409" lon="3.89625">
        <ele>1077.209</ele>
        <time>2011-06-01T07:54:56Z</time>
      </trkpt>
      <trkpt lat="44.73398" lon="3.89636">
        <ele>1077.573</ele>
        <time>2011-06-01T07:55:06Z</time>
      </trkpt>
      <trkpt lat="44.73385" lon="3.89641">
        <ele>1078.303</ele>
        <time>2011-06-01T07:55:16Z</time>
      </trkpt>
      <trkpt lat="44.73374" lon="3.89646">
        <ele>1078.662</ele>
        <time>2011-06-01T07:55:26Z</time>
      </trkpt>
      <trkpt lat="44.73362" lon="3.89651">
        <ele>1079.689</ele>
        <time>2011-06-01T07:55:36Z</time>
      </trkpt>
      <trkpt lat="44.73351" lon="3.89657">
        <ele>1079.52</ele>
        <time>2011-06-01T07:55:46Z</time>
      </trkpt>
      <trkpt lat="44.73338" lon="3.89661">
        <ele>1080.249</ele>
        <time>2011-06-01T07:55:56Z</time>
      </trkpt>
      <trkpt lat="44.73328" lon="3.89669">
        <ele>1080.688</ele>
        <time>2011-06-01T07:56:06Z</time>
      </trkpt>
      <trkpt lat="44.73317" lon="3.89679">
        <ele>1081.366</ele>
        <time>2011-06-01T07:56:16Z</time>
      </trkpt>
      <trkpt lat="44.73308" lon="3.89689">
        <ele>1081.816</ele>
        <time>2011-06-01T07:56:26Z</time>
      </trkpt>
      <trkpt lat="44.73297" lon="3.897">
        <ele>1081.167</ele>
        <time>2011-06-01T07:56:36Z</time>
      </trkpt>
      <trkpt lat="44.73287" lon="3.89714">
        <ele>1082.35</ele>
        <time>2011-06-01T07:56:46Z</time>
      </trkpt>
      <trkpt lat="44.73278" lon="3.89725">
        <ele>1082.44</ele>
        <time>2011-06-01T07:56:56Z</time>
      </trkpt>
      <trkpt lat="44.73269" lon="3.89737">
        <ele>1082.36</ele>
        <time>2011-06-01T07:57:06Z</time>
      </trkpt>
      <trkpt lat="44.73259" lon="3.89751">
        <ele>1084.703</ele>
        <time>2011-06-01T07:57:16Z</time>
      </trkpt>
      <trkpt lat="44.73257" lon="3.89756">
        <ele>1084.627</ele>
        <time>2011-06-01T07:57:26Z</time>
      </trkpt>
      <trkpt lat="44.73257" lon="3.89756">
        <ele>1084.847</ele>
        <time>2011-06-01T07:57:36Z</time>
      </trkpt>
      <trkpt lat="44.73257" lon="3.89757">
        <ele>1084.765</ele>
        <time>2011-06-01T07:57:46Z</time>
      </trkpt>
      <trkpt lat="44.73256" lon="3.89761">
        <ele>1084.417</ele>
        <time>2011-06-01T07:57:56Z</time>
      </trkpt>
      <trkpt lat="44.73256" lon="3.89762">
        <ele>1083.776</ele>
        <time>2011-06-01T07:58:06Z</time>
      </trkpt>
      <trkpt lat="44.73256" lon="3.89763">
        <ele>1083.866</ele>
        <time>2011-06-01T07:58:16Z</time>
      </trkpt>
      <trkpt lat="44.73256" lon="3.89763">
        <ele>1084.428</ele>
        <time>2011-06-01T07:58:26Z</time>
      </trkpt>
      <trkpt lat="44.73256" lon="3.89763">
        <ele>1084.317</ele>
        <time>2011-06-01T07:58:36Z</time>
      </trkpt>
      <trkpt lat="44.73256" lon="3.89763">
        <ele>1084.432</ele>
        <time>2011-06-01T07:58:46Z</time>
      </trkpt>
      <trkpt lat="44.73256" lon="3.89763">
        <ele>1083.869</ele>
        <time>2011-06-01T07:58:56Z</time>
      </trkpt>
      <trkpt lat="44.73256" lon="3.89763">
        <ele>1084.382</ele>
        <time>2011-06-01T07:59:06Z</time>
      </trkpt>
      <trkpt lat="44.73256" lon="3.89763">
        <ele>1083.891</ele>
        <time>2011-06-01T07:59:16Z</time>
      </trkpt>
      <trkpt lat="44.73256" lon="3.89763">
        <ele>1084.183</ele>
        <time>2011-06-01T07:59:26Z</time>
      </trkpt>
      <trkpt lat="44.73256" lon="3.89763">
        <ele>1084.296</ele>
        <time>2011-06-01T07:59:36Z</time>
      </trkpt>
      <trkpt lat="44.73256" lon="3.89763">
        <ele>1084.155</ele>
        <time>2011-06-01T07:59:46Z</time>
      </trkpt>
      <trkpt lat="44.73256" lon="3.89762">
        <ele>1084.213</ele>
        <time>2011-06-01T07:59:56Z</time>
      </trkpt>
      <trkpt lat="44.73256" lon="3.89762">
        <ele>1084.008</ele>
        <time>2011-06-01T08:00:06Z</time>
      </trkpt>
      <trkpt lat="44.73256" lon="3.89762">
        <ele>1083.892</ele>
        <time>2011-06-01T08:00:16Z</time>
      </trkpt>
      <trkpt lat="44.73256" lon="3.89762">
        <ele>1084.575</ele>
        <time>2011-06-01T08:00:26Z</time>
      </trkpt>
      <trkpt lat="44.73256" lon="3.89762">
        <ele>1083.039</ele>
        <time>2011-06-01T08:00:36Z</time>
      </trkpt>
      <trkpt lat="44.73256" lon="3.89762">
        <ele>1084.185</ele>
        <time>2011-06-01T08:00:46Z</time>
      </trkpt>
      <trkpt lat="44.73255" lon="3.89763">
        <ele>1084.318</ele>
        <time>2011-06-01T08:00:56Z</time>
      </trkpt>
      <trkpt lat="44.73256" lon="3.89763">
        <ele>1084.922</ele>
        <time>2011-06-01T08:01:06Z</time>
      </trkpt>
      <trkpt lat="44.73256" lon="3.89763">
        <ele>1084.694</ele>
        <time>2011-06-01T08:01:16Z</time>
      </trkpt>
      <trkpt lat="44.73256" lon="3.89762">
        <ele>1084.858</ele>
        <time>2011-06-01T08:01:26Z</time>
      </trkpt>
      <trkpt lat="44.73258" lon="3.89758">
        <ele>1084.6</ele>
        <time>2011-06-01T08:01:36Z</time>
      </trkpt>
      <trkpt lat="44.73261" lon="3.89754">
        <ele>1084.202</ele>
        <time>2011-06-01T08:01:46Z</time>
      </trkpt>
      <trkpt lat="44.73261" lon="3.89753">
        <ele>1084.704</ele>
        <time>2011-06-01T08:01:56Z</time>
      </trkpt>
      <trkpt lat="44.7326" lon="3.89752">
        <ele>1084.103</ele>
        <time>2011-06-01T08:02:06Z</time>
      </trkpt>
      <trkpt lat="44.73259" lon="3.89752">
        <ele>1084.536</ele>
        <time>2011-06-01T08:02:16Z</time>
      </trkpt>
      <trkpt lat="44.73259" lon="3.89752">
        <ele>1084.595</ele>
        <time>2011-06-01T08:02:26Z</time>
      </trkpt>
      <trkpt lat="44.73259" lon="3.89752">
        <ele>1084.602</ele>
        <time>2011-06-01T08:02:36Z</time>
      </trkpt>
      <trkpt lat="44.73259" lon="3.89752">
        <ele>1084.182</ele>
        <time>2011-06-01T08:02:46Z</time>
      </trkpt>
      <trkpt lat="44.73259" lon="3.89752">
        <ele>1084.343</ele>
        <time>2011-06-01T08:02:56Z</time>
      </trkpt>
      <trkpt lat="44.73259" lon="3.89752">
        <ele>1084.017</ele>
        <time>2011-06-01T08:03:06Z</time>
      </trkpt>
      <trkpt lat="44.73259" lon="3.89752">
        <ele>1083.084</ele>
        <time>2011-06-01T08:03:16Z</time>
      </trkpt>
      <trkpt lat="44.73259" lon="3.89752">
        <ele>1085.703</ele>
        <time>2011-06-01T08:03:26Z</time>
      </trkpt>
      <trkpt lat="44.73259" lon="3.89752">
        <ele>1084.974</ele>
        <time>2011-06-01T08:03:36Z</time>
      </trkpt>
      <trkpt lat="44.73259" lon="3.89752">
        <ele>1084.988</ele>
        <time>2011-06-01T08:03:46Z</time>
      </trkpt>
      <trkpt lat="44.73259" lon="3.89753">
        <ele>1084.742</ele>
        <time>2011-06-01T08:03:56Z</time>
      </trkpt>
      <trkpt lat="44.73259" lon="3.89753">
        <ele>1085.163</ele>
        <time>2011-06-01T08:04:06Z</time>
      </trkpt>
      <trkpt lat="44.73259" lon="3.89753">
        <ele>1084.826</ele>
        <time>2011-06-01T08:04:16Z</time>
      </trkpt>
      <trkpt lat="44.73259" lon="3.89753">
        <ele>1085.296</ele>
        <time>2011-06-01T08:04:26Z</time>
      </trkpt>
      <trkpt lat="44.73259" lon="3.89753">
        <ele>1085.851</ele>
        <time>2011-06-01T08:04:36Z</time>
      </trkpt>
      <trkpt lat="44.73259" lon="3.89753">
        <ele>1086.045</ele>
        <time>2011-06-01T08:04:46Z</time>
      </trkpt>
      <trkpt lat="44.73258" lon="3.89752">
        <ele>1085.89</ele>
        <time>2011-06-01T08:04:56Z</time>
      </trkpt>
      <trkpt lat="44.73258" lon="3.89753">
        <ele>1085.924</ele>
        <time>2011-06-01T08:05:06Z</time>
      </trkpt>
      <trkpt lat="44.73258" lon="3.89754">
        <ele>1085.869</ele>
        <time>2011-06-01T08:05:16Z</time>
      </trkpt>
      <trkpt lat="44.73257" lon="3.89754">
        <ele>1085.448</ele>
        <time>2011-06-01T08:05:26Z</time>
      </trkpt>
      <trkpt lat="44.73256" lon="3.89756">
        <ele>1085.804</ele>
        <time>2011-06-01T08:05:36Z</time>
      </trkpt>
      <trkpt lat="44.73255" lon="3.89759">
        <ele>1085.46</ele>
        <time>2011-06-01T08:05:46Z</time>
      </trkpt>
      <trkpt lat="44.73254" lon="3.89766">
        <ele>1085.622</ele>
        <time>2011-06-01T08:05:56Z</time>
      </trkpt>
      <trkpt lat="44.73252" lon="3.89779">
        <ele>1087.201</ele>
        <time>2011-06-01T08:06:06Z</time>
      </trkpt>
      <trkpt lat="44.73247" lon="3.89786">
        <ele>1086.347</ele>
        <time>2011-06-01T08:06:16Z</time>
      </trkpt>
      <trkpt lat="44.73234" lon="3.89786">
        <ele>1087.17</ele>
        <time>2011-06-01T08:06:26Z</time>
      </trkpt>
      <trkpt lat="44.73222" lon="3.89783">
        <ele>1086.075</ele>
        <time>2011-06-01T08:06:36Z</time>
      </trkpt>
      <trkpt lat="44.73208" lon="3.89784">
        <ele>1085.291</ele>
        <time>2011-06-01T08:06:46Z</time>
      </trkpt>
      <trkpt lat="44.73196" lon="3.89782">
        <ele>1086.658</ele>
        <time>2011-06-01T08:06:56Z</time>
      </trkpt>
      <trkpt lat="44.73184" lon="3.89784">
        <ele>1086.044</ele>
        <time>2011-06-01T08:07:06Z</time>
      </trkpt>
      <trkpt lat="44.73174" lon="3.89782">
        <ele>1086.529</ele>
        <time>2011-06-01T08:07:16Z</time>
      </trkpt>
      <trkpt lat="44.73163" lon="3.89783">
        <ele>1086.674</ele>
        <time>2011-06-01T08:07:26Z</time>
      </trkpt>
      <trkpt lat="44.73144" lon="3.89773">
        <ele>1087.226</ele>
        <time>2011-06-01T08:07:36Z</time>
      </trkpt>
      <trkpt lat="44.73135" lon="3.89777">
        <ele>1088.306</ele>
        <time>2011-06-01T08:07:46Z</time>
      </trkpt>
      <trkpt lat="44.73125" lon="3.89779">
        <ele>1087.969</ele>
        <time>2011-06-01T08:07:56Z</time>
      </trkpt>
      <trkpt lat="44.73119" lon="3.89781">
        <ele>1089.357</ele>
        <time>2011-06-01T08:08:06Z</time>
      </trkpt>
      <trkpt lat="44.73118" lon="3.8978">
        <ele>1090.126</ele>
        <time>2011-06-01T08:08:16Z</time>
      </trkpt>
      <trkpt lat="44.73108" lon="3.89781">
        <ele>1089.276</ele>
        <time>2011-06-01T08:08:26Z</time>
      </trkpt>
      <trkpt lat="44.73098" lon="3.89783">
        <ele>1089.384</ele>
        <time>2011-06-01T08:08:36Z</time>
      </trkpt>
      <trkpt lat="44.73088" lon="3.89784">
        <ele>1090.195</ele>
        <time>2011-06-01T08:08:46Z</time>
      </trkpt>
      <trkpt lat="44.73078" lon="3.89783">
        <ele>1092.042</ele>
        <time>2011-06-01T08:08:56Z</time>
      </trkpt>
      <trkpt lat="44.73071" lon="3.89782">
        <ele>1092.712</ele>
        <time>2011-06-01T08:09:06Z</time>
      </trkpt>
      <trkpt lat="44.73063" lon="3.89783">
        <ele>1093.12</ele>
        <time>2011-06-01T08:09:16Z</time>
      </trkpt>
      <trkpt lat="44.7305" lon="3.89785">
        <ele>1094.02</ele>
        <time>2011-06-01T08:09:26Z</time>
      </trkpt>
      <trkpt lat="44.73036" lon="3.89789">
        <ele>1094.049</ele>
        <time>2011-06-01T08:09:36Z</time>
      </trkpt>
      <trkpt lat="44.73027" lon="3.89788">
        <ele>1095.147</ele>
        <time>2011-06-01T08:09:46Z</time>
      </trkpt>
      <trkpt lat="44.73028" lon="3.89779">
        <ele>1095.173</ele>
        <time>2011-06-01T08:09:56Z</time>
      </trkpt>
      <trkpt lat="44.73031" lon="3.89769">
        <ele>1096.542</ele>
        <time>2011-06-01T08:10:06Z</time>
      </trkpt>
      <trkpt lat="44.73035" lon="3.8975">
        <ele>1096.283</ele>
        <time>2011-06-01T08:10:16Z</time>
      </trkpt>
      <trkpt lat="44.73033" lon="3.89736">
        <ele>1096.81</ele>
        <time>2011-06-01T08:10:26Z</time>
      </trkpt>
      <trkpt lat="44.73027" lon="3.89723">
        <ele>1096.086</ele>
        <time>2011-06-01T08:10:36Z</time>
      </trkpt>
      <trkpt lat="44.73025" lon="3.89711">
        <ele>1095.331</ele>
        <time>2011-06-01T08:10:46Z</time>
      </trkpt>
      <trkpt lat="44.73024" lon="3.89706">
        <ele>1094.941</ele>
        <time>2011-06-01T08:10:56Z</time>
      </trkpt>
      <trkpt lat="44.73024" lon="3.89698">
        <ele>1094.253</ele>
        <time>2011-06-01T08:11:06Z</time>
      </trkpt>
      <trkpt lat="44.73025" lon="3.89695">
        <ele>1093.591</ele>
        <time>2011-06-01T08:11:16Z</time>
      </trkpt>
      <trkpt lat="44.73025" lon="3.89702">
        <ele>1093.962</ele>
        <time>2011-06-01T08:11:26Z</time>
      </trkpt>
      <trkpt lat="44.73028" lon="3.89714">
        <ele>1094.449</ele>
        <time>2011-06-01T08:11:36Z</time>
      </trkpt>
      <trkpt lat="44.73029" lon="3.89715">
        <ele>1096.069</ele>
        <time>2011-06-01T08:11:46Z</time>
      </trkpt>
      <trkpt lat="44.7303" lon="3.89731">
        <ele>1094.824</ele>
        <time>2011-06-01T08:11:56Z</time>
      </trkpt>
      <trkpt lat="44.73031" lon="3.89746">
        <ele>1097.954</ele>
        <time>2011-06-01T08:12:06Z</time>
      </trkpt>
      <trkpt lat="44.73035" lon="3.89751">
        <ele>1097.968</ele>
        <time>2011-06-01T08:12:16Z</time>
      </trkpt>
      <trkpt lat="44.73035" lon="3.89751">
        <ele>1096.726</ele>
        <time>2011-06-01T08:12:26Z</time>
      </trkpt>
      <trkpt lat="44.73034" lon="3.89755">
        <ele>1096.69</ele>
        <time>2011-06-01T08:12:36Z</time>
      </trkpt>
      <trkpt lat="44.73029" lon="3.89766">
        <ele>1096.378</ele>
        <time>2011-06-01T08:12:46Z</time>
      </trkpt>
      <trkpt lat="44.73022" lon="3.8977">
        <ele>1097.273</ele>
        <time>2011-06-01T08:12:56Z</time>
      </trkpt>
      <trkpt lat="44.7301" lon="3.89775">
        <ele>1096.502</ele>
        <time>2011-06-01T08:13:06Z</time>
      </trkpt>
      <trkpt lat="44.73" lon="3.89776">
        <ele>1096.333</ele>
        <time>2011-06-01T08:13:16Z</time>
      </trkpt>
      <trkpt lat="44.72991" lon="3.89777">
        <ele>1096.471</ele>
        <time>2011-06-01T08:13:26Z</time>
      </trkpt>
      <trkpt lat="44.72978" lon="3.8978">
        <ele>1095.246</ele>
        <time>2011-06-01T08:13:36Z</time>
      </trkpt>
      <trkpt lat="44.72966" lon="3.89786">
        <ele>1093.676</ele>
        <time>2011-06-01T08:13:46Z</time>
      </trkpt>
      <trkpt lat="44.72956" lon="3.89791">
        <ele>1094.537</ele>
        <time>2011-06-01T08:13:56Z</time>
      </trkpt>
      <trkpt lat="44.72946" lon="3.89795">
        <ele>1093.881</ele>
        <time>2011-06-01T08:14:06Z</time>
      </trkpt>
      <trkpt lat="44.72936" lon="3.89805">
        <ele>1093.645</ele>
        <time>2011-06-01T08:14:16Z</time>
      </trkpt>
      <trkpt lat="44.72924" lon="3.89816">
        <ele>1093.424</ele>
        <time>2011-06-01T08:14:26Z</time>
      </trkpt>
      <trkpt lat="44.72915" lon="3.89821">
        <ele>1094.16</ele>
        <time>2011-06-01T08:14:36Z</time>
      </trkpt>
      <trkpt lat="44.72905" lon="3.89828">
        <ele>1093.383</ele>
        <time>2011-06-01T08:14:46Z</time>
      </trkpt>
      <trkpt lat="44.72893" lon="3.89835">
        <ele>1093.608</ele>
        <time>2011-06-01T08:14:56Z</time>
      </trkpt>
      <trkpt lat="44.72883" lon="3.8984">
        <ele>1093.017</ele>
        <time>2011-06-01T08:15:06Z</time>
      </trkpt>
      <trkpt lat="44.72871" lon="3.89847">
        <ele>1093.128</ele>
        <time>2011-06-01T08:15:16Z</time>
      </trkpt>
      <trkpt lat="44.72861" lon="3.89856">
        <ele>1092.725</ele>
        <time>2011-06-01T08:15:26Z</time>
      </trkpt>
      <trkpt lat="44.7285" lon="3.89866">
        <ele>1093.999</ele>
        <time>2011-06-01T08:15:36Z</time>
      </trkpt>
      <trkpt lat="44.72838" lon="3.89874">
        <ele>1095.251</ele>
        <time>2011-06-01T08:15:46Z</time>
      </trkpt>
      <trkpt lat="44.72828" lon="3.89884">
        <ele>1096.542</ele>
        <time>2011-06-01T08:15:56Z</time>
      </trkpt>
      <trkpt lat="44.72817" lon="3.89894">
        <ele>1096.733</ele>
        <time>2011-06-01T08:16:06Z</time>
      </trkpt>
      <trkpt lat="44.72807" lon="3.89902">
        <ele>1096.344</ele>
        <time>2011-06-01T08:16:16Z</time>
      </trkpt>
      <trkpt lat="44.72795" lon="3.8991">
        <ele>1096.549</ele>
        <time>2011-06-01T08:16:26Z</time>
      </trkpt>
      <trkpt lat="44.72783" lon="3.89916">
        <ele>1095.332</ele>
        <time>2011-06-01T08:16:36Z</time>
      </trkpt>
      <trkpt lat="44.7277" lon="3.89919">
        <ele>1095.346</ele>
        <time>2011-06-01T08:16:46Z</time>
      </trkpt>
      <trkpt lat="44.72759" lon="3.89917">
        <ele>1096.258</ele>
        <time>2011-06-01T08:16:56Z</time>
      </trkpt>
      <trkpt lat="44.72746" lon="3.89918">
        <ele>1095.201</ele>
        <time>2011-06-01T08:17:06Z</time>
      </trkpt>
      <trkpt lat="44.72732" lon="3.89923">
        <ele>1093.836</ele>
        <time>2011-06-01T08:17:16Z</time>
      </trkpt>
      <trkpt lat="44.72722" lon="3.89931">
        <ele>1090.864</ele>
        <time>2011-06-01T08:17:26Z</time>
      </trkpt>
      <trkpt lat="44.72709" lon="3.89938">
        <ele>1091.94</ele>
        <time>2011-06-01T08:17:36Z</time>
      </trkpt>
      <trkpt lat="44.72697" lon="3.8995">
        <ele>1092.232</ele>
        <time>2011-06-01T08:17:46Z</time>
      </trkpt>
      <trkpt lat="44.72683" lon="3.89959">
        <ele>1091.834</ele>
        <time>2011-06-01T08:17:56Z</time>
      </trkpt>
      <trkpt lat="44.7267" lon="3.89969">
        <ele>1090.34</ele>
        <time>2011-06-01T08:18:06Z</time>
      </trkpt>
      <trkpt lat="44.72657" lon="3.89981">
        <ele>1090.465</ele>
        <time>2011-06-01T08:18:16Z</time>
      </trkpt>
      <trkpt lat="44.72647" lon="3.8999">
        <ele>1090.078</ele>
        <time>2011-06-01T08:18:26Z</time>
      </trkpt>
      <trkpt lat="44.72635" lon="3.89998">
        <ele>1089.084</ele>
        <time>2011-06-01T08:18:36Z</time>
      </trkpt>
      <trkpt lat="44.72623" lon="3.90009">
        <ele>1089.877</ele>
        <time>2011-06-01T08:18:46Z</time>
      </trkpt>
      <trkpt lat="44.72611" lon="3.90014">
        <ele>1089.492</ele>
        <time>2011-06-01T08:18:56Z</time>
      </trkpt>
      <trkpt lat="44.72598" lon="3.90018">
        <ele>1089.255</ele>
        <time>2011-06-01T08:19:06Z</time>
      </trkpt>
      <trkpt lat="44.72587" lon="3.90022">
        <ele>1088.429</ele>
        <time>2011-06-01T08:19:16Z</time>
      </trkpt>
      <trkpt lat="44.72574" lon="3.90027">
        <ele>1087.591</ele>
        <time>2011-06-01T08:19:26Z</time>
      </trkpt>
      <trkpt lat="44.7256" lon="3.9003">
        <ele>1087.378</ele>
        <time>2011-06-01T08:19:36Z</time>
      </trkpt>
      <trkpt lat="44.72546" lon="3.90034">
        <ele>1086.381</ele>
        <time>2011-06-01T08:19:46Z</time>
      </trkpt>
      <trkpt lat="44.72532" lon="3.90037">
        <ele>1084.716</ele>
        <time>2011-06-01T08:19:56Z</time>
      </trkpt>
      <trkpt lat="44.72517" lon="3.9004">
        <ele>1083.744</ele>
        <time>2011-06-01T08:20:06Z</time>
      </trkpt>
      <trkpt lat="44.72503" lon="3.90041">
        <ele>1082.589</ele>
        <time>2011-06-01T08:20:16Z</time>
      </trkpt>
      <trkpt lat="44.72492" lon="3.90033">
        <ele>1081.551</ele>
        <time>2011-06-01T08:20:26Z</time>
      </trkpt>
      <trkpt lat="44.72478" lon="3.90034">
        <ele>1080.155</ele>
        <time>2011-06-01T08:20:36Z</time>
      </trkpt>
      <trkpt lat="44.72467" lon="3.90032">
        <ele>1079.699</ele>
        <time>2011-06-01T08:20:46Z</time>
      </trkpt>
      <trkpt lat="44.72451" lon="3.90036">
        <ele>1078.839</ele>
        <time>2011-06-01T08:20:56Z</time>
      </trkpt>
      <trkpt lat="44.7244" lon="3.9003">
        <ele>1077.326</ele>
        <time>2011-06-01T08:21:06Z</time>
      </trkpt>
      <trkpt lat="44.72424" lon="3.90033">
        <ele>1077.599</ele>
        <time>2011-06-01T08:21:16Z</time>
      </trkpt>
      <trkpt lat="44.7241" lon="3.9003">
        <ele>1077.352</ele>
        <time>2011-06-01T08:21:26Z</time>
      </trkpt>
      <trkpt lat="44.72397" lon="3.90029">
        <ele>1077.227</ele>
        <time>2011-06-01T08:21:36Z</time>
      </trkpt>
      <trkpt lat="44.72388" lon="3.90022">
        <ele>1076.401</ele>
        <time>2011-06-01T08:21:46Z</time>
      </trkpt>
      <trkpt lat="44.72375" lon="3.90022">
        <ele>1074.993</ele>
        <time>2011-06-01T08:21:56Z</time>
      </trkpt>
      <trkpt lat="44.72362" lon="3.9002">
        <ele>1075.367</ele>
        <time>2011-06-01T08:22:06Z</time>
      </trkpt>
      <trkpt lat="44.72348" lon="3.90014">
        <ele>1074.55</ele>
        <time>2011-06-01T08:22:16Z</time>
      </trkpt>
      <trkpt lat="44.72335" lon="3.90011">
        <ele>1073.538</ele>
        <time>2011-06-01T08:22:26Z</time>
      </trkpt>
      <trkpt lat="44.7232" lon="3.90011">
        <ele>1074.193</ele>
        <time>2011-06-01T08:22:36Z</time>
      </trkpt>
      <trkpt lat="44.72298" lon="3.90014">
        <ele>1074.346</ele>
        <time>2011-06-01T08:22:46Z</time>
      </trkpt>
      <trkpt lat="44.72286" lon="3.90014">
        <ele>1073.404</ele>
        <time>2011-06-01T08:22:56Z</time>
      </trkpt>
      <trkpt lat="44.72274" lon="3.90012">
        <ele>1073.033</ele>
        <time>2011-06-01T08:23:06Z</time>
      </trkpt>
      <trkpt lat="44.72263" lon="3.90005">
        <ele>1071.568</ele>
        <time>2011-06-01T08:23:16Z</time>
      </trkpt>
      <trkpt lat="44.7225" lon="3.89999">
        <ele>1072.559</ele>
        <time>2011-06-01T08:23:26Z</time>
      </trkpt>
      <trkpt lat="44.72234" lon="3.9">
        <ele>1072.168</ele>
        <time>2011-06-01T08:23:36Z</time>
      </trkpt>
      <trkpt lat="44.72224" lon="3.89993">
        <ele>1071.064</ele>
        <time>2011-06-01T08:23:46Z</time>
      </trkpt>
      <trkpt lat="44.72209" lon="3.89992">
        <ele>1071.204</ele>
        <time>2011-06-01T08:23:56Z</time>
      </trkpt>
      <trkpt lat="44.72196" lon="3.89986">
        <ele>1070.958</ele>
        <time>2011-06-01T08:24:06Z</time>
      </trkpt>
      <trkpt lat="44.72183" lon="3.89978">
        <ele>1071.082</ele>
        <time>2011-06-01T08:24:16Z</time>
      </trkpt>
      <trkpt lat="44.72167" lon="3.89978">
        <ele>1071.238</ele>
        <time>2011-06-01T08:24:26Z</time>
      </trkpt>
      <trkpt lat="44.72156" lon="3.89973">
        <ele>1071.125</ele>
        <time>2011-06-01T08:24:36Z</time>
      </trkpt>
      <trkpt lat="44.72143" lon="3.89967">
        <ele>1071.27</ele>
        <time>2011-06-01T08:24:46Z</time>
      </trkpt>
      <trkpt lat="44.72133" lon="3.89959">
        <ele>1072.097</ele>
        <time>2011-06-01T08:24:56Z</time>
      </trkpt>
      <trkpt lat="44.72121" lon="3.89959">
        <ele>1070.932</ele>
        <time>2011-06-01T08:25:06Z</time>
      </trkpt>
      <trkpt lat="44.72108" lon="3.89957">
        <ele>1071.674</ele>
        <time>2011-06-01T08:25:16Z</time>
      </trkpt>
      <trkpt lat="44.72096" lon="3.89959">
        <ele>1072.536</ele>
        <time>2011-06-01T08:25:26Z</time>
      </trkpt>
      <trkpt lat="44.72082" lon="3.89952">
        <ele>1070.89</ele>
        <time>2011-06-01T08:25:36Z</time>
      </trkpt>
      <trkpt lat="44.72072" lon="3.89946">
        <ele>1071.843</ele>
        <time>2011-06-01T08:25:46Z</time>
      </trkpt>
      <trkpt lat="44.72057" lon="3.89944">
        <ele>1071.474</ele>
        <time>2011-06-01T08:25:56Z</time>
      </trkpt>
      <trkpt lat="44.72046" lon="3.89939">
        <ele>1070.58</ele>
        <time>2011-06-01T08:26:06Z</time>
      </trkpt>
      <trkpt lat="44.72031" lon="3.89941">
        <ele>1070.142</ele>
        <time>2011-06-01T08:26:16Z</time>
      </trkpt>
      <trkpt lat="44.72017" lon="3.89939">
        <ele>1069.552</ele>
        <time>2011-06-01T08:26:26Z</time>
      </trkpt>
      <trkpt lat="44.72005" lon="3.89932">
        <ele>1069.143</ele>
        <time>2011-06-01T08:26:36Z</time>
      </trkpt>
      <trkpt lat="44.71988" lon="3.8993">
        <ele>1068.813</ele>
        <time>2011-06-01T08:26:46Z</time>
      </trkpt>
      <trkpt lat="44.71978" lon="3.89929">
        <ele>1067.896</ele>
        <time>2011-06-01T08:26:56Z</time>
      </trkpt>
      <trkpt lat="44.71965" lon="3.8993">
        <ele>1067.803</ele>
        <time>2011-06-01T08:27:06Z</time>
      </trkpt>
      <trkpt lat="44.71953" lon="3.89922">
        <ele>1068.025</ele>
        <time>2011-06-01T08:27:16Z</time>
      </trkpt>
      <trkpt lat="44.7194" lon="3.89919">
        <ele>1067.512</ele>
        <time>2011-06-01T08:27:26Z</time>
      </trkpt>
      <trkpt lat="44.71928" lon="3.89916">
        <ele>1065.681</ele>
        <time>2011-06-01T08:27:36Z</time>
      </trkpt>
      <trkpt lat="44.71912" lon="3.89917">
        <ele>1065.986</ele>
        <time>2011-06-01T08:27:46Z</time>
      </trkpt>
      <trkpt lat="44.71897" lon="3.89914">
        <ele>1064.623</ele>
        <time>2011-06-01T08:27:56Z</time>
      </trkpt>
      <trkpt lat="44.7188" lon="3.89913">
        <ele>1064.91</ele>
        <time>2011-06-01T08:28:06Z</time>
      </trkpt>
      <trkpt lat="44.71872" lon="3.89904">
        <ele>1063.33</ele>
        <time>2011-06-01T08:28:16Z</time>
      </trkpt>
      <trkpt lat="44.71861" lon="3.89899">
        <ele>1063.918</ele>
        <time>2011-06-01T08:28:26Z</time>
      </trkpt>
      <trkpt lat="44.7185" lon="3.89895">
        <ele>1062.894</ele>
        <time>2011-06-01T08:28:36Z</time>
      </trkpt>
      <trkpt lat="44.71837" lon="3.89889">
        <ele>1061.576</ele>
        <time>2011-06-01T08:28:46Z</time>
      </trkpt>
      <trkpt lat="44.71824" lon="3.89883">
        <ele>1061.52</ele>
        <time>2011-06-01T08:28:56Z</time>
      </trkpt>
      <trkpt lat="44.71812" lon="3.89874">
        <ele>1061.104</ele>
        <time>2011-06-01T08:29:06Z</time>
      </trkpt>
      <trkpt lat="44.71801" lon="3.89868">
        <ele>1060.204</ele>
        <time>2011-06-01T08:29:16Z</time>
      </trkpt>
      <trkpt lat="44.71789" lon="3.89855">
        <ele>1060.647</ele>
        <time>2011-06-01T08:29:26Z</time>
      </trkpt>
      <trkpt lat="44.71776" lon="3.89848">
        <ele>1059.124</ele>
        <time>2011-06-01T08:29:36Z</time>
      </trkpt>
      <trkpt lat="44.71769" lon="3.89838">
        <ele>1059.392</ele>
        <time>2011-06-01T08:29:46Z</time>
      </trkpt>
      <trkpt lat="44.71757" lon="3.89831">
        <ele>1058.192</ele>
        <time>2011-06-01T08:29:56Z</time>
      </trkpt>
      <trkpt lat="44.71746" lon="3.89825">
        <ele>1058.225</ele>
        <time>2011-06-01T08:30:06Z</time>
      </trkpt>
      <trkpt lat="44.71735" lon="3.89821">
        <ele>1057.785</ele>
        <time>2011-06-01T08:30:16Z</time>
      </trkpt>
      <trkpt lat="44.71724" lon="3.89816">
        <ele>1058.234</ele>
        <time>2011-06-01T08:30:26Z</time>
      </trkpt>
      <trkpt lat="44.71713" lon="3.89813">
        <ele>1057.095</ele>
        <time>2011-06-01T08:30:36Z</time>
      </trkpt>
      <trkpt lat="44.71698" lon="3.89811">
        <ele>1057.561</ele>
        <time>2011-06-01T08:30:46Z</time>
      </trkpt>
      <trkpt lat="44.71688" lon="3.89805">
        <ele>1056.965</ele>
        <time>2011-06-01T08:30:56Z</time>
      </trkpt>
      <trkpt lat="44.71675" lon="3.898">
        <ele>1056.325</ele>
        <time>2011-06-01T08:31:06Z</time>
      </trkpt>
      <trkpt lat="44.71666" lon="3.89792">
        <ele>1055.415</ele>
        <time>2011-06-01T08:31:16Z</time>
      </trkpt>
      <trkpt lat="44.71654" lon="3.89789">
        <ele>1056.298</ele>
        <time>2011-06-01T08:31:26Z</time>
      </trkpt>
      <trkpt lat="44.71639" lon="3.89784">
        <ele>1057.127</ele>
        <time>2011-06-01T08:31:36Z</time>
      </trkpt>
      <trkpt lat="44.71628" lon="3.89775">
        <ele>1056.248</ele>
        <time>2011-06-01T08:31:46Z</time>
      </trkpt>
      <trkpt lat="44.71617" lon="3.89763">
        <ele>1055.563</ele>
        <time>2011-06-01T08:31:56Z</time>
      </trkpt>
      <trkpt lat="44.71604" lon="3.89757">
        <ele>1054.704</ele>
        <time>2011-06-01T08:32:06Z</time>
      </trkpt>
      <trkpt lat="44.71591" lon="3.89747">
        <ele>1052.424</ele>
        <time>2011-06-01T08:32:16Z</time>
      </trkpt>
      <trkpt lat="44.71582" lon="3.89743">
        <ele>1052.025</ele>
        <time>2011-06-01T08:32:26Z</time>
      </trkpt>
      <trkpt lat="44.71577" lon="3.89729">
        <ele>1050.3</ele>
        <time>2011-06-01T08:32:36Z</time>
      </trkpt>
      <trkpt lat="44.71571" lon="3.89711">
        <ele>1047.862</ele>
        <time>2011-06-01T08:32:46Z</time>
      </trkpt>
      <trkpt lat="44.71567" lon="3.89695">
        <ele>1046.281</ele>
        <time>2011-06-01T08:32:56Z</time>
      </trkpt>
      <trkpt lat="44.71566" lon="3.89681">
        <ele>1045.692</ele>
        <time>2011-06-01T08:33:06Z</time>
      </trkpt>
      <trkpt lat="44.71557" lon="3.8967">
        <ele>1044.186</ele>
        <time>2011-06-01T08:33:16Z</time>
      </trkpt>
      <trkpt lat="44.71548" lon="3.89655">
        <ele>1043.477</ele>
        <time>2011-06-01T08:33:26Z</time>
      </trkpt>
      <trkpt lat="44.71542" lon="3.89642">
        <ele>1042.428</ele>
        <time>2011-06-01T08:33:36Z</time>
      </trkpt>
      <trkpt lat="44.71534" lon="3.89632">
        <ele>1042.072</ele>
        <time>2011-06-01T08:33:46Z</time>
      </trkpt>
      <trkpt lat="44.71525" lon="3.89622">
        <ele>1042.285</ele>
        <time>2011-06-01T08:33:56Z</time>
      </trkpt>
      <trkpt lat="44.71512" lon="3.89618">
        <ele>1041.526</ele>
        <time>2011-06-01T08:34:06Z</time>
      </trkpt>
      <trkpt lat="44.71499" lon="3.89619">
        <ele>1039.635</ele>
        <time>2011-06-01T08:34:16Z</time>
      </trkpt>
      <trkpt lat="44.71485" lon="3.89617">
        <ele>1038.471</ele>
        <time>2011-06-01T08:34:26Z</time>
      </trkpt>
      <trkpt lat="44.71472" lon="3.89614">
        <ele>1038.498</ele>
        <time>2011-06-01T08:34:36Z</time>
      </trkpt>
      <trkpt lat="44.7146" lon="3.89602">
        <ele>1038.136</ele>
        <time>2011-06-01T08:34:46Z</time>
      </trkpt>
      <trkpt lat="44.71448" lon="3.89599">
        <ele>1037.023</ele>
        <time>2011-06-01T08:34:56Z</time>
      </trkpt>
      <trkpt lat="44.71438" lon="3.89597">
        <ele>1036.588</ele>
        <time>2011-06-01T08:35:06Z</time>
      </trkpt>
      <trkpt lat="44.71423" lon="3.89592">
        <ele>1037.058</ele>
        <time>2011-06-01T08:35:16Z</time>
      </trkpt>
      <trkpt lat="44.71411" lon="3.89587">
        <ele>1037.013</ele>
        <time>2011-06-01T08:35:26Z</time>
      </trkpt>
      <trkpt lat="44.71398" lon="3.89583">
        <ele>1037.074</ele>
        <time>2011-06-01T08:35:36Z</time>
      </trkpt>
      <trkpt lat="44.71387" lon="3.89585">
        <ele>1036.688</ele>
        <time>2011-06-01T08:35:46Z</time>
      </trkpt>
      <trkpt lat="44.71375" lon="3.89583">
        <ele>1036.704</ele>
        <time>2011-06-01T08:35:56Z</time>
      </trkpt>
      <trkpt lat="44.71365" lon="3.8958">
        <ele>1037.208</ele>
        <time>2011-06-01T08:36:06Z</time>
      </trkpt>
      <trkpt lat="44.71355" lon="3.89579">
        <ele>1038.337</ele>
        <time>2011-06-01T08:36:16Z</time>
      </trkpt>
      <trkpt lat="44.71343" lon="3.89578">
        <ele>1037.689</ele>
        <time>2011-06-01T08:36:26Z</time>
      </trkpt>
      <trkpt lat="44.71331" lon="3.89578">
        <ele>1035.831</ele>
        <time>2011-06-01T08:36:36Z</time>
      </trkpt>
      <trkpt lat="44.71319" lon="3.89578">
        <ele>1035.415</ele>
        <time>2011-06-01T08:36:46Z</time>
      </trkpt>
      <trkpt lat="44.71305" lon="3.89579">
        <ele>1035.703</ele>
        <time>2011-06-01T08:36:56Z</time>
      </trkpt>
      <trkpt lat="44.71291" lon="3.89575">
        <ele>1035.812</ele>
        <time>2011-06-01T08:37:06Z</time>
      </trkpt>
      <trkpt lat="44.71283" lon="3.89572">
        <ele>1035.83</ele>
        <time>2011-06-01T08:37:16Z</time>
      </trkpt>
      <trkpt lat="44.7127" lon="3.89567">
        <ele>1034.493</ele>
        <time>2011-06-01T08:37:26Z</time>
      </trkpt>
      <trkpt lat="44.7126" lon="3.8956">
        <ele>1035.323</ele>
        <time>2011-06-01T08:37:36Z</time>
      </trkpt>
      <trkpt lat="44.71248" lon="3.89553">
        <ele>1035.999</ele>
        <time>2011-06-01T08:37:46Z</time>
      </trkpt>
      <trkpt lat="44.71237" lon="3.89548">
        <ele>1035.531</ele>
        <time>2011-06-01T08:37:56Z</time>
      </trkpt>
      <trkpt lat="44.71228" lon="3.89542">
        <ele>1035.785</ele>
        <time>2011-06-01T08:38:06Z</time>
      </trkpt>
      <trkpt lat="44.71217" lon="3.89535">
        <ele>1035.327</ele>
        <time>2011-06-01T08:38:16Z</time>
      </trkpt>
      <trkpt lat="44.71207" lon="3.89526">
        <ele>1035.469</ele>
        <time>2011-06-01T08:38:26Z</time>
      </trkpt>
      <trkpt lat="44.71204" lon="3.89523">
        <ele>1035.642</ele>
        <time>2011-06-01T08:38:36Z</time>
      </trkpt>
      <trkpt lat="44.71204" lon="3.89523">
        <ele>1035.482</ele>
        <time>2011-06-01T08:38:46Z</time>
      </trkpt>
      <trkpt lat="44.71199" lon="3.89531">
        <ele>1035.638</ele>
        <time>2011-06-01T08:38:56Z</time>
      </trkpt>
      <trkpt lat="44.71196" lon="3.89539">
        <ele>1034.88</ele>
        <time>2011-06-01T08:39:06Z</time>
      </trkpt>
      <trkpt lat="44.71193" lon="3.89545">
        <ele>1035.95</ele>
        <time>2011-06-01T08:39:16Z</time>
      </trkpt>
      <trkpt lat="44.71193" lon="3.89546">
        <ele>1035.728</ele>
        <time>2011-06-01T08:39:26Z</time>
      </trkpt>
      <trkpt lat="44.71193" lon="3.89546">
        <ele>1035.768</ele>
        <time>2011-06-01T08:39:36Z</time>
      </trkpt>
      <trkpt lat="44.71193" lon="3.89546">
        <ele>1035.307</ele>
        <time>2011-06-01T08:39:46Z</time>
      </trkpt>
      <trkpt lat="44.71193" lon="3.89546">
        <ele>1035.367</ele>
        <time>2011-06-01T08:39:56Z</time>
      </trkpt>
      <trkpt lat="44.71188" lon="3.8956">
        <ele>1034.211</ele>
        <time>2011-06-01T08:40:06Z</time>
      </trkpt>
      <trkpt lat="44.71184" lon="3.89574">
        <ele>1033.769</ele>
        <time>2011-06-01T08:40:16Z</time>
      </trkpt>
      <trkpt lat="44.71184" lon="3.89585">
        <ele>1033.53</ele>
        <time>2011-06-01T08:40:26Z</time>
      </trkpt>
      <trkpt lat="44.71188" lon="3.89598">
        <ele>1032.437</ele>
        <time>2011-06-01T08:40:36Z</time>
      </trkpt>
      <trkpt lat="44.71194" lon="3.8961">
        <ele>1029.296</ele>
        <time>2011-06-01T08:40:46Z</time>
      </trkpt>
      <trkpt lat="44.71196" lon="3.89627">
        <ele>1028.269</ele>
        <time>2011-06-01T08:40:56Z</time>
      </trkpt>
      <trkpt lat="44.71198" lon="3.89644">
        <ele>1026.454</ele>
        <time>2011-06-01T08:41:06Z</time>
      </trkpt>
      <trkpt lat="44.71203" lon="3.89655">
        <ele>1025.906</ele>
        <time>2011-06-01T08:41:16Z</time>
      </trkpt>
      <trkpt lat="44.71209" lon="3.89658">
        <ele>1024.621</ele>
        <time>2011-06-01T08:41:26Z</time>
      </trkpt>
      <trkpt lat="44.71215" lon="3.89659">
        <ele>1022.282</ele>
        <time>2011-06-01T08:41:36Z</time>
      </trkpt>
      <trkpt lat="44.71228" lon="3.89659">
        <ele>1021.405</ele>
        <time>2011-06-01T08:41:46Z</time>
      </trkpt>
      <trkpt lat="44.71239" lon="3.89665">
        <ele>1020.62</ele>
        <time>2011-06-01T08:41:56Z</time>
      </trkpt>
      <trkpt lat="44.71251" lon="3.89667">
        <ele>1019.22</ele>
        <time>2011-06-01T08:42:06Z</time>
      </trkpt>
      <trkpt lat="44.71262" lon="3.8967">
        <ele>1017.859</ele>
        <time>2011-06-01T08:42:16Z</time>
      </trkpt>
      <trkpt lat="44.71268" lon="3.89674">
        <ele>1015.798</ele>
        <time>2011-06-01T08:42:26Z</time>
      </trkpt>
      <trkpt lat="44.71279" lon="3.89675">
        <ele>1014.178</ele>
        <time>2011-06-01T08:42:36Z</time>
      </trkpt>
      <trkpt lat="44.71285" lon="3.8967">
        <ele>1013.549</ele>
        <time>2011-06-01T08:42:46Z</time>
      </trkpt>
      <trkpt lat="44.71293" lon="3.89671">
        <ele>1010.434</ele>
        <time>2011-06-01T08:42:56Z</time>
      </trkpt>
      <trkpt lat="44.71313" lon="3.89676">
        <ele>1010.091</ele>
        <time>2011-06-01T08:43:06Z</time>
      </trkpt>
      <trkpt lat="44.71323" lon="3.89685">
        <ele>1008.096</ele>
        <time>2011-06-01T08:43:16Z</time>
      </trkpt>
      <trkpt lat="44.71333" lon="3.89692">
        <ele>1007.763</ele>
        <time>2011-06-01T08:43:26Z</time>
      </trkpt>
      <trkpt lat="44.71341" lon="3.89699">
        <ele>1006.166</ele>
        <time>2011-06-01T08:43:36Z</time>
      </trkpt>
      <trkpt lat="44.71352" lon="3.89702">
        <ele>1005.501</ele>
        <time>2011-06-01T08:43:46Z</time>
      </trkpt>
      <trkpt lat="44.7136" lon="3.89702">
        <ele>1004.723</ele>
        <time>2011-06-01T08:43:56Z</time>
      </trkpt>
      <trkpt lat="44.71369" lon="3.89708">
        <ele>1004.797</ele>
        <time>2011-06-01T08:44:06Z</time>
      </trkpt>
      <trkpt lat="44.71376" lon="3.89716">
        <ele>1004.253</ele>
        <time>2011-06-01T08:44:16Z</time>
      </trkpt>
      <trkpt lat="44.71386" lon="3.89725">
        <ele>1004.47</ele>
        <time>2011-06-01T08:44:26Z</time>
      </trkpt>
      <trkpt lat="44.71393" lon="3.89737">
        <ele>1002.949</ele>
        <time>2011-06-01T08:44:36Z</time>
      </trkpt>
      <trkpt lat="44.71402" lon="3.89748">
        <ele>1003.404</ele>
        <time>2011-06-01T08:44:46Z</time>
      </trkpt>
      <trkpt lat="44.71409" lon="3.8976">
        <ele>1000.26</ele>
        <time>2011-06-01T08:44:56Z</time>
      </trkpt>
      <trkpt lat="44.71415" lon="3.89772">
        <ele>1000.805</ele>
        <time>2011-06-01T08:45:06Z</time>
      </trkpt>
      <trkpt lat="44.71422" lon="3.89786">
        <ele>999.677</ele>
        <time>2011-06-01T08:45:16Z</time>
      </trkpt>
      <trkpt lat="44.7143" lon="3.898">
        <ele>999.092</ele>
        <time>2011-06-01T08:45:26Z</time>
      </trkpt>
      <trkpt lat="44.71436" lon="3.89813">
        <ele>997.633</ele>
        <time>2011-06-01T08:45:36Z</time>
      </trkpt>
      <trkpt lat="44.71442" lon="3.89827">
        <ele>995.57</ele>
        <time>2011-06-01T08:45:46Z</time>
      </trkpt>
      <trkpt lat="44.71451" lon="3.89839">
        <ele>994.383</ele>
        <time>2011-06-01T08:45:56Z</time>
      </trkpt>
      <trkpt lat="44.71459" lon="3.8985">
        <ele>994.526</ele>
        <time>2011-06-01T08:46:06Z</time>
      </trkpt>
      <trkpt lat="44.71468" lon="3.89858">
        <ele>993.035</ele>
        <time>2011-06-01T08:46:16Z</time>
      </trkpt>
      <trkpt lat="44.71478" lon="3.89867">
        <ele>992.324</ele>
        <time>2011-06-01T08:46:26Z</time>
      </trkpt>
      <trkpt lat="44.71488" lon="3.89877">
        <ele>991.71</ele>
        <time>2011-06-01T08:46:36Z</time>
      </trkpt>
      <trkpt lat="44.71495" lon="3.89889">
        <ele>990.698</ele>
        <time>2011-06-01T08:46:46Z</time>
      </trkpt>
      <trkpt lat="44.71497" lon="3.89904">
        <ele>988.348</ele>
        <time>2011-06-01T08:46:56Z</time>
      </trkpt>
      <trkpt lat="44.7148" lon="3.89902">
        <ele>987.392</ele>
        <time>2011-06-01T08:47:06Z</time>
      </trkpt>
      <trkpt lat="44.7147" lon="3.89893">
        <ele>986.036</ele>
        <time>2011-06-01T08:47:16Z</time>
      </trkpt>
      <trkpt lat="44.71462" lon="3.89888">
        <ele>984.806</ele>
        <time>2011-06-01T08:47:26Z</time>
      </trkpt>
      <trkpt lat="44.71451" lon="3.89883">
        <ele>983.555</ele>
        <time>2011-06-01T08:47:36Z</time>
      </trkpt>
      <trkpt lat="44.71443" lon="3.89891">
        <ele>982.576</ele>
        <time>2011-06-01T08:47:46Z</time>
      </trkpt>
      <trkpt lat="44.71434" lon="3.89907">
        <ele>982.347</ele>
        <time>2011-06-01T08:47:56Z</time>
      </trkpt>
      <trkpt lat="44.71428" lon="3.89917">
        <ele>983.056</ele>
        <time>2011-06-01T08:48:06Z</time>
      </trkpt>
      <trkpt lat="44.71424" lon="3.89938">
        <ele>982.354</ele>
        <time>2011-06-01T08:48:16Z</time>
      </trkpt>
      <trkpt lat="44.71422" lon="3.89952">
        <ele>981.584</ele>
        <time>2011-06-01T08:48:26Z</time>
      </trkpt>
      <trkpt lat="44.71417" lon="3.8997">
        <ele>981.609</ele>
        <time>2011-06-01T08:48:36Z</time>
      </trkpt>
      <trkpt lat="44.7141" lon="3.89989">
        <ele>981.352</ele>
        <time>2011-06-01T08:48:46Z</time>
      </trkpt>
      <trkpt lat="44.71404" lon="3.90004">
        <ele>981.841</ele>
        <time>2011-06-01T08:48:56Z</time>
      </trkpt>
      <trkpt lat="44.71398" lon="3.90011">
        <ele>983.592</ele>
        <time>2011-06-01T08:49:06Z</time>
      </trkpt>
      <trkpt lat="44.71391" lon="3.90022">
        <ele>983.68</ele>
        <time>2011-06-01T08:49:16Z</time>
      </trkpt>
      <trkpt lat="44.7138" lon="3.90027">
        <ele>984.393</ele>
        <time>2011-06-01T08:49:26Z</time>
      </trkpt>
      <trkpt lat="44.71368" lon="3.90034">
        <ele>984.883</ele>
        <time>2011-06-01T08:49:36Z</time>
      </trkpt>
      <trkpt lat="44.71356" lon="3.90037">
        <ele>986.113</ele>
        <time>2011-06-01T08:49:46Z</time>
      </trkpt>
      <trkpt lat="44.71348" lon="3.90042">
        <ele>987.061</ele>
        <time>2011-06-01T08:49:56Z</time>
      </trkpt>
      <trkpt lat="44.71339" lon="3.90046">
        <ele>987.752</ele>
        <time>2011-06-01T08:50:06Z</time>
      </trkpt>
      <trkpt lat="44.71332" lon="3.90046">
        <ele>990.215</ele>
        <time>2011-06-01T08:50:16Z</time>
      </trkpt>
      <trkpt lat="44.71322" lon="3.90052">
        <ele>991.223</ele>
        <time>2011-06-01T08:50:26Z</time>
      </trkpt>
      <trkpt lat="44.7132" lon="3.90061">
        <ele>992.101</ele>
        <time>2011-06-01T08:50:36Z</time>
      </trkpt>
      <trkpt lat="44.71316" lon="3.90068">
        <ele>991.817</ele>
        <time>2011-06-01T08:50:46Z</time>
      </trkpt>
      <trkpt lat="44.71315" lon="3.90077">
        <ele>992.913</ele>
        <time>2011-06-01T08:50:56Z</time>
      </trkpt>
      <trkpt lat="44.71316" lon="3.90085">
        <ele>995.154</ele>
        <time>2011-06-01T08:51:06Z</time>
      </trkpt>
      <trkpt lat="44.71319" lon="3.90089">
        <ele>997.272</ele>
        <time>2011-06-01T08:51:16Z</time>
      </trkpt>
      <trkpt lat="44.71321" lon="3.90097">
        <ele>999.148</ele>
        <time>2011-06-01T08:51:26Z</time>
      </trkpt>
      <trkpt lat="44.71317" lon="3.90107">
        <ele>1000.248</ele>
        <time>2011-06-01T08:51:36Z</time>
      </trkpt>
      <trkpt lat="44.71315" lon="3.90118">
        <ele>1001.497</ele>
        <time>2011-06-01T08:51:46Z</time>
      </trkpt>
      <trkpt lat="44.71308" lon="3.90123">
        <ele>1003.487</ele>
        <time>2011-06-01T08:51:56Z</time>
      </trkpt>
      <trkpt lat="44.71309" lon="3.90133">
        <ele>1004.313</ele>
        <time>2011-06-01T08:52:06Z</time>
      </trkpt>
      <trkpt lat="44.71301" lon="3.90142">
        <ele>1005.385</ele>
        <time>2011-06-01T08:52:16Z</time>
      </trkpt>
      <trkpt lat="44.71294" lon="3.90152">
        <ele>1006.281</ele>
        <time>2011-06-01T08:52:26Z</time>
      </trkpt>
      <trkpt lat="44.71291" lon="3.90159">
        <ele>1007.921</ele>
        <time>2011-06-01T08:52:36Z</time>
      </trkpt>
      <trkpt lat="44.71288" lon="3.90169">
        <ele>1007.992</ele>
        <time>2011-06-01T08:52:46Z</time>
      </trkpt>
      <trkpt lat="44.71285" lon="3.90179">
        <ele>1009.064</ele>
        <time>2011-06-01T08:52:56Z</time>
      </trkpt>
      <trkpt lat="44.71285" lon="3.90186">
        <ele>1013.233</ele>
        <time>2011-06-01T08:53:06Z</time>
      </trkpt>
      <trkpt lat="44.71277" lon="3.90199">
        <ele>1011.537</ele>
        <time>2011-06-01T08:53:16Z</time>
      </trkpt>
      <trkpt lat="44.71278" lon="3.90208">
        <ele>1013.216</ele>
        <time>2011-06-01T08:53:26Z</time>
      </trkpt>
      <trkpt lat="44.71278" lon="3.90216">
        <ele>1015.648</ele>
        <time>2011-06-01T08:53:36Z</time>
      </trkpt>
      <trkpt lat="44.71276" lon="3.90225">
        <ele>1017.094</ele>
        <time>2011-06-01T08:53:46Z</time>
      </trkpt>
      <trkpt lat="44.71274" lon="3.90236">
        <ele>1018.538</ele>
        <time>2011-06-01T08:53:56Z</time>
      </trkpt>
      <trkpt lat="44.71269" lon="3.90249">
        <ele>1019.284</ele>
        <time>2011-06-01T08:54:06Z</time>
      </trkpt>
      <trkpt lat="44.71266" lon="3.90256">
        <ele>1021.813</ele>
        <time>2011-06-01T08:54:16Z</time>
      </trkpt>
      <trkpt lat="44.71262" lon="3.90263">
        <ele>1021.586</ele>
        <time>2011-06-01T08:54:26Z</time>
      </trkpt>
      <trkpt lat="44.71253" lon="3.90271">
        <ele>1023.563</ele>
        <time>2011-06-01T08:54:36Z</time>
      </trkpt>
      <trkpt lat="44.71246" lon="3.90282">
        <ele>1024.944</ele>
        <time>2011-06-01T08:54:46Z</time>
      </trkpt>
      <trkpt lat="44.71243" lon="3.90291">
        <ele>1026.1</ele>
        <time>2011-06-01T08:54:56Z</time>
      </trkpt>
      <trkpt lat="44.71235" lon="3.90299">
        <ele>1026.886</ele>
        <time>2011-06-01T08:55:06Z</time>
      </trkpt>
      <trkpt lat="44.71232" lon="3.90306">
        <ele>1028.543</ele>
        <time>2011-06-01T08:55:16Z</time>
      </trkpt>
      <trkpt lat="44.71227" lon="3.90321">
        <ele>1030.067</ele>
        <time>2011-06-01T08:55:26Z</time>
      </trkpt>
      <trkpt lat="44.71224" lon="3.90331">
        <ele>1030.197</ele>
        <time>2011-06-01T08:55:36Z</time>
      </trkpt>
      <trkpt lat="44.71223" lon="3.9034">
        <ele>1032.516</ele>
        <time>2011-06-01T08:55:46Z</time>
      </trkpt>
      <trkpt lat="44.71216" lon="3.90356">
        <ele>1033.793</ele>
        <time>2011-06-01T08:55:56Z</time>
      </trkpt>
      <trkpt lat="44.7121" lon="3.90368">
        <ele>1035.1</ele>
        <time>2011-06-01T08:56:06Z</time>
      </trkpt>
      <trkpt lat="44.71207" lon="3.90375">
        <ele>1037.407</ele>
        <time>2011-06-01T08:56:16Z</time>
      </trkpt>
      <trkpt lat="44.71213" lon="3.90386">
        <ele>1038.025</ele>
        <time>2011-06-01T08:56:26Z</time>
      </trkpt>
      <trkpt lat="44.71212" lon="3.90397">
        <ele>1037.942</ele>
        <time>2011-06-01T08:56:36Z</time>
      </trkpt>
      <trkpt lat="44.71213" lon="3.90409">
        <ele>1039.642</ele>
        <time>2011-06-01T08:56:46Z</time>
      </trkpt>
      <trkpt lat="44.71217" lon="3.9042">
        <ele>1040.566</ele>
        <time>2011-06-01T08:56:56Z</time>
      </trkpt>
      <trkpt lat="44.71222" lon="3.90442">
        <ele>1042.989</ele>
        <time>2011-06-01T08:57:06Z</time>
      </trkpt>
      <trkpt lat="44.71221" lon="3.90455">
        <ele>1044.543</ele>
        <time>2011-06-01T08:57:16Z</time>
      </trkpt>
      <trkpt lat="44.7122" lon="3.90462">
        <ele>1045.732</ele>
        <time>2011-06-01T08:57:26Z</time>
      </trkpt>
      <trkpt lat="44.71227" lon="3.90451">
        <ele>1045.249</ele>
        <time>2011-06-01T08:57:36Z</time>
      </trkpt>
      <trkpt lat="44.7123" lon="3.90452">
        <ele>1044.021</ele>
        <time>2011-06-01T08:57:46Z</time>
      </trkpt>
      <trkpt lat="44.71234" lon="3.90459">
        <ele>1045.079</ele>
        <time>2011-06-01T08:57:56Z</time>
      </trkpt>
      <trkpt lat="44.71241" lon="3.9046">
        <ele>1045.188</ele>
        <time>2011-06-01T08:58:06Z</time>
      </trkpt>
      <trkpt lat="44.71243" lon="3.90461">
        <ele>1045.875</ele>
        <time>2011-06-01T08:58:16Z</time>
      </trkpt>
      <trkpt lat="44.71245" lon="3.9046">
        <ele>1046.075</ele>
        <time>2011-06-01T08:58:26Z</time>
      </trkpt>
      <trkpt lat="44.71244" lon="3.90461">
        <ele>1045.904</ele>
        <time>2011-06-01T08:58:36Z</time>
      </trkpt>
      <trkpt lat="44.71244" lon="3.90461">
        <ele>1045.118</ele>
        <time>2011-06-01T08:58:46Z</time>
      </trkpt>
      <trkpt lat="44.71244" lon="3.9046">
        <ele>1045.474</ele>
        <time>2011-06-01T08:58:56Z</time>
      </trkpt>
      <trkpt lat="44.71244" lon="3.9046">
        <ele>1045.92</ele>
        <time>2011-06-01T08:59:06Z</time>
      </trkpt>
      <trkpt lat="44.71244" lon="3.9046">
        <ele>1045.642</ele>
        <time>2011-06-01T08:59:16Z</time>
      </trkpt>
      <trkpt lat="44.71244" lon="3.9046">
        <ele>1045.544</ele>
        <time>2011-06-01T08:59:26Z</time>
      </trkpt>
      <trkpt lat="44.71244" lon="3.9046">
        <ele>1045.607</ele>
        <time>2011-06-01T08:59:36Z</time>
      </trkpt>
      <trkpt lat="44.71244" lon="3.9046">
        <ele>1045.881</ele>
        <time>2011-06-01T08:59:46Z</time>
      </trkpt>
      <trkpt lat="44.71244" lon="3.9046">
        <ele>1045.084</ele>
        <time>2011-06-01T08:59:56Z</time>
      </trkpt>
      <trkpt lat="44.71244" lon="3.9046">
        <ele>1045.831</ele>
        <time>2011-06-01T09:00:06Z</time>
      </trkpt>
      <trkpt lat="44.71244" lon="3.9046">
        <ele>1045.394</ele>
        <time>2011-06-01T09:00:16Z</time>
      </trkpt>
      <trkpt lat="44.71244" lon="3.9046">
        <ele>1045.469</ele>
        <time>2011-06-01T09:00:26Z</time>
      </trkpt>
      <trkpt lat="44.71244" lon="3.9046">
        <ele>1045.031</ele>
        <time>2011-06-01T09:00:36Z</time>
      </trkpt>
      <trkpt lat="44.71244" lon="3.9046">
        <ele>1045.333</ele>
        <time>2011-06-01T09:00:46Z</time>
      </trkpt>
      <trkpt lat="44.71244" lon="3.9046">
        <ele>1044.845</ele>
        <time>2011-06-01T09:00:56Z</time>
      </trkpt>
      <trkpt lat="44.71244" lon="3.9046">
        <ele>1045.599</ele>
        <time>2011-06-01T09:01:06Z</time>
      </trkpt>
      <trkpt lat="44.71244" lon="3.9046">
        <ele>1045.054</ele>
        <time>2011-06-01T09:01:16Z</time>
      </trkpt>
      <trkpt lat="44.71244" lon="3.9046">
        <ele>1045.614</ele>
        <time>2011-06-01T09:01:26Z</time>
      </trkpt>
      <trkpt lat="44.71244" lon="3.9046">
        <ele>1045.023</ele>
        <time>2011-06-01T09:01:36Z</time>
      </trkpt>
      <trkpt lat="44.71244" lon="3.9046">
        <ele>1044.735</ele>
        <time>2011-06-01T09:01:46Z</time>
      </trkpt>
      <trkpt lat="44.71244" lon="3.9046">
        <ele>1044.61</ele>
        <time>2011-06-01T09:01:56Z</time>
      </trkpt>
      <trkpt lat="44.71244" lon="3.9046">
        <ele>1045.592</ele>
        <time>2011-06-01T09:02:06Z</time>
      </trkpt>
      <trkpt lat="44.71244" lon="3.9046">
        <ele>1045.163</ele>
        <time>2011-06-01T09:02:16Z</time>
      </trkpt>
      <trkpt lat="44.71244" lon="3.9046">
        <ele>1044.755</ele>
        <time>2011-06-01T09:02:26Z</time>
      </trkpt>
      <trkpt lat="44.71244" lon="3.9046">
        <ele>1044.713</ele>
        <time>2011-06-01T09:02:36Z</time>
      </trkpt>
      <trkpt lat="44.71244" lon="3.9046">
        <ele>1044.305</ele>
        <time>2011-06-01T09:02:46Z</time>
      </trkpt>
      <trkpt lat="44.71244" lon="3.9046">
        <ele>1044.264</ele>
        <time>2011-06-01T09:02:56Z</time>
      </trkpt>
      <trkpt lat="44.71244" lon="3.9046">
        <ele>1043.851</ele>
        <time>2011-06-01T09:03:06Z</time>
      </trkpt>
      <trkpt lat="44.71244" lon="3.9046">
        <ele>1044.672</ele>
        <time>2011-06-01T09:03:16Z</time>
      </trkpt>
      <trkpt lat="44.71244" lon="3.9046">
        <ele>1044.732</ele>
        <time>2011-06-01T09:03:26Z</time>
      </trkpt>
      <trkpt lat="44.71244" lon="3.9046">
        <ele>1043.886</ele>
        <time>2011-06-01T09:03:36Z</time>
      </trkpt>
      <trkpt lat="44.71244" lon="3.9046">
        <ele>1044.139</ele>
        <time>2011-06-01T09:03:46Z</time>
      </trkpt>
      <trkpt lat="44.71244" lon="3.9046">
        <ele>1044.26</ele>
        <time>2011-06-01T09:03:56Z</time>
      </trkpt>
      <trkpt lat="44.71244" lon="3.9046">
        <ele>1044.296</ele>
        <time>2011-06-01T09:04:06Z</time>
      </trkpt>
      <trkpt lat="44.71244" lon="3.9046">
        <ele>1043.724</ele>
        <time>2011-06-01T09:04:16Z</time>
      </trkpt>
      <trkpt lat="44.71244" lon="3.9046">
        <ele>1044.507</ele>
        <time>2011-06-01T09:04:26Z</time>
      </trkpt>
      <trkpt lat="44.71244" lon="3.9046">
        <ele>1044.557</ele>
        <time>2011-06-01T09:04:36Z</time>
      </trkpt>
      <trkpt lat="44.71244" lon="3.9046">
        <ele>1044.781</ele>
        <time>2011-06-01T09:04:46Z</time>
      </trkpt>
      <trkpt lat="44.71244" lon="3.9046">
        <ele>1043.819</ele>
        <time>2011-06-01T09:04:56Z</time>
      </trkpt>
      <trkpt lat="44.71244" lon="3.9046">
        <ele>1043.571</ele>
        <time>2011-06-01T09:05:06Z</time>
      </trkpt>
      <trkpt lat="44.71244" lon="3.9046">
        <ele>1044.154</ele>
        <time>2011-06-01T09:05:16Z</time>
      </trkpt>
      <trkpt lat="44.71244" lon="3.9046">
        <ele>1043.489</ele>
        <time>2011-06-01T09:05:26Z</time>
      </trkpt>
      <trkpt lat="44.71244" lon="3.9046">
        <ele>1043.954</ele>
        <time>2011-06-01T09:05:36Z</time>
      </trkpt>
      <trkpt lat="44.71244" lon="3.9046">
        <ele>1042.603</ele>
        <time>2011-06-01T09:05:46Z</time>
      </trkpt>
      <trkpt lat="44.71244" lon="3.9046">
        <ele>1044.385</ele>
        <time>2011-06-01T09:05:56Z</time>
      </trkpt>
      <trkpt lat="44.71244" lon="3.9046">
        <ele>1044.852</ele>
        <time>2011-06-01T09:06:06Z</time>
      </trkpt>
      <trkpt lat="44.71244" lon="3.9046">
        <ele>1044.375</ele>
        <time>2011-06-01T09:06:16Z</time>
      </trkpt>
      <trkpt lat="44.71244" lon="3.9046">
        <ele>1044.093</ele>
        <time>2011-06-01T09:06:26Z</time>
      </trkpt>
      <trkpt lat="44.71244" lon="3.9046">
        <ele>1044.092</ele>
        <time>2011-06-01T09:06:36Z</time>
      </trkpt>
      <trkpt lat="44.71244" lon="3.9046">
        <ele>1044.366</ele>
        <time>2011-06-01T09:06:46Z</time>
      </trkpt>
      <trkpt lat="44.71244" lon="3.9046">
        <ele>1043.235</ele>
        <time>2011-06-01T09:06:56Z</time>
      </trkpt>
      <trkpt lat="44.71244" lon="3.9046">
        <ele>1043.784</ele>
        <time>2011-06-01T09:07:06Z</time>
      </trkpt>
      <trkpt lat="44.71244" lon="3.9046">
        <ele>1044.254</ele>
        <time>2011-06-01T09:07:16Z</time>
      </trkpt>
      <trkpt lat="44.71244" lon="3.9046">
        <ele>1045.363</ele>
        <time>2011-06-01T09:07:26Z</time>
      </trkpt>
      <trkpt lat="44.71244" lon="3.9046">
        <ele>1045.509</ele>
        <time>2011-06-01T09:07:36Z</time>
      </trkpt>
      <trkpt lat="44.71244" lon="3.9046">
        <ele>1044.282</ele>
        <time>2011-06-01T09:07:46Z</time>
      </trkpt>
      <trkpt lat="44.71244" lon="3.9046">
        <ele>1045.18</ele>
        <time>2011-06-01T09:07:56Z</time>
      </trkpt>
      <trkpt lat="44.71244" lon="3.9046">
        <ele>1045.188</ele>
        <time>2011-06-01T09:08:06Z</time>
      </trkpt>
      <trkpt lat="44.71244" lon="3.9046">
        <ele>1045.727</ele>
        <time>2011-06-01T09:08:16Z</time>
      </trkpt>
      <trkpt lat="44.71244" lon="3.9046">
        <ele>1044.931</ele>
        <time>2011-06-01T09:08:26Z</time>
      </trkpt>
      <trkpt lat="44.71244" lon="3.9046">
        <ele>1045.451</ele>
        <time>2011-06-01T09:08:36Z</time>
      </trkpt>
      <trkpt lat="44.71244" lon="3.9046">
        <ele>1045.078</ele>
        <time>2011-06-01T09:08:46Z</time>
      </trkpt>
      <trkpt lat="44.71244" lon="3.9046">
        <ele>1045.356</ele>
        <time>2011-06-01T09:08:56Z</time>
      </trkpt>
      <trkpt lat="44.71243" lon="3.90457">
        <ele>1045.503</ele>
        <time>2011-06-01T09:09:06Z</time>
      </trkpt>
      <trkpt lat="44.71239" lon="3.90454">
        <ele>1046.736</ele>
        <time>2011-06-01T09:09:16Z</time>
      </trkpt>
      <trkpt lat="44.71227" lon="3.90462">
        <ele>1045.895</ele>
        <time>2011-06-01T09:09:26Z</time>
      </trkpt>
      <trkpt lat="44.7122" lon="3.90466">
        <ele>1045.693</ele>
        <time>2011-06-01T09:09:36Z</time>
      </trkpt>
      <trkpt lat="44.7121" lon="3.90478">
        <ele>1044.167</ele>
        <time>2011-06-01T09:09:46Z</time>
      </trkpt>
      <trkpt lat="44.71203" lon="3.90488">
        <ele>1044.912</ele>
        <time>2011-06-01T09:09:56Z</time>
      </trkpt>
      <trkpt lat="44.71192" lon="3.90496">
        <ele>1046.272</ele>
        <time>2011-06-01T09:10:06Z</time>
      </trkpt>
      <trkpt lat="44.71179" lon="3.90505">
        <ele>1045.657</ele>
        <time>2011-06-01T09:10:16Z</time>
      </trkpt>
      <trkpt lat="44.71168" lon="3.90513">
        <ele>1045.64</ele>
        <time>2011-06-01T09:10:26Z</time>
      </trkpt>
      <trkpt lat="44.71156" lon="3.90519">
        <ele>1046.334</ele>
        <time>2011-06-01T09:10:36Z</time>
      </trkpt>
      <trkpt lat="44.71144" lon="3.90526">
        <ele>1047.253</ele>
        <time>2011-06-01T09:10:46Z</time>
      </trkpt>
      <trkpt lat="44.71131" lon="3.90529">
        <ele>1047.892</ele>
        <time>2011-06-01T09:10:56Z</time>
      </trkpt>
      <trkpt lat="44.71121" lon="3.9053">
        <ele>1049.103</ele>
        <time>2011-06-01T09:11:06Z</time>
      </trkpt>
      <trkpt lat="44.71107" lon="3.90529">
        <ele>1047.192</ele>
        <time>2011-06-01T09:11:16Z</time>
      </trkpt>
      <trkpt lat="44.71095" lon="3.90526">
        <ele>1048.627</ele>
        <time>2011-06-01T09:11:26Z</time>
      </trkpt>
      <trkpt lat="44.71081" lon="3.90526">
        <ele>1049.321</ele>
        <time>2011-06-01T09:11:36Z</time>
      </trkpt>
      <trkpt lat="44.71067" lon="3.90527">
        <ele>1049.381</ele>
        <time>2011-06-01T09:11:46Z</time>
      </trkpt>
      <trkpt lat="44.71055" lon="3.90525">
        <ele>1051.136</ele>
        <time>2011-06-01T09:11:56Z</time>
      </trkpt>
      <trkpt lat="44.71047" lon="3.9053">
        <ele>1051.539</ele>
        <time>2011-06-01T09:12:06Z</time>
      </trkpt>
      <trkpt lat="44.71033" lon="3.90533">
        <ele>1053.439</ele>
        <time>2011-06-01T09:12:16Z</time>
      </trkpt>
      <trkpt lat="44.7102" lon="3.90538">
        <ele>1055.085</ele>
        <time>2011-06-01T09:12:26Z</time>
      </trkpt>
      <trkpt lat="44.71008" lon="3.90543">
        <ele>1055.596</ele>
        <time>2011-06-01T09:12:36Z</time>
      </trkpt>
      <trkpt lat="44.70999" lon="3.90555">
        <ele>1057.666</ele>
        <time>2011-06-01T09:12:46Z</time>
      </trkpt>
      <trkpt lat="44.7099" lon="3.90559">
        <ele>1059.537</ele>
        <time>2011-06-01T09:12:56Z</time>
      </trkpt>
      <trkpt lat="44.70985" lon="3.90562">
        <ele>1060.698</ele>
        <time>2011-06-01T09:13:06Z</time>
      </trkpt>
      <trkpt lat="44.70973" lon="3.90561">
        <ele>1062.101</ele>
        <time>2011-06-01T09:13:16Z</time>
      </trkpt>
      <trkpt lat="44.70964" lon="3.90566">
        <ele>1063.178</ele>
        <time>2011-06-01T09:13:26Z</time>
      </trkpt>
      <trkpt lat="44.70957" lon="3.90571">
        <ele>1064.973</ele>
        <time>2011-06-01T09:13:36Z</time>
      </trkpt>
      <trkpt lat="44.70949" lon="3.90571">
        <ele>1065.415</ele>
        <time>2011-06-01T09:13:46Z</time>
      </trkpt>
      <trkpt lat="44.70941" lon="3.90576">
        <ele>1068.57</ele>
        <time>2011-06-01T09:13:56Z</time>
      </trkpt>
      <trkpt lat="44.70929" lon="3.90582">
        <ele>1071.741</ele>
        <time>2011-06-01T09:14:06Z</time>
      </trkpt>
      <trkpt lat="44.70919" lon="3.90588">
        <ele>1072.748</ele>
        <time>2011-06-01T09:14:16Z</time>
      </trkpt>
      <trkpt lat="44.70907" lon="3.9059">
        <ele>1070.638</ele>
        <time>2011-06-01T09:14:26Z</time>
      </trkpt>
      <trkpt lat="44.70901" lon="3.90605">
        <ele>1071.172</ele>
        <time>2011-06-01T09:14:36Z</time>
      </trkpt>
      <trkpt lat="44.70893" lon="3.9062">
        <ele>1069.792</ele>
        <time>2011-06-01T09:14:46Z</time>
      </trkpt>
      <trkpt lat="44.70887" lon="3.90635">
        <ele>1069.349</ele>
        <time>2011-06-01T09:14:56Z</time>
      </trkpt>
      <trkpt lat="44.70878" lon="3.90654">
        <ele>1069.188</ele>
        <time>2011-06-01T09:15:06Z</time>
      </trkpt>
      <trkpt lat="44.70873" lon="3.90668">
        <ele>1069.944</ele>
        <time>2011-06-01T09:15:16Z</time>
      </trkpt>
      <trkpt lat="44.70868" lon="3.9068">
        <ele>1070.024</ele>
        <time>2011-06-01T09:15:26Z</time>
      </trkpt>
      <trkpt lat="44.7086" lon="3.90693">
        <ele>1070.307</ele>
        <time>2011-06-01T09:15:36Z</time>
      </trkpt>
      <trkpt lat="44.70852" lon="3.9071">
        <ele>1069.95</ele>
        <time>2011-06-01T09:15:46Z</time>
      </trkpt>
      <trkpt lat="44.70846" lon="3.90725">
        <ele>1072.079</ele>
        <time>2011-06-01T09:15:56Z</time>
      </trkpt>
      <trkpt lat="44.70839" lon="3.90738">
        <ele>1071.211</ele>
        <time>2011-06-01T09:16:06Z</time>
      </trkpt>
      <trkpt lat="44.70831" lon="3.90752">
        <ele>1070.436</ele>
        <time>2011-06-01T09:16:16Z</time>
      </trkpt>
      <trkpt lat="44.7082" lon="3.90762">
        <ele>1070.497</ele>
        <time>2011-06-01T09:16:26Z</time>
      </trkpt>
      <trkpt lat="44.70809" lon="3.90776">
        <ele>1071.326</ele>
        <time>2011-06-01T09:16:36Z</time>
      </trkpt>
      <trkpt lat="44.70798" lon="3.90789">
        <ele>1069.303</ele>
        <time>2011-06-01T09:16:46Z</time>
      </trkpt>
      <trkpt lat="44.70788" lon="3.908">
        <ele>1069.134</ele>
        <time>2011-06-01T09:16:56Z</time>
      </trkpt>
      <trkpt lat="44.70776" lon="3.90812">
        <ele>1069.175</ele>
        <time>2011-06-01T09:17:06Z</time>
      </trkpt>
      <trkpt lat="44.70764" lon="3.90821">
        <ele>1070.016</ele>
        <time>2011-06-01T09:17:16Z</time>
      </trkpt>
      <trkpt lat="44.70756" lon="3.90832">
        <ele>1070.581</ele>
        <time>2011-06-01T09:17:26Z</time>
      </trkpt>
      <trkpt lat="44.7075" lon="3.90847">
        <ele>1070.189</ele>
        <time>2011-06-01T09:17:36Z</time>
      </trkpt>
      <trkpt lat="44.70741" lon="3.90864">
        <ele>1070.829</ele>
        <time>2011-06-01T09:17:46Z</time>
      </trkpt>
      <trkpt lat="44.70729" lon="3.90873">
        <ele>1072.853</ele>
        <time>2011-06-01T09:17:56Z</time>
      </trkpt>
      <trkpt lat="44.70721" lon="3.90885">
        <ele>1073.213</ele>
        <time>2011-06-01T09:18:06Z</time>
      </trkpt>
      <trkpt lat="44.70712" lon="3.90896">
        <ele>1072.733</ele>
        <time>2011-06-01T09:18:16Z</time>
      </trkpt>
      <trkpt lat="44.70702" lon="3.90907">
        <ele>1072.336</ele>
        <time>2011-06-01T09:18:26Z</time>
      </trkpt>
      <trkpt lat="44.70692" lon="3.9092">
        <ele>1076.524</ele>
        <time>2011-06-01T09:18:36Z</time>
      </trkpt>
      <trkpt lat="44.70683" lon="3.9093">
        <ele>1074.507</ele>
        <time>2011-06-01T09:18:46Z</time>
      </trkpt>
      <trkpt lat="44.70673" lon="3.90941">
        <ele>1074.593</ele>
        <time>2011-06-01T09:18:56Z</time>
      </trkpt>
      <trkpt lat="44.70666" lon="3.90956">
        <ele>1074.942</ele>
        <time>2011-06-01T09:19:06Z</time>
      </trkpt>
      <trkpt lat="44.70663" lon="3.90969">
        <ele>1074.717</ele>
        <time>2011-06-01T09:19:16Z</time>
      </trkpt>
      <trkpt lat="44.70658" lon="3.90988">
        <ele>1075.33</ele>
        <time>2011-06-01T09:19:26Z</time>
      </trkpt>
      <trkpt lat="44.70654" lon="3.91007">
        <ele>1076.11</ele>
        <time>2011-06-01T09:19:36Z</time>
      </trkpt>
      <trkpt lat="44.70652" lon="3.91023">
        <ele>1076.384</ele>
        <time>2011-06-01T09:19:46Z</time>
      </trkpt>
      <trkpt lat="44.70652" lon="3.91039">
        <ele>1077.187</ele>
        <time>2011-06-01T09:19:56Z</time>
      </trkpt>
      <trkpt lat="44.70654" lon="3.91054">
        <ele>1077.973</ele>
        <time>2011-06-01T09:20:06Z</time>
      </trkpt>
      <trkpt lat="44.70649" lon="3.91049">
        <ele>1077.286</ele>
        <time>2011-06-01T09:20:16Z</time>
      </trkpt>
      <trkpt lat="44.70648" lon="3.91048">
        <ele>1078.234</ele>
        <time>2011-06-01T09:20:26Z</time>
      </trkpt>
      <trkpt lat="44.70648" lon="3.91048">
        <ele>1078.131</ele>
        <time>2011-06-01T09:20:36Z</time>
      </trkpt>
      <trkpt lat="44.70644" lon="3.91045">
        <ele>1077.815</ele>
        <time>2011-06-01T09:20:46Z</time>
      </trkpt>
      <trkpt lat="44.70635" lon="3.91038">
        <ele>1077.472</ele>
        <time>2011-06-01T09:20:56Z</time>
      </trkpt>
      <trkpt lat="44.70633" lon="3.91037">
        <ele>1076.659</ele>
        <time>2011-06-01T09:21:06Z</time>
      </trkpt>
      <trkpt lat="44.70632" lon="3.91037">
        <ele>1076.26</ele>
        <time>2011-06-01T09:21:16Z</time>
      </trkpt>
      <trkpt lat="44.70632" lon="3.91037">
        <ele>1077.157</ele>
        <time>2011-06-01T09:21:26Z</time>
      </trkpt>
      <trkpt lat="44.70632" lon="3.91037">
        <ele>1076.317</ele>
        <time>2011-06-01T09:21:36Z</time>
      </trkpt>
      <trkpt lat="44.7064" lon="3.91024">
        <ele>1075.697</ele>
        <time>2011-06-01T09:21:46Z</time>
      </trkpt>
      <trkpt lat="44.70648" lon="3.91009">
        <ele>1076.51</ele>
        <time>2011-06-01T09:21:56Z</time>
      </trkpt>
      <trkpt lat="44.70655" lon="3.90992">
        <ele>1075.966</ele>
        <time>2011-06-01T09:22:06Z</time>
      </trkpt>
      <trkpt lat="44.70658" lon="3.90976">
        <ele>1075.255</ele>
        <time>2011-06-01T09:22:16Z</time>
      </trkpt>
      <trkpt lat="44.70663" lon="3.90959">
        <ele>1075.577</ele>
        <time>2011-06-01T09:22:26Z</time>
      </trkpt>
      <trkpt lat="44.70668" lon="3.90944">
        <ele>1075.133</ele>
        <time>2011-06-01T09:22:36Z</time>
      </trkpt>
      <trkpt lat="44.70678" lon="3.9093">
        <ele>1075.003</ele>
        <time>2011-06-01T09:22:46Z</time>
      </trkpt>
      <trkpt lat="44.70686" lon="3.90919">
        <ele>1074.13</ele>
        <time>2011-06-01T09:22:56Z</time>
      </trkpt>
      <trkpt lat="44.70692" lon="3.90904">
        <ele>1074.878</ele>
        <time>2011-06-01T09:23:06Z</time>
      </trkpt>
      <trkpt lat="44.70691" lon="3.90887">
        <ele>1074.69</ele>
        <time>2011-06-01T09:23:16Z</time>
      </trkpt>
      <trkpt lat="44.70682" lon="3.90872">
        <ele>1074.444</ele>
        <time>2011-06-01T09:23:26Z</time>
      </trkpt>
      <trkpt lat="44.70678" lon="3.90858">
        <ele>1073.76</ele>
        <time>2011-06-01T09:23:36Z</time>
      </trkpt>
      <trkpt lat="44.70675" lon="3.90842">
        <ele>1072.244</ele>
        <time>2011-06-01T09:23:46Z</time>
      </trkpt>
      <trkpt lat="44.70673" lon="3.90819">
        <ele>1071.11</ele>
        <time>2011-06-01T09:23:56Z</time>
      </trkpt>
      <trkpt lat="44.70671" lon="3.90801">
        <ele>1071.22</ele>
        <time>2011-06-01T09:24:06Z</time>
      </trkpt>
      <trkpt lat="44.70671" lon="3.90783">
        <ele>1072.029</ele>
        <time>2011-06-01T09:24:16Z</time>
      </trkpt>
      <trkpt lat="44.7067" lon="3.90765">
        <ele>1072.279</ele>
        <time>2011-06-01T09:24:26Z</time>
      </trkpt>
      <trkpt lat="44.70663" lon="3.90741">
        <ele>1072.445</ele>
        <time>2011-06-01T09:24:36Z</time>
      </trkpt>
      <trkpt lat="44.70663" lon="3.90728">
        <ele>1072.269</ele>
        <time>2011-06-01T09:24:46Z</time>
      </trkpt>
      <trkpt lat="44.70665" lon="3.90714">
        <ele>1072.172</ele>
        <time>2011-06-01T09:24:56Z</time>
      </trkpt>
      <trkpt lat="44.70667" lon="3.90697">
        <ele>1070.424</ele>
        <time>2011-06-01T09:25:06Z</time>
      </trkpt>
      <trkpt lat="44.7067" lon="3.90683">
        <ele>1070.777</ele>
        <time>2011-06-01T09:25:16Z</time>
      </trkpt>
      <trkpt lat="44.70674" lon="3.90668">
        <ele>1069.195</ele>
        <time>2011-06-01T09:25:26Z</time>
      </trkpt>
      <trkpt lat="44.70676" lon="3.90655">
        <ele>1069.166</ele>
        <time>2011-06-01T09:25:36Z</time>
      </trkpt>
      <trkpt lat="44.70677" lon="3.90634">
        <ele>1068.614</ele>
        <time>2011-06-01T09:25:46Z</time>
      </trkpt>
      <trkpt lat="44.70673" lon="3.90619">
        <ele>1068.629</ele>
        <time>2011-06-01T09:25:56Z</time>
      </trkpt>
      <trkpt lat="44.70666" lon="3.90607">
        <ele>1065.794</ele>
        <time>2011-06-01T09:26:06Z</time>
      </trkpt>
      <trkpt lat="44.70658" lon="3.90596">
        <ele>1063.376</ele>
        <time>2011-06-01T09:26:16Z</time>
      </trkpt>
      <trkpt lat="44.70648" lon="3.90586">
        <ele>1063.172</ele>
        <time>2011-06-01T09:26:26Z</time>
      </trkpt>
      <trkpt lat="44.70642" lon="3.90575">
        <ele>1062.946</ele>
        <time>2011-06-01T09:26:36Z</time>
      </trkpt>
      <trkpt lat="44.7064" lon="3.90567">
        <ele>1061.761</ele>
        <time>2011-06-01T09:26:46Z</time>
      </trkpt>
      <trkpt lat="44.70632" lon="3.90559">
        <ele>1060.927</ele>
        <time>2011-06-01T09:26:56Z</time>
      </trkpt>
      <trkpt lat="44.70622" lon="3.90548">
        <ele>1059.511</ele>
        <time>2011-06-01T09:27:06Z</time>
      </trkpt>
      <trkpt lat="44.70613" lon="3.90535">
        <ele>1057.561</ele>
        <time>2011-06-01T09:27:16Z</time>
      </trkpt>
      <trkpt lat="44.70598" lon="3.9052">
        <ele>1055.524</ele>
        <time>2011-06-01T09:27:26Z</time>
      </trkpt>
      <trkpt lat="44.70596" lon="3.90506">
        <ele>1054.907</ele>
        <time>2011-06-01T09:27:36Z</time>
      </trkpt>
      <trkpt lat="44.70595" lon="3.90499">
        <ele>1054.831</ele>
        <time>2011-06-01T09:27:46Z</time>
      </trkpt>
      <trkpt lat="44.7059" lon="3.90485">
        <ele>1049.259</ele>
        <time>2011-06-01T09:27:56Z</time>
      </trkpt>
      <trkpt lat="44.70582" lon="3.90475">
        <ele>1052.464</ele>
        <time>2011-06-01T09:28:06Z</time>
      </trkpt>
      <trkpt lat="44.70579" lon="3.90469">
        <ele>1052.592</ele>
        <time>2011-06-01T09:28:16Z</time>
      </trkpt>
      <trkpt lat="44.70572" lon="3.90452">
        <ele>1050.899</ele>
        <time>2011-06-01T09:28:26Z</time>
      </trkpt>
      <trkpt lat="44.70565" lon="3.90441">
        <ele>1049.993</ele>
        <time>2011-06-01T09:28:36Z</time>
      </trkpt>
      <trkpt lat="44.70559" lon="3.9043">
        <ele>1050.261</ele>
        <time>2011-06-01T09:28:46Z</time>
      </trkpt>
      <trkpt lat="44.70547" lon="3.90411">
        <ele>1049.014</ele>
        <time>2011-06-01T09:28:56Z</time>
      </trkpt>
      <trkpt lat="44.70538" lon="3.90394">
        <ele>1045.874</ele>
        <time>2011-06-01T09:29:06Z</time>
      </trkpt>
      <trkpt lat="44.70528" lon="3.9038">
        <ele>1045.94</ele>
        <time>2011-06-01T09:29:16Z</time>
      </trkpt>
      <trkpt lat="44.7052" lon="3.9037">
        <ele>1045.143</ele>
        <time>2011-06-01T09:29:26Z</time>
      </trkpt>
      <trkpt lat="44.70511" lon="3.90356">
        <ele>1043.281</ele>
        <time>2011-06-01T09:29:36Z</time>
      </trkpt>
      <trkpt lat="44.70503" lon="3.90343">
        <ele>1042.054</ele>
        <time>2011-06-01T09:29:46Z</time>
      </trkpt>
      <trkpt lat="44.70495" lon="3.90335">
        <ele>1040.771</ele>
        <time>2011-06-01T09:29:56Z</time>
      </trkpt>
      <trkpt lat="44.70486" lon="3.90329">
        <ele>1039.747</ele>
        <time>2011-06-01T09:30:06Z</time>
      </trkpt>
      <trkpt lat="44.70479" lon="3.90322">
        <ele>1039.456</ele>
        <time>2011-06-01T09:30:16Z</time>
      </trkpt>
      <trkpt lat="44.7047" lon="3.90317">
        <ele>1038.55</ele>
        <time>2011-06-01T09:30:26Z</time>
      </trkpt>
      <trkpt lat="44.70463" lon="3.90304">
        <ele>1036.81</ele>
        <time>2011-06-01T09:30:36Z</time>
      </trkpt>
      <trkpt lat="44.70458" lon="3.90293">
        <ele>1037.177</ele>
        <time>2011-06-01T09:30:46Z</time>
      </trkpt>
      <trkpt lat="44.70453" lon="3.90283">
        <ele>1036.879</ele>
        <time>2011-06-01T09:30:56Z</time>
      </trkpt>
      <trkpt lat="44.70453" lon="3.90283">
        <ele>1036.961</ele>
        <time>2011-06-01T09:31:06Z</time>
      </trkpt>
      <trkpt lat="44.70451" lon="3.90283">
        <ele>1035.936</ele>
        <time>2011-06-01T09:31:16Z</time>
      </trkpt>
      <trkpt lat="44.70443" lon="3.9027">
        <ele>1036.264</ele>
        <time>2011-06-01T09:31:26Z</time>
      </trkpt>
      <trkpt lat="44.70435" lon="3.90261">
        <ele>1036.154</ele>
        <time>2011-06-01T09:31:36Z</time>
      </trkpt>
      <trkpt lat="44.70425" lon="3.90248">
        <ele>1033.699</ele>
        <time>2011-06-01T09:31:46Z</time>
      </trkpt>
      <trkpt lat="44.70416" lon="3.90238">
        <ele>1032.958</ele>
        <time>2011-06-01T09:31:56Z</time>
      </trkpt>
      <trkpt lat="44.70409" lon="3.90226">
        <ele>1032.406</ele>
        <time>2011-06-01T09:32:06Z</time>
      </trkpt>
      <trkpt lat="44.70401" lon="3.90213">
        <ele>1031.467</ele>
        <time>2011-06-01T09:32:16Z</time>
      </trkpt>
      <trkpt lat="44.70399" lon="3.90203">
        <ele>1030.479</ele>
        <time>2011-06-01T09:32:26Z</time>
      </trkpt>
      <trkpt lat="44.7039" lon="3.9019">
        <ele>1030.582</ele>
        <time>2011-06-01T09:32:36Z</time>
      </trkpt>
      <trkpt lat="44.70383" lon="3.90174">
        <ele>1030.646</ele>
        <time>2011-06-01T09:32:46Z</time>
      </trkpt>
      <trkpt lat="44.70377" lon="3.90161">
        <ele>1029.854</ele>
        <time>2011-06-01T09:32:56Z</time>
      </trkpt>
      <trkpt lat="44.70368" lon="3.90149">
        <ele>1030.429</ele>
        <time>2011-06-01T09:33:06Z</time>
      </trkpt>
      <trkpt lat="44.70361" lon="3.90141">
        <ele>1029.909</ele>
        <time>2011-06-01T09:33:16Z</time>
      </trkpt>
      <trkpt lat="44.70361" lon="3.90124">
        <ele>1027.977</ele>
        <time>2011-06-01T09:33:26Z</time>
      </trkpt>
      <trkpt lat="44.70356" lon="3.90108">
        <ele>1026.021</ele>
        <time>2011-06-01T09:33:36Z</time>
      </trkpt>
      <trkpt lat="44.70351" lon="3.90093">
        <ele>1024.677</ele>
        <time>2011-06-01T09:33:46Z</time>
      </trkpt>
      <trkpt lat="44.70345" lon="3.90079">
        <ele>1022.341</ele>
        <time>2011-06-01T09:33:56Z</time>
      </trkpt>
      <trkpt lat="44.7034" lon="3.90063">
        <ele>1021.476</ele>
        <time>2011-06-01T09:34:06Z</time>
      </trkpt>
      <trkpt lat="44.70332" lon="3.90047">
        <ele>1020.114</ele>
        <time>2011-06-01T09:34:16Z</time>
      </trkpt>
      <trkpt lat="44.70326" lon="3.90031">
        <ele>1019.45</ele>
        <time>2011-06-01T09:34:26Z</time>
      </trkpt>
      <trkpt lat="44.70316" lon="3.90016">
        <ele>1017.448</ele>
        <time>2011-06-01T09:34:36Z</time>
      </trkpt>
      <trkpt lat="44.70307" lon="3.90005">
        <ele>1017.121</ele>
        <time>2011-06-01T09:34:46Z</time>
      </trkpt>
      <trkpt lat="44.70298" lon="3.8999">
        <ele>1015.165</ele>
        <time>2011-06-01T09:34:56Z</time>
      </trkpt>
      <trkpt lat="44.70292" lon="3.89976">
        <ele>1014.132</ele>
        <time>2011-06-01T09:35:06Z</time>
      </trkpt>
      <trkpt lat="44.70292" lon="3.8996">
        <ele>1012.74</ele>
        <time>2011-06-01T09:35:16Z</time>
      </trkpt>
      <trkpt lat="44.7029" lon="3.8994">
        <ele>1011.621</ele>
        <time>2011-06-01T09:35:26Z</time>
      </trkpt>
      <trkpt lat="44.70284" lon="3.89923">
        <ele>1010.412</ele>
        <time>2011-06-01T09:35:36Z</time>
      </trkpt>
      <trkpt lat="44.70279" lon="3.89911">
        <ele>1010.576</ele>
        <time>2011-06-01T09:35:46Z</time>
      </trkpt>
      <trkpt lat="44.7027" lon="3.89898">
        <ele>1009.885</ele>
        <time>2011-06-01T09:35:56Z</time>
      </trkpt>
      <trkpt lat="44.70263" lon="3.89886">
        <ele>1009.148</ele>
        <time>2011-06-01T09:36:06Z</time>
      </trkpt>
      <trkpt lat="44.70253" lon="3.89882">
        <ele>1008.465</ele>
        <time>2011-06-01T09:36:16Z</time>
      </trkpt>
      <trkpt lat="44.70243" lon="3.89884">
        <ele>1006.74</ele>
        <time>2011-06-01T09:36:26Z</time>
      </trkpt>
      <trkpt lat="44.70232" lon="3.89883">
        <ele>1004.325</ele>
        <time>2011-06-01T09:36:36Z</time>
      </trkpt>
      <trkpt lat="44.7022" lon="3.89881">
        <ele>1001.513</ele>
        <time>2011-06-01T09:36:46Z</time>
      </trkpt>
      <trkpt lat="44.70211" lon="3.89873">
        <ele>1000.06</ele>
        <time>2011-06-01T09:36:56Z</time>
      </trkpt>
      <trkpt lat="44.702" lon="3.89867">
        <ele>998.018</ele>
        <time>2011-06-01T09:37:06Z</time>
      </trkpt>
      <trkpt lat="44.70187" lon="3.89857">
        <ele>996.223</ele>
        <time>2011-06-01T09:37:16Z</time>
      </trkpt>
      <trkpt lat="44.70174" lon="3.89842">
        <ele>993.705</ele>
        <time>2011-06-01T09:37:26Z</time>
      </trkpt>
      <trkpt lat="44.70167" lon="3.89839">
        <ele>991.525</ele>
        <time>2011-06-01T09:37:36Z</time>
      </trkpt>
      <trkpt lat="44.70154" lon="3.89839">
        <ele>989.903</ele>
        <time>2011-06-01T09:37:46Z</time>
      </trkpt>
      <trkpt lat="44.70147" lon="3.89829">
        <ele>987.916</ele>
        <time>2011-06-01T09:37:56Z</time>
      </trkpt>
      <trkpt lat="44.70154" lon="3.89815">
        <ele>986.092</ele>
        <time>2011-06-01T09:38:06Z</time>
      </trkpt>
      <trkpt lat="44.7016" lon="3.89803">
        <ele>984.417</ele>
        <time>2011-06-01T09:38:16Z</time>
      </trkpt>
      <trkpt lat="44.70165" lon="3.89783">
        <ele>982.704</ele>
        <time>2011-06-01T09:38:26Z</time>
      </trkpt>
      <trkpt lat="44.70166" lon="3.89762">
        <ele>982.375</ele>
        <time>2011-06-01T09:38:36Z</time>
      </trkpt>
      <trkpt lat="44.70168" lon="3.89746">
        <ele>980.398</ele>
        <time>2011-06-01T09:38:46Z</time>
      </trkpt>
      <trkpt lat="44.70169" lon="3.89731">
        <ele>978.47</ele>
        <time>2011-06-01T09:38:56Z</time>
      </trkpt>
      <trkpt lat="44.70173" lon="3.89718">
        <ele>976.526</ele>
        <time>2011-06-01T09:39:06Z</time>
      </trkpt>
      <trkpt lat="44.70178" lon="3.89703">
        <ele>974.354</ele>
        <time>2011-06-01T09:39:16Z</time>
      </trkpt>
      <trkpt lat="44.70184" lon="3.89689">
        <ele>973.301</ele>
        <time>2011-06-01T09:39:26Z</time>
      </trkpt>
      <trkpt lat="44.70187" lon="3.89676">
        <ele>971.621</ele>
        <time>2011-06-01T09:39:36Z</time>
      </trkpt>
      <trkpt lat="44.70195" lon="3.89664">
        <ele>969.536</ele>
        <time>2011-06-01T09:39:46Z</time>
      </trkpt>
      <trkpt lat="44.702" lon="3.8965">
        <ele>967.621</ele>
        <time>2011-06-01T09:39:56Z</time>
      </trkpt>
      <trkpt lat="44.70207" lon="3.89635">
        <ele>966.521</ele>
        <time>2011-06-01T09:40:06Z</time>
      </trkpt>
      <trkpt lat="44.70215" lon="3.89623">
        <ele>964.318</ele>
        <time>2011-06-01T09:40:16Z</time>
      </trkpt>
      <trkpt lat="44.70221" lon="3.8961">
        <ele>962.208</ele>
        <time>2011-06-01T09:40:26Z</time>
      </trkpt>
      <trkpt lat="44.70228" lon="3.896">
        <ele>959.812</ele>
        <time>2011-06-01T09:40:36Z</time>
      </trkpt>
      <trkpt lat="44.70237" lon="3.8959">
        <ele>958.125</ele>
        <time>2011-06-01T09:40:46Z</time>
      </trkpt>
      <trkpt lat="44.70242" lon="3.89576">
        <ele>956.081</ele>
        <time>2011-06-01T09:40:56Z</time>
      </trkpt>
      <trkpt lat="44.70242" lon="3.8957">
        <ele>955.782</ele>
        <time>2011-06-01T09:41:06Z</time>
      </trkpt>
      <trkpt lat="44.70247" lon="3.89564">
        <ele>955.206</ele>
        <time>2011-06-01T09:41:16Z</time>
      </trkpt>
      <trkpt lat="44.70253" lon="3.89559">
        <ele>954.527</ele>
        <time>2011-06-01T09:41:26Z</time>
      </trkpt>
      <trkpt lat="44.70261" lon="3.89552">
        <ele>954.336</ele>
        <time>2011-06-01T09:41:36Z</time>
      </trkpt>
      <trkpt lat="44.70272" lon="3.89547">
        <ele>952.986</ele>
        <time>2011-06-01T09:41:46Z</time>
      </trkpt>
      <trkpt lat="44.70271" lon="3.89537">
        <ele>950.618</ele>
        <time>2011-06-01T09:41:56Z</time>
      </trkpt>
      <trkpt lat="44.70258" lon="3.89534">
        <ele>949.591</ele>
        <time>2011-06-01T09:42:06Z</time>
      </trkpt>
      <trkpt lat="44.70246" lon="3.89533">
        <ele>948.618</ele>
        <time>2011-06-01T09:42:16Z</time>
      </trkpt>
      <trkpt lat="44.70235" lon="3.8953">
        <ele>948.072</ele>
        <time>2011-06-01T09:42:26Z</time>
      </trkpt>
      <trkpt lat="44.70224" lon="3.89529">
        <ele>947.102</ele>
        <time>2011-06-01T09:42:36Z</time>
      </trkpt>
      <trkpt lat="44.70211" lon="3.89527">
        <ele>946.051</ele>
        <time>2011-06-01T09:42:46Z</time>
      </trkpt>
      <trkpt lat="44.70201" lon="3.89531">
        <ele>946.044</ele>
        <time>2011-06-01T09:42:56Z</time>
      </trkpt>
      <trkpt lat="44.70197" lon="3.89533">
        <ele>945.34</ele>
        <time>2011-06-01T09:43:06Z</time>
      </trkpt>
      <trkpt lat="44.70188" lon="3.89543">
        <ele>945.89</ele>
        <time>2011-06-01T09:43:16Z</time>
      </trkpt>
      <trkpt lat="44.70181" lon="3.89547">
        <ele>946.223</ele>
        <time>2011-06-01T09:43:26Z</time>
      </trkpt>
      <trkpt lat="44.70171" lon="3.89561">
        <ele>947.877</ele>
        <time>2011-06-01T09:43:36Z</time>
      </trkpt>
      <trkpt lat="44.70162" lon="3.89572">
        <ele>947.789</ele>
        <time>2011-06-01T09:43:46Z</time>
      </trkpt>
      <trkpt lat="44.70151" lon="3.89577">
        <ele>947.824</ele>
        <time>2011-06-01T09:43:56Z</time>
      </trkpt>
      <trkpt lat="44.70139" lon="3.89581">
        <ele>947.766</ele>
        <time>2011-06-01T09:44:06Z</time>
      </trkpt>
      <trkpt lat="44.70128" lon="3.89587">
        <ele>947.747</ele>
        <time>2011-06-01T09:44:16Z</time>
      </trkpt>
      <trkpt lat="44.70115" lon="3.89585">
        <ele>947.54</ele>
        <time>2011-06-01T09:44:26Z</time>
      </trkpt>
      <trkpt lat="44.70102" lon="3.89582">
        <ele>947.288</ele>
        <time>2011-06-01T09:44:36Z</time>
      </trkpt>
      <trkpt lat="44.70091" lon="3.89577">
        <ele>947.186</ele>
        <time>2011-06-01T09:44:46Z</time>
      </trkpt>
      <trkpt lat="44.7008" lon="3.8957">
        <ele>946.825</ele>
        <time>2011-06-01T09:44:56Z</time>
      </trkpt>
      <trkpt lat="44.70069" lon="3.89565">
        <ele>946.063</ele>
        <time>2011-06-01T09:45:06Z</time>
      </trkpt>
      <trkpt lat="44.70059" lon="3.89561">
        <ele>946.414</ele>
        <time>2011-06-01T09:45:16Z</time>
      </trkpt>
      <trkpt lat="44.70049" lon="3.8956">
        <ele>946.18</ele>
        <time>2011-06-01T09:45:26Z</time>
      </trkpt>
      <trkpt lat="44.70048" lon="3.89559">
        <ele>945.289</ele>
        <time>2011-06-01T09:45:36Z</time>
      </trkpt>
      <trkpt lat="44.70039" lon="3.89558">
        <ele>946.101</ele>
        <time>2011-06-01T09:45:46Z</time>
      </trkpt>
      <trkpt lat="44.70028" lon="3.89557">
        <ele>945.652</ele>
        <time>2011-06-01T09:45:56Z</time>
      </trkpt>
      <trkpt lat="44.70017" lon="3.89556">
        <ele>944.905</ele>
        <time>2011-06-01T09:46:06Z</time>
      </trkpt>
      <trkpt lat="44.70006" lon="3.89554">
        <ele>944.927</ele>
        <time>2011-06-01T09:46:16Z</time>
      </trkpt>
      <trkpt lat="44.69993" lon="3.89554">
        <ele>944.21</ele>
        <time>2011-06-01T09:46:26Z</time>
      </trkpt>
      <trkpt lat="44.6998" lon="3.89554">
        <ele>945.003</ele>
        <time>2011-06-01T09:46:36Z</time>
      </trkpt>
      <trkpt lat="44.69968" lon="3.89554">
        <ele>944.745</ele>
        <time>2011-06-01T09:46:46Z</time>
      </trkpt>
      <trkpt lat="44.69956" lon="3.89555">
        <ele>944.497</ele>
        <time>2011-06-01T09:46:56Z</time>
      </trkpt>
      <trkpt lat="44.69943" lon="3.89556">
        <ele>944.605</ele>
        <time>2011-06-01T09:47:06Z</time>
      </trkpt>
      <trkpt lat="44.6993" lon="3.89557">
        <ele>943.94</ele>
        <time>2011-06-01T09:47:16Z</time>
      </trkpt>
      <trkpt lat="44.6992" lon="3.89559">
        <ele>943.466</ele>
        <time>2011-06-01T09:47:26Z</time>
      </trkpt>
      <trkpt lat="44.69909" lon="3.89563">
        <ele>942.948</ele>
        <time>2011-06-01T09:47:36Z</time>
      </trkpt>
      <trkpt lat="44.69896" lon="3.89567">
        <ele>943.289</ele>
        <time>2011-06-01T09:47:46Z</time>
      </trkpt>
      <trkpt lat="44.69887" lon="3.89572">
        <ele>944.487</ele>
        <time>2011-06-01T09:47:56Z</time>
      </trkpt>
      <trkpt lat="44.69874" lon="3.89574">
        <ele>944.065</ele>
        <time>2011-06-01T09:48:06Z</time>
      </trkpt>
      <trkpt lat="44.69855" lon="3.89585">
        <ele>944.592</ele>
        <time>2011-06-01T09:48:16Z</time>
      </trkpt>
      <trkpt lat="44.69843" lon="3.89594">
        <ele>944.373</ele>
        <time>2011-06-01T09:48:26Z</time>
      </trkpt>
      <trkpt lat="44.69832" lon="3.89601">
        <ele>944.144</ele>
        <time>2011-06-01T09:48:36Z</time>
      </trkpt>
      <trkpt lat="44.69819" lon="3.89611">
        <ele>944.748</ele>
        <time>2011-06-01T09:48:46Z</time>
      </trkpt>
      <trkpt lat="44.69806" lon="3.89621">
        <ele>944.38</ele>
        <time>2011-06-01T09:48:56Z</time>
      </trkpt>
      <trkpt lat="44.69797" lon="3.89635">
        <ele>944.736</ele>
        <time>2011-06-01T09:49:06Z</time>
      </trkpt>
      <trkpt lat="44.69788" lon="3.89645">
        <ele>944.768</ele>
        <time>2011-06-01T09:49:16Z</time>
      </trkpt>
      <trkpt lat="44.69784" lon="3.89662">
        <ele>944.874</ele>
        <time>2011-06-01T09:49:26Z</time>
      </trkpt>
      <trkpt lat="44.69774" lon="3.89676">
        <ele>945.165</ele>
        <time>2011-06-01T09:49:36Z</time>
      </trkpt>
      <trkpt lat="44.69764" lon="3.89687">
        <ele>945.367</ele>
        <time>2011-06-01T09:49:46Z</time>
      </trkpt>
      <trkpt lat="44.69755" lon="3.8969">
        <ele>945.49</ele>
        <time>2011-06-01T09:49:56Z</time>
      </trkpt>
      <trkpt lat="44.69759" lon="3.89694">
        <ele>944.846</ele>
        <time>2011-06-01T09:50:06Z</time>
      </trkpt>
      <trkpt lat="44.69761" lon="3.89695">
        <ele>945.384</ele>
        <time>2011-06-01T09:50:16Z</time>
      </trkpt>
      <trkpt lat="44.6976" lon="3.89696">
        <ele>944.826</ele>
        <time>2011-06-01T09:50:26Z</time>
      </trkpt>
      <trkpt lat="44.69761" lon="3.89696">
        <ele>945.109</ele>
        <time>2011-06-01T09:50:36Z</time>
      </trkpt>
      <trkpt lat="44.6976" lon="3.89696">
        <ele>945.61</ele>
        <time>2011-06-01T09:50:46Z</time>
      </trkpt>
      <trkpt lat="44.6976" lon="3.89696">
        <ele>945.755</ele>
        <time>2011-06-01T09:50:56Z</time>
      </trkpt>
      <trkpt lat="44.6976" lon="3.89696">
        <ele>945.713</ele>
        <time>2011-06-01T09:51:06Z</time>
      </trkpt>
      <trkpt lat="44.6976" lon="3.89696">
        <ele>945.527</ele>
        <time>2011-06-01T09:51:16Z</time>
      </trkpt>
      <trkpt lat="44.6976" lon="3.89696">
        <ele>945.356</ele>
        <time>2011-06-01T09:51:26Z</time>
      </trkpt>
      <trkpt lat="44.6976" lon="3.89696">
        <ele>945.765</ele>
        <time>2011-06-01T09:51:36Z</time>
      </trkpt>
      <trkpt lat="44.6976" lon="3.89696">
        <ele>945.899</ele>
        <time>2011-06-01T09:51:46Z</time>
      </trkpt>
      <trkpt lat="44.6976" lon="3.89696">
        <ele>945.453</ele>
        <time>2011-06-01T09:51:56Z</time>
      </trkpt>
      <trkpt lat="44.6976" lon="3.89696">
        <ele>945.997</ele>
        <time>2011-06-01T09:52:06Z</time>
      </trkpt>
      <trkpt lat="44.6976" lon="3.89696">
        <ele>946.503</ele>
        <time>2011-06-01T09:52:16Z</time>
      </trkpt>
      <trkpt lat="44.69758" lon="3.89695">
        <ele>946.268</ele>
        <time>2011-06-01T09:52:26Z</time>
      </trkpt>
      <trkpt lat="44.69754" lon="3.89696">
        <ele>945.964</ele>
        <time>2011-06-01T09:52:36Z</time>
      </trkpt>
      <trkpt lat="44.69746" lon="3.89694">
        <ele>946.821</ele>
        <time>2011-06-01T09:52:46Z</time>
      </trkpt>
      <trkpt lat="44.69736" lon="3.8969">
        <ele>947.541</ele>
        <time>2011-06-01T09:52:56Z</time>
      </trkpt>
      <trkpt lat="44.69725" lon="3.89688">
        <ele>948.774</ele>
        <time>2011-06-01T09:53:06Z</time>
      </trkpt>
      <trkpt lat="44.69715" lon="3.89686">
        <ele>948.27</ele>
        <time>2011-06-01T09:53:16Z</time>
      </trkpt>
      <trkpt lat="44.69703" lon="3.8968">
        <ele>948.341</ele>
        <time>2011-06-01T09:53:26Z</time>
      </trkpt>
      <trkpt lat="44.69692" lon="3.89671">
        <ele>948.729</ele>
        <time>2011-06-01T09:53:36Z</time>
      </trkpt>
      <trkpt lat="44.69681" lon="3.89666">
        <ele>948.033</ele>
        <time>2011-06-01T09:53:46Z</time>
      </trkpt>
      <trkpt lat="44.69671" lon="3.89662">
        <ele>946.418</ele>
        <time>2011-06-01T09:53:56Z</time>
      </trkpt>
      <trkpt lat="44.69657" lon="3.89663">
        <ele>947.518</ele>
        <time>2011-06-01T09:54:06Z</time>
      </trkpt>
      <trkpt lat="44.69645" lon="3.89665">
        <ele>946.703</ele>
        <time>2011-06-01T09:54:16Z</time>
      </trkpt>
      <trkpt lat="44.69637" lon="3.89668">
        <ele>945.775</ele>
        <time>2011-06-01T09:54:26Z</time>
      </trkpt>
      <trkpt lat="44.69634" lon="3.89668">
        <ele>946.15</ele>
        <time>2011-06-01T09:54:36Z</time>
      </trkpt>
      <trkpt lat="44.69627" lon="3.89672">
        <ele>946.637</ele>
        <time>2011-06-01T09:54:46Z</time>
      </trkpt>
      <trkpt lat="44.69615" lon="3.89675">
        <ele>946.944</ele>
        <time>2011-06-01T09:54:56Z</time>
      </trkpt>
      <trkpt lat="44.69605" lon="3.89679">
        <ele>947.705</ele>
        <time>2011-06-01T09:55:06Z</time>
      </trkpt>
      <trkpt lat="44.69595" lon="3.89685">
        <ele>947.553</ele>
        <time>2011-06-01T09:55:16Z</time>
      </trkpt>
      <trkpt lat="44.69584" lon="3.89696">
        <ele>948.665</ele>
        <time>2011-06-01T09:55:26Z</time>
      </trkpt>
      <trkpt lat="44.69574" lon="3.89702">
        <ele>949.405</ele>
        <time>2011-06-01T09:55:36Z</time>
      </trkpt>
      <trkpt lat="44.69564" lon="3.89715">
        <ele>950.224</ele>
        <time>2011-06-01T09:55:46Z</time>
      </trkpt>
      <trkpt lat="44.69561" lon="3.89728">
        <ele>952.628</ele>
        <time>2011-06-01T09:55:56Z</time>
      </trkpt>
      <trkpt lat="44.69553" lon="3.89736">
        <ele>954.427</ele>
        <time>2011-06-01T09:56:06Z</time>
      </trkpt>
      <trkpt lat="44.69548" lon="3.89744">
        <ele>956.457</ele>
        <time>2011-06-01T09:56:16Z</time>
      </trkpt>
      <trkpt lat="44.69546" lon="3.89751">
        <ele>957.206</ele>
        <time>2011-06-01T09:56:26Z</time>
      </trkpt>
      <trkpt lat="44.69541" lon="3.89763">
        <ele>958.829</ele>
        <time>2011-06-01T09:56:36Z</time>
      </trkpt>
      <trkpt lat="44.69532" lon="3.89771">
        <ele>960.53</ele>
        <time>2011-06-01T09:56:46Z</time>
      </trkpt>
      <trkpt lat="44.69522" lon="3.89782">
        <ele>961.912</ele>
        <time>2011-06-01T09:56:56Z</time>
      </trkpt>
      <trkpt lat="44.69507" lon="3.89795">
        <ele>962.882</ele>
        <time>2011-06-01T09:57:06Z</time>
      </trkpt>
      <trkpt lat="44.69497" lon="3.89808">
        <ele>964.56</ele>
        <time>2011-06-01T09:57:16Z</time>
      </trkpt>
      <trkpt lat="44.69489" lon="3.89816">
        <ele>966.753</ele>
        <time>2011-06-01T09:57:26Z</time>
      </trkpt>
      <trkpt lat="44.69479" lon="3.89825">
        <ele>968.949</ele>
        <time>2011-06-01T09:57:36Z</time>
      </trkpt>
      <trkpt lat="44.6947" lon="3.89836">
        <ele>970.051</ele>
        <time>2011-06-01T09:57:46Z</time>
      </trkpt>
      <trkpt lat="44.69462" lon="3.89844">
        <ele>971.512</ele>
        <time>2011-06-01T09:57:56Z</time>
      </trkpt>
      <trkpt lat="44.69454" lon="3.89849">
        <ele>972.096</ele>
        <time>2011-06-01T09:58:06Z</time>
      </trkpt>
      <trkpt lat="44.69445" lon="3.89857">
        <ele>972.585</ele>
        <time>2011-06-01T09:58:16Z</time>
      </trkpt>
      <trkpt lat="44.69432" lon="3.89867">
        <ele>973.916</ele>
        <time>2011-06-01T09:58:26Z</time>
      </trkpt>
      <trkpt lat="44.69419" lon="3.89873">
        <ele>973.969</ele>
        <time>2011-06-01T09:58:36Z</time>
      </trkpt>
      <trkpt lat="44.6941" lon="3.89882">
        <ele>974.492</ele>
        <time>2011-06-01T09:58:46Z</time>
      </trkpt>
      <trkpt lat="44.694" lon="3.89889">
        <ele>975.471</ele>
        <time>2011-06-01T09:58:56Z</time>
      </trkpt>
      <trkpt lat="44.69388" lon="3.89896">
        <ele>976.568</ele>
        <time>2011-06-01T09:59:06Z</time>
      </trkpt>
      <trkpt lat="44.69378" lon="3.89905">
        <ele>979.296</ele>
        <time>2011-06-01T09:59:16Z</time>
      </trkpt>
      <trkpt lat="44.69371" lon="3.89912">
        <ele>979.239</ele>
        <time>2011-06-01T09:59:26Z</time>
      </trkpt>
      <trkpt lat="44.69363" lon="3.8992">
        <ele>980.699</ele>
        <time>2011-06-01T09:59:36Z</time>
      </trkpt>
      <trkpt lat="44.69355" lon="3.89928">
        <ele>981.634</ele>
        <time>2011-06-01T09:59:46Z</time>
      </trkpt>
      <trkpt lat="44.69344" lon="3.89935">
        <ele>982.556</ele>
        <time>2011-06-01T09:59:56Z</time>
      </trkpt>
      <trkpt lat="44.69337" lon="3.8994">
        <ele>984.17</ele>
        <time>2011-06-01T10:00:06Z</time>
      </trkpt>
      <trkpt lat="44.69331" lon="3.89947">
        <ele>985.37</ele>
        <time>2011-06-01T10:00:16Z</time>
      </trkpt>
      <trkpt lat="44.69322" lon="3.89951">
        <ele>986.44</ele>
        <time>2011-06-01T10:00:26Z</time>
      </trkpt>
      <trkpt lat="44.6931" lon="3.89952">
        <ele>988.306</ele>
        <time>2011-06-01T10:00:36Z</time>
      </trkpt>
      <trkpt lat="44.69299" lon="3.89962">
        <ele>989.83</ele>
        <time>2011-06-01T10:00:46Z</time>
      </trkpt>
      <trkpt lat="44.69282" lon="3.89966">
        <ele>991.064</ele>
        <time>2011-06-01T10:00:56Z</time>
      </trkpt>
      <trkpt lat="44.69274" lon="3.89974">
        <ele>991.783</ele>
        <time>2011-06-01T10:01:06Z</time>
      </trkpt>
      <trkpt lat="44.69262" lon="3.89976">
        <ele>993.633</ele>
        <time>2011-06-01T10:01:16Z</time>
      </trkpt>
      <trkpt lat="44.6925" lon="3.89986">
        <ele>994.013</ele>
        <time>2011-06-01T10:01:26Z</time>
      </trkpt>
      <trkpt lat="44.69237" lon="3.8999">
        <ele>995.807</ele>
        <time>2011-06-01T10:01:36Z</time>
      </trkpt>
      <trkpt lat="44.69227" lon="3.89993">
        <ele>995.86</ele>
        <time>2011-06-01T10:01:46Z</time>
      </trkpt>
      <trkpt lat="44.69216" lon="3.89998">
        <ele>998.576</ele>
        <time>2011-06-01T10:01:56Z</time>
      </trkpt>
      <trkpt lat="44.69205" lon="3.90003">
        <ele>999.48</ele>
        <time>2011-06-01T10:02:06Z</time>
      </trkpt>
      <trkpt lat="44.69195" lon="3.90006">
        <ele>1000.532</ele>
        <time>2011-06-01T10:02:16Z</time>
      </trkpt>
      <trkpt lat="44.69183" lon="3.90007">
        <ele>1002.743</ele>
        <time>2011-06-01T10:02:26Z</time>
      </trkpt>
      <trkpt lat="44.69168" lon="3.90008">
        <ele>1004.479</ele>
        <time>2011-06-01T10:02:36Z</time>
      </trkpt>
      <trkpt lat="44.6916" lon="3.90005">
        <ele>1005.511</ele>
        <time>2011-06-01T10:02:46Z</time>
      </trkpt>
      <trkpt lat="44.69145" lon="3.90002">
        <ele>1006.152</ele>
        <time>2011-06-01T10:02:56Z</time>
      </trkpt>
      <trkpt lat="44.69135" lon="3.89998">
        <ele>1008.578</ele>
        <time>2011-06-01T10:03:06Z</time>
      </trkpt>
      <trkpt lat="44.69128" lon="3.89995">
        <ele>1008.767</ele>
        <time>2011-06-01T10:03:16Z</time>
      </trkpt>
      <trkpt lat="44.69119" lon="3.89998">
        <ele>1009.695</ele>
        <time>2011-06-01T10:03:26Z</time>
      </trkpt>
      <trkpt lat="44.69106" lon="3.89997">
        <ele>1012.224</ele>
        <time>2011-06-01T10:03:36Z</time>
      </trkpt>
      <trkpt lat="44.69095" lon="3.90001">
        <ele>1012.845</ele>
        <time>2011-06-01T10:03:46Z</time>
      </trkpt>
      <trkpt lat="44.69081" lon="3.90006">
        <ele>1014.119</ele>
        <time>2011-06-01T10:03:56Z</time>
      </trkpt>
      <trkpt lat="44.69066" lon="3.90012">
        <ele>1014.107</ele>
        <time>2011-06-01T10:04:06Z</time>
      </trkpt>
      <trkpt lat="44.69055" lon="3.90014">
        <ele>1014.425</ele>
        <time>2011-06-01T10:04:16Z</time>
      </trkpt>
      <trkpt lat="44.69038" lon="3.90015">
        <ele>1015.672</ele>
        <time>2011-06-01T10:04:26Z</time>
      </trkpt>
      <trkpt lat="44.69016" lon="3.90016">
        <ele>1015.455</ele>
        <time>2011-06-01T10:04:36Z</time>
      </trkpt>
      <trkpt lat="44.69009" lon="3.90016">
        <ele>1016.348</ele>
        <time>2011-06-01T10:04:46Z</time>
      </trkpt>
      <trkpt lat="44.68992" lon="3.90019">
        <ele>1017.807</ele>
        <time>2011-06-01T10:04:56Z</time>
      </trkpt>
      <trkpt lat="44.68986" lon="3.90021">
        <ele>1018.293</ele>
        <time>2011-06-01T10:05:06Z</time>
      </trkpt>
      <trkpt lat="44.68976" lon="3.90009">
        <ele>1019.794</ele>
        <time>2011-06-01T10:05:16Z</time>
      </trkpt>
      <trkpt lat="44.68962" lon="3.90015">
        <ele>1017.071</ele>
        <time>2011-06-01T10:05:26Z</time>
      </trkpt>
      <trkpt lat="44.6895" lon="3.9002">
        <ele>1020.721</ele>
        <time>2011-06-01T10:05:36Z</time>
      </trkpt>
      <trkpt lat="44.6894" lon="3.9002">
        <ele>1019.896</ele>
        <time>2011-06-01T10:05:46Z</time>
      </trkpt>
      <trkpt lat="44.68928" lon="3.90022">
        <ele>1020.699</ele>
        <time>2011-06-01T10:05:56Z</time>
      </trkpt>
      <trkpt lat="44.68915" lon="3.90023">
        <ele>1021.896</ele>
        <time>2011-06-01T10:06:06Z</time>
      </trkpt>
      <trkpt lat="44.68899" lon="3.90027">
        <ele>1023.489</ele>
        <time>2011-06-01T10:06:16Z</time>
      </trkpt>
      <trkpt lat="44.68887" lon="3.90034">
        <ele>1024.728</ele>
        <time>2011-06-01T10:06:26Z</time>
      </trkpt>
      <trkpt lat="44.68877" lon="3.90038">
        <ele>1025.051</ele>
        <time>2011-06-01T10:06:36Z</time>
      </trkpt>
      <trkpt lat="44.68868" lon="3.90034">
        <ele>1026.63</ele>
        <time>2011-06-01T10:06:46Z</time>
      </trkpt>
      <trkpt lat="44.68856" lon="3.90025">
        <ele>1026.743</ele>
        <time>2011-06-01T10:06:56Z</time>
      </trkpt>
      <trkpt lat="44.68844" lon="3.90026">
        <ele>1029.087</ele>
        <time>2011-06-01T10:07:06Z</time>
      </trkpt>
      <trkpt lat="44.68833" lon="3.90026">
        <ele>1030.291</ele>
        <time>2011-06-01T10:07:16Z</time>
      </trkpt>
      <trkpt lat="44.68822" lon="3.90027">
        <ele>1029.954</ele>
        <time>2011-06-01T10:07:26Z</time>
      </trkpt>
      <trkpt lat="44.6881" lon="3.90031">
        <ele>1031.977</ele>
        <time>2011-06-01T10:07:36Z</time>
      </trkpt>
      <trkpt lat="44.688" lon="3.90033">
        <ele>1032.126</ele>
        <time>2011-06-01T10:07:46Z</time>
      </trkpt>
      <trkpt lat="44.68785" lon="3.90035">
        <ele>1032.244</ele>
        <time>2011-06-01T10:07:56Z</time>
      </trkpt>
      <trkpt lat="44.68771" lon="3.90039">
        <ele>1031.27</ele>
        <time>2011-06-01T10:08:06Z</time>
      </trkpt>
      <trkpt lat="44.68758" lon="3.90046">
        <ele>1031.838</ele>
        <time>2011-06-01T10:08:16Z</time>
      </trkpt>
      <trkpt lat="44.68744" lon="3.90051">
        <ele>1032.24</ele>
        <time>2011-06-01T10:08:26Z</time>
      </trkpt>
      <trkpt lat="44.68733" lon="3.90057">
        <ele>1032.055</ele>
        <time>2011-06-01T10:08:36Z</time>
      </trkpt>
      <trkpt lat="44.6872" lon="3.90063">
        <ele>1032.663</ele>
        <time>2011-06-01T10:08:46Z</time>
      </trkpt>
      <trkpt lat="44.68711" lon="3.90066">
        <ele>1033.817</ele>
        <time>2011-06-01T10:08:56Z</time>
      </trkpt>
      <trkpt lat="44.68697" lon="3.90073">
        <ele>1034.389</ele>
        <time>2011-06-01T10:09:06Z</time>
      </trkpt>
      <trkpt lat="44.68684" lon="3.90074">
        <ele>1034.177</ele>
        <time>2011-06-01T10:09:16Z</time>
      </trkpt>
      <trkpt lat="44.68676" lon="3.90081">
        <ele>1035.487</ele>
        <time>2011-06-01T10:09:26Z</time>
      </trkpt>
      <trkpt lat="44.68663" lon="3.90086">
        <ele>1035.564</ele>
        <time>2011-06-01T10:09:36Z</time>
      </trkpt>
      <trkpt lat="44.68651" lon="3.9009">
        <ele>1038.526</ele>
        <time>2011-06-01T10:09:46Z</time>
      </trkpt>
      <trkpt lat="44.68638" lon="3.90096">
        <ele>1038.071</ele>
        <time>2011-06-01T10:09:56Z</time>
      </trkpt>
      <trkpt lat="44.68627" lon="3.90101">
        <ele>1039.837</ele>
        <time>2011-06-01T10:10:06Z</time>
      </trkpt>
      <trkpt lat="44.68615" lon="3.90108">
        <ele>1043.333</ele>
        <time>2011-06-01T10:10:16Z</time>
      </trkpt>
      <trkpt lat="44.68604" lon="3.90116">
        <ele>1040.017</ele>
        <time>2011-06-01T10:10:26Z</time>
      </trkpt>
      <trkpt lat="44.68591" lon="3.90124">
        <ele>1038.652</ele>
        <time>2011-06-01T10:10:36Z</time>
      </trkpt>
      <trkpt lat="44.68579" lon="3.90132">
        <ele>1037.756</ele>
        <time>2011-06-01T10:10:46Z</time>
      </trkpt>
      <trkpt lat="44.68567" lon="3.90139">
        <ele>1036.299</ele>
        <time>2011-06-01T10:10:56Z</time>
      </trkpt>
      <trkpt lat="44.68552" lon="3.90146">
        <ele>1034.33</ele>
        <time>2011-06-01T10:11:06Z</time>
      </trkpt>
      <trkpt lat="44.6854" lon="3.90148">
        <ele>1033.379</ele>
        <time>2011-06-01T10:11:16Z</time>
      </trkpt>
      <trkpt lat="44.68528" lon="3.90154">
        <ele>1031.183</ele>
        <time>2011-06-01T10:11:26Z</time>
      </trkpt>
      <trkpt lat="44.68515" lon="3.90158">
        <ele>1029.957</ele>
        <time>2011-06-01T10:11:36Z</time>
      </trkpt>
      <trkpt lat="44.68501" lon="3.90163">
        <ele>1030.046</ele>
        <time>2011-06-01T10:11:46Z</time>
      </trkpt>
      <trkpt lat="44.6849" lon="3.90165">
        <ele>1029.325</ele>
        <time>2011-06-01T10:11:56Z</time>
      </trkpt>
      <trkpt lat="44.68477" lon="3.90166">
        <ele>1026.346</ele>
        <time>2011-06-01T10:12:06Z</time>
      </trkpt>
      <trkpt lat="44.68464" lon="3.90165">
        <ele>1025.133</ele>
        <time>2011-06-01T10:12:16Z</time>
      </trkpt>
      <trkpt lat="44.6845" lon="3.9016">
        <ele>1023.08</ele>
        <time>2011-06-01T10:12:26Z</time>
      </trkpt>
      <trkpt lat="44.68434" lon="3.90155">
        <ele>1022.88</ele>
        <time>2011-06-01T10:12:36Z</time>
      </trkpt>
      <trkpt lat="44.6842" lon="3.90155">
        <ele>1022.619</ele>
        <time>2011-06-01T10:12:46Z</time>
      </trkpt>
      <trkpt lat="44.68409" lon="3.90151">
        <ele>1022.398</ele>
        <time>2011-06-01T10:12:56Z</time>
      </trkpt>
      <trkpt lat="44.68397" lon="3.90147">
        <ele>1021.815</ele>
        <time>2011-06-01T10:13:06Z</time>
      </trkpt>
      <trkpt lat="44.68387" lon="3.9014">
        <ele>1021.323</ele>
        <time>2011-06-01T10:13:16Z</time>
      </trkpt>
      <trkpt lat="44.68377" lon="3.90136">
        <ele>1020.387</ele>
        <time>2011-06-01T10:13:26Z</time>
      </trkpt>
      <trkpt lat="44.68364" lon="3.9013">
        <ele>1018.393</ele>
        <time>2011-06-01T10:13:36Z</time>
      </trkpt>
      <trkpt lat="44.68354" lon="3.90126">
        <ele>1016.897</ele>
        <time>2011-06-01T10:13:46Z</time>
      </trkpt>
      <trkpt lat="44.6834" lon="3.90121">
        <ele>1016.196</ele>
        <time>2011-06-01T10:13:56Z</time>
      </trkpt>
      <trkpt lat="44.68328" lon="3.90114">
        <ele>1014.572</ele>
        <time>2011-06-01T10:14:06Z</time>
      </trkpt>
      <trkpt lat="44.68316" lon="3.90113">
        <ele>1013.62</ele>
        <time>2011-06-01T10:14:16Z</time>
      </trkpt>
      <trkpt lat="44.68302" lon="3.90111">
        <ele>1013.898</ele>
        <time>2011-06-01T10:14:26Z</time>
      </trkpt>
      <trkpt lat="44.6829" lon="3.90107">
        <ele>1012.429</ele>
        <time>2011-06-01T10:14:36Z</time>
      </trkpt>
      <trkpt lat="44.68281" lon="3.90102">
        <ele>1013.487</ele>
        <time>2011-06-01T10:14:46Z</time>
      </trkpt>
      <trkpt lat="44.68273" lon="3.90103">
        <ele>1013.18</ele>
        <time>2011-06-01T10:14:56Z</time>
      </trkpt>
      <trkpt lat="44.68263" lon="3.90105">
        <ele>1010.754</ele>
        <time>2011-06-01T10:15:06Z</time>
      </trkpt>
      <trkpt lat="44.68252" lon="3.90106">
        <ele>1008.982</ele>
        <time>2011-06-01T10:15:16Z</time>
      </trkpt>
      <trkpt lat="44.68241" lon="3.90107">
        <ele>1008.395</ele>
        <time>2011-06-01T10:15:26Z</time>
      </trkpt>
      <trkpt lat="44.6823" lon="3.90107">
        <ele>1006.981</ele>
        <time>2011-06-01T10:15:36Z</time>
      </trkpt>
      <trkpt lat="44.68214" lon="3.90103">
        <ele>1006.103</ele>
        <time>2011-06-01T10:15:46Z</time>
      </trkpt>
      <trkpt lat="44.68203" lon="3.90103">
        <ele>1005.264</ele>
        <time>2011-06-01T10:15:56Z</time>
      </trkpt>
      <trkpt lat="44.68193" lon="3.90105">
        <ele>1004.064</ele>
        <time>2011-06-01T10:16:06Z</time>
      </trkpt>
      <trkpt lat="44.68182" lon="3.90107">
        <ele>1001.932</ele>
        <time>2011-06-01T10:16:16Z</time>
      </trkpt>
      <trkpt lat="44.6817" lon="3.90112">
        <ele>1001.228</ele>
        <time>2011-06-01T10:16:26Z</time>
      </trkpt>
      <trkpt lat="44.68154" lon="3.9011">
        <ele>998.991</ele>
        <time>2011-06-01T10:16:36Z</time>
      </trkpt>
      <trkpt lat="44.68145" lon="3.90115">
        <ele>997.903</ele>
        <time>2011-06-01T10:16:46Z</time>
      </trkpt>
      <trkpt lat="44.68132" lon="3.90118">
        <ele>997.864</ele>
        <time>2011-06-01T10:16:56Z</time>
      </trkpt>
      <trkpt lat="44.68124" lon="3.90126">
        <ele>996.67</ele>
        <time>2011-06-01T10:17:06Z</time>
      </trkpt>
      <trkpt lat="44.68125" lon="3.90128">
        <ele>997.018</ele>
        <time>2011-06-01T10:17:16Z</time>
      </trkpt>
      <trkpt lat="44.68125" lon="3.90128">
        <ele>997.15</ele>
        <time>2011-06-01T10:17:26Z</time>
      </trkpt>
      <trkpt lat="44.68125" lon="3.90128">
        <ele>996.843</ele>
        <time>2011-06-01T10:17:36Z</time>
      </trkpt>
      <trkpt lat="44.68125" lon="3.90128">
        <ele>996.709</ele>
        <time>2011-06-01T10:17:46Z</time>
      </trkpt>
      <trkpt lat="44.68125" lon="3.90128">
        <ele>996.926</ele>
        <time>2011-06-01T10:17:56Z</time>
      </trkpt>
      <trkpt lat="44.68125" lon="3.90128">
        <ele>996.832</ele>
        <time>2011-06-01T10:18:06Z</time>
      </trkpt>
      <trkpt lat="44.68125" lon="3.90127">
        <ele>997.378</ele>
        <time>2011-06-01T10:18:16Z</time>
      </trkpt>
      <trkpt lat="44.68125" lon="3.90128">
        <ele>996.215</ele>
        <time>2011-06-01T10:18:26Z</time>
      </trkpt>
      <trkpt lat="44.6812" lon="3.90129">
        <ele>996.34</ele>
        <time>2011-06-01T10:18:36Z</time>
      </trkpt>
      <trkpt lat="44.6811" lon="3.9013">
        <ele>996.107</ele>
        <time>2011-06-01T10:18:46Z</time>
      </trkpt>
      <trkpt lat="44.681" lon="3.90132">
        <ele>996.392</ele>
        <time>2011-06-01T10:18:56Z</time>
      </trkpt>
      <trkpt lat="44.68091" lon="3.90125">
        <ele>995.087</ele>
        <time>2011-06-01T10:19:06Z</time>
      </trkpt>
      <trkpt lat="44.68082" lon="3.90117">
        <ele>995.084</ele>
        <time>2011-06-01T10:19:16Z</time>
      </trkpt>
      <trkpt lat="44.68072" lon="3.9011">
        <ele>994.615</ele>
        <time>2011-06-01T10:19:26Z</time>
      </trkpt>
      <trkpt lat="44.68062" lon="3.90107">
        <ele>994.579</ele>
        <time>2011-06-01T10:19:36Z</time>
      </trkpt>
      <trkpt lat="44.68051" lon="3.90109">
        <ele>992.458</ele>
        <time>2011-06-01T10:19:46Z</time>
      </trkpt>
      <trkpt lat="44.68039" lon="3.90108">
        <ele>992.176</ele>
        <time>2011-06-01T10:19:56Z</time>
      </trkpt>
      <trkpt lat="44.6803" lon="3.9011">
        <ele>992.875</ele>
        <time>2011-06-01T10:20:06Z</time>
      </trkpt>
      <trkpt lat="44.68018" lon="3.90115">
        <ele>991.486</ele>
        <time>2011-06-01T10:20:16Z</time>
      </trkpt>
      <trkpt lat="44.68009" lon="3.90118">
        <ele>988.124</ele>
        <time>2011-06-01T10:20:26Z</time>
      </trkpt>
      <trkpt lat="44.67998" lon="3.90125">
        <ele>987.041</ele>
        <time>2011-06-01T10:20:36Z</time>
      </trkpt>
      <trkpt lat="44.67984" lon="3.9013">
        <ele>985.661</ele>
        <time>2011-06-01T10:20:46Z</time>
      </trkpt>
      <trkpt lat="44.67971" lon="3.90134">
        <ele>985.043</ele>
        <time>2011-06-01T10:20:56Z</time>
      </trkpt>
      <trkpt lat="44.67968" lon="3.90137">
        <ele>985.609</ele>
        <time>2011-06-01T10:21:06Z</time>
      </trkpt>
      <trkpt lat="44.67971" lon="3.90137">
        <ele>985.208</ele>
        <time>2011-06-01T10:21:16Z</time>
      </trkpt>
      <trkpt lat="44.67971" lon="3.90128">
        <ele>984.855</ele>
        <time>2011-06-01T10:21:26Z</time>
      </trkpt>
      <trkpt lat="44.67966" lon="3.90119">
        <ele>985.938</ele>
        <time>2011-06-01T10:21:36Z</time>
      </trkpt>
      <trkpt lat="44.67966" lon="3.90121">
        <ele>985.948</ele>
        <time>2011-06-01T10:21:46Z</time>
      </trkpt>
      <trkpt lat="44.67967" lon="3.90121">
        <ele>986.166</ele>
        <time>2011-06-01T10:21:56Z</time>
      </trkpt>
      <trkpt lat="44.6797" lon="3.9012">
        <ele>986.248</ele>
        <time>2011-06-01T10:22:06Z</time>
      </trkpt>
      <trkpt lat="44.6797" lon="3.90117">
        <ele>986.515</ele>
        <time>2011-06-01T10:22:16Z</time>
      </trkpt>
      <trkpt lat="44.67969" lon="3.90117">
        <ele>986.437</ele>
        <time>2011-06-01T10:22:26Z</time>
      </trkpt>
      <trkpt lat="44.67969" lon="3.90116">
        <ele>986.231</ele>
        <time>2011-06-01T10:22:36Z</time>
      </trkpt>
      <trkpt lat="44.67969" lon="3.90118">
        <ele>987</ele>
        <time>2011-06-01T10:22:46Z</time>
      </trkpt>
      <trkpt lat="44.67969" lon="3.90118">
        <ele>987.037</ele>
        <time>2011-06-01T10:22:56Z</time>
      </trkpt>
      <trkpt lat="44.67969" lon="3.90118">
        <ele>987.115</ele>
        <time>2011-06-01T10:23:06Z</time>
      </trkpt>
      <trkpt lat="44.67969" lon="3.90118">
        <ele>986.916</ele>
        <time>2011-06-01T10:23:16Z</time>
      </trkpt>
      <trkpt lat="44.67968" lon="3.90118">
        <ele>987.106</ele>
        <time>2011-06-01T10:23:26Z</time>
      </trkpt>
      <trkpt lat="44.67968" lon="3.90118">
        <ele>986.323</ele>
        <time>2011-06-01T10:23:36Z</time>
      </trkpt>
      <trkpt lat="44.67968" lon="3.90118">
        <ele>988.55</ele>
        <time>2011-06-01T10:23:46Z</time>
      </trkpt>
      <trkpt lat="44.67968" lon="3.90118">
        <ele>987.509</ele>
        <time>2011-06-01T10:23:56Z</time>
      </trkpt>
      <trkpt lat="44.67968" lon="3.90119">
        <ele>986.651</ele>
        <time>2011-06-01T10:24:06Z</time>
      </trkpt>
      <trkpt lat="44.67968" lon="3.90119">
        <ele>985.295</ele>
        <time>2011-06-01T10:24:16Z</time>
      </trkpt>
      <trkpt lat="44.67968" lon="3.90119">
        <ele>986.28</ele>
        <time>2011-06-01T10:24:26Z</time>
      </trkpt>
      <trkpt lat="44.67968" lon="3.90119">
        <ele>985.288</ele>
        <time>2011-06-01T10:24:36Z</time>
      </trkpt>
      <trkpt lat="44.67968" lon="3.90118">
        <ele>986.193</ele>
        <time>2011-06-01T10:24:46Z</time>
      </trkpt>
      <trkpt lat="44.67968" lon="3.90118">
        <ele>985.684</ele>
        <time>2011-06-01T10:24:56Z</time>
      </trkpt>
      <trkpt lat="44.67968" lon="3.90118">
        <ele>986.384</ele>
        <time>2011-06-01T10:25:06Z</time>
      </trkpt>
      <trkpt lat="44.67968" lon="3.90118">
        <ele>986.794</ele>
        <time>2011-06-01T10:25:16Z</time>
      </trkpt>
      <trkpt lat="44.67968" lon="3.90118">
        <ele>986.504</ele>
        <time>2011-06-01T10:25:26Z</time>
      </trkpt>
      <trkpt lat="44.67968" lon="3.90118">
        <ele>986.813</ele>
        <time>2011-06-01T10:25:36Z</time>
      </trkpt>
      <trkpt lat="44.67968" lon="3.90118">
        <ele>985.489</ele>
        <time>2011-06-01T10:25:46Z</time>
      </trkpt>
      <trkpt lat="44.67968" lon="3.90118">
        <ele>987.029</ele>
        <time>2011-06-01T10:25:56Z</time>
      </trkpt>
      <trkpt lat="44.67968" lon="3.90118">
        <ele>988.304</ele>
        <time>2011-06-01T10:26:06Z</time>
      </trkpt>
      <trkpt lat="44.67968" lon="3.90118">
        <ele>986.691</ele>
        <time>2011-06-01T10:26:16Z</time>
      </trkpt>
      <trkpt lat="44.67968" lon="3.90118">
        <ele>986.768</ele>
        <time>2011-06-01T10:26:26Z</time>
      </trkpt>
      <trkpt lat="44.67968" lon="3.90118">
        <ele>986.267</ele>
        <time>2011-06-01T10:26:36Z</time>
      </trkpt>
      <trkpt lat="44.67968" lon="3.90118">
        <ele>985.829</ele>
        <time>2011-06-01T10:26:46Z</time>
      </trkpt>
      <trkpt lat="44.67968" lon="3.90118">
        <ele>986.838</ele>
        <time>2011-06-01T10:26:56Z</time>
      </trkpt>
      <trkpt lat="44.67968" lon="3.90117">
        <ele>985.221</ele>
        <time>2011-06-01T10:27:06Z</time>
      </trkpt>
      <trkpt lat="44.67968" lon="3.90117">
        <ele>986.575</ele>
        <time>2011-06-01T10:27:16Z</time>
      </trkpt>
      <trkpt lat="44.67968" lon="3.90117">
        <ele>986.753</ele>
        <time>2011-06-01T10:27:26Z</time>
      </trkpt>
      <trkpt lat="44.67968" lon="3.90117">
        <ele>986.798</ele>
        <time>2011-06-01T10:27:36Z</time>
      </trkpt>
      <trkpt lat="44.67968" lon="3.90117">
        <ele>986.734</ele>
        <time>2011-06-01T10:27:46Z</time>
      </trkpt>
      <trkpt lat="44.67968" lon="3.90117">
        <ele>986.872</ele>
        <time>2011-06-01T10:27:56Z</time>
      </trkpt>
      <trkpt lat="44.67968" lon="3.90117">
        <ele>986.703</ele>
        <time>2011-06-01T10:28:06Z</time>
      </trkpt>
      <trkpt lat="44.67968" lon="3.90117">
        <ele>986.319</ele>
        <time>2011-06-01T10:28:16Z</time>
      </trkpt>
      <trkpt lat="44.67968" lon="3.90117">
        <ele>986.033</ele>
        <time>2011-06-01T10:28:26Z</time>
      </trkpt>
      <trkpt lat="44.67968" lon="3.90117">
        <ele>986.215</ele>
        <time>2011-06-01T10:28:36Z</time>
      </trkpt>
      <trkpt lat="44.67968" lon="3.90117">
        <ele>986.745</ele>
        <time>2011-06-01T10:28:46Z</time>
      </trkpt>
      <trkpt lat="44.67968" lon="3.90117">
        <ele>986.488</ele>
        <time>2011-06-01T10:28:56Z</time>
      </trkpt>
      <trkpt lat="44.67968" lon="3.90117">
        <ele>985.957</ele>
        <time>2011-06-01T10:29:06Z</time>
      </trkpt>
      <trkpt lat="44.67968" lon="3.90117">
        <ele>985.368</ele>
        <time>2011-06-01T10:29:16Z</time>
      </trkpt>
      <trkpt lat="44.67968" lon="3.90117">
        <ele>984.587</ele>
        <time>2011-06-01T10:29:26Z</time>
      </trkpt>
      <trkpt lat="44.67968" lon="3.90117">
        <ele>985.541</ele>
        <time>2011-06-01T10:29:36Z</time>
      </trkpt>
      <trkpt lat="44.67968" lon="3.90117">
        <ele>985.585</ele>
        <time>2011-06-01T10:29:46Z</time>
      </trkpt>
      <trkpt lat="44.67968" lon="3.90117">
        <ele>985.668</ele>
        <time>2011-06-01T10:29:56Z</time>
      </trkpt>
      <trkpt lat="44.67968" lon="3.90117">
        <ele>985.637</ele>
        <time>2011-06-01T10:30:06Z</time>
      </trkpt>
      <trkpt lat="44.67968" lon="3.90117">
        <ele>985.468</ele>
        <time>2011-06-01T10:30:16Z</time>
      </trkpt>
      <trkpt lat="44.67968" lon="3.90117">
        <ele>984.345</ele>
        <time>2011-06-01T10:30:26Z</time>
      </trkpt>
      <trkpt lat="44.67968" lon="3.90117">
        <ele>985.075</ele>
        <time>2011-06-01T10:30:36Z</time>
      </trkpt>
      <trkpt lat="44.67968" lon="3.90117">
        <ele>987.656</ele>
        <time>2011-06-01T10:30:46Z</time>
      </trkpt>
      <trkpt lat="44.67968" lon="3.90117">
        <ele>985.695</ele>
        <time>2011-06-01T10:30:56Z</time>
      </trkpt>
      <trkpt lat="44.67968" lon="3.90117">
        <ele>985.8</ele>
        <time>2011-06-01T10:31:06Z</time>
      </trkpt>
      <trkpt lat="44.67968" lon="3.90117">
        <ele>986.425</ele>
        <time>2011-06-01T10:31:16Z</time>
      </trkpt>
      <trkpt lat="44.67968" lon="3.90117">
        <ele>985.543</ele>
        <time>2011-06-01T10:31:26Z</time>
      </trkpt>
      <trkpt lat="44.67968" lon="3.90117">
        <ele>985.722</ele>
        <time>2011-06-01T10:31:36Z</time>
      </trkpt>
      <trkpt lat="44.67968" lon="3.90117">
        <ele>985.587</ele>
        <time>2011-06-01T10:31:46Z</time>
      </trkpt>
      <trkpt lat="44.67968" lon="3.90117">
        <ele>985.885</ele>
        <time>2011-06-01T10:31:56Z</time>
      </trkpt>
      <trkpt lat="44.67968" lon="3.90117">
        <ele>985.025</ele>
        <time>2011-06-01T10:32:06Z</time>
      </trkpt>
      <trkpt lat="44.67968" lon="3.90117">
        <ele>984.518</ele>
        <time>2011-06-01T10:32:16Z</time>
      </trkpt>
      <trkpt lat="44.67968" lon="3.90117">
        <ele>986.107</ele>
        <time>2011-06-01T10:32:26Z</time>
      </trkpt>
      <trkpt lat="44.67968" lon="3.90117">
        <ele>985.525</ele>
        <time>2011-06-01T10:32:36Z</time>
      </trkpt>
      <trkpt lat="44.67968" lon="3.90117">
        <ele>986.059</ele>
        <time>2011-06-01T10:32:46Z</time>
      </trkpt>
      <trkpt lat="44.67968" lon="3.90117">
        <ele>986.42</ele>
        <time>2011-06-01T10:32:56Z</time>
      </trkpt>
      <trkpt lat="44.67968" lon="3.90117">
        <ele>986.441</ele>
        <time>2011-06-01T10:33:06Z</time>
      </trkpt>
      <trkpt lat="44.67968" lon="3.90117">
        <ele>986.422</ele>
        <time>2011-06-01T10:33:16Z</time>
      </trkpt>
      <trkpt lat="44.67968" lon="3.90116">
        <ele>986.348</ele>
        <time>2011-06-01T10:33:26Z</time>
      </trkpt>
      <trkpt lat="44.67968" lon="3.90116">
        <ele>986.058</ele>
        <time>2011-06-01T10:33:36Z</time>
      </trkpt>
      <trkpt lat="44.67968" lon="3.90116">
        <ele>987.298</ele>
        <time>2011-06-01T10:33:46Z</time>
      </trkpt>
      <trkpt lat="44.67968" lon="3.90116">
        <ele>986.666</ele>
        <time>2011-06-01T10:33:56Z</time>
      </trkpt>
      <trkpt lat="44.67968" lon="3.90116">
        <ele>986.366</ele>
        <time>2011-06-01T10:34:06Z</time>
      </trkpt>
      <trkpt lat="44.67968" lon="3.90116">
        <ele>986.11</ele>
        <time>2011-06-01T10:34:16Z</time>
      </trkpt>
      <trkpt lat="44.67968" lon="3.90116">
        <ele>986.551</ele>
        <time>2011-06-01T10:34:26Z</time>
      </trkpt>
      <trkpt lat="44.67968" lon="3.90116">
        <ele>986.594</ele>
        <time>2011-06-01T10:34:36Z</time>
      </trkpt>
      <trkpt lat="44.67968" lon="3.90116">
        <ele>986.407</ele>
        <time>2011-06-01T10:34:46Z</time>
      </trkpt>
      <trkpt lat="44.67968" lon="3.90116">
        <ele>987.385</ele>
        <time>2011-06-01T10:34:56Z</time>
      </trkpt>
      <trkpt lat="44.67968" lon="3.90116">
        <ele>986.876</ele>
        <time>2011-06-01T10:35:06Z</time>
      </trkpt>
      <trkpt lat="44.67968" lon="3.90116">
        <ele>987.738</ele>
        <time>2011-06-01T10:35:16Z</time>
      </trkpt>
      <trkpt lat="44.67968" lon="3.90116">
        <ele>988.131</ele>
        <time>2011-06-01T10:35:26Z</time>
      </trkpt>
      <trkpt lat="44.67968" lon="3.90116">
        <ele>987.164</ele>
        <time>2011-06-01T10:35:36Z</time>
      </trkpt>
      <trkpt lat="44.67968" lon="3.90116">
        <ele>988.02</ele>
        <time>2011-06-01T10:35:46Z</time>
      </trkpt>
      <trkpt lat="44.67968" lon="3.90116">
        <ele>987.396</ele>
        <time>2011-06-01T10:35:56Z</time>
      </trkpt>
      <trkpt lat="44.67968" lon="3.90116">
        <ele>986.781</ele>
        <time>2011-06-01T10:36:06Z</time>
      </trkpt>
      <trkpt lat="44.67968" lon="3.90116">
        <ele>986.858</ele>
        <time>2011-06-01T10:36:16Z</time>
      </trkpt>
      <trkpt lat="44.67968" lon="3.90116">
        <ele>987.547</ele>
        <time>2011-06-01T10:36:26Z</time>
      </trkpt>
      <trkpt lat="44.67968" lon="3.90116">
        <ele>987.398</ele>
        <time>2011-06-01T10:36:36Z</time>
      </trkpt>
      <trkpt lat="44.67968" lon="3.90116">
        <ele>987.256</ele>
        <time>2011-06-01T10:36:46Z</time>
      </trkpt>
      <trkpt lat="44.67968" lon="3.90116">
        <ele>987.683</ele>
        <time>2011-06-01T10:36:56Z</time>
      </trkpt>
      <trkpt lat="44.67968" lon="3.90116">
        <ele>986.653</ele>
        <time>2011-06-01T10:37:06Z</time>
      </trkpt>
      <trkpt lat="44.67968" lon="3.90116">
        <ele>987.926</ele>
        <time>2011-06-01T10:37:16Z</time>
      </trkpt>
      <trkpt lat="44.67968" lon="3.90116">
        <ele>987.518</ele>
        <time>2011-06-01T10:37:26Z</time>
      </trkpt>
      <trkpt lat="44.67968" lon="3.90116">
        <ele>986.881</ele>
        <time>2011-06-01T10:37:36Z</time>
      </trkpt>
      <trkpt lat="44.67968" lon="3.90116">
        <ele>988.08</ele>
        <time>2011-06-01T10:37:46Z</time>
      </trkpt>
      <trkpt lat="44.67968" lon="3.90116">
        <ele>987.196</ele>
        <time>2011-06-01T10:37:56Z</time>
      </trkpt>
      <trkpt lat="44.67968" lon="3.90116">
        <ele>987.248</ele>
        <time>2011-06-01T10:38:06Z</time>
      </trkpt>
      <trkpt lat="44.67968" lon="3.90116">
        <ele>987.132</ele>
        <time>2011-06-01T10:38:16Z</time>
      </trkpt>
      <trkpt lat="44.67968" lon="3.90115">
        <ele>988.051</ele>
        <time>2011-06-01T10:38:26Z</time>
      </trkpt>
      <trkpt lat="44.67968" lon="3.90115">
        <ele>988.278</ele>
        <time>2011-06-01T10:38:36Z</time>
      </trkpt>
      <trkpt lat="44.67968" lon="3.90115">
        <ele>987.793</ele>
        <time>2011-06-01T10:38:46Z</time>
      </trkpt>
      <trkpt lat="44.67968" lon="3.90115">
        <ele>987.986</ele>
        <time>2011-06-01T10:38:56Z</time>
      </trkpt>
      <trkpt lat="44.67968" lon="3.90115">
        <ele>987.964</ele>
        <time>2011-06-01T10:39:06Z</time>
      </trkpt>
      <trkpt lat="44.67968" lon="3.90115">
        <ele>988.3</ele>
        <time>2011-06-01T10:39:16Z</time>
      </trkpt>
      <trkpt lat="44.67968" lon="3.90115">
        <ele>988.578</ele>
        <time>2011-06-01T10:39:26Z</time>
      </trkpt>
      <trkpt lat="44.67968" lon="3.90115">
        <ele>988.656</ele>
        <time>2011-06-01T10:39:36Z</time>
      </trkpt>
      <trkpt lat="44.67968" lon="3.90115">
        <ele>987.444</ele>
        <time>2011-06-01T10:39:46Z</time>
      </trkpt>
      <trkpt lat="44.67968" lon="3.90115">
        <ele>988.73</ele>
        <time>2011-06-01T10:39:56Z</time>
      </trkpt>
      <trkpt lat="44.67968" lon="3.90115">
        <ele>988.153</ele>
        <time>2011-06-01T10:40:06Z</time>
      </trkpt>
      <trkpt lat="44.67968" lon="3.90115">
        <ele>988.114</ele>
        <time>2011-06-01T10:40:16Z</time>
      </trkpt>
      <trkpt lat="44.67968" lon="3.90115">
        <ele>988.677</ele>
        <time>2011-06-01T10:40:26Z</time>
      </trkpt>
      <trkpt lat="44.67968" lon="3.90115">
        <ele>988.996</ele>
        <time>2011-06-01T10:40:36Z</time>
      </trkpt>
      <trkpt lat="44.67968" lon="3.90115">
        <ele>988.731</ele>
        <time>2011-06-01T10:40:46Z</time>
      </trkpt>
      <trkpt lat="44.67968" lon="3.90115">
        <ele>989.072</ele>
        <time>2011-06-01T10:40:56Z</time>
      </trkpt>
      <trkpt lat="44.67968" lon="3.90115">
        <ele>988.422</ele>
        <time>2011-06-01T10:41:06Z</time>
      </trkpt>
      <trkpt lat="44.67968" lon="3.90115">
        <ele>988.367</ele>
        <time>2011-06-01T10:41:16Z</time>
      </trkpt>
      <trkpt lat="44.67968" lon="3.90115">
        <ele>989.067</ele>
        <time>2011-06-01T10:41:26Z</time>
      </trkpt>
      <trkpt lat="44.67968" lon="3.90115">
        <ele>988.439</ele>
        <time>2011-06-01T10:41:36Z</time>
      </trkpt>
      <trkpt lat="44.67968" lon="3.90115">
        <ele>988.51</ele>
        <time>2011-06-01T10:41:46Z</time>
      </trkpt>
      <trkpt lat="44.67968" lon="3.90115">
        <ele>988.639</ele>
        <time>2011-06-01T10:41:56Z</time>
      </trkpt>
      <trkpt lat="44.67968" lon="3.90114">
        <ele>988.422</ele>
        <time>2011-06-01T10:42:06Z</time>
      </trkpt>
      <trkpt lat="44.67968" lon="3.90114">
        <ele>988.643</ele>
        <time>2011-06-01T10:42:16Z</time>
      </trkpt>
      <trkpt lat="44.67968" lon="3.90114">
        <ele>988.64</ele>
        <time>2011-06-01T10:42:26Z</time>
      </trkpt>
      <trkpt lat="44.67968" lon="3.90114">
        <ele>988.53</ele>
        <time>2011-06-01T10:42:36Z</time>
      </trkpt>
      <trkpt lat="44.67968" lon="3.90114">
        <ele>988.014</ele>
        <time>2011-06-01T10:42:46Z</time>
      </trkpt>
      <trkpt lat="44.67968" lon="3.90114">
        <ele>987.582</ele>
        <time>2011-06-01T10:42:56Z</time>
      </trkpt>
      <trkpt lat="44.67968" lon="3.90114">
        <ele>988.286</ele>
        <time>2011-06-01T10:43:06Z</time>
      </trkpt>
      <trkpt lat="44.67968" lon="3.90114">
        <ele>986.66</ele>
        <time>2011-06-01T10:43:16Z</time>
      </trkpt>
      <trkpt lat="44.67968" lon="3.90114">
        <ele>989.079</ele>
        <time>2011-06-01T10:43:26Z</time>
      </trkpt>
      <trkpt lat="44.67968" lon="3.90114">
        <ele>987.594</ele>
        <time>2011-06-01T10:43:36Z</time>
      </trkpt>
      <trkpt lat="44.67968" lon="3.90114">
        <ele>987.531</ele>
        <time>2011-06-01T10:43:46Z</time>
      </trkpt>
      <trkpt lat="44.67968" lon="3.90114">
        <ele>989.541</ele>
        <time>2011-06-01T10:43:56Z</time>
      </trkpt>
      <trkpt lat="44.67968" lon="3.90114">
        <ele>988.791</ele>
        <time>2011-06-01T10:44:06Z</time>
      </trkpt>
      <trkpt lat="44.67968" lon="3.90114">
        <ele>989.267</ele>
        <time>2011-06-01T10:44:16Z</time>
      </trkpt>
      <trkpt lat="44.67968" lon="3.90114">
        <ele>988.556</ele>
        <time>2011-06-01T10:44:26Z</time>
      </trkpt>
      <trkpt lat="44.67968" lon="3.90114">
        <ele>989.234</ele>
        <time>2011-06-01T10:44:36Z</time>
      </trkpt>
      <trkpt lat="44.67968" lon="3.90114">
        <ele>987.994</ele>
        <time>2011-06-01T10:44:46Z</time>
      </trkpt>
      <trkpt lat="44.67968" lon="3.90114">
        <ele>987.817</ele>
        <time>2011-06-01T10:44:56Z</time>
      </trkpt>
      <trkpt lat="44.67968" lon="3.90114">
        <ele>989.12</ele>
        <time>2011-06-01T10:45:06Z</time>
      </trkpt>
      <trkpt lat="44.67968" lon="3.90114">
        <ele>988.87</ele>
        <time>2011-06-01T10:45:16Z</time>
      </trkpt>
      <trkpt lat="44.67968" lon="3.90114">
        <ele>988.31</ele>
        <time>2011-06-01T10:45:26Z</time>
      </trkpt>
      <trkpt lat="44.67968" lon="3.90114">
        <ele>988.08</ele>
        <time>2011-06-01T10:45:36Z</time>
      </trkpt>
      <trkpt lat="44.67968" lon="3.90114">
        <ele>988.356</ele>
        <time>2011-06-01T10:45:46Z</time>
      </trkpt>
      <trkpt lat="44.67968" lon="3.90114">
        <ele>987.558</ele>
        <time>2011-06-01T10:45:56Z</time>
      </trkpt>
      <trkpt lat="44.67968" lon="3.90114">
        <ele>987.826</ele>
        <time>2011-06-01T10:46:06Z</time>
      </trkpt>
      <trkpt lat="44.67968" lon="3.90114">
        <ele>987.674</ele>
        <time>2011-06-01T10:46:16Z</time>
      </trkpt>
      <trkpt lat="44.67968" lon="3.90114">
        <ele>988.43</ele>
        <time>2011-06-01T10:46:26Z</time>
      </trkpt>
      <trkpt lat="44.67968" lon="3.90114">
        <ele>988.555</ele>
        <time>2011-06-01T10:46:36Z</time>
      </trkpt>
      <trkpt lat="44.67968" lon="3.90114">
        <ele>987.795</ele>
        <time>2011-06-01T10:46:46Z</time>
      </trkpt>
      <trkpt lat="44.67968" lon="3.90114">
        <ele>988.176</ele>
        <time>2011-06-01T10:46:56Z</time>
      </trkpt>
      <trkpt lat="44.67968" lon="3.90114">
        <ele>987.45</ele>
        <time>2011-06-01T10:47:06Z</time>
      </trkpt>
      <trkpt lat="44.67969" lon="3.90113">
        <ele>987.99</ele>
        <time>2011-06-01T10:47:16Z</time>
      </trkpt>
      <trkpt lat="44.67969" lon="3.90113">
        <ele>987.508</ele>
        <time>2011-06-01T10:47:26Z</time>
      </trkpt>
      <trkpt lat="44.67969" lon="3.90113">
        <ele>986.632</ele>
        <time>2011-06-01T10:47:36Z</time>
      </trkpt>
      <trkpt lat="44.67969" lon="3.90113">
        <ele>987.714</ele>
        <time>2011-06-01T10:47:46Z</time>
      </trkpt>
      <trkpt lat="44.67969" lon="3.90113">
        <ele>987.103</ele>
        <time>2011-06-01T10:47:56Z</time>
      </trkpt>
      <trkpt lat="44.67969" lon="3.90113">
        <ele>986.492</ele>
        <time>2011-06-01T10:48:06Z</time>
      </trkpt>
      <trkpt lat="44.67969" lon="3.90113">
        <ele>986.433</ele>
        <time>2011-06-01T10:48:16Z</time>
      </trkpt>
      <trkpt lat="44.67969" lon="3.90113">
        <ele>988.057</ele>
        <time>2011-06-01T10:48:26Z</time>
      </trkpt>
      <trkpt lat="44.67969" lon="3.90113">
        <ele>986.782</ele>
        <time>2011-06-01T10:48:36Z</time>
      </trkpt>
      <trkpt lat="44.67969" lon="3.90113">
        <ele>987.062</ele>
        <time>2011-06-01T10:48:46Z</time>
      </trkpt>
      <trkpt lat="44.67969" lon="3.90113">
        <ele>987.302</ele>
        <time>2011-06-01T10:48:56Z</time>
      </trkpt>
      <trkpt lat="44.67969" lon="3.90113">
        <ele>986.684</ele>
        <time>2011-06-01T10:49:06Z</time>
      </trkpt>
      <trkpt lat="44.67969" lon="3.90113">
        <ele>986.379</ele>
        <time>2011-06-01T10:49:16Z</time>
      </trkpt>
      <trkpt lat="44.67969" lon="3.90113">
        <ele>987.376</ele>
        <time>2011-06-01T10:49:26Z</time>
      </trkpt>
      <trkpt lat="44.67969" lon="3.90113">
        <ele>986.873</ele>
        <time>2011-06-01T10:49:36Z</time>
      </trkpt>
      <trkpt lat="44.67969" lon="3.90113">
        <ele>986.703</ele>
        <time>2011-06-01T10:49:46Z</time>
      </trkpt>
      <trkpt lat="44.67969" lon="3.90113">
        <ele>987.156</ele>
        <time>2011-06-01T10:49:56Z</time>
      </trkpt>
      <trkpt lat="44.67969" lon="3.90113">
        <ele>986.714</ele>
        <time>2011-06-01T10:50:06Z</time>
      </trkpt>
      <trkpt lat="44.67969" lon="3.90113">
        <ele>986.237</ele>
        <time>2011-06-01T10:50:16Z</time>
      </trkpt>
      <trkpt lat="44.67969" lon="3.90113">
        <ele>986.576</ele>
        <time>2011-06-01T10:50:26Z</time>
      </trkpt>
      <trkpt lat="44.67969" lon="3.90113">
        <ele>986.914</ele>
        <time>2011-06-01T10:50:36Z</time>
      </trkpt>
      <trkpt lat="44.67969" lon="3.90113">
        <ele>986.273</ele>
        <time>2011-06-01T10:50:46Z</time>
      </trkpt>
      <trkpt lat="44.67969" lon="3.90113">
        <ele>985.966</ele>
        <time>2011-06-01T10:50:56Z</time>
      </trkpt>
      <trkpt lat="44.67969" lon="3.90113">
        <ele>985.575</ele>
        <time>2011-06-01T10:51:06Z</time>
      </trkpt>
      <trkpt lat="44.67969" lon="3.90113">
        <ele>986.46</ele>
        <time>2011-06-01T10:51:16Z</time>
      </trkpt>
      <trkpt lat="44.67969" lon="3.90113">
        <ele>986.556</ele>
        <time>2011-06-01T10:51:26Z</time>
      </trkpt>
      <trkpt lat="44.67969" lon="3.90113">
        <ele>986.186</ele>
        <time>2011-06-01T10:51:36Z</time>
      </trkpt>
      <trkpt lat="44.67969" lon="3.90113">
        <ele>985.747</ele>
        <time>2011-06-01T10:51:46Z</time>
      </trkpt>
      <trkpt lat="44.67969" lon="3.90113">
        <ele>986.752</ele>
        <time>2011-06-01T10:51:56Z</time>
      </trkpt>
      <trkpt lat="44.67969" lon="3.90113">
        <ele>985.495</ele>
        <time>2011-06-01T10:52:06Z</time>
      </trkpt>
      <trkpt lat="44.67969" lon="3.90113">
        <ele>986.609</ele>
        <time>2011-06-01T10:52:16Z</time>
      </trkpt>
      <trkpt lat="44.67969" lon="3.90113">
        <ele>986.336</ele>
        <time>2011-06-01T10:52:26Z</time>
      </trkpt>
      <trkpt lat="44.67969" lon="3.90113">
        <ele>986.611</ele>
        <time>2011-06-01T10:52:36Z</time>
      </trkpt>
      <trkpt lat="44.67969" lon="3.90113">
        <ele>986.322</ele>
        <time>2011-06-01T10:52:46Z</time>
      </trkpt>
      <trkpt lat="44.67969" lon="3.90113">
        <ele>985.956</ele>
        <time>2011-06-01T10:52:56Z</time>
      </trkpt>
      <trkpt lat="44.67969" lon="3.90113">
        <ele>985.389</ele>
        <time>2011-06-01T10:53:06Z</time>
      </trkpt>
      <trkpt lat="44.67969" lon="3.90113">
        <ele>986.13</ele>
        <time>2011-06-01T10:53:16Z</time>
      </trkpt>
      <trkpt lat="44.67969" lon="3.90113">
        <ele>986.17</ele>
        <time>2011-06-01T10:53:26Z</time>
      </trkpt>
      <trkpt lat="44.67969" lon="3.90113">
        <ele>985.926</ele>
        <time>2011-06-01T10:53:36Z</time>
      </trkpt>
      <trkpt lat="44.67969" lon="3.90113">
        <ele>986.038</ele>
        <time>2011-06-01T10:53:46Z</time>
      </trkpt>
      <trkpt lat="44.67969" lon="3.90113">
        <ele>986.399</ele>
        <time>2011-06-01T10:53:56Z</time>
      </trkpt>
      <trkpt lat="44.67969" lon="3.90113">
        <ele>987.142</ele>
        <time>2011-06-01T10:54:06Z</time>
      </trkpt>
      <trkpt lat="44.67969" lon="3.90113">
        <ele>986.71</ele>
        <time>2011-06-01T10:54:16Z</time>
      </trkpt>
      <trkpt lat="44.67969" lon="3.90113">
        <ele>986.269</ele>
        <time>2011-06-01T10:54:26Z</time>
      </trkpt>
      <trkpt lat="44.67969" lon="3.90113">
        <ele>986.254</ele>
        <time>2011-06-01T10:54:36Z</time>
      </trkpt>
      <trkpt lat="44.67969" lon="3.90113">
        <ele>985.759</ele>
        <time>2011-06-01T10:54:46Z</time>
      </trkpt>
      <trkpt lat="44.67971" lon="3.90121">
        <ele>985.682</ele>
        <time>2011-06-01T10:54:56Z</time>
      </trkpt>
      <trkpt lat="44.6797" lon="3.90132">
        <ele>983.503</ele>
        <time>2011-06-01T10:55:06Z</time>
      </trkpt>
      <trkpt lat="44.67961" lon="3.90136">
        <ele>983.016</ele>
        <time>2011-06-01T10:55:16Z</time>
      </trkpt>
      <trkpt lat="44.67953" lon="3.90145">
        <ele>982.72</ele>
        <time>2011-06-01T10:55:26Z</time>
      </trkpt>
      <trkpt lat="44.67946" lon="3.90156">
        <ele>979.728</ele>
        <time>2011-06-01T10:55:36Z</time>
      </trkpt>
      <trkpt lat="44.67934" lon="3.90153">
        <ele>976.761</ele>
        <time>2011-06-01T10:55:46Z</time>
      </trkpt>
      <trkpt lat="44.67923" lon="3.90146">
        <ele>977.325</ele>
        <time>2011-06-01T10:55:56Z</time>
      </trkpt>
      <trkpt lat="44.67911" lon="3.90141">
        <ele>975.52</ele>
        <time>2011-06-01T10:56:06Z</time>
      </trkpt>
      <trkpt lat="44.67899" lon="3.90139">
        <ele>973.654</ele>
        <time>2011-06-01T10:56:16Z</time>
      </trkpt>
      <trkpt lat="44.67886" lon="3.90139">
        <ele>973.072</ele>
        <time>2011-06-01T10:56:26Z</time>
      </trkpt>
      <trkpt lat="44.67875" lon="3.90138">
        <ele>973.837</ele>
        <time>2011-06-01T10:56:36Z</time>
      </trkpt>
      <trkpt lat="44.67865" lon="3.90136">
        <ele>973.656</ele>
        <time>2011-06-01T10:56:46Z</time>
      </trkpt>
      <trkpt lat="44.67853" lon="3.90131">
        <ele>973.084</ele>
        <time>2011-06-01T10:56:56Z</time>
      </trkpt>
      <trkpt lat="44.67845" lon="3.90124">
        <ele>973.358</ele>
        <time>2011-06-01T10:57:06Z</time>
      </trkpt>
      <trkpt lat="44.67835" lon="3.90116">
        <ele>975.381</ele>
        <time>2011-06-01T10:57:16Z</time>
      </trkpt>
      <trkpt lat="44.67826" lon="3.90112">
        <ele>975.248</ele>
        <time>2011-06-01T10:57:26Z</time>
      </trkpt>
      <trkpt lat="44.67816" lon="3.90111">
        <ele>976.77</ele>
        <time>2011-06-01T10:57:36Z</time>
      </trkpt>
      <trkpt lat="44.67806" lon="3.90115">
        <ele>976.649</ele>
        <time>2011-06-01T10:57:46Z</time>
      </trkpt>
      <trkpt lat="44.67796" lon="3.9012">
        <ele>976.501</ele>
        <time>2011-06-01T10:57:56Z</time>
      </trkpt>
      <trkpt lat="44.67786" lon="3.90122">
        <ele>976.855</ele>
        <time>2011-06-01T10:58:06Z</time>
      </trkpt>
      <trkpt lat="44.67776" lon="3.90125">
        <ele>977.138</ele>
        <time>2011-06-01T10:58:16Z</time>
      </trkpt>
      <trkpt lat="44.67769" lon="3.90128">
        <ele>977.492</ele>
        <time>2011-06-01T10:58:26Z</time>
      </trkpt>
      <trkpt lat="44.67768" lon="3.9013">
        <ele>977.06</ele>
        <time>2011-06-01T10:58:36Z</time>
      </trkpt>
      <trkpt lat="44.67768" lon="3.90131">
        <ele>976.419</ele>
        <time>2011-06-01T10:58:46Z</time>
      </trkpt>
      <trkpt lat="44.6776" lon="3.90136">
        <ele>978.01</ele>
        <time>2011-06-01T10:58:56Z</time>
      </trkpt>
      <trkpt lat="44.6775" lon="3.90139">
        <ele>977.352</ele>
        <time>2011-06-01T10:59:06Z</time>
      </trkpt>
      <trkpt lat="44.67739" lon="3.90143">
        <ele>978.005</ele>
        <time>2011-06-01T10:59:16Z</time>
      </trkpt>
      <trkpt lat="44.67729" lon="3.90148">
        <ele>977.685</ele>
        <time>2011-06-01T10:59:26Z</time>
      </trkpt>
      <trkpt lat="44.67719" lon="3.90152">
        <ele>977.236</ele>
        <time>2011-06-01T10:59:36Z</time>
      </trkpt>
      <trkpt lat="44.67709" lon="3.90153">
        <ele>976.815</ele>
        <time>2011-06-01T10:59:46Z</time>
      </trkpt>
      <trkpt lat="44.67697" lon="3.90152">
        <ele>978.842</ele>
        <time>2011-06-01T10:59:56Z</time>
      </trkpt>
      <trkpt lat="44.67685" lon="3.90152">
        <ele>977.551</ele>
        <time>2011-06-01T11:00:06Z</time>
      </trkpt>
      <trkpt lat="44.67675" lon="3.90149">
        <ele>977.816</ele>
        <time>2011-06-01T11:00:16Z</time>
      </trkpt>
      <trkpt lat="44.67663" lon="3.90154">
        <ele>977.255</ele>
        <time>2011-06-01T11:00:26Z</time>
      </trkpt>
      <trkpt lat="44.67657" lon="3.90157">
        <ele>977.914</ele>
        <time>2011-06-01T11:00:36Z</time>
      </trkpt>
      <trkpt lat="44.67653" lon="3.9016">
        <ele>977.686</ele>
        <time>2011-06-01T11:00:46Z</time>
      </trkpt>
      <trkpt lat="44.67647" lon="3.90166">
        <ele>979.362</ele>
        <time>2011-06-01T11:00:56Z</time>
      </trkpt>
      <trkpt lat="44.67641" lon="3.90177">
        <ele>978.803</ele>
        <time>2011-06-01T11:01:06Z</time>
      </trkpt>
      <trkpt lat="44.67633" lon="3.90183">
        <ele>981.607</ele>
        <time>2011-06-01T11:01:16Z</time>
      </trkpt>
      <trkpt lat="44.67627" lon="3.90187">
        <ele>983.504</ele>
        <time>2011-06-01T11:01:26Z</time>
      </trkpt>
      <trkpt lat="44.67622" lon="3.90194">
        <ele>984.164</ele>
        <time>2011-06-01T11:01:36Z</time>
      </trkpt>
      <trkpt lat="44.67618" lon="3.902">
        <ele>984.9</ele>
        <time>2011-06-01T11:01:46Z</time>
      </trkpt>
      <trkpt lat="44.67618" lon="3.90201">
        <ele>984.548</ele>
        <time>2011-06-01T11:01:56Z</time>
      </trkpt>
      <trkpt lat="44.67619" lon="3.90201">
        <ele>984.987</ele>
        <time>2011-06-01T11:02:06Z</time>
      </trkpt>
      <trkpt lat="44.6762" lon="3.90202">
        <ele>985.138</ele>
        <time>2011-06-01T11:02:16Z</time>
      </trkpt>
      <trkpt lat="44.6762" lon="3.90201">
        <ele>985.347</ele>
        <time>2011-06-01T11:02:26Z</time>
      </trkpt>
      <trkpt lat="44.6762" lon="3.90201">
        <ele>983.94</ele>
        <time>2011-06-01T11:02:36Z</time>
      </trkpt>
      <trkpt lat="44.67619" lon="3.90203">
        <ele>984.722</ele>
        <time>2011-06-01T11:02:46Z</time>
      </trkpt>
      <trkpt lat="44.67612" lon="3.90211">
        <ele>985.965</ele>
        <time>2011-06-01T11:02:56Z</time>
      </trkpt>
      <trkpt lat="44.67602" lon="3.90223">
        <ele>986.827</ele>
        <time>2011-06-01T11:03:06Z</time>
      </trkpt>
      <trkpt lat="44.67597" lon="3.90238">
        <ele>987.045</ele>
        <time>2011-06-01T11:03:16Z</time>
      </trkpt>
      <trkpt lat="44.6759" lon="3.90251">
        <ele>987.582</ele>
        <time>2011-06-01T11:03:26Z</time>
      </trkpt>
      <trkpt lat="44.67584" lon="3.90265">
        <ele>989.082</ele>
        <time>2011-06-01T11:03:36Z</time>
      </trkpt>
      <trkpt lat="44.6758" lon="3.90281">
        <ele>989.98</ele>
        <time>2011-06-01T11:03:46Z</time>
      </trkpt>
      <trkpt lat="44.67579" lon="3.90297">
        <ele>991.037</ele>
        <time>2011-06-01T11:03:56Z</time>
      </trkpt>
      <trkpt lat="44.67575" lon="3.90311">
        <ele>990.939</ele>
        <time>2011-06-01T11:04:06Z</time>
      </trkpt>
      <trkpt lat="44.67567" lon="3.90327">
        <ele>991.649</ele>
        <time>2011-06-01T11:04:16Z</time>
      </trkpt>
      <trkpt lat="44.67561" lon="3.90342">
        <ele>992.664</ele>
        <time>2011-06-01T11:04:26Z</time>
      </trkpt>
      <trkpt lat="44.67553" lon="3.90355">
        <ele>992.695</ele>
        <time>2011-06-01T11:04:36Z</time>
      </trkpt>
      <trkpt lat="44.67546" lon="3.9037">
        <ele>993.021</ele>
        <time>2011-06-01T11:04:46Z</time>
      </trkpt>
      <trkpt lat="44.67537" lon="3.90386">
        <ele>993.14</ele>
        <time>2011-06-01T11:04:56Z</time>
      </trkpt>
      <trkpt lat="44.67527" lon="3.90399">
        <ele>993.255</ele>
        <time>2011-06-01T11:05:06Z</time>
      </trkpt>
      <trkpt lat="44.67516" lon="3.90409">
        <ele>994.482</ele>
        <time>2011-06-01T11:05:16Z</time>
      </trkpt>
      <trkpt lat="44.67505" lon="3.90416">
        <ele>994.226</ele>
        <time>2011-06-01T11:05:26Z</time>
      </trkpt>
      <trkpt lat="44.67494" lon="3.90422">
        <ele>993.683</ele>
        <time>2011-06-01T11:05:36Z</time>
      </trkpt>
      <trkpt lat="44.67485" lon="3.90428">
        <ele>994.161</ele>
        <time>2011-06-01T11:05:46Z</time>
      </trkpt>
      <trkpt lat="44.67476" lon="3.90438">
        <ele>995.165</ele>
        <time>2011-06-01T11:05:56Z</time>
      </trkpt>
      <trkpt lat="44.67469" lon="3.9045">
        <ele>995.381</ele>
        <time>2011-06-01T11:06:06Z</time>
      </trkpt>
      <trkpt lat="44.67462" lon="3.90466">
        <ele>994.987</ele>
        <time>2011-06-01T11:06:16Z</time>
      </trkpt>
      <trkpt lat="44.67455" lon="3.90484">
        <ele>995.262</ele>
        <time>2011-06-01T11:06:26Z</time>
      </trkpt>
      <trkpt lat="44.67446" lon="3.90493">
        <ele>995.227</ele>
        <time>2011-06-01T11:06:35Z</time>
      </trkpt>
      <trkpt lat="44.67436" lon="3.90501">
        <ele>995.816</ele>
        <time>2011-06-01T11:06:46Z</time>
      </trkpt>
      <trkpt lat="44.67426" lon="3.90516">
        <ele>996.042</ele>
        <time>2011-06-01T11:06:56Z</time>
      </trkpt>
      <trkpt lat="44.67415" lon="3.90523">
        <ele>995.952</ele>
        <time>2011-06-01T11:07:06Z</time>
      </trkpt>
      <trkpt lat="44.67402" lon="3.90529">
        <ele>995.551</ele>
        <time>2011-06-01T11:07:16Z</time>
      </trkpt>
      <trkpt lat="44.67389" lon="3.90537">
        <ele>996.854</ele>
        <time>2011-06-01T11:07:26Z</time>
      </trkpt>
      <trkpt lat="44.67377" lon="3.90544">
        <ele>997.068</ele>
        <time>2011-06-01T11:07:36Z</time>
      </trkpt>
      <trkpt lat="44.67365" lon="3.90551">
        <ele>996.599</ele>
        <time>2011-06-01T11:07:46Z</time>
      </trkpt>
      <trkpt lat="44.67355" lon="3.90558">
        <ele>997.778</ele>
        <time>2011-06-01T11:07:56Z</time>
      </trkpt>
      <trkpt lat="44.67343" lon="3.90566">
        <ele>997.081</ele>
        <time>2011-06-01T11:08:06Z</time>
      </trkpt>
      <trkpt lat="44.67331" lon="3.90574">
        <ele>996.577</ele>
        <time>2011-06-01T11:08:16Z</time>
      </trkpt>
      <trkpt lat="44.67322" lon="3.90581">
        <ele>996.291</ele>
        <time>2011-06-01T11:08:26Z</time>
      </trkpt>
      <trkpt lat="44.67312" lon="3.90591">
        <ele>996.957</ele>
        <time>2011-06-01T11:08:36Z</time>
      </trkpt>
      <trkpt lat="44.67302" lon="3.90604">
        <ele>996.68</ele>
        <time>2011-06-01T11:08:46Z</time>
      </trkpt>
      <trkpt lat="44.67291" lon="3.90616">
        <ele>999.16</ele>
        <time>2011-06-01T11:08:56Z</time>
      </trkpt>
      <trkpt lat="44.6728" lon="3.90626">
        <ele>998.424</ele>
        <time>2011-06-01T11:09:06Z</time>
      </trkpt>
      <trkpt lat="44.67268" lon="3.90633">
        <ele>1000.716</ele>
        <time>2011-06-01T11:09:16Z</time>
      </trkpt>
      <trkpt lat="44.67256" lon="3.90638">
        <ele>999.838</ele>
        <time>2011-06-01T11:09:26Z</time>
      </trkpt>
      <trkpt lat="44.67243" lon="3.9064">
        <ele>999.289</ele>
        <time>2011-06-01T11:09:36Z</time>
      </trkpt>
      <trkpt lat="44.67229" lon="3.90638">
        <ele>999.715</ele>
        <time>2011-06-01T11:09:46Z</time>
      </trkpt>
      <trkpt lat="44.67215" lon="3.90637">
        <ele>999.602</ele>
        <time>2011-06-01T11:09:56Z</time>
      </trkpt>
      <trkpt lat="44.67203" lon="3.90633">
        <ele>1000.281</ele>
        <time>2011-06-01T11:10:06Z</time>
      </trkpt>
      <trkpt lat="44.67191" lon="3.9063">
        <ele>1000.616</ele>
        <time>2011-06-01T11:10:16Z</time>
      </trkpt>
      <trkpt lat="44.67179" lon="3.90631">
        <ele>1000.4</ele>
        <time>2011-06-01T11:10:26Z</time>
      </trkpt>
      <trkpt lat="44.67166" lon="3.90634">
        <ele>1001.273</ele>
        <time>2011-06-01T11:10:36Z</time>
      </trkpt>
      <trkpt lat="44.67156" lon="3.90641">
        <ele>1000.759</ele>
        <time>2011-06-01T11:10:46Z</time>
      </trkpt>
      <trkpt lat="44.67144" lon="3.90646">
        <ele>1001.492</ele>
        <time>2011-06-01T11:10:56Z</time>
      </trkpt>
      <trkpt lat="44.67133" lon="3.90654">
        <ele>1002.035</ele>
        <time>2011-06-01T11:11:06Z</time>
      </trkpt>
      <trkpt lat="44.67123" lon="3.90662">
        <ele>1002.555</ele>
        <time>2011-06-01T11:11:16Z</time>
      </trkpt>
      <trkpt lat="44.67113" lon="3.90669">
        <ele>1002.93</ele>
        <time>2011-06-01T11:11:26Z</time>
      </trkpt>
      <trkpt lat="44.67103" lon="3.90675">
        <ele>1003.23</ele>
        <time>2011-06-01T11:11:36Z</time>
      </trkpt>
      <trkpt lat="44.67092" lon="3.90681">
        <ele>1002.957</ele>
        <time>2011-06-01T11:11:46Z</time>
      </trkpt>
      <trkpt lat="44.67081" lon="3.90691">
        <ele>1003.398</ele>
        <time>2011-06-01T11:11:56Z</time>
      </trkpt>
      <trkpt lat="44.67068" lon="3.90699">
        <ele>1004.818</ele>
        <time>2011-06-01T11:12:06Z</time>
      </trkpt>
      <trkpt lat="44.67056" lon="3.90707">
        <ele>1005.175</ele>
        <time>2011-06-01T11:12:16Z</time>
      </trkpt>
      <trkpt lat="44.67041" lon="3.90707">
        <ele>1005.244</ele>
        <time>2011-06-01T11:12:26Z</time>
      </trkpt>
      <trkpt lat="44.67045" lon="3.90706">
        <ele>1005.918</ele>
        <time>2011-06-01T11:12:36Z</time>
      </trkpt>
      <trkpt lat="44.67044" lon="3.90707">
        <ele>1006.724</ele>
        <time>2011-06-01T11:12:46Z</time>
      </trkpt>
      <trkpt lat="44.67041" lon="3.90707">
        <ele>1006.955</ele>
        <time>2011-06-01T11:12:56Z</time>
      </trkpt>
      <trkpt lat="44.67032" lon="3.90708">
        <ele>1007.7</ele>
        <time>2011-06-01T11:13:06Z</time>
      </trkpt>
      <trkpt lat="44.67018" lon="3.90712">
        <ele>1007.782</ele>
        <time>2011-06-01T11:13:16Z</time>
      </trkpt>
      <trkpt lat="44.67011" lon="3.90717">
        <ele>1008.208</ele>
        <time>2011-06-01T11:13:26Z</time>
      </trkpt>
      <trkpt lat="44.66998" lon="3.90718">
        <ele>1009.621</ele>
        <time>2011-06-01T11:13:36Z</time>
      </trkpt>
      <trkpt lat="44.66988" lon="3.90719">
        <ele>1010.558</ele>
        <time>2011-06-01T11:13:46Z</time>
      </trkpt>
      <trkpt lat="44.6698" lon="3.90716">
        <ele>1011.335</ele>
        <time>2011-06-01T11:13:56Z</time>
      </trkpt>
      <trkpt lat="44.66967" lon="3.90716">
        <ele>1011.518</ele>
        <time>2011-06-01T11:14:06Z</time>
      </trkpt>
      <trkpt lat="44.66959" lon="3.9071">
        <ele>1014.102</ele>
        <time>2011-06-01T11:14:16Z</time>
      </trkpt>
      <trkpt lat="44.66946" lon="3.90708">
        <ele>1013.107</ele>
        <time>2011-06-01T11:14:26Z</time>
      </trkpt>
      <trkpt lat="44.66934" lon="3.90706">
        <ele>1012.587</ele>
        <time>2011-06-01T11:14:36Z</time>
      </trkpt>
      <trkpt lat="44.6692" lon="3.90707">
        <ele>1013.134</ele>
        <time>2011-06-01T11:14:46Z</time>
      </trkpt>
      <trkpt lat="44.66911" lon="3.90702">
        <ele>1015.702</ele>
        <time>2011-06-01T11:14:56Z</time>
      </trkpt>
      <trkpt lat="44.669" lon="3.90699">
        <ele>1016.009</ele>
        <time>2011-06-01T11:15:06Z</time>
      </trkpt>
      <trkpt lat="44.6689" lon="3.90694">
        <ele>1017.634</ele>
        <time>2011-06-01T11:15:16Z</time>
      </trkpt>
      <trkpt lat="44.66879" lon="3.90692">
        <ele>1018.432</ele>
        <time>2011-06-01T11:15:26Z</time>
      </trkpt>
      <trkpt lat="44.66868" lon="3.90688">
        <ele>1018.982</ele>
        <time>2011-06-01T11:15:36Z</time>
      </trkpt>
      <trkpt lat="44.66859" lon="3.90683">
        <ele>1020.732</ele>
        <time>2011-06-01T11:15:46Z</time>
      </trkpt>
      <trkpt lat="44.66846" lon="3.90678">
        <ele>1021.043</ele>
        <time>2011-06-01T11:15:56Z</time>
      </trkpt>
      <trkpt lat="44.66839" lon="3.90673">
        <ele>1023.108</ele>
        <time>2011-06-01T11:16:06Z</time>
      </trkpt>
      <trkpt lat="44.66826" lon="3.90669">
        <ele>1024.265</ele>
        <time>2011-06-01T11:16:16Z</time>
      </trkpt>
      <trkpt lat="44.66817" lon="3.90661">
        <ele>1025.008</ele>
        <time>2011-06-01T11:16:26Z</time>
      </trkpt>
      <trkpt lat="44.66805" lon="3.90654">
        <ele>1025.843</ele>
        <time>2011-06-01T11:16:36Z</time>
      </trkpt>
      <trkpt lat="44.66798" lon="3.90644">
        <ele>1027.042</ele>
        <time>2011-06-01T11:16:46Z</time>
      </trkpt>
      <trkpt lat="44.66797" lon="3.90632">
        <ele>1027.634</ele>
        <time>2011-06-01T11:16:56Z</time>
      </trkpt>
      <trkpt lat="44.66799" lon="3.90614">
        <ele>1028.342</ele>
        <time>2011-06-01T11:17:06Z</time>
      </trkpt>
      <trkpt lat="44.66804" lon="3.90601">
        <ele>1031.677</ele>
        <time>2011-06-01T11:17:16Z</time>
      </trkpt>
      <trkpt lat="44.66809" lon="3.90589">
        <ele>1032.574</ele>
        <time>2011-06-01T11:17:26Z</time>
      </trkpt>
      <trkpt lat="44.66816" lon="3.90578">
        <ele>1033.773</ele>
        <time>2011-06-01T11:17:36Z</time>
      </trkpt>
      <trkpt lat="44.66822" lon="3.90568">
        <ele>1032.932</ele>
        <time>2011-06-01T11:17:46Z</time>
      </trkpt>
      <trkpt lat="44.66827" lon="3.90551">
        <ele>1032.749</ele>
        <time>2011-06-01T11:17:56Z</time>
      </trkpt>
      <trkpt lat="44.66834" lon="3.90535">
        <ele>1035.956</ele>
        <time>2011-06-01T11:18:06Z</time>
      </trkpt>
      <trkpt lat="44.66834" lon="3.90515">
        <ele>1034.919</ele>
        <time>2011-06-01T11:18:16Z</time>
      </trkpt>
      <trkpt lat="44.66835" lon="3.90496">
        <ele>1033.711</ele>
        <time>2011-06-01T11:18:26Z</time>
      </trkpt>
      <trkpt lat="44.66835" lon="3.9048">
        <ele>1035.158</ele>
        <time>2011-06-01T11:18:36Z</time>
      </trkpt>
      <trkpt lat="44.66838" lon="3.90462">
        <ele>1034.107</ele>
        <time>2011-06-01T11:18:46Z</time>
      </trkpt>
      <trkpt lat="44.66838" lon="3.90447">
        <ele>1036.236</ele>
        <time>2011-06-01T11:18:56Z</time>
      </trkpt>
      <trkpt lat="44.66842" lon="3.90429">
        <ele>1035.223</ele>
        <time>2011-06-01T11:19:06Z</time>
      </trkpt>
      <trkpt lat="44.66834" lon="3.90422">
        <ele>1035.273</ele>
        <time>2011-06-01T11:19:16Z</time>
      </trkpt>
      <trkpt lat="44.66821" lon="3.90419">
        <ele>1036.59</ele>
        <time>2011-06-01T11:19:26Z</time>
      </trkpt>
      <trkpt lat="44.66811" lon="3.90423">
        <ele>1036.269</ele>
        <time>2011-06-01T11:19:36Z</time>
      </trkpt>
      <trkpt lat="44.668" lon="3.90426">
        <ele>1037.712</ele>
        <time>2011-06-01T11:19:46Z</time>
      </trkpt>
      <trkpt lat="44.66788" lon="3.90427">
        <ele>1037.657</ele>
        <time>2011-06-01T11:19:56Z</time>
      </trkpt>
      <trkpt lat="44.66776" lon="3.90426">
        <ele>1037.881</ele>
        <time>2011-06-01T11:20:06Z</time>
      </trkpt>
      <trkpt lat="44.66765" lon="3.90425">
        <ele>1041.301</ele>
        <time>2011-06-01T11:20:16Z</time>
      </trkpt>
      <trkpt lat="44.66754" lon="3.90424">
        <ele>1041.677</ele>
        <time>2011-06-01T11:20:26Z</time>
      </trkpt>
      <trkpt lat="44.66745" lon="3.90418">
        <ele>1044.333</ele>
        <time>2011-06-01T11:20:36Z</time>
      </trkpt>
      <trkpt lat="44.66734" lon="3.90416">
        <ele>1044.366</ele>
        <time>2011-06-01T11:20:46Z</time>
      </trkpt>
      <trkpt lat="44.66721" lon="3.90416">
        <ele>1045.312</ele>
        <time>2011-06-01T11:20:56Z</time>
      </trkpt>
      <trkpt lat="44.66712" lon="3.90414">
        <ele>1046.302</ele>
        <time>2011-06-01T11:21:06Z</time>
      </trkpt>
      <trkpt lat="44.66702" lon="3.90409">
        <ele>1046.637</ele>
        <time>2011-06-01T11:21:16Z</time>
      </trkpt>
      <trkpt lat="44.66689" lon="3.90402">
        <ele>1048.559</ele>
        <time>2011-06-01T11:21:26Z</time>
      </trkpt>
      <trkpt lat="44.66676" lon="3.90398">
        <ele>1049.221</ele>
        <time>2011-06-01T11:21:36Z</time>
      </trkpt>
      <trkpt lat="44.66666" lon="3.90392">
        <ele>1050.033</ele>
        <time>2011-06-01T11:21:46Z</time>
      </trkpt>
      <trkpt lat="44.66657" lon="3.90388">
        <ele>1050.611</ele>
        <time>2011-06-01T11:21:56Z</time>
      </trkpt>
      <trkpt lat="44.66649" lon="3.90384">
        <ele>1053.182</ele>
        <time>2011-06-01T11:22:06Z</time>
      </trkpt>
      <trkpt lat="44.66636" lon="3.90379">
        <ele>1053.322</ele>
        <time>2011-06-01T11:22:16Z</time>
      </trkpt>
      <trkpt lat="44.66628" lon="3.90376">
        <ele>1053.954</ele>
        <time>2011-06-01T11:22:26Z</time>
      </trkpt>
      <trkpt lat="44.66614" lon="3.90373">
        <ele>1056.099</ele>
        <time>2011-06-01T11:22:36Z</time>
      </trkpt>
      <trkpt lat="44.66605" lon="3.90369">
        <ele>1057.754</ele>
        <time>2011-06-01T11:22:46Z</time>
      </trkpt>
      <trkpt lat="44.66597" lon="3.90363">
        <ele>1058.533</ele>
        <time>2011-06-01T11:22:56Z</time>
      </trkpt>
      <trkpt lat="44.66589" lon="3.90355">
        <ele>1059.639</ele>
        <time>2011-06-01T11:23:06Z</time>
      </trkpt>
      <trkpt lat="44.66578" lon="3.90346">
        <ele>1060.853</ele>
        <time>2011-06-01T11:23:16Z</time>
      </trkpt>
      <trkpt lat="44.66565" lon="3.90338">
        <ele>1061.725</ele>
        <time>2011-06-01T11:23:26Z</time>
      </trkpt>
      <trkpt lat="44.66555" lon="3.90332">
        <ele>1062.892</ele>
        <time>2011-06-01T11:23:36Z</time>
      </trkpt>
      <trkpt lat="44.66543" lon="3.90328">
        <ele>1064.044</ele>
        <time>2011-06-01T11:23:46Z</time>
      </trkpt>
      <trkpt lat="44.66533" lon="3.90325">
        <ele>1064.168</ele>
        <time>2011-06-01T11:23:56Z</time>
      </trkpt>
      <trkpt lat="44.66521" lon="3.9032">
        <ele>1065.134</ele>
        <time>2011-06-01T11:24:06Z</time>
      </trkpt>
      <trkpt lat="44.66509" lon="3.90315">
        <ele>1065.57</ele>
        <time>2011-06-01T11:24:16Z</time>
      </trkpt>
      <trkpt lat="44.66498" lon="3.90305">
        <ele>1066.525</ele>
        <time>2011-06-01T11:24:26Z</time>
      </trkpt>
      <trkpt lat="44.66487" lon="3.90301">
        <ele>1065.304</ele>
        <time>2011-06-01T11:24:36Z</time>
      </trkpt>
      <trkpt lat="44.66477" lon="3.90299">
        <ele>1065.553</ele>
        <time>2011-06-01T11:24:46Z</time>
      </trkpt>
      <trkpt lat="44.66464" lon="3.90298">
        <ele>1066.58</ele>
        <time>2011-06-01T11:24:56Z</time>
      </trkpt>
      <trkpt lat="44.66452" lon="3.90295">
        <ele>1067.103</ele>
        <time>2011-06-01T11:25:06Z</time>
      </trkpt>
      <trkpt lat="44.66441" lon="3.90292">
        <ele>1067.024</ele>
        <time>2011-06-01T11:25:16Z</time>
      </trkpt>
      <trkpt lat="44.66429" lon="3.9029">
        <ele>1066.639</ele>
        <time>2011-06-01T11:25:26Z</time>
      </trkpt>
      <trkpt lat="44.66417" lon="3.90287">
        <ele>1066.385</ele>
        <time>2011-06-01T11:25:36Z</time>
      </trkpt>
      <trkpt lat="44.66404" lon="3.90286">
        <ele>1067.123</ele>
        <time>2011-06-01T11:25:46Z</time>
      </trkpt>
      <trkpt lat="44.66392" lon="3.90286">
        <ele>1068.004</ele>
        <time>2011-06-01T11:25:56Z</time>
      </trkpt>
      <trkpt lat="44.66382" lon="3.90277">
        <ele>1069.238</ele>
        <time>2011-06-01T11:26:06Z</time>
      </trkpt>
      <trkpt lat="44.66372" lon="3.90273">
        <ele>1069.837</ele>
        <time>2011-06-01T11:26:16Z</time>
      </trkpt>
      <trkpt lat="44.66362" lon="3.90268">
        <ele>1071.167</ele>
        <time>2011-06-01T11:26:26Z</time>
      </trkpt>
      <trkpt lat="44.66352" lon="3.90264">
        <ele>1071.464</ele>
        <time>2011-06-01T11:26:36Z</time>
      </trkpt>
      <trkpt lat="44.66343" lon="3.90257">
        <ele>1075.151</ele>
        <time>2011-06-01T11:26:46Z</time>
      </trkpt>
      <trkpt lat="44.6633" lon="3.90251">
        <ele>1075.193</ele>
        <time>2011-06-01T11:26:56Z</time>
      </trkpt>
      <trkpt lat="44.66321" lon="3.90249">
        <ele>1075.815</ele>
        <time>2011-06-01T11:27:06Z</time>
      </trkpt>
      <trkpt lat="44.66309" lon="3.90245">
        <ele>1078.3</ele>
        <time>2011-06-01T11:27:16Z</time>
      </trkpt>
      <trkpt lat="44.66304" lon="3.90227">
        <ele>1080.007</ele>
        <time>2011-06-01T11:27:26Z</time>
      </trkpt>
      <trkpt lat="44.66291" lon="3.90224">
        <ele>1081.706</ele>
        <time>2011-06-01T11:27:36Z</time>
      </trkpt>
      <trkpt lat="44.66284" lon="3.90222">
        <ele>1082.697</ele>
        <time>2011-06-01T11:27:46Z</time>
      </trkpt>
      <trkpt lat="44.66273" lon="3.90219">
        <ele>1084.321</ele>
        <time>2011-06-01T11:27:56Z</time>
      </trkpt>
      <trkpt lat="44.66265" lon="3.9022">
        <ele>1084.227</ele>
        <time>2011-06-01T11:28:06Z</time>
      </trkpt>
      <trkpt lat="44.66249" lon="3.90218">
        <ele>1085.35</ele>
        <time>2011-06-01T11:28:16Z</time>
      </trkpt>
      <trkpt lat="44.66237" lon="3.90217">
        <ele>1087.66</ele>
        <time>2011-06-01T11:28:26Z</time>
      </trkpt>
      <trkpt lat="44.66229" lon="3.90219">
        <ele>1089.298</ele>
        <time>2011-06-01T11:28:36Z</time>
      </trkpt>
      <trkpt lat="44.66218" lon="3.90222">
        <ele>1089.38</ele>
        <time>2011-06-01T11:28:46Z</time>
      </trkpt>
      <trkpt lat="44.66207" lon="3.90231">
        <ele>1091.099</ele>
        <time>2011-06-01T11:28:56Z</time>
      </trkpt>
      <trkpt lat="44.66197" lon="3.90238">
        <ele>1093.34</ele>
        <time>2011-06-01T11:29:06Z</time>
      </trkpt>
      <trkpt lat="44.66184" lon="3.9024">
        <ele>1093.438</ele>
        <time>2011-06-01T11:29:16Z</time>
      </trkpt>
      <trkpt lat="44.66175" lon="3.90249">
        <ele>1093.436</ele>
        <time>2011-06-01T11:29:26Z</time>
      </trkpt>
      <trkpt lat="44.66163" lon="3.90248">
        <ele>1094.371</ele>
        <time>2011-06-01T11:29:36Z</time>
      </trkpt>
      <trkpt lat="44.66153" lon="3.90245">
        <ele>1095.3</ele>
        <time>2011-06-01T11:29:46Z</time>
      </trkpt>
      <trkpt lat="44.66146" lon="3.90246">
        <ele>1096.227</ele>
        <time>2011-06-01T11:29:56Z</time>
      </trkpt>
      <trkpt lat="44.66137" lon="3.90253">
        <ele>1096.876</ele>
        <time>2011-06-01T11:30:06Z</time>
      </trkpt>
      <trkpt lat="44.66119" lon="3.90258">
        <ele>1098.278</ele>
        <time>2011-06-01T11:30:16Z</time>
      </trkpt>
      <trkpt lat="44.66104" lon="3.90266">
        <ele>1096.729</ele>
        <time>2011-06-01T11:30:26Z</time>
      </trkpt>
      <trkpt lat="44.66097" lon="3.90273">
        <ele>1098.85</ele>
        <time>2011-06-01T11:30:36Z</time>
      </trkpt>
      <trkpt lat="44.66086" lon="3.90282">
        <ele>1099.768</ele>
        <time>2011-06-01T11:30:46Z</time>
      </trkpt>
      <trkpt lat="44.66073" lon="3.90294">
        <ele>1099.664</ele>
        <time>2011-06-01T11:30:56Z</time>
      </trkpt>
      <trkpt lat="44.66062" lon="3.90304">
        <ele>1099.794</ele>
        <time>2011-06-01T11:31:06Z</time>
      </trkpt>
      <trkpt lat="44.66056" lon="3.90312">
        <ele>1101.039</ele>
        <time>2011-06-01T11:31:16Z</time>
      </trkpt>
      <trkpt lat="44.6604" lon="3.90321">
        <ele>1102.312</ele>
        <time>2011-06-01T11:31:26Z</time>
      </trkpt>
      <trkpt lat="44.6603" lon="3.90333">
        <ele>1102.41</ele>
        <time>2011-06-01T11:31:36Z</time>
      </trkpt>
      <trkpt lat="44.66024" lon="3.90338">
        <ele>1103.54</ele>
        <time>2011-06-01T11:31:46Z</time>
      </trkpt>
      <trkpt lat="44.6602" lon="3.90339">
        <ele>1103.303</ele>
        <time>2011-06-01T11:31:56Z</time>
      </trkpt>
      <trkpt lat="44.66019" lon="3.9034">
        <ele>1102.887</ele>
        <time>2011-06-01T11:32:06Z</time>
      </trkpt>
      <trkpt lat="44.6602" lon="3.90341">
        <ele>1102.94</ele>
        <time>2011-06-01T11:32:16Z</time>
      </trkpt>
      <trkpt lat="44.66018" lon="3.90338">
        <ele>1103.048</ele>
        <time>2011-06-01T11:32:26Z</time>
      </trkpt>
      <trkpt lat="44.66007" lon="3.90339">
        <ele>1101.059</ele>
        <time>2011-06-01T11:32:36Z</time>
      </trkpt>
      <trkpt lat="44.65995" lon="3.90345">
        <ele>1099.252</ele>
        <time>2011-06-01T11:32:46Z</time>
      </trkpt>
      <trkpt lat="44.65986" lon="3.90349">
        <ele>1098.492</ele>
        <time>2011-06-01T11:32:56Z</time>
      </trkpt>
      <trkpt lat="44.65972" lon="3.90351">
        <ele>1096.697</ele>
        <time>2011-06-01T11:33:06Z</time>
      </trkpt>
      <trkpt lat="44.65964" lon="3.90358">
        <ele>1095.988</ele>
        <time>2011-06-01T11:33:16Z</time>
      </trkpt>
      <trkpt lat="44.65957" lon="3.90369">
        <ele>1096.297</ele>
        <time>2011-06-01T11:33:26Z</time>
      </trkpt>
      <trkpt lat="44.65948" lon="3.9038">
        <ele>1094.553</ele>
        <time>2011-06-01T11:33:36Z</time>
      </trkpt>
      <trkpt lat="44.65937" lon="3.90387">
        <ele>1094.545</ele>
        <time>2011-06-01T11:33:46Z</time>
      </trkpt>
      <trkpt lat="44.65925" lon="3.90394">
        <ele>1093.652</ele>
        <time>2011-06-01T11:33:56Z</time>
      </trkpt>
      <trkpt lat="44.65912" lon="3.90398">
        <ele>1092.578</ele>
        <time>2011-06-01T11:34:06Z</time>
      </trkpt>
      <trkpt lat="44.659" lon="3.90396">
        <ele>1091.472</ele>
        <time>2011-06-01T11:34:16Z</time>
      </trkpt>
      <trkpt lat="44.65889" lon="3.90398">
        <ele>1090.334</ele>
        <time>2011-06-01T11:34:26Z</time>
      </trkpt>
      <trkpt lat="44.65879" lon="3.90396">
        <ele>1091.469</ele>
        <time>2011-06-01T11:34:36Z</time>
      </trkpt>
      <trkpt lat="44.65869" lon="3.90395">
        <ele>1092.108</ele>
        <time>2011-06-01T11:34:46Z</time>
      </trkpt>
      <trkpt lat="44.65855" lon="3.90387">
        <ele>1091.512</ele>
        <time>2011-06-01T11:34:56Z</time>
      </trkpt>
      <trkpt lat="44.65843" lon="3.90387">
        <ele>1090.786</ele>
        <time>2011-06-01T11:35:06Z</time>
      </trkpt>
      <trkpt lat="44.65831" lon="3.90386">
        <ele>1090.23</ele>
        <time>2011-06-01T11:35:16Z</time>
      </trkpt>
      <trkpt lat="44.65817" lon="3.90379">
        <ele>1090.787</ele>
        <time>2011-06-01T11:35:26Z</time>
      </trkpt>
      <trkpt lat="44.658" lon="3.90375">
        <ele>1091.329</ele>
        <time>2011-06-01T11:35:36Z</time>
      </trkpt>
      <trkpt lat="44.65791" lon="3.90369">
        <ele>1090.179</ele>
        <time>2011-06-01T11:35:46Z</time>
      </trkpt>
      <trkpt lat="44.65779" lon="3.90359">
        <ele>1090.286</ele>
        <time>2011-06-01T11:35:56Z</time>
      </trkpt>
      <trkpt lat="44.65769" lon="3.90349">
        <ele>1089.663</ele>
        <time>2011-06-01T11:36:06Z</time>
      </trkpt>
      <trkpt lat="44.65756" lon="3.90338">
        <ele>1088.766</ele>
        <time>2011-06-01T11:36:16Z</time>
      </trkpt>
      <trkpt lat="44.65747" lon="3.90324">
        <ele>1089.123</ele>
        <time>2011-06-01T11:36:26Z</time>
      </trkpt>
      <trkpt lat="44.65739" lon="3.90313">
        <ele>1089.505</ele>
        <time>2011-06-01T11:36:36Z</time>
      </trkpt>
      <trkpt lat="44.65731" lon="3.90299">
        <ele>1089.022</ele>
        <time>2011-06-01T11:36:46Z</time>
      </trkpt>
      <trkpt lat="44.65721" lon="3.90287">
        <ele>1088.209</ele>
        <time>2011-06-01T11:36:56Z</time>
      </trkpt>
      <trkpt lat="44.6571" lon="3.90277">
        <ele>1089.479</ele>
        <time>2011-06-01T11:37:06Z</time>
      </trkpt>
      <trkpt lat="44.65699" lon="3.90269">
        <ele>1087.36</ele>
        <time>2011-06-01T11:37:16Z</time>
      </trkpt>
      <trkpt lat="44.65685" lon="3.9026">
        <ele>1087.101</ele>
        <time>2011-06-01T11:37:26Z</time>
      </trkpt>
      <trkpt lat="44.65673" lon="3.90253">
        <ele>1087.492</ele>
        <time>2011-06-01T11:37:36Z</time>
      </trkpt>
      <trkpt lat="44.6566" lon="3.90248">
        <ele>1088.113</ele>
        <time>2011-06-01T11:37:46Z</time>
      </trkpt>
      <trkpt lat="44.6565" lon="3.90246">
        <ele>1087.569</ele>
        <time>2011-06-01T11:37:56Z</time>
      </trkpt>
      <trkpt lat="44.65638" lon="3.90244">
        <ele>1086.423</ele>
        <time>2011-06-01T11:38:06Z</time>
      </trkpt>
      <trkpt lat="44.65625" lon="3.90237">
        <ele>1087.475</ele>
        <time>2011-06-01T11:38:16Z</time>
      </trkpt>
      <trkpt lat="44.65614" lon="3.90232">
        <ele>1087.472</ele>
        <time>2011-06-01T11:38:26Z</time>
      </trkpt>
      <trkpt lat="44.65598" lon="3.90221">
        <ele>1083.036</ele>
        <time>2011-06-01T11:38:36Z</time>
      </trkpt>
      <trkpt lat="44.65587" lon="3.90222">
        <ele>1081.507</ele>
        <time>2011-06-01T11:38:46Z</time>
      </trkpt>
      <trkpt lat="44.65571" lon="3.90222">
        <ele>1080.726</ele>
        <time>2011-06-01T11:38:56Z</time>
      </trkpt>
      <trkpt lat="44.65557" lon="3.90223">
        <ele>1079.53</ele>
        <time>2011-06-01T11:39:06Z</time>
      </trkpt>
      <trkpt lat="44.65546" lon="3.90222">
        <ele>1081.351</ele>
        <time>2011-06-01T11:39:16Z</time>
      </trkpt>
      <trkpt lat="44.65534" lon="3.90217">
        <ele>1079.131</ele>
        <time>2011-06-01T11:39:26Z</time>
      </trkpt>
      <trkpt lat="44.65523" lon="3.90215">
        <ele>1077.729</ele>
        <time>2011-06-01T11:39:36Z</time>
      </trkpt>
      <trkpt lat="44.65512" lon="3.90217">
        <ele>1076.54</ele>
        <time>2011-06-01T11:39:46Z</time>
      </trkpt>
      <trkpt lat="44.65498" lon="3.90221">
        <ele>1074.034</ele>
        <time>2011-06-01T11:39:56Z</time>
      </trkpt>
      <trkpt lat="44.65485" lon="3.90221">
        <ele>1073.993</ele>
        <time>2011-06-01T11:40:06Z</time>
      </trkpt>
      <trkpt lat="44.65472" lon="3.90218">
        <ele>1072.861</ele>
        <time>2011-06-01T11:40:16Z</time>
      </trkpt>
      <trkpt lat="44.65461" lon="3.90214">
        <ele>1070.459</ele>
        <time>2011-06-01T11:40:26Z</time>
      </trkpt>
      <trkpt lat="44.65449" lon="3.90211">
        <ele>1069.84</ele>
        <time>2011-06-01T11:40:36Z</time>
      </trkpt>
      <trkpt lat="44.65439" lon="3.90207">
        <ele>1067.333</ele>
        <time>2011-06-01T11:40:46Z</time>
      </trkpt>
      <trkpt lat="44.6543" lon="3.90204">
        <ele>1066.547</ele>
        <time>2011-06-01T11:40:56Z</time>
      </trkpt>
      <trkpt lat="44.6542" lon="3.90198">
        <ele>1063.848</ele>
        <time>2011-06-01T11:41:06Z</time>
      </trkpt>
      <trkpt lat="44.6541" lon="3.90192">
        <ele>1061.549</ele>
        <time>2011-06-01T11:41:16Z</time>
      </trkpt>
      <trkpt lat="44.65397" lon="3.90185">
        <ele>1059.589</ele>
        <time>2011-06-01T11:41:26Z</time>
      </trkpt>
      <trkpt lat="44.65386" lon="3.90179">
        <ele>1057.184</ele>
        <time>2011-06-01T11:41:36Z</time>
      </trkpt>
      <trkpt lat="44.65374" lon="3.90177">
        <ele>1055.575</ele>
        <time>2011-06-01T11:41:46Z</time>
      </trkpt>
      <trkpt lat="44.6536" lon="3.90187">
        <ele>1053.494</ele>
        <time>2011-06-01T11:41:56Z</time>
      </trkpt>
      <trkpt lat="44.65347" lon="3.90192">
        <ele>1052.511</ele>
        <time>2011-06-01T11:42:06Z</time>
      </trkpt>
      <trkpt lat="44.65335" lon="3.90189">
        <ele>1050.559</ele>
        <time>2011-06-01T11:42:16Z</time>
      </trkpt>
      <trkpt lat="44.65324" lon="3.90186">
        <ele>1046.436</ele>
        <time>2011-06-01T11:42:26Z</time>
      </trkpt>
      <trkpt lat="44.65311" lon="3.90179">
        <ele>1046.26</ele>
        <time>2011-06-01T11:42:36Z</time>
      </trkpt>
      <trkpt lat="44.65298" lon="3.90176">
        <ele>1043.213</ele>
        <time>2011-06-01T11:42:46Z</time>
      </trkpt>
      <trkpt lat="44.65283" lon="3.90171">
        <ele>1040.821</ele>
        <time>2011-06-01T11:42:56Z</time>
      </trkpt>
      <trkpt lat="44.65273" lon="3.90171">
        <ele>1038.274</ele>
        <time>2011-06-01T11:43:06Z</time>
      </trkpt>
      <trkpt lat="44.6526" lon="3.90164">
        <ele>1036.428</ele>
        <time>2011-06-01T11:43:16Z</time>
      </trkpt>
      <trkpt lat="44.65243" lon="3.90153">
        <ele>1034.268</ele>
        <time>2011-06-01T11:43:26Z</time>
      </trkpt>
      <trkpt lat="44.65232" lon="3.90152">
        <ele>1033.046</ele>
        <time>2011-06-01T11:43:36Z</time>
      </trkpt>
      <trkpt lat="44.65222" lon="3.90156">
        <ele>1033.196</ele>
        <time>2011-06-01T11:43:46Z</time>
      </trkpt>
      <trkpt lat="44.6521" lon="3.90162">
        <ele>1032.282</ele>
        <time>2011-06-01T11:43:56Z</time>
      </trkpt>
      <trkpt lat="44.65197" lon="3.90169">
        <ele>1031.545</ele>
        <time>2011-06-01T11:44:06Z</time>
      </trkpt>
      <trkpt lat="44.65186" lon="3.90172">
        <ele>1029.662</ele>
        <time>2011-06-01T11:44:16Z</time>
      </trkpt>
      <trkpt lat="44.65175" lon="3.90179">
        <ele>1028.974</ele>
        <time>2011-06-01T11:44:26Z</time>
      </trkpt>
      <trkpt lat="44.65162" lon="3.90186">
        <ele>1026.899</ele>
        <time>2011-06-01T11:44:36Z</time>
      </trkpt>
      <trkpt lat="44.6515" lon="3.90192">
        <ele>1026.169</ele>
        <time>2011-06-01T11:44:46Z</time>
      </trkpt>
      <trkpt lat="44.65139" lon="3.90198">
        <ele>1024.476</ele>
        <time>2011-06-01T11:44:56Z</time>
      </trkpt>
      <trkpt lat="44.65129" lon="3.90203">
        <ele>1023.849</ele>
        <time>2011-06-01T11:45:06Z</time>
      </trkpt>
      <trkpt lat="44.65117" lon="3.90205">
        <ele>1022.351</ele>
        <time>2011-06-01T11:45:16Z</time>
      </trkpt>
      <trkpt lat="44.65106" lon="3.9021">
        <ele>1020.081</ele>
        <time>2011-06-01T11:45:26Z</time>
      </trkpt>
      <trkpt lat="44.65096" lon="3.90213">
        <ele>1016.35</ele>
        <time>2011-06-01T11:45:36Z</time>
      </trkpt>
      <trkpt lat="44.65087" lon="3.90216">
        <ele>1015.788</ele>
        <time>2011-06-01T11:45:46Z</time>
      </trkpt>
      <trkpt lat="44.65071" lon="3.90227">
        <ele>1013.129</ele>
        <time>2011-06-01T11:45:56Z</time>
      </trkpt>
      <trkpt lat="44.65061" lon="3.90231">
        <ele>1010.204</ele>
        <time>2011-06-01T11:46:06Z</time>
      </trkpt>
      <trkpt lat="44.65052" lon="3.90239">
        <ele>1007.279</ele>
        <time>2011-06-01T11:46:16Z</time>
      </trkpt>
      <trkpt lat="44.65045" lon="3.90254">
        <ele>1004.444</ele>
        <time>2011-06-01T11:46:26Z</time>
      </trkpt>
      <trkpt lat="44.65041" lon="3.9027">
        <ele>1000.998</ele>
        <time>2011-06-01T11:46:36Z</time>
      </trkpt>
      <trkpt lat="44.65033" lon="3.90284">
        <ele>997.914</ele>
        <time>2011-06-01T11:46:46Z</time>
      </trkpt>
      <trkpt lat="44.65029" lon="3.90304">
        <ele>995.514</ele>
        <time>2011-06-01T11:46:56Z</time>
      </trkpt>
      <trkpt lat="44.65028" lon="3.90309">
        <ele>996.661</ele>
        <time>2011-06-01T11:47:06Z</time>
      </trkpt>
      <trkpt lat="44.65028" lon="3.90309">
        <ele>995.708</ele>
        <time>2011-06-01T11:47:16Z</time>
      </trkpt>
      <trkpt lat="44.65014" lon="3.90322">
        <ele>994.442</ele>
        <time>2011-06-01T11:47:26Z</time>
      </trkpt>
      <trkpt lat="44.65001" lon="3.90336">
        <ele>992.476</ele>
        <time>2011-06-01T11:47:36Z</time>
      </trkpt>
      <trkpt lat="44.64993" lon="3.90345">
        <ele>988.47</ele>
        <time>2011-06-01T11:47:46Z</time>
      </trkpt>
      <trkpt lat="44.64978" lon="3.90358">
        <ele>986.554</ele>
        <time>2011-06-01T11:47:56Z</time>
      </trkpt>
      <trkpt lat="44.64965" lon="3.90357">
        <ele>984.503</ele>
        <time>2011-06-01T11:48:06Z</time>
      </trkpt>
      <trkpt lat="44.64957" lon="3.90352">
        <ele>981.752</ele>
        <time>2011-06-01T11:48:16Z</time>
      </trkpt>
      <trkpt lat="44.64948" lon="3.90344">
        <ele>980.724</ele>
        <time>2011-06-01T11:48:26Z</time>
      </trkpt>
      <trkpt lat="44.64943" lon="3.90333">
        <ele>978.124</ele>
        <time>2011-06-01T11:48:36Z</time>
      </trkpt>
      <trkpt lat="44.64933" lon="3.90324">
        <ele>976.341</ele>
        <time>2011-06-01T11:48:46Z</time>
      </trkpt>
      <trkpt lat="44.64932" lon="3.90321">
        <ele>975.968</ele>
        <time>2011-06-01T11:48:56Z</time>
      </trkpt>
      <trkpt lat="44.64932" lon="3.90321">
        <ele>974.267</ele>
        <time>2011-06-01T11:49:06Z</time>
      </trkpt>
      <trkpt lat="44.64932" lon="3.90321">
        <ele>974.533</ele>
        <time>2011-06-01T11:49:16Z</time>
      </trkpt>
      <trkpt lat="44.64932" lon="3.90321">
        <ele>975.18</ele>
        <time>2011-06-01T11:49:26Z</time>
      </trkpt>
      <trkpt lat="44.64927" lon="3.90325">
        <ele>974.103</ele>
        <time>2011-06-01T11:49:36Z</time>
      </trkpt>
      <trkpt lat="44.64916" lon="3.90333">
        <ele>973.43</ele>
        <time>2011-06-01T11:49:46Z</time>
      </trkpt>
      <trkpt lat="44.64909" lon="3.90347">
        <ele>974.927</ele>
        <time>2011-06-01T11:49:56Z</time>
      </trkpt>
      <trkpt lat="44.649" lon="3.90354">
        <ele>973.595</ele>
        <time>2011-06-01T11:50:06Z</time>
      </trkpt>
      <trkpt lat="44.64891" lon="3.90362">
        <ele>973.11</ele>
        <time>2011-06-01T11:50:16Z</time>
      </trkpt>
      <trkpt lat="44.64877" lon="3.90369">
        <ele>973.95</ele>
        <time>2011-06-01T11:50:26Z</time>
      </trkpt>
      <trkpt lat="44.64864" lon="3.90372">
        <ele>973.659</ele>
        <time>2011-06-01T11:50:36Z</time>
      </trkpt>
      <trkpt lat="44.64851" lon="3.90372">
        <ele>974.216</ele>
        <time>2011-06-01T11:50:46Z</time>
      </trkpt>
      <trkpt lat="44.64839" lon="3.90368">
        <ele>973.865</ele>
        <time>2011-06-01T11:50:56Z</time>
      </trkpt>
      <trkpt lat="44.64837" lon="3.90364">
        <ele>974.703</ele>
        <time>2011-06-01T11:51:06Z</time>
      </trkpt>
      <trkpt lat="44.64837" lon="3.90363">
        <ele>973.752</ele>
        <time>2011-06-01T11:51:16Z</time>
      </trkpt>
      <trkpt lat="44.64837" lon="3.90365">
        <ele>973.906</ele>
        <time>2011-06-01T11:51:26Z</time>
      </trkpt>
      <trkpt lat="44.64837" lon="3.90366">
        <ele>975.648</ele>
        <time>2011-06-01T11:51:36Z</time>
      </trkpt>
      <trkpt lat="44.64837" lon="3.90367">
        <ele>974.524</ele>
        <time>2011-06-01T11:51:46Z</time>
      </trkpt>
      <trkpt lat="44.64837" lon="3.90367">
        <ele>975.51</ele>
        <time>2011-06-01T11:51:56Z</time>
      </trkpt>
      <trkpt lat="44.64836" lon="3.90368">
        <ele>975.06</ele>
        <time>2011-06-01T11:52:06Z</time>
      </trkpt>
      <trkpt lat="44.64836" lon="3.90366">
        <ele>974.569</ele>
        <time>2011-06-01T11:52:16Z</time>
      </trkpt>
      <trkpt lat="44.64835" lon="3.90365">
        <ele>976.334</ele>
        <time>2011-06-01T11:52:26Z</time>
      </trkpt>
      <trkpt lat="44.64835" lon="3.90365">
        <ele>975.647</ele>
        <time>2011-06-01T11:52:36Z</time>
      </trkpt>
      <trkpt lat="44.64836" lon="3.90365">
        <ele>974.5</ele>
        <time>2011-06-01T11:52:46Z</time>
      </trkpt>
      <trkpt lat="44.64837" lon="3.90361">
        <ele>975.861</ele>
        <time>2011-06-01T11:52:56Z</time>
      </trkpt>
      <trkpt lat="44.64835" lon="3.90359">
        <ele>976.37</ele>
        <time>2011-06-01T11:53:06Z</time>
      </trkpt>
      <trkpt lat="44.64827" lon="3.90349">
        <ele>976.316</ele>
        <time>2011-06-01T11:53:16Z</time>
      </trkpt>
      <trkpt lat="44.64818" lon="3.9033">
        <ele>973.574</ele>
        <time>2011-06-01T11:53:26Z</time>
      </trkpt>
      <trkpt lat="44.64811" lon="3.90321">
        <ele>972.669</ele>
        <time>2011-06-01T11:53:36Z</time>
      </trkpt>
      <trkpt lat="44.64809" lon="3.9032">
        <ele>973.362</ele>
        <time>2011-06-01T11:53:46Z</time>
      </trkpt>
      <trkpt lat="44.64803" lon="3.90312">
        <ele>973.083</ele>
        <time>2011-06-01T11:53:56Z</time>
      </trkpt>
      <trkpt lat="44.64796" lon="3.90299">
        <ele>973.9</ele>
        <time>2011-06-01T11:54:06Z</time>
      </trkpt>
      <trkpt lat="44.64788" lon="3.90284">
        <ele>974.415</ele>
        <time>2011-06-01T11:54:16Z</time>
      </trkpt>
      <trkpt lat="44.6478" lon="3.90271">
        <ele>972.457</ele>
        <time>2011-06-01T11:54:26Z</time>
      </trkpt>
      <trkpt lat="44.64776" lon="3.90257">
        <ele>970.555</ele>
        <time>2011-06-01T11:54:36Z</time>
      </trkpt>
      <trkpt lat="44.64782" lon="3.90243">
        <ele>968.792</ele>
        <time>2011-06-01T11:54:46Z</time>
      </trkpt>
      <trkpt lat="44.64791" lon="3.90231">
        <ele>970.398</ele>
        <time>2011-06-01T11:54:56Z</time>
      </trkpt>
      <trkpt lat="44.64801" lon="3.90218">
        <ele>969.854</ele>
        <time>2011-06-01T11:55:06Z</time>
      </trkpt>
      <trkpt lat="44.64811" lon="3.90206">
        <ele>969.898</ele>
        <time>2011-06-01T11:55:16Z</time>
      </trkpt>
      <trkpt lat="44.6482" lon="3.90198">
        <ele>969.193</ele>
        <time>2011-06-01T11:55:26Z</time>
      </trkpt>
      <trkpt lat="44.64822" lon="3.90195">
        <ele>969.468</ele>
        <time>2011-06-01T11:55:36Z</time>
      </trkpt>
      <trkpt lat="44.6482" lon="3.90186">
        <ele>970.732</ele>
        <time>2011-06-01T11:55:46Z</time>
      </trkpt>
      <trkpt lat="44.64817" lon="3.90176">
        <ele>970.808</ele>
        <time>2011-06-01T11:55:56Z</time>
      </trkpt>
      <trkpt lat="44.64809" lon="3.90165">
        <ele>970.809</ele>
        <time>2011-06-01T11:56:06Z</time>
      </trkpt>
      <trkpt lat="44.64803" lon="3.90154">
        <ele>971.319</ele>
        <time>2011-06-01T11:56:16Z</time>
      </trkpt>
      <trkpt lat="44.64794" lon="3.90139">
        <ele>971.498</ele>
        <time>2011-06-01T11:56:26Z</time>
      </trkpt>
      <trkpt lat="44.6478" lon="3.90121">
        <ele>971.785</ele>
        <time>2011-06-01T11:56:36Z</time>
      </trkpt>
      <trkpt lat="44.6477" lon="3.90107">
        <ele>972.262</ele>
        <time>2011-06-01T11:56:46Z</time>
      </trkpt>
      <trkpt lat="44.64761" lon="3.90096">
        <ele>973.261</ele>
        <time>2011-06-01T11:56:56Z</time>
      </trkpt>
      <trkpt lat="44.64754" lon="3.90075">
        <ele>972.521</ele>
        <time>2011-06-01T11:57:06Z</time>
      </trkpt>
      <trkpt lat="44.64747" lon="3.90058">
        <ele>972.35</ele>
        <time>2011-06-01T11:57:16Z</time>
      </trkpt>
      <trkpt lat="44.64734" lon="3.90048">
        <ele>974.598</ele>
        <time>2011-06-01T11:57:26Z</time>
      </trkpt>
      <trkpt lat="44.64723" lon="3.90038">
        <ele>976.132</ele>
        <time>2011-06-01T11:57:36Z</time>
      </trkpt>
      <trkpt lat="44.6471" lon="3.90037">
        <ele>973.869</ele>
        <time>2011-06-01T11:57:46Z</time>
      </trkpt>
      <trkpt lat="44.64699" lon="3.90037">
        <ele>975.675</ele>
        <time>2011-06-01T11:57:56Z</time>
      </trkpt>
      <trkpt lat="44.6469" lon="3.90025">
        <ele>978.437</ele>
        <time>2011-06-01T11:58:06Z</time>
      </trkpt>
      <trkpt lat="44.64685" lon="3.90008">
        <ele>978.79</ele>
        <time>2011-06-01T11:58:16Z</time>
      </trkpt>
      <trkpt lat="44.64677" lon="3.89994">
        <ele>979.627</ele>
        <time>2011-06-01T11:58:26Z</time>
      </trkpt>
      <trkpt lat="44.64667" lon="3.89983">
        <ele>980.108</ele>
        <time>2011-06-01T11:58:36Z</time>
      </trkpt>
      <trkpt lat="44.64657" lon="3.89976">
        <ele>983.188</ele>
        <time>2011-06-01T11:58:46Z</time>
      </trkpt>
      <trkpt lat="44.64647" lon="3.89972">
        <ele>984.417</ele>
        <time>2011-06-01T11:58:56Z</time>
      </trkpt>
      <trkpt lat="44.64635" lon="3.89971">
        <ele>985.337</ele>
        <time>2011-06-01T11:59:06Z</time>
      </trkpt>
      <trkpt lat="44.64624" lon="3.89974">
        <ele>985.445</ele>
        <time>2011-06-01T11:59:16Z</time>
      </trkpt>
      <trkpt lat="44.64613" lon="3.89984">
        <ele>986.139</ele>
        <time>2011-06-01T11:59:26Z</time>
      </trkpt>
      <trkpt lat="44.646" lon="3.89993">
        <ele>987.672</ele>
        <time>2011-06-01T11:59:36Z</time>
      </trkpt>
      <trkpt lat="44.6459" lon="3.9">
        <ele>987.828</ele>
        <time>2011-06-01T11:59:46Z</time>
      </trkpt>
      <trkpt lat="44.64577" lon="3.90003">
        <ele>988.805</ele>
        <time>2011-06-01T11:59:56Z</time>
      </trkpt>
      <trkpt lat="44.64568" lon="3.90001">
        <ele>989.345</ele>
        <time>2011-06-01T12:00:06Z</time>
      </trkpt>
      <trkpt lat="44.64556" lon="3.89998">
        <ele>990.938</ele>
        <time>2011-06-01T12:00:16Z</time>
      </trkpt>
      <trkpt lat="44.64544" lon="3.89995">
        <ele>991.001</ele>
        <time>2011-06-01T12:00:26Z</time>
      </trkpt>
      <trkpt lat="44.64533" lon="3.89987">
        <ele>989.639</ele>
        <time>2011-06-01T12:00:36Z</time>
      </trkpt>
      <trkpt lat="44.64523" lon="3.89977">
        <ele>988.481</ele>
        <time>2011-06-01T12:00:46Z</time>
      </trkpt>
      <trkpt lat="44.64512" lon="3.8997">
        <ele>987.652</ele>
        <time>2011-06-01T12:00:56Z</time>
      </trkpt>
      <trkpt lat="44.64501" lon="3.89959">
        <ele>985.963</ele>
        <time>2011-06-01T12:01:06Z</time>
      </trkpt>
      <trkpt lat="44.64488" lon="3.89952">
        <ele>983.893</ele>
        <time>2011-06-01T12:01:16Z</time>
      </trkpt>
      <trkpt lat="44.64475" lon="3.89945">
        <ele>985.9</ele>
        <time>2011-06-01T12:01:26Z</time>
      </trkpt>
      <trkpt lat="44.64462" lon="3.8994">
        <ele>983.46</ele>
        <time>2011-06-01T12:01:36Z</time>
      </trkpt>
      <trkpt lat="44.64448" lon="3.89935">
        <ele>983.449</ele>
        <time>2011-06-01T12:01:46Z</time>
      </trkpt>
      <trkpt lat="44.64435" lon="3.89929">
        <ele>982.667</ele>
        <time>2011-06-01T12:01:56Z</time>
      </trkpt>
      <trkpt lat="44.64423" lon="3.89924">
        <ele>983.178</ele>
        <time>2011-06-01T12:02:06Z</time>
      </trkpt>
      <trkpt lat="44.6441" lon="3.89917">
        <ele>981.633</ele>
        <time>2011-06-01T12:02:16Z</time>
      </trkpt>
      <trkpt lat="44.64397" lon="3.89911">
        <ele>980.802</ele>
        <time>2011-06-01T12:02:26Z</time>
      </trkpt>
      <trkpt lat="44.64384" lon="3.89904">
        <ele>981.691</ele>
        <time>2011-06-01T12:02:36Z</time>
      </trkpt>
      <trkpt lat="44.64377" lon="3.89894">
        <ele>979.243</ele>
        <time>2011-06-01T12:02:46Z</time>
      </trkpt>
      <trkpt lat="44.64369" lon="3.89885">
        <ele>982.231</ele>
        <time>2011-06-01T12:02:56Z</time>
      </trkpt>
      <trkpt lat="44.64367" lon="3.89871">
        <ele>982.293</ele>
        <time>2011-06-01T12:03:06Z</time>
      </trkpt>
      <trkpt lat="44.64362" lon="3.89854">
        <ele>981.233</ele>
        <time>2011-06-01T12:03:16Z</time>
      </trkpt>
      <trkpt lat="44.64356" lon="3.89838">
        <ele>979.151</ele>
        <time>2011-06-01T12:03:26Z</time>
      </trkpt>
      <trkpt lat="44.64349" lon="3.89822">
        <ele>979.14</ele>
        <time>2011-06-01T12:03:36Z</time>
      </trkpt>
      <trkpt lat="44.64339" lon="3.89807">
        <ele>979.892</ele>
        <time>2011-06-01T12:03:46Z</time>
      </trkpt>
      <trkpt lat="44.64331" lon="3.89791">
        <ele>980.393</ele>
        <time>2011-06-01T12:03:56Z</time>
      </trkpt>
      <trkpt lat="44.64324" lon="3.89775">
        <ele>978.968</ele>
        <time>2011-06-01T12:04:06Z</time>
      </trkpt>
      <trkpt lat="44.64317" lon="3.89757">
        <ele>978.813</ele>
        <time>2011-06-01T12:04:16Z</time>
      </trkpt>
      <trkpt lat="44.64309" lon="3.89741">
        <ele>978.82</ele>
        <time>2011-06-01T12:04:26Z</time>
      </trkpt>
      <trkpt lat="44.64301" lon="3.89728">
        <ele>977.821</ele>
        <time>2011-06-01T12:04:36Z</time>
      </trkpt>
      <trkpt lat="44.6429" lon="3.89718">
        <ele>977.991</ele>
        <time>2011-06-01T12:04:46Z</time>
      </trkpt>
      <trkpt lat="44.64282" lon="3.89705">
        <ele>979.327</ele>
        <time>2011-06-01T12:04:56Z</time>
      </trkpt>
      <trkpt lat="44.64273" lon="3.89692">
        <ele>977.377</ele>
        <time>2011-06-01T12:05:06Z</time>
      </trkpt>
      <trkpt lat="44.64273" lon="3.8969">
        <ele>977.88</ele>
        <time>2011-06-01T12:05:16Z</time>
      </trkpt>
      <trkpt lat="44.64273" lon="3.89691">
        <ele>977.42</ele>
        <time>2011-06-01T12:05:26Z</time>
      </trkpt>
      <trkpt lat="44.64273" lon="3.89691">
        <ele>976.106</ele>
        <time>2011-06-01T12:05:36Z</time>
      </trkpt>
      <trkpt lat="44.64273" lon="3.89691">
        <ele>977.337</ele>
        <time>2011-06-01T12:05:46Z</time>
      </trkpt>
      <trkpt lat="44.64273" lon="3.89691">
        <ele>976.701</ele>
        <time>2011-06-01T12:05:56Z</time>
      </trkpt>
      <trkpt lat="44.64282" lon="3.89699">
        <ele>978.03</ele>
        <time>2011-06-01T12:06:06Z</time>
      </trkpt>
      <trkpt lat="44.64291" lon="3.8971">
        <ele>978.563</ele>
        <time>2011-06-01T12:06:16Z</time>
      </trkpt>
      <trkpt lat="44.64301" lon="3.8972">
        <ele>979.323</ele>
        <time>2011-06-01T12:06:26Z</time>
      </trkpt>
      <trkpt lat="44.64309" lon="3.89729">
        <ele>977.639</ele>
        <time>2011-06-01T12:06:36Z</time>
      </trkpt>
      <trkpt lat="44.64309" lon="3.89729">
        <ele>976.774</ele>
        <time>2011-06-01T12:06:46Z</time>
      </trkpt>
      <trkpt lat="44.64309" lon="3.89729">
        <ele>977.173</ele>
        <time>2011-06-01T12:06:56Z</time>
      </trkpt>
      <trkpt lat="44.64309" lon="3.89729">
        <ele>977.263</ele>
        <time>2011-06-01T12:07:06Z</time>
      </trkpt>
      <trkpt lat="44.64308" lon="3.89729">
        <ele>977.649</ele>
        <time>2011-06-01T12:07:16Z</time>
      </trkpt>
      <trkpt lat="44.64308" lon="3.89729">
        <ele>976.985</ele>
        <time>2011-06-01T12:07:26Z</time>
      </trkpt>
      <trkpt lat="44.64308" lon="3.89729">
        <ele>977.636</ele>
        <time>2011-06-01T12:07:36Z</time>
      </trkpt>
      <trkpt lat="44.64308" lon="3.89729">
        <ele>977.024</ele>
        <time>2011-06-01T12:07:46Z</time>
      </trkpt>
      <trkpt lat="44.64313" lon="3.89736">
        <ele>977.86</ele>
        <time>2011-06-01T12:07:56Z</time>
      </trkpt>
      <trkpt lat="44.6432" lon="3.89747">
        <ele>977.598</ele>
        <time>2011-06-01T12:08:06Z</time>
      </trkpt>
      <trkpt lat="44.64325" lon="3.8976">
        <ele>977.861</ele>
        <time>2011-06-01T12:08:16Z</time>
      </trkpt>
      <trkpt lat="44.64329" lon="3.89767">
        <ele>977.658</ele>
        <time>2011-06-01T12:08:26Z</time>
      </trkpt>
      <trkpt lat="44.64325" lon="3.89765">
        <ele>976.734</ele>
        <time>2011-06-01T12:08:36Z</time>
      </trkpt>
      <trkpt lat="44.64318" lon="3.89752">
        <ele>977.318</ele>
        <time>2011-06-01T12:08:46Z</time>
      </trkpt>
      <trkpt lat="44.64311" lon="3.89736">
        <ele>977.22</ele>
        <time>2011-06-01T12:08:56Z</time>
      </trkpt>
      <trkpt lat="44.64299" lon="3.89725">
        <ele>977.357</ele>
        <time>2011-06-01T12:09:06Z</time>
      </trkpt>
      <trkpt lat="44.64288" lon="3.89713">
        <ele>976.133</ele>
        <time>2011-06-01T12:09:16Z</time>
      </trkpt>
      <trkpt lat="44.6428" lon="3.897">
        <ele>975.743</ele>
        <time>2011-06-01T12:09:26Z</time>
      </trkpt>
      <trkpt lat="44.6427" lon="3.89686">
        <ele>974.742</ele>
        <time>2011-06-01T12:09:36Z</time>
      </trkpt>
      <trkpt lat="44.64259" lon="3.89674">
        <ele>973.63</ele>
        <time>2011-06-01T12:09:46Z</time>
      </trkpt>
      <trkpt lat="44.64248" lon="3.89663">
        <ele>971.864</ele>
        <time>2011-06-01T12:09:56Z</time>
      </trkpt>
      <trkpt lat="44.64243" lon="3.89646">
        <ele>971.278</ele>
        <time>2011-06-01T12:10:06Z</time>
      </trkpt>
      <trkpt lat="44.64238" lon="3.89628">
        <ele>970.086</ele>
        <time>2011-06-01T12:10:16Z</time>
      </trkpt>
      <trkpt lat="44.64233" lon="3.8962">
        <ele>968.652</ele>
        <time>2011-06-01T12:10:26Z</time>
      </trkpt>
      <trkpt lat="44.64221" lon="3.89622">
        <ele>968.491</ele>
        <time>2011-06-01T12:10:36Z</time>
      </trkpt>
      <trkpt lat="44.64215" lon="3.8963">
        <ele>969.92</ele>
        <time>2011-06-01T12:10:46Z</time>
      </trkpt>
      <trkpt lat="44.6421" lon="3.89643">
        <ele>971.124</ele>
        <time>2011-06-01T12:10:56Z</time>
      </trkpt>
      <trkpt lat="44.64202" lon="3.89652">
        <ele>973.676</ele>
        <time>2011-06-01T12:11:06Z</time>
      </trkpt>
      <trkpt lat="44.64193" lon="3.89657">
        <ele>975.509</ele>
        <time>2011-06-01T12:11:16Z</time>
      </trkpt>
      <trkpt lat="44.64184" lon="3.89666">
        <ele>975.329</ele>
        <time>2011-06-01T12:11:26Z</time>
      </trkpt>
      <trkpt lat="44.64173" lon="3.89674">
        <ele>978.458</ele>
        <time>2011-06-01T12:11:36Z</time>
      </trkpt>
      <trkpt lat="44.64165" lon="3.89681">
        <ele>976.456</ele>
        <time>2011-06-01T12:11:46Z</time>
      </trkpt>
      <trkpt lat="44.64157" lon="3.89685">
        <ele>978.039</ele>
        <time>2011-06-01T12:11:56Z</time>
      </trkpt>
      <trkpt lat="44.64144" lon="3.89691">
        <ele>977.948</ele>
        <time>2011-06-01T12:12:06Z</time>
      </trkpt>
      <trkpt lat="44.64133" lon="3.89696">
        <ele>979.727</ele>
        <time>2011-06-01T12:12:16Z</time>
      </trkpt>
      <trkpt lat="44.64124" lon="3.89701">
        <ele>980.913</ele>
        <time>2011-06-01T12:12:26Z</time>
      </trkpt>
      <trkpt lat="44.64114" lon="3.89707">
        <ele>983.044</ele>
        <time>2011-06-01T12:12:36Z</time>
      </trkpt>
      <trkpt lat="44.64107" lon="3.89711">
        <ele>985.627</ele>
        <time>2011-06-01T12:12:46Z</time>
      </trkpt>
      <trkpt lat="44.64101" lon="3.89715">
        <ele>985.764</ele>
        <time>2011-06-01T12:12:56Z</time>
      </trkpt>
      <trkpt lat="44.64093" lon="3.89721">
        <ele>988.864</ele>
        <time>2011-06-01T12:13:06Z</time>
      </trkpt>
      <trkpt lat="44.64084" lon="3.89725">
        <ele>989.185</ele>
        <time>2011-06-01T12:13:16Z</time>
      </trkpt>
      <trkpt lat="44.64075" lon="3.89729">
        <ele>993.065</ele>
        <time>2011-06-01T12:13:26Z</time>
      </trkpt>
      <trkpt lat="44.64066" lon="3.89736">
        <ele>993.305</ele>
        <time>2011-06-01T12:13:36Z</time>
      </trkpt>
      <trkpt lat="44.64058" lon="3.89743">
        <ele>994.576</ele>
        <time>2011-06-01T12:13:46Z</time>
      </trkpt>
      <trkpt lat="44.64052" lon="3.89748">
        <ele>995.135</ele>
        <time>2011-06-01T12:13:56Z</time>
      </trkpt>
      <trkpt lat="44.64043" lon="3.89752">
        <ele>997.864</ele>
        <time>2011-06-01T12:14:06Z</time>
      </trkpt>
      <trkpt lat="44.64032" lon="3.89763">
        <ele>999.082</ele>
        <time>2011-06-01T12:14:16Z</time>
      </trkpt>
      <trkpt lat="44.64023" lon="3.89769">
        <ele>1000.648</ele>
        <time>2011-06-01T12:14:26Z</time>
      </trkpt>
      <trkpt lat="44.64018" lon="3.89775">
        <ele>1000.982</ele>
        <time>2011-06-01T12:14:36Z</time>
      </trkpt>
      <trkpt lat="44.64009" lon="3.89782">
        <ele>1002.655</ele>
        <time>2011-06-01T12:14:46Z</time>
      </trkpt>
      <trkpt lat="44.64003" lon="3.89783">
        <ele>1002.124</ele>
        <time>2011-06-01T12:14:56Z</time>
      </trkpt>
      <trkpt lat="44.64003" lon="3.89783">
        <ele>1002.661</ele>
        <time>2011-06-01T12:15:06Z</time>
      </trkpt>
      <trkpt lat="44.63997" lon="3.89783">
        <ele>1003.491</ele>
        <time>2011-06-01T12:15:16Z</time>
      </trkpt>
      <trkpt lat="44.63996" lon="3.89782">
        <ele>1001.94</ele>
        <time>2011-06-01T12:15:26Z</time>
      </trkpt>
      <trkpt lat="44.63995" lon="3.89781">
        <ele>1002.504</ele>
        <time>2011-06-01T12:15:36Z</time>
      </trkpt>
      <trkpt lat="44.63995" lon="3.89781">
        <ele>1002.505</ele>
        <time>2011-06-01T12:15:46Z</time>
      </trkpt>
      <trkpt lat="44.63996" lon="3.89781">
        <ele>1005.073</ele>
        <time>2011-06-01T12:15:56Z</time>
      </trkpt>
      <trkpt lat="44.63996" lon="3.89781">
        <ele>1002.081</ele>
        <time>2011-06-01T12:16:06Z</time>
      </trkpt>
      <trkpt lat="44.63996" lon="3.89781">
        <ele>1002.378</ele>
        <time>2011-06-01T12:16:16Z</time>
      </trkpt>
      <trkpt lat="44.63996" lon="3.89781">
        <ele>1004.159</ele>
        <time>2011-06-01T12:16:26Z</time>
      </trkpt>
      <trkpt lat="44.63996" lon="3.89781">
        <ele>1004.363</ele>
        <time>2011-06-01T12:16:36Z</time>
      </trkpt>
      <trkpt lat="44.63996" lon="3.89781">
        <ele>1002.998</ele>
        <time>2011-06-01T12:16:46Z</time>
      </trkpt>
      <trkpt lat="44.63996" lon="3.89781">
        <ele>1002.933</ele>
        <time>2011-06-01T12:16:56Z</time>
      </trkpt>
      <trkpt lat="44.63996" lon="3.89781">
        <ele>1001.831</ele>
        <time>2011-06-01T12:17:06Z</time>
      </trkpt>
      <trkpt lat="44.63996" lon="3.89781">
        <ele>1002.381</ele>
        <time>2011-06-01T12:17:16Z</time>
      </trkpt>
      <trkpt lat="44.63996" lon="3.89781">
        <ele>1001.802</ele>
        <time>2011-06-01T12:17:26Z</time>
      </trkpt>
      <trkpt lat="44.63995" lon="3.89781">
        <ele>1001.987</ele>
        <time>2011-06-01T12:17:36Z</time>
      </trkpt>
      <trkpt lat="44.63991" lon="3.89785">
        <ele>1003.169</ele>
        <time>2011-06-01T12:17:46Z</time>
      </trkpt>
      <trkpt lat="44.6399" lon="3.89787">
        <ele>1001.81</ele>
        <time>2011-06-01T12:17:56Z</time>
      </trkpt>
      <trkpt lat="44.63982" lon="3.89794">
        <ele>1003.049</ele>
        <time>2011-06-01T12:18:06Z</time>
      </trkpt>
      <trkpt lat="44.63974" lon="3.89797">
        <ele>1003.282</ele>
        <time>2011-06-01T12:18:16Z</time>
      </trkpt>
      <trkpt lat="44.63969" lon="3.89802">
        <ele>1004.123</ele>
        <time>2011-06-01T12:18:26Z</time>
      </trkpt>
      <trkpt lat="44.63958" lon="3.89806">
        <ele>1005.613</ele>
        <time>2011-06-01T12:18:36Z</time>
      </trkpt>
      <trkpt lat="44.6395" lon="3.89812">
        <ele>1007.284</ele>
        <time>2011-06-01T12:18:46Z</time>
      </trkpt>
      <trkpt lat="44.63939" lon="3.89816">
        <ele>1007.535</ele>
        <time>2011-06-01T12:18:56Z</time>
      </trkpt>
      <trkpt lat="44.63933" lon="3.89824">
        <ele>1006.844</ele>
        <time>2011-06-01T12:19:06Z</time>
      </trkpt>
      <trkpt lat="44.63922" lon="3.89825">
        <ele>1007.628</ele>
        <time>2011-06-01T12:19:16Z</time>
      </trkpt>
      <trkpt lat="44.63911" lon="3.89831">
        <ele>1006.511</ele>
        <time>2011-06-01T12:19:26Z</time>
      </trkpt>
      <trkpt lat="44.63901" lon="3.89841">
        <ele>1009.044</ele>
        <time>2011-06-01T12:19:36Z</time>
      </trkpt>
      <trkpt lat="44.63891" lon="3.89846">
        <ele>1007.528</ele>
        <time>2011-06-01T12:19:46Z</time>
      </trkpt>
      <trkpt lat="44.6388" lon="3.89852">
        <ele>1008.226</ele>
        <time>2011-06-01T12:19:56Z</time>
      </trkpt>
      <trkpt lat="44.63871" lon="3.8986">
        <ele>1008.545</ele>
        <time>2011-06-01T12:20:06Z</time>
      </trkpt>
      <trkpt lat="44.6386" lon="3.89865">
        <ele>1009.167</ele>
        <time>2011-06-01T12:20:16Z</time>
      </trkpt>
      <trkpt lat="44.6385" lon="3.89869">
        <ele>1008.383</ele>
        <time>2011-06-01T12:20:26Z</time>
      </trkpt>
      <trkpt lat="44.63841" lon="3.89873">
        <ele>1009.339</ele>
        <time>2011-06-01T12:20:36Z</time>
      </trkpt>
      <trkpt lat="44.63831" lon="3.89876">
        <ele>1011.225</ele>
        <time>2011-06-01T12:20:46Z</time>
      </trkpt>
      <trkpt lat="44.63824" lon="3.89871">
        <ele>1011.204</ele>
        <time>2011-06-01T12:20:56Z</time>
      </trkpt>
      <trkpt lat="44.63822" lon="3.89865">
        <ele>1011.586</ele>
        <time>2011-06-01T12:21:06Z</time>
      </trkpt>
      <trkpt lat="44.6382" lon="3.89851">
        <ele>1010.677</ele>
        <time>2011-06-01T12:21:16Z</time>
      </trkpt>
      <trkpt lat="44.63816" lon="3.89839">
        <ele>1010.969</ele>
        <time>2011-06-01T12:21:26Z</time>
      </trkpt>
      <trkpt lat="44.63812" lon="3.89823">
        <ele>1009.615</ele>
        <time>2011-06-01T12:21:36Z</time>
      </trkpt>
      <trkpt lat="44.63809" lon="3.89806">
        <ele>1008.89</ele>
        <time>2011-06-01T12:21:46Z</time>
      </trkpt>
      <trkpt lat="44.63805" lon="3.89789">
        <ele>1009.787</ele>
        <time>2011-06-01T12:21:56Z</time>
      </trkpt>
      <trkpt lat="44.63801" lon="3.89772">
        <ele>1009.797</ele>
        <time>2011-06-01T12:22:06Z</time>
      </trkpt>
      <trkpt lat="44.63797" lon="3.89757">
        <ele>1010.664</ele>
        <time>2011-06-01T12:22:16Z</time>
      </trkpt>
      <trkpt lat="44.63789" lon="3.89749">
        <ele>1009.23</ele>
        <time>2011-06-01T12:22:26Z</time>
      </trkpt>
      <trkpt lat="44.63777" lon="3.89751">
        <ele>1010.645</ele>
        <time>2011-06-01T12:22:36Z</time>
      </trkpt>
      <trkpt lat="44.63766" lon="3.89754">
        <ele>1010.432</ele>
        <time>2011-06-01T12:22:46Z</time>
      </trkpt>
      <trkpt lat="44.63754" lon="3.89757">
        <ele>1011.727</ele>
        <time>2011-06-01T12:22:56Z</time>
      </trkpt>
      <trkpt lat="44.63743" lon="3.89753">
        <ele>1012.008</ele>
        <time>2011-06-01T12:23:06Z</time>
      </trkpt>
      <trkpt lat="44.63733" lon="3.89745">
        <ele>1014.29</ele>
        <time>2011-06-01T12:23:16Z</time>
      </trkpt>
      <trkpt lat="44.63731" lon="3.89737">
        <ele>1012.81</ele>
        <time>2011-06-01T12:23:26Z</time>
      </trkpt>
      <trkpt lat="44.63731" lon="3.89737">
        <ele>1011.473</ele>
        <time>2011-06-01T12:23:36Z</time>
      </trkpt>
      <trkpt lat="44.63731" lon="3.89737">
        <ele>1010.778</ele>
        <time>2011-06-01T12:23:46Z</time>
      </trkpt>
      <trkpt lat="44.6373" lon="3.89726">
        <ele>1011.159</ele>
        <time>2011-06-01T12:23:56Z</time>
      </trkpt>
      <trkpt lat="44.63728" lon="3.89709">
        <ele>1010.69</ele>
        <time>2011-06-01T12:24:06Z</time>
      </trkpt>
      <trkpt lat="44.63724" lon="3.89695">
        <ele>1008.467</ele>
        <time>2011-06-01T12:24:16Z</time>
      </trkpt>
      <trkpt lat="44.63714" lon="3.89682">
        <ele>1008.88</ele>
        <time>2011-06-01T12:24:26Z</time>
      </trkpt>
      <trkpt lat="44.63702" lon="3.89676">
        <ele>1009.455</ele>
        <time>2011-06-01T12:24:36Z</time>
      </trkpt>
      <trkpt lat="44.63692" lon="3.89673">
        <ele>1009.017</ele>
        <time>2011-06-01T12:24:46Z</time>
      </trkpt>
      <trkpt lat="44.63679" lon="3.89668">
        <ele>1007.49</ele>
        <time>2011-06-01T12:24:56Z</time>
      </trkpt>
      <trkpt lat="44.63666" lon="3.89666">
        <ele>1006.645</ele>
        <time>2011-06-01T12:25:06Z</time>
      </trkpt>
      <trkpt lat="44.63654" lon="3.89664">
        <ele>1006.435</ele>
        <time>2011-06-01T12:25:16Z</time>
      </trkpt>
      <trkpt lat="44.63641" lon="3.89656">
        <ele>1003.567</ele>
        <time>2011-06-01T12:25:26Z</time>
      </trkpt>
      <trkpt lat="44.63629" lon="3.8965">
        <ele>1001.74</ele>
        <time>2011-06-01T12:25:36Z</time>
      </trkpt>
      <trkpt lat="44.63616" lon="3.89644">
        <ele>999.084</ele>
        <time>2011-06-01T12:25:46Z</time>
      </trkpt>
      <trkpt lat="44.63604" lon="3.89634">
        <ele>996.945</ele>
        <time>2011-06-01T12:25:56Z</time>
      </trkpt>
      <trkpt lat="44.63593" lon="3.89624">
        <ele>996.81</ele>
        <time>2011-06-01T12:26:06Z</time>
      </trkpt>
      <trkpt lat="44.6358" lon="3.89619">
        <ele>995.414</ele>
        <time>2011-06-01T12:26:16Z</time>
      </trkpt>
      <trkpt lat="44.63572" lon="3.89616">
        <ele>993.865</ele>
        <time>2011-06-01T12:26:26Z</time>
      </trkpt>
      <trkpt lat="44.63559" lon="3.89612">
        <ele>994.472</ele>
        <time>2011-06-01T12:26:36Z</time>
      </trkpt>
      <trkpt lat="44.63546" lon="3.89605">
        <ele>995.23</ele>
        <time>2011-06-01T12:26:46Z</time>
      </trkpt>
      <trkpt lat="44.63534" lon="3.89598">
        <ele>993.151</ele>
        <time>2011-06-01T12:26:56Z</time>
      </trkpt>
      <trkpt lat="44.63522" lon="3.89594">
        <ele>992.146</ele>
        <time>2011-06-01T12:27:06Z</time>
      </trkpt>
      <trkpt lat="44.63509" lon="3.89588">
        <ele>988.051</ele>
        <time>2011-06-01T12:27:16Z</time>
      </trkpt>
      <trkpt lat="44.63497" lon="3.8958">
        <ele>987.218</ele>
        <time>2011-06-01T12:27:26Z</time>
      </trkpt>
      <trkpt lat="44.63485" lon="3.89571">
        <ele>986.397</ele>
        <time>2011-06-01T12:27:36Z</time>
      </trkpt>
      <trkpt lat="44.63476" lon="3.89562">
        <ele>983.205</ele>
        <time>2011-06-01T12:27:46Z</time>
      </trkpt>
      <trkpt lat="44.63467" lon="3.89555">
        <ele>983.218</ele>
        <time>2011-06-01T12:27:56Z</time>
      </trkpt>
      <trkpt lat="44.63457" lon="3.89544">
        <ele>980.897</ele>
        <time>2011-06-01T12:28:06Z</time>
      </trkpt>
      <trkpt lat="44.63447" lon="3.89537">
        <ele>980.897</ele>
        <time>2011-06-01T12:28:16Z</time>
      </trkpt>
      <trkpt lat="44.63455" lon="3.89529">
        <ele>977.235</ele>
        <time>2011-06-01T12:28:26Z</time>
      </trkpt>
      <trkpt lat="44.63467" lon="3.89532">
        <ele>974.86</ele>
        <time>2011-06-01T12:28:36Z</time>
      </trkpt>
      <trkpt lat="44.63472" lon="3.89528">
        <ele>973.712</ele>
        <time>2011-06-01T12:28:46Z</time>
      </trkpt>
      <trkpt lat="44.63472" lon="3.89521">
        <ele>973.358</ele>
        <time>2011-06-01T12:28:56Z</time>
      </trkpt>
      <trkpt lat="44.63472" lon="3.89522">
        <ele>972.765</ele>
        <time>2011-06-01T12:29:06Z</time>
      </trkpt>
      <trkpt lat="44.63472" lon="3.89515">
        <ele>974.506</ele>
        <time>2011-06-01T12:29:16Z</time>
      </trkpt>
      <trkpt lat="44.63473" lon="3.89511">
        <ele>975.941</ele>
        <time>2011-06-01T12:29:26Z</time>
      </trkpt>
      <trkpt lat="44.63472" lon="3.89505">
        <ele>977.035</ele>
        <time>2011-06-01T12:29:36Z</time>
      </trkpt>
      <trkpt lat="44.63473" lon="3.89505">
        <ele>977.314</ele>
        <time>2011-06-01T12:29:46Z</time>
      </trkpt>
      <trkpt lat="44.63472" lon="3.89506">
        <ele>975.189</ele>
        <time>2011-06-01T12:29:56Z</time>
      </trkpt>
      <trkpt lat="44.63473" lon="3.89504">
        <ele>975.802</ele>
        <time>2011-06-01T12:30:06Z</time>
      </trkpt>
      <trkpt lat="44.63474" lon="3.89505">
        <ele>976.009</ele>
        <time>2011-06-01T12:30:16Z</time>
      </trkpt>
      <trkpt lat="44.63474" lon="3.89505">
        <ele>974.513</ele>
        <time>2011-06-01T12:30:26Z</time>
      </trkpt>
      <trkpt lat="44.63474" lon="3.89505">
        <ele>975.293</ele>
        <time>2011-06-01T12:30:36Z</time>
      </trkpt>
      <trkpt lat="44.63474" lon="3.89505">
        <ele>974.098</ele>
        <time>2011-06-01T12:30:46Z</time>
      </trkpt>
      <trkpt lat="44.63474" lon="3.89505">
        <ele>975.514</ele>
        <time>2011-06-01T12:30:56Z</time>
      </trkpt>
      <trkpt lat="44.63474" lon="3.89505">
        <ele>974.763</ele>
        <time>2011-06-01T12:31:06Z</time>
      </trkpt>
      <trkpt lat="44.63474" lon="3.89505">
        <ele>974.291</ele>
        <time>2011-06-01T12:31:16Z</time>
      </trkpt>
      <trkpt lat="44.63474" lon="3.89505">
        <ele>974.245</ele>
        <time>2011-06-01T12:31:26Z</time>
      </trkpt>
      <trkpt lat="44.63474" lon="3.89505">
        <ele>975.602</ele>
        <time>2011-06-01T12:31:36Z</time>
      </trkpt>
      <trkpt lat="44.63474" lon="3.89505">
        <ele>973.765</ele>
        <time>2011-06-01T12:31:46Z</time>
      </trkpt>
      <trkpt lat="44.63474" lon="3.89505">
        <ele>973.476</ele>
        <time>2011-06-01T12:31:56Z</time>
      </trkpt>
      <trkpt lat="44.63474" lon="3.89505">
        <ele>974.066</ele>
        <time>2011-06-01T12:32:06Z</time>
      </trkpt>
      <trkpt lat="44.63474" lon="3.89505">
        <ele>973.432</ele>
        <time>2011-06-01T12:32:16Z</time>
      </trkpt>
      <trkpt lat="44.63474" lon="3.89505">
        <ele>973.563</ele>
        <time>2011-06-01T12:32:26Z</time>
      </trkpt>
      <trkpt lat="44.63474" lon="3.89505">
        <ele>974.476</ele>
        <time>2011-06-01T12:32:36Z</time>
      </trkpt>
      <trkpt lat="44.63474" lon="3.89505">
        <ele>972.993</ele>
        <time>2011-06-01T12:32:46Z</time>
      </trkpt>
      <trkpt lat="44.63474" lon="3.89505">
        <ele>973.563</ele>
        <time>2011-06-01T12:32:56Z</time>
      </trkpt>
      <trkpt lat="44.63474" lon="3.89505">
        <ele>973.529</ele>
        <time>2011-06-01T12:33:06Z</time>
      </trkpt>
      <trkpt lat="44.63474" lon="3.89505">
        <ele>974.537</ele>
        <time>2011-06-01T12:33:16Z</time>
      </trkpt>
      <trkpt lat="44.63474" lon="3.89506">
        <ele>975.034</ele>
        <time>2011-06-01T12:33:26Z</time>
      </trkpt>
      <trkpt lat="44.63474" lon="3.89505">
        <ele>975.469</ele>
        <time>2011-06-01T12:33:36Z</time>
      </trkpt>
      <trkpt lat="44.63472" lon="3.89504">
        <ele>974.466</ele>
        <time>2011-06-01T12:33:46Z</time>
      </trkpt>
      <trkpt lat="44.63474" lon="3.89503">
        <ele>974.736</ele>
        <time>2011-06-01T12:33:56Z</time>
      </trkpt>
      <trkpt lat="44.63472" lon="3.89501">
        <ele>974.21</ele>
        <time>2011-06-01T12:34:06Z</time>
      </trkpt>
      <trkpt lat="44.6347" lon="3.89499">
        <ele>973.347</ele>
        <time>2011-06-01T12:34:16Z</time>
      </trkpt>
      <trkpt lat="44.63467" lon="3.89498">
        <ele>973.398</ele>
        <time>2011-06-01T12:34:26Z</time>
      </trkpt>
      <trkpt lat="44.63455" lon="3.89492">
        <ele>971.658</ele>
        <time>2011-06-01T12:34:36Z</time>
      </trkpt>
      <trkpt lat="44.63444" lon="3.89487">
        <ele>971.049</ele>
        <time>2011-06-01T12:34:46Z</time>
      </trkpt>
      <trkpt lat="44.63435" lon="3.89483">
        <ele>970.206</ele>
        <time>2011-06-01T12:34:56Z</time>
      </trkpt>
      <trkpt lat="44.63428" lon="3.89479">
        <ele>970.081</ele>
        <time>2011-06-01T12:35:06Z</time>
      </trkpt>
      <trkpt lat="44.63416" lon="3.89476">
        <ele>969.03</ele>
        <time>2011-06-01T12:35:16Z</time>
      </trkpt>
      <trkpt lat="44.63404" lon="3.89469">
        <ele>969.48</ele>
        <time>2011-06-01T12:35:26Z</time>
      </trkpt>
      <trkpt lat="44.63393" lon="3.89465">
        <ele>969.864</ele>
        <time>2011-06-01T12:35:36Z</time>
      </trkpt>
      <trkpt lat="44.6338" lon="3.89461">
        <ele>969.986</ele>
        <time>2011-06-01T12:35:46Z</time>
      </trkpt>
      <trkpt lat="44.63369" lon="3.89457">
        <ele>968.794</ele>
        <time>2011-06-01T12:35:56Z</time>
      </trkpt>
      <trkpt lat="44.63357" lon="3.89455">
        <ele>969.01</ele>
        <time>2011-06-01T12:36:06Z</time>
      </trkpt>
      <trkpt lat="44.63345" lon="3.89453">
        <ele>968.653</ele>
        <time>2011-06-01T12:36:16Z</time>
      </trkpt>
      <trkpt lat="44.63334" lon="3.89452">
        <ele>968.553</ele>
        <time>2011-06-01T12:36:26Z</time>
      </trkpt>
      <trkpt lat="44.6332" lon="3.89448">
        <ele>970.51</ele>
        <time>2011-06-01T12:36:36Z</time>
      </trkpt>
      <trkpt lat="44.63306" lon="3.89449">
        <ele>969.754</ele>
        <time>2011-06-01T12:36:46Z</time>
      </trkpt>
      <trkpt lat="44.63294" lon="3.89452">
        <ele>969.603</ele>
        <time>2011-06-01T12:36:56Z</time>
      </trkpt>
      <trkpt lat="44.63281" lon="3.89453">
        <ele>969.861</ele>
        <time>2011-06-01T12:37:06Z</time>
      </trkpt>
      <trkpt lat="44.63268" lon="3.89456">
        <ele>971.241</ele>
        <time>2011-06-01T12:37:16Z</time>
      </trkpt>
      <trkpt lat="44.63256" lon="3.89459">
        <ele>970.755</ele>
        <time>2011-06-01T12:37:26Z</time>
      </trkpt>
      <trkpt lat="44.63244" lon="3.89462">
        <ele>970.238</ele>
        <time>2011-06-01T12:37:36Z</time>
      </trkpt>
      <trkpt lat="44.63231" lon="3.89466">
        <ele>969.93</ele>
        <time>2011-06-01T12:37:46Z</time>
      </trkpt>
      <trkpt lat="44.63219" lon="3.89469">
        <ele>970.755</ele>
        <time>2011-06-01T12:37:56Z</time>
      </trkpt>
      <trkpt lat="44.63207" lon="3.89473">
        <ele>970.187</ele>
        <time>2011-06-01T12:38:06Z</time>
      </trkpt>
      <trkpt lat="44.63194" lon="3.89477">
        <ele>971.041</ele>
        <time>2011-06-01T12:38:16Z</time>
      </trkpt>
      <trkpt lat="44.63182" lon="3.89482">
        <ele>971.472</ele>
        <time>2011-06-01T12:38:26Z</time>
      </trkpt>
      <trkpt lat="44.63171" lon="3.89486">
        <ele>971.855</ele>
        <time>2011-06-01T12:38:36Z</time>
      </trkpt>
      <trkpt lat="44.63159" lon="3.8949">
        <ele>971.508</ele>
        <time>2011-06-01T12:38:46Z</time>
      </trkpt>
      <trkpt lat="44.63148" lon="3.89495">
        <ele>969.915</ele>
        <time>2011-06-01T12:38:56Z</time>
      </trkpt>
      <trkpt lat="44.63135" lon="3.89498">
        <ele>971.359</ele>
        <time>2011-06-01T12:39:06Z</time>
      </trkpt>
      <trkpt lat="44.63121" lon="3.89497">
        <ele>971.463</ele>
        <time>2011-06-01T12:39:16Z</time>
      </trkpt>
      <trkpt lat="44.63109" lon="3.89498">
        <ele>970.822</ele>
        <time>2011-06-01T12:39:26Z</time>
      </trkpt>
      <trkpt lat="44.63095" lon="3.89498">
        <ele>970.343</ele>
        <time>2011-06-01T12:39:36Z</time>
      </trkpt>
      <trkpt lat="44.63081" lon="3.89498">
        <ele>971.092</ele>
        <time>2011-06-01T12:39:46Z</time>
      </trkpt>
      <trkpt lat="44.63067" lon="3.89497">
        <ele>970.579</ele>
        <time>2011-06-01T12:39:56Z</time>
      </trkpt>
      <trkpt lat="44.63055" lon="3.89495">
        <ele>970.779</ele>
        <time>2011-06-01T12:40:06Z</time>
      </trkpt>
      <trkpt lat="44.63041" lon="3.89495">
        <ele>970.266</ele>
        <time>2011-06-01T12:40:16Z</time>
      </trkpt>
      <trkpt lat="44.63029" lon="3.89496">
        <ele>971.249</ele>
        <time>2011-06-01T12:40:26Z</time>
      </trkpt>
      <trkpt lat="44.63016" lon="3.89495">
        <ele>971.143</ele>
        <time>2011-06-01T12:40:36Z</time>
      </trkpt>
      <trkpt lat="44.63002" lon="3.89494">
        <ele>971.448</ele>
        <time>2011-06-01T12:40:46Z</time>
      </trkpt>
      <trkpt lat="44.62991" lon="3.8949">
        <ele>970.909</ele>
        <time>2011-06-01T12:40:56Z</time>
      </trkpt>
      <trkpt lat="44.62978" lon="3.89487">
        <ele>971.609</ele>
        <time>2011-06-01T12:41:06Z</time>
      </trkpt>
      <trkpt lat="44.62965" lon="3.89486">
        <ele>972.134</ele>
        <time>2011-06-01T12:41:16Z</time>
      </trkpt>
      <trkpt lat="44.62951" lon="3.89485">
        <ele>971.272</ele>
        <time>2011-06-01T12:41:26Z</time>
      </trkpt>
      <trkpt lat="44.62939" lon="3.89482">
        <ele>972.237</ele>
        <time>2011-06-01T12:41:36Z</time>
      </trkpt>
      <trkpt lat="44.62927" lon="3.8948">
        <ele>972.385</ele>
        <time>2011-06-01T12:41:46Z</time>
      </trkpt>
      <trkpt lat="44.62915" lon="3.89478">
        <ele>972.221</ele>
        <time>2011-06-01T12:41:56Z</time>
      </trkpt>
      <trkpt lat="44.62902" lon="3.89477">
        <ele>972.951</ele>
        <time>2011-06-01T12:42:06Z</time>
      </trkpt>
      <trkpt lat="44.62889" lon="3.89477">
        <ele>973.05</ele>
        <time>2011-06-01T12:42:16Z</time>
      </trkpt>
      <trkpt lat="44.62877" lon="3.89475">
        <ele>972.888</ele>
        <time>2011-06-01T12:42:26Z</time>
      </trkpt>
      <trkpt lat="44.62864" lon="3.89473">
        <ele>972.207</ele>
        <time>2011-06-01T12:42:36Z</time>
      </trkpt>
      <trkpt lat="44.62852" lon="3.89471">
        <ele>971.882</ele>
        <time>2011-06-01T12:42:46Z</time>
      </trkpt>
      <trkpt lat="44.62839" lon="3.89468">
        <ele>972.68</ele>
        <time>2011-06-01T12:42:56Z</time>
      </trkpt>
      <trkpt lat="44.62828" lon="3.89466">
        <ele>972.686</ele>
        <time>2011-06-01T12:43:06Z</time>
      </trkpt>
      <trkpt lat="44.62815" lon="3.89465">
        <ele>973.391</ele>
        <time>2011-06-01T12:43:16Z</time>
      </trkpt>
      <trkpt lat="44.62804" lon="3.89461">
        <ele>973.023</ele>
        <time>2011-06-01T12:43:26Z</time>
      </trkpt>
      <trkpt lat="44.62792" lon="3.8946">
        <ele>973.132</ele>
        <time>2011-06-01T12:43:36Z</time>
      </trkpt>
      <trkpt lat="44.62779" lon="3.89458">
        <ele>973.271</ele>
        <time>2011-06-01T12:43:46Z</time>
      </trkpt>
      <trkpt lat="44.62767" lon="3.89456">
        <ele>973.053</ele>
        <time>2011-06-01T12:43:56Z</time>
      </trkpt>
      <trkpt lat="44.62754" lon="3.89455">
        <ele>973.12</ele>
        <time>2011-06-01T12:44:06Z</time>
      </trkpt>
      <trkpt lat="44.62742" lon="3.89455">
        <ele>974.589</ele>
        <time>2011-06-01T12:44:16Z</time>
      </trkpt>
      <trkpt lat="44.6273" lon="3.89457">
        <ele>973.625</ele>
        <time>2011-06-01T12:44:26Z</time>
      </trkpt>
      <trkpt lat="44.62718" lon="3.8946">
        <ele>973.196</ele>
        <time>2011-06-01T12:44:36Z</time>
      </trkpt>
      <trkpt lat="44.62706" lon="3.89465">
        <ele>973.639</ele>
        <time>2011-06-01T12:44:46Z</time>
      </trkpt>
      <trkpt lat="44.62695" lon="3.89472">
        <ele>974.112</ele>
        <time>2011-06-01T12:44:56Z</time>
      </trkpt>
      <trkpt lat="44.62682" lon="3.89476">
        <ele>975.594</ele>
        <time>2011-06-01T12:45:06Z</time>
      </trkpt>
      <trkpt lat="44.62671" lon="3.89481">
        <ele>975.34</ele>
        <time>2011-06-01T12:45:16Z</time>
      </trkpt>
      <trkpt lat="44.6266" lon="3.89487">
        <ele>975.862</ele>
        <time>2011-06-01T12:45:26Z</time>
      </trkpt>
      <trkpt lat="44.62648" lon="3.89492">
        <ele>975.381</ele>
        <time>2011-06-01T12:45:36Z</time>
      </trkpt>
      <trkpt lat="44.62636" lon="3.89499">
        <ele>974.995</ele>
        <time>2011-06-01T12:45:46Z</time>
      </trkpt>
      <trkpt lat="44.62624" lon="3.89506">
        <ele>976.442</ele>
        <time>2011-06-01T12:45:56Z</time>
      </trkpt>
      <trkpt lat="44.62611" lon="3.89511">
        <ele>975.506</ele>
        <time>2011-06-01T12:46:06Z</time>
      </trkpt>
      <trkpt lat="44.62599" lon="3.89517">
        <ele>975.121</ele>
        <time>2011-06-01T12:46:16Z</time>
      </trkpt>
      <trkpt lat="44.62587" lon="3.89524">
        <ele>974.927</ele>
        <time>2011-06-01T12:46:26Z</time>
      </trkpt>
      <trkpt lat="44.62575" lon="3.89532">
        <ele>976.088</ele>
        <time>2011-06-01T12:46:36Z</time>
      </trkpt>
      <trkpt lat="44.62562" lon="3.89539">
        <ele>976.07</ele>
        <time>2011-06-01T12:46:46Z</time>
      </trkpt>
      <trkpt lat="44.6255" lon="3.89545">
        <ele>976.526</ele>
        <time>2011-06-01T12:46:56Z</time>
      </trkpt>
      <trkpt lat="44.62538" lon="3.8955">
        <ele>976.701</ele>
        <time>2011-06-01T12:47:06Z</time>
      </trkpt>
      <trkpt lat="44.62526" lon="3.89555">
        <ele>976.482</ele>
        <time>2011-06-01T12:47:16Z</time>
      </trkpt>
      <trkpt lat="44.62513" lon="3.89562">
        <ele>977.559</ele>
        <time>2011-06-01T12:47:26Z</time>
      </trkpt>
      <trkpt lat="44.62501" lon="3.89567">
        <ele>978.508</ele>
        <time>2011-06-01T12:47:36Z</time>
      </trkpt>
      <trkpt lat="44.62489" lon="3.89572">
        <ele>979.855</ele>
        <time>2011-06-01T12:47:46Z</time>
      </trkpt>
      <trkpt lat="44.62477" lon="3.89575">
        <ele>981.475</ele>
        <time>2011-06-01T12:47:56Z</time>
      </trkpt>
      <trkpt lat="44.62463" lon="3.89578">
        <ele>982.852</ele>
        <time>2011-06-01T12:48:06Z</time>
      </trkpt>
      <trkpt lat="44.62451" lon="3.89577">
        <ele>983.358</ele>
        <time>2011-06-01T12:48:16Z</time>
      </trkpt>
      <trkpt lat="44.62438" lon="3.89575">
        <ele>984.024</ele>
        <time>2011-06-01T12:48:26Z</time>
      </trkpt>
      <trkpt lat="44.62427" lon="3.89572">
        <ele>987.076</ele>
        <time>2011-06-01T12:48:36Z</time>
      </trkpt>
      <trkpt lat="44.62416" lon="3.89568">
        <ele>987.528</ele>
        <time>2011-06-01T12:48:46Z</time>
      </trkpt>
      <trkpt lat="44.62405" lon="3.89564">
        <ele>988.631</ele>
        <time>2011-06-01T12:48:56Z</time>
      </trkpt>
      <trkpt lat="44.62394" lon="3.89558">
        <ele>989.916</ele>
        <time>2011-06-01T12:49:06Z</time>
      </trkpt>
      <trkpt lat="44.62384" lon="3.89552">
        <ele>991.418</ele>
        <time>2011-06-01T12:49:16Z</time>
      </trkpt>
      <trkpt lat="44.62373" lon="3.89549">
        <ele>992.434</ele>
        <time>2011-06-01T12:49:26Z</time>
      </trkpt>
      <trkpt lat="44.62361" lon="3.89545">
        <ele>994.46</ele>
        <time>2011-06-01T12:49:36Z</time>
      </trkpt>
      <trkpt lat="44.6235" lon="3.89542">
        <ele>996.43</ele>
        <time>2011-06-01T12:49:46Z</time>
      </trkpt>
      <trkpt lat="44.62338" lon="3.89544">
        <ele>1000.29</ele>
        <time>2011-06-01T12:49:56Z</time>
      </trkpt>
      <trkpt lat="44.62326" lon="3.8955">
        <ele>1001.547</ele>
        <time>2011-06-01T12:50:06Z</time>
      </trkpt>
      <trkpt lat="44.62314" lon="3.89557">
        <ele>1002.356</ele>
        <time>2011-06-01T12:50:16Z</time>
      </trkpt>
      <trkpt lat="44.62304" lon="3.89565">
        <ele>1001.069</ele>
        <time>2011-06-01T12:50:26Z</time>
      </trkpt>
      <trkpt lat="44.62292" lon="3.89573">
        <ele>1002.018</ele>
        <time>2011-06-01T12:50:36Z</time>
      </trkpt>
      <trkpt lat="44.62282" lon="3.89581">
        <ele>1003.034</ele>
        <time>2011-06-01T12:50:46Z</time>
      </trkpt>
      <trkpt lat="44.6227" lon="3.89583">
        <ele>1004.535</ele>
        <time>2011-06-01T12:50:56Z</time>
      </trkpt>
      <trkpt lat="44.62258" lon="3.89584">
        <ele>1006.109</ele>
        <time>2011-06-01T12:51:06Z</time>
      </trkpt>
      <trkpt lat="44.62246" lon="3.89583">
        <ele>1008.135</ele>
        <time>2011-06-01T12:51:16Z</time>
      </trkpt>
      <trkpt lat="44.62235" lon="3.89581">
        <ele>1009.397</ele>
        <time>2011-06-01T12:51:26Z</time>
      </trkpt>
      <trkpt lat="44.62223" lon="3.8958">
        <ele>1012.144</ele>
        <time>2011-06-01T12:51:36Z</time>
      </trkpt>
      <trkpt lat="44.62212" lon="3.89579">
        <ele>1013.294</ele>
        <time>2011-06-01T12:51:46Z</time>
      </trkpt>
      <trkpt lat="44.62199" lon="3.89578">
        <ele>1013.571</ele>
        <time>2011-06-01T12:51:56Z</time>
      </trkpt>
      <trkpt lat="44.62186" lon="3.89577">
        <ele>1014.404</ele>
        <time>2011-06-01T12:52:06Z</time>
      </trkpt>
      <trkpt lat="44.62173" lon="3.89575">
        <ele>1015.335</ele>
        <time>2011-06-01T12:52:16Z</time>
      </trkpt>
      <trkpt lat="44.6216" lon="3.89575">
        <ele>1015.721</ele>
        <time>2011-06-01T12:52:26Z</time>
      </trkpt>
      <trkpt lat="44.62147" lon="3.89575">
        <ele>1015.015</ele>
        <time>2011-06-01T12:52:36Z</time>
      </trkpt>
      <trkpt lat="44.62134" lon="3.89575">
        <ele>1016.372</ele>
        <time>2011-06-01T12:52:46Z</time>
      </trkpt>
      <trkpt lat="44.62121" lon="3.89576">
        <ele>1016.324</ele>
        <time>2011-06-01T12:52:56Z</time>
      </trkpt>
      <trkpt lat="44.62108" lon="3.8958">
        <ele>1016.735</ele>
        <time>2011-06-01T12:53:06Z</time>
      </trkpt>
      <trkpt lat="44.62095" lon="3.89583">
        <ele>1015.732</ele>
        <time>2011-06-01T12:53:16Z</time>
      </trkpt>
      <trkpt lat="44.62082" lon="3.89587">
        <ele>1016.019</ele>
        <time>2011-06-01T12:53:26Z</time>
      </trkpt>
      <trkpt lat="44.62069" lon="3.89591">
        <ele>1016.555</ele>
        <time>2011-06-01T12:53:36Z</time>
      </trkpt>
      <trkpt lat="44.62057" lon="3.89596">
        <ele>1017.616</ele>
        <time>2011-06-01T12:53:46Z</time>
      </trkpt>
      <trkpt lat="44.62044" lon="3.896">
        <ele>1016.414</ele>
        <time>2011-06-01T12:53:56Z</time>
      </trkpt>
      <trkpt lat="44.62032" lon="3.89606">
        <ele>1015.765</ele>
        <time>2011-06-01T12:54:06Z</time>
      </trkpt>
      <trkpt lat="44.62021" lon="3.89611">
        <ele>1016.534</ele>
        <time>2011-06-01T12:54:16Z</time>
      </trkpt>
      <trkpt lat="44.62009" lon="3.89618">
        <ele>1017.501</ele>
        <time>2011-06-01T12:54:26Z</time>
      </trkpt>
      <trkpt lat="44.61997" lon="3.89625">
        <ele>1016.853</ele>
        <time>2011-06-01T12:54:36Z</time>
      </trkpt>
      <trkpt lat="44.61985" lon="3.89633">
        <ele>1016.083</ele>
        <time>2011-06-01T12:54:46Z</time>
      </trkpt>
      <trkpt lat="44.61973" lon="3.89639">
        <ele>1015.546</ele>
        <time>2011-06-01T12:54:56Z</time>
      </trkpt>
      <trkpt lat="44.61961" lon="3.89644">
        <ele>1018.191</ele>
        <time>2011-06-01T12:55:06Z</time>
      </trkpt>
      <trkpt lat="44.61949" lon="3.89648">
        <ele>1018.682</ele>
        <time>2011-06-01T12:55:16Z</time>
      </trkpt>
      <trkpt lat="44.61936" lon="3.89652">
        <ele>1018.058</ele>
        <time>2011-06-01T12:55:26Z</time>
      </trkpt>
      <trkpt lat="44.61923" lon="3.89656">
        <ele>1019.069</ele>
        <time>2011-06-01T12:55:36Z</time>
      </trkpt>
      <trkpt lat="44.6191" lon="3.89662">
        <ele>1020.989</ele>
        <time>2011-06-01T12:55:46Z</time>
      </trkpt>
      <trkpt lat="44.61899" lon="3.89663">
        <ele>1021.568</ele>
        <time>2011-06-01T12:55:56Z</time>
      </trkpt>
      <trkpt lat="44.61885" lon="3.8967">
        <ele>1021.737</ele>
        <time>2011-06-01T12:56:06Z</time>
      </trkpt>
      <trkpt lat="44.61874" lon="3.89678">
        <ele>1023.824</ele>
        <time>2011-06-01T12:56:16Z</time>
      </trkpt>
      <trkpt lat="44.61863" lon="3.89685">
        <ele>1024.085</ele>
        <time>2011-06-01T12:56:26Z</time>
      </trkpt>
      <trkpt lat="44.61852" lon="3.89695">
        <ele>1024.334</ele>
        <time>2011-06-01T12:56:36Z</time>
      </trkpt>
      <trkpt lat="44.61841" lon="3.89706">
        <ele>1023.38</ele>
        <time>2011-06-01T12:56:46Z</time>
      </trkpt>
      <trkpt lat="44.61831" lon="3.89716">
        <ele>1023.351</ele>
        <time>2011-06-01T12:56:56Z</time>
      </trkpt>
      <trkpt lat="44.61821" lon="3.89728">
        <ele>1023.807</ele>
        <time>2011-06-01T12:57:06Z</time>
      </trkpt>
      <trkpt lat="44.61811" lon="3.89739">
        <ele>1024.585</ele>
        <time>2011-06-01T12:57:16Z</time>
      </trkpt>
      <trkpt lat="44.618" lon="3.89751">
        <ele>1023.823</ele>
        <time>2011-06-01T12:57:26Z</time>
      </trkpt>
      <trkpt lat="44.61791" lon="3.89762">
        <ele>1025.296</ele>
        <time>2011-06-01T12:57:36Z</time>
      </trkpt>
      <trkpt lat="44.6178" lon="3.89773">
        <ele>1025.625</ele>
        <time>2011-06-01T12:57:46Z</time>
      </trkpt>
      <trkpt lat="44.61768" lon="3.8978">
        <ele>1026.473</ele>
        <time>2011-06-01T12:57:56Z</time>
      </trkpt>
      <trkpt lat="44.61761" lon="3.89785">
        <ele>1031.209</ele>
        <time>2011-06-01T12:58:06Z</time>
      </trkpt>
      <trkpt lat="44.61761" lon="3.89785">
        <ele>1025.184</ele>
        <time>2011-06-01T12:58:16Z</time>
      </trkpt>
      <trkpt lat="44.61761" lon="3.89785">
        <ele>1025.751</ele>
        <time>2011-06-01T12:58:26Z</time>
      </trkpt>
      <trkpt lat="44.6176" lon="3.89785">
        <ele>1027.359</ele>
        <time>2011-06-01T12:58:36Z</time>
      </trkpt>
      <trkpt lat="44.61756" lon="3.89792">
        <ele>1026.018</ele>
        <time>2011-06-01T12:58:46Z</time>
      </trkpt>
      <trkpt lat="44.61745" lon="3.89801">
        <ele>1026.177</ele>
        <time>2011-06-01T12:58:56Z</time>
      </trkpt>
      <trkpt lat="44.61733" lon="3.89808">
        <ele>1028.775</ele>
        <time>2011-06-01T12:59:06Z</time>
      </trkpt>
      <trkpt lat="44.61721" lon="3.89811">
        <ele>1030.541</ele>
        <time>2011-06-01T12:59:16Z</time>
      </trkpt>
      <trkpt lat="44.61711" lon="3.8982">
        <ele>1033.408</ele>
        <time>2011-06-01T12:59:26Z</time>
      </trkpt>
      <trkpt lat="44.617" lon="3.8983">
        <ele>1033.787</ele>
        <time>2011-06-01T12:59:36Z</time>
      </trkpt>
      <trkpt lat="44.61688" lon="3.8984">
        <ele>1033.33</ele>
        <time>2011-06-01T12:59:46Z</time>
      </trkpt>
      <trkpt lat="44.61675" lon="3.89852">
        <ele>1032.912</ele>
        <time>2011-06-01T12:59:56Z</time>
      </trkpt>
      <trkpt lat="44.61663" lon="3.89864">
        <ele>1032.126</ele>
        <time>2011-06-01T13:00:06Z</time>
      </trkpt>
      <trkpt lat="44.61654" lon="3.89878">
        <ele>1031.274</ele>
        <time>2011-06-01T13:00:16Z</time>
      </trkpt>
      <trkpt lat="44.61645" lon="3.89896">
        <ele>1030.867</ele>
        <time>2011-06-01T13:00:26Z</time>
      </trkpt>
      <trkpt lat="44.61636" lon="3.89912">
        <ele>1028.092</ele>
        <time>2011-06-01T13:00:36Z</time>
      </trkpt>
      <trkpt lat="44.61628" lon="3.89928">
        <ele>1026.731</ele>
        <time>2011-06-01T13:00:46Z</time>
      </trkpt>
      <trkpt lat="44.61621" lon="3.89944">
        <ele>1026.349</ele>
        <time>2011-06-01T13:00:56Z</time>
      </trkpt>
      <trkpt lat="44.61614" lon="3.89959">
        <ele>1024.487</ele>
        <time>2011-06-01T13:01:06Z</time>
      </trkpt>
      <trkpt lat="44.61606" lon="3.89973">
        <ele>1022.861</ele>
        <time>2011-06-01T13:01:16Z</time>
      </trkpt>
      <trkpt lat="44.61599" lon="3.8999">
        <ele>1021.648</ele>
        <time>2011-06-01T13:01:26Z</time>
      </trkpt>
      <trkpt lat="44.61594" lon="3.90007">
        <ele>1019.274</ele>
        <time>2011-06-01T13:01:36Z</time>
      </trkpt>
      <trkpt lat="44.61589" lon="3.90023">
        <ele>1019.055</ele>
        <time>2011-06-01T13:01:46Z</time>
      </trkpt>
      <trkpt lat="44.61584" lon="3.9004">
        <ele>1017.15</ele>
        <time>2011-06-01T13:01:56Z</time>
      </trkpt>
      <trkpt lat="44.61582" lon="3.90058">
        <ele>1014.854</ele>
        <time>2011-06-01T13:02:06Z</time>
      </trkpt>
      <trkpt lat="44.6158" lon="3.90077">
        <ele>1013.762</ele>
        <time>2011-06-01T13:02:16Z</time>
      </trkpt>
      <trkpt lat="44.61578" lon="3.90092">
        <ele>1012.272</ele>
        <time>2011-06-01T13:02:26Z</time>
      </trkpt>
      <trkpt lat="44.6158" lon="3.90105">
        <ele>1012.653</ele>
        <time>2011-06-01T13:02:36Z</time>
      </trkpt>
      <trkpt lat="44.61577" lon="3.90111">
        <ele>1010.912</ele>
        <time>2011-06-01T13:02:46Z</time>
      </trkpt>
      <trkpt lat="44.61574" lon="3.90121">
        <ele>1009.841</ele>
        <time>2011-06-01T13:02:56Z</time>
      </trkpt>
      <trkpt lat="44.61574" lon="3.90131">
        <ele>1008.397</ele>
        <time>2011-06-01T13:03:06Z</time>
      </trkpt>
      <trkpt lat="44.61571" lon="3.90137">
        <ele>1006.814</ele>
        <time>2011-06-01T13:03:16Z</time>
      </trkpt>
      <trkpt lat="44.61568" lon="3.90144">
        <ele>1006.939</ele>
        <time>2011-06-01T13:03:26Z</time>
      </trkpt>
      <trkpt lat="44.61562" lon="3.90155">
        <ele>1006.208</ele>
        <time>2011-06-01T13:03:36Z</time>
      </trkpt>
      <trkpt lat="44.61553" lon="3.90164">
        <ele>1004.503</ele>
        <time>2011-06-01T13:03:46Z</time>
      </trkpt>
      <trkpt lat="44.61543" lon="3.90175">
        <ele>1004.536</ele>
        <time>2011-06-01T13:03:56Z</time>
      </trkpt>
      <trkpt lat="44.61533" lon="3.90184">
        <ele>1001.789</ele>
        <time>2011-06-01T13:04:06Z</time>
      </trkpt>
      <trkpt lat="44.61524" lon="3.90196">
        <ele>1000.278</ele>
        <time>2011-06-01T13:04:16Z</time>
      </trkpt>
      <trkpt lat="44.61519" lon="3.90202">
        <ele>998.19</ele>
        <time>2011-06-01T13:04:26Z</time>
      </trkpt>
      <trkpt lat="44.61518" lon="3.90206">
        <ele>997.203</ele>
        <time>2011-06-01T13:04:36Z</time>
      </trkpt>
      <trkpt lat="44.61516" lon="3.90207">
        <ele>997.586</ele>
        <time>2011-06-01T13:04:46Z</time>
      </trkpt>
      <trkpt lat="44.61511" lon="3.90209">
        <ele>997.08</ele>
        <time>2011-06-01T13:04:56Z</time>
      </trkpt>
      <trkpt lat="44.61511" lon="3.9021">
        <ele>997.572</ele>
        <time>2011-06-01T13:05:06Z</time>
      </trkpt>
      <trkpt lat="44.61513" lon="3.90212">
        <ele>997.453</ele>
        <time>2011-06-01T13:05:16Z</time>
      </trkpt>
      <trkpt lat="44.61513" lon="3.90212">
        <ele>997.599</ele>
        <time>2011-06-01T13:05:26Z</time>
      </trkpt>
      <trkpt lat="44.61513" lon="3.90212">
        <ele>997.5</ele>
        <time>2011-06-01T13:05:36Z</time>
      </trkpt>
      <trkpt lat="44.61513" lon="3.90212">
        <ele>998.38</ele>
        <time>2011-06-01T13:05:46Z</time>
      </trkpt>
      <trkpt lat="44.61512" lon="3.90211">
        <ele>997.839</ele>
        <time>2011-06-01T13:05:56Z</time>
      </trkpt>
      <trkpt lat="44.61512" lon="3.90216">
        <ele>998.121</ele>
        <time>2011-06-01T13:06:06Z</time>
      </trkpt>
      <trkpt lat="44.61517" lon="3.90229">
        <ele>995.386</ele>
        <time>2011-06-01T13:06:16Z</time>
      </trkpt>
      <trkpt lat="44.61523" lon="3.90243">
        <ele>994.899</ele>
        <time>2011-06-01T13:06:26Z</time>
      </trkpt>
      <trkpt lat="44.6153" lon="3.90257">
        <ele>996.069</ele>
        <time>2011-06-01T13:06:36Z</time>
      </trkpt>
      <trkpt lat="44.61533" lon="3.90271">
        <ele>994.082</ele>
        <time>2011-06-01T13:06:46Z</time>
      </trkpt>
      <trkpt lat="44.61535" lon="3.90282">
        <ele>996.797</ele>
        <time>2011-06-01T13:06:56Z</time>
      </trkpt>
      <trkpt lat="44.61535" lon="3.90281">
        <ele>996.19</ele>
        <time>2011-06-01T13:07:06Z</time>
      </trkpt>
      <trkpt lat="44.61535" lon="3.90281">
        <ele>995.509</ele>
        <time>2011-06-01T13:07:16Z</time>
      </trkpt>
      <trkpt lat="44.61535" lon="3.90282">
        <ele>995.584</ele>
        <time>2011-06-01T13:07:26Z</time>
      </trkpt>
      <trkpt lat="44.61535" lon="3.90282">
        <ele>995.055</ele>
        <time>2011-06-01T13:07:36Z</time>
      </trkpt>
      <trkpt lat="44.61535" lon="3.90282">
        <ele>996.596</ele>
        <time>2011-06-01T13:07:46Z</time>
      </trkpt>
      <trkpt lat="44.61535" lon="3.90281">
        <ele>995.669</ele>
        <time>2011-06-01T13:07:56Z</time>
      </trkpt>
      <trkpt lat="44.61535" lon="3.90281">
        <ele>995.51</ele>
        <time>2011-06-01T13:08:06Z</time>
      </trkpt>
      <trkpt lat="44.61535" lon="3.90281">
        <ele>995.22</ele>
        <time>2011-06-01T13:08:16Z</time>
      </trkpt>
      <trkpt lat="44.61535" lon="3.90281">
        <ele>995.021</ele>
        <time>2011-06-01T13:08:26Z</time>
      </trkpt>
      <trkpt lat="44.61535" lon="3.90281">
        <ele>995.011</ele>
        <time>2011-06-01T13:08:36Z</time>
      </trkpt>
      <trkpt lat="44.61534" lon="3.90284">
        <ele>994.612</ele>
        <time>2011-06-01T13:08:46Z</time>
      </trkpt>
      <trkpt lat="44.61534" lon="3.90284">
        <ele>993.872</ele>
        <time>2011-06-01T13:08:56Z</time>
      </trkpt>
      <trkpt lat="44.61534" lon="3.90284">
        <ele>995.12</ele>
        <time>2011-06-01T13:09:06Z</time>
      </trkpt>
      <trkpt lat="44.61534" lon="3.90284">
        <ele>994.972</ele>
        <time>2011-06-01T13:09:16Z</time>
      </trkpt>
      <trkpt lat="44.61534" lon="3.90284">
        <ele>995.093</ele>
        <time>2011-06-01T13:09:26Z</time>
      </trkpt>
      <trkpt lat="44.61534" lon="3.90284">
        <ele>994.968</ele>
        <time>2011-06-01T13:09:36Z</time>
      </trkpt>
      <trkpt lat="44.61534" lon="3.90284">
        <ele>993.512</ele>
        <time>2011-06-01T13:09:46Z</time>
      </trkpt>
      <trkpt lat="44.61534" lon="3.90284">
        <ele>995.962</ele>
        <time>2011-06-01T13:09:56Z</time>
      </trkpt>
      <trkpt lat="44.61534" lon="3.90284">
        <ele>996.189</ele>
        <time>2011-06-01T13:10:06Z</time>
      </trkpt>
      <trkpt lat="44.61535" lon="3.90283">
        <ele>995.898</ele>
        <time>2011-06-01T13:10:16Z</time>
      </trkpt>
      <trkpt lat="44.61535" lon="3.90283">
        <ele>995.199</ele>
        <time>2011-06-01T13:10:26Z</time>
      </trkpt>
      <trkpt lat="44.61535" lon="3.90283">
        <ele>994.858</ele>
        <time>2011-06-01T13:10:36Z</time>
      </trkpt>
      <trkpt lat="44.61535" lon="3.90283">
        <ele>995.208</ele>
        <time>2011-06-01T13:10:46Z</time>
      </trkpt>
      <trkpt lat="44.61535" lon="3.90283">
        <ele>994.846</ele>
        <time>2011-06-01T13:10:56Z</time>
      </trkpt>
      <trkpt lat="44.61535" lon="3.90284">
        <ele>996.16</ele>
        <time>2011-06-01T13:11:06Z</time>
      </trkpt>
      <trkpt lat="44.61535" lon="3.90284">
        <ele>996.212</ele>
        <time>2011-06-01T13:11:16Z</time>
      </trkpt>
      <trkpt lat="44.61537" lon="3.90298">
        <ele>995.311</ele>
        <time>2011-06-01T13:11:26Z</time>
      </trkpt>
      <trkpt lat="44.61539" lon="3.90312">
        <ele>994.791</ele>
        <time>2011-06-01T13:11:36Z</time>
      </trkpt>
      <trkpt lat="44.61539" lon="3.90314">
        <ele>995.282</ele>
        <time>2011-06-01T13:11:46Z</time>
      </trkpt>
      <trkpt lat="44.61543" lon="3.90319">
        <ele>996.192</ele>
        <time>2011-06-01T13:11:56Z</time>
      </trkpt>
      <trkpt lat="44.61547" lon="3.90328">
        <ele>998.723</ele>
        <time>2011-06-01T13:12:06Z</time>
      </trkpt>
      <trkpt lat="44.61552" lon="3.90341">
        <ele>999.707</ele>
        <time>2011-06-01T13:12:16Z</time>
      </trkpt>
      <trkpt lat="44.61554" lon="3.90355">
        <ele>1001.431</ele>
        <time>2011-06-01T13:12:26Z</time>
      </trkpt>
      <trkpt lat="44.61557" lon="3.90367">
        <ele>1001.41</ele>
        <time>2011-06-01T13:12:36Z</time>
      </trkpt>
      <trkpt lat="44.61558" lon="3.90381">
        <ele>1002.906</ele>
        <time>2011-06-01T13:12:46Z</time>
      </trkpt>
      <trkpt lat="44.61561" lon="3.90396">
        <ele>1005.276</ele>
        <time>2011-06-01T13:12:56Z</time>
      </trkpt>
      <trkpt lat="44.61557" lon="3.90386">
        <ele>1005.766</ele>
        <time>2011-06-01T13:13:06Z</time>
      </trkpt>
      <trkpt lat="44.61548" lon="3.90369">
        <ele>1004.624</ele>
        <time>2011-06-01T13:13:16Z</time>
      </trkpt>
      <trkpt lat="44.61542" lon="3.90353">
        <ele>1003.125</ele>
        <time>2011-06-01T13:13:26Z</time>
      </trkpt>
      <trkpt lat="44.61532" lon="3.90338">
        <ele>1002.616</ele>
        <time>2011-06-01T13:13:36Z</time>
      </trkpt>
      <trkpt lat="44.61523" lon="3.90328">
        <ele>1005.541</ele>
        <time>2011-06-01T13:13:46Z</time>
      </trkpt>
      <trkpt lat="44.61513" lon="3.90322">
        <ele>1001.838</ele>
        <time>2011-06-01T13:13:56Z</time>
      </trkpt>
      <trkpt lat="44.61507" lon="3.90309">
        <ele>999.964</ele>
        <time>2011-06-01T13:14:06Z</time>
      </trkpt>
      <trkpt lat="44.61502" lon="3.90295">
        <ele>998.389</ele>
        <time>2011-06-01T13:14:16Z</time>
      </trkpt>
      <trkpt lat="44.61495" lon="3.90282">
        <ele>996.641</ele>
        <time>2011-06-01T13:14:26Z</time>
      </trkpt>
      <trkpt lat="44.61491" lon="3.90267">
        <ele>996.671</ele>
        <time>2011-06-01T13:14:36Z</time>
      </trkpt>
      <trkpt lat="44.61483" lon="3.9025">
        <ele>994.941</ele>
        <time>2011-06-01T13:14:46Z</time>
      </trkpt>
      <trkpt lat="44.61474" lon="3.90235">
        <ele>993.978</ele>
        <time>2011-06-01T13:14:56Z</time>
      </trkpt>
      <trkpt lat="44.61466" lon="3.90217">
        <ele>993.472</ele>
        <time>2011-06-01T13:15:06Z</time>
      </trkpt>
      <trkpt lat="44.61464" lon="3.90202">
        <ele>994.179</ele>
        <time>2011-06-01T13:15:16Z</time>
      </trkpt>
      <trkpt lat="44.61464" lon="3.90184">
        <ele>994.637</ele>
        <time>2011-06-01T13:15:26Z</time>
      </trkpt>
      <trkpt lat="44.61462" lon="3.90169">
        <ele>995.063</ele>
        <time>2011-06-01T13:15:36Z</time>
      </trkpt>
      <trkpt lat="44.61453" lon="3.9015">
        <ele>994.689</ele>
        <time>2011-06-01T13:15:46Z</time>
      </trkpt>
      <trkpt lat="44.61445" lon="3.90131">
        <ele>996.712</ele>
        <time>2011-06-01T13:15:56Z</time>
      </trkpt>
      <trkpt lat="44.61435" lon="3.90117">
        <ele>996.956</ele>
        <time>2011-06-01T13:16:06Z</time>
      </trkpt>
      <trkpt lat="44.61425" lon="3.90102">
        <ele>997.783</ele>
        <time>2011-06-01T13:16:16Z</time>
      </trkpt>
      <trkpt lat="44.61414" lon="3.9009">
        <ele>997.064</ele>
        <time>2011-06-01T13:16:26Z</time>
      </trkpt>
      <trkpt lat="44.61401" lon="3.90081">
        <ele>998.684</ele>
        <time>2011-06-01T13:16:36Z</time>
      </trkpt>
      <trkpt lat="44.6139" lon="3.90079">
        <ele>1001.889</ele>
        <time>2011-06-01T13:16:46Z</time>
      </trkpt>
      <trkpt lat="44.61382" lon="3.90094">
        <ele>999.75</ele>
        <time>2011-06-01T13:16:56Z</time>
      </trkpt>
      <trkpt lat="44.61377" lon="3.90113">
        <ele>999.065</ele>
        <time>2011-06-01T13:17:06Z</time>
      </trkpt>
      <trkpt lat="44.61373" lon="3.90129">
        <ele>996.954</ele>
        <time>2011-06-01T13:17:16Z</time>
      </trkpt>
      <trkpt lat="44.61368" lon="3.90146">
        <ele>997.38</ele>
        <time>2011-06-01T13:17:26Z</time>
      </trkpt>
      <trkpt lat="44.61363" lon="3.90163">
        <ele>995.922</ele>
        <time>2011-06-01T13:17:36Z</time>
      </trkpt>
      <trkpt lat="44.61357" lon="3.90179">
        <ele>993.523</ele>
        <time>2011-06-01T13:17:46Z</time>
      </trkpt>
      <trkpt lat="44.61349" lon="3.90194">
        <ele>992.542</ele>
        <time>2011-06-01T13:17:56Z</time>
      </trkpt>
      <trkpt lat="44.61344" lon="3.9021">
        <ele>990.967</ele>
        <time>2011-06-01T13:18:06Z</time>
      </trkpt>
      <trkpt lat="44.61337" lon="3.90223">
        <ele>991.606</ele>
        <time>2011-06-01T13:18:16Z</time>
      </trkpt>
      <trkpt lat="44.61324" lon="3.90227">
        <ele>991.107</ele>
        <time>2011-06-01T13:18:26Z</time>
      </trkpt>
      <trkpt lat="44.61311" lon="3.90228">
        <ele>990.432</ele>
        <time>2011-06-01T13:18:36Z</time>
      </trkpt>
      <trkpt lat="44.61297" lon="3.9023">
        <ele>991.173</ele>
        <time>2011-06-01T13:18:46Z</time>
      </trkpt>
      <trkpt lat="44.61284" lon="3.90236">
        <ele>990.644</ele>
        <time>2011-06-01T13:18:56Z</time>
      </trkpt>
      <trkpt lat="44.61273" lon="3.90242">
        <ele>990.356</ele>
        <time>2011-06-01T13:19:06Z</time>
      </trkpt>
      <trkpt lat="44.61263" lon="3.90251">
        <ele>989.941</ele>
        <time>2011-06-01T13:19:16Z</time>
      </trkpt>
      <trkpt lat="44.61253" lon="3.90257">
        <ele>992.402</ele>
        <time>2011-06-01T13:19:26Z</time>
      </trkpt>
      <trkpt lat="44.61242" lon="3.90265">
        <ele>993.792</ele>
        <time>2011-06-01T13:19:36Z</time>
      </trkpt>
      <trkpt lat="44.61231" lon="3.90272">
        <ele>994.676</ele>
        <time>2011-06-01T13:19:46Z</time>
      </trkpt>
      <trkpt lat="44.61221" lon="3.90281">
        <ele>996.042</ele>
        <time>2011-06-01T13:19:56Z</time>
      </trkpt>
      <trkpt lat="44.6122" lon="3.90296">
        <ele>996.076</ele>
        <time>2011-06-01T13:20:06Z</time>
      </trkpt>
      <trkpt lat="44.61221" lon="3.90313">
        <ele>996.588</ele>
        <time>2011-06-01T13:20:16Z</time>
      </trkpt>
      <trkpt lat="44.61218" lon="3.9033">
        <ele>997.127</ele>
        <time>2011-06-01T13:20:26Z</time>
      </trkpt>
      <trkpt lat="44.61211" lon="3.90343">
        <ele>997.641</ele>
        <time>2011-06-01T13:20:36Z</time>
      </trkpt>
      <trkpt lat="44.61202" lon="3.90354">
        <ele>998.253</ele>
        <time>2011-06-01T13:20:46Z</time>
      </trkpt>
      <trkpt lat="44.61193" lon="3.90366">
        <ele>998.414</ele>
        <time>2011-06-01T13:20:56Z</time>
      </trkpt>
      <trkpt lat="44.61185" lon="3.90381">
        <ele>999.829</ele>
        <time>2011-06-01T13:21:06Z</time>
      </trkpt>
      <trkpt lat="44.61178" lon="3.90394">
        <ele>1001.781</ele>
        <time>2011-06-01T13:21:16Z</time>
      </trkpt>
      <trkpt lat="44.61169" lon="3.90408">
        <ele>1001.253</ele>
        <time>2011-06-01T13:21:26Z</time>
      </trkpt>
      <trkpt lat="44.6116" lon="3.90422">
        <ele>1001.055</ele>
        <time>2011-06-01T13:21:36Z</time>
      </trkpt>
      <trkpt lat="44.61149" lon="3.90434">
        <ele>1001.007</ele>
        <time>2011-06-01T13:21:46Z</time>
      </trkpt>
      <trkpt lat="44.61138" lon="3.90444">
        <ele>1000.906</ele>
        <time>2011-06-01T13:21:56Z</time>
      </trkpt>
      <trkpt lat="44.61128" lon="3.90454">
        <ele>1000.94</ele>
        <time>2011-06-01T13:22:06Z</time>
      </trkpt>
      <trkpt lat="44.61117" lon="3.90466">
        <ele>1000.945</ele>
        <time>2011-06-01T13:22:16Z</time>
      </trkpt>
      <trkpt lat="44.61106" lon="3.90477">
        <ele>999.799</ele>
        <time>2011-06-01T13:22:26Z</time>
      </trkpt>
      <trkpt lat="44.61096" lon="3.90487">
        <ele>1000.752</ele>
        <time>2011-06-01T13:22:36Z</time>
      </trkpt>
      <trkpt lat="44.61085" lon="3.90497">
        <ele>1001.63</ele>
        <time>2011-06-01T13:22:46Z</time>
      </trkpt>
      <trkpt lat="44.61074" lon="3.90507">
        <ele>1000.422</ele>
        <time>2011-06-01T13:22:56Z</time>
      </trkpt>
      <trkpt lat="44.61063" lon="3.90517">
        <ele>1000.954</ele>
        <time>2011-06-01T13:23:06Z</time>
      </trkpt>
      <trkpt lat="44.61052" lon="3.90528">
        <ele>1001.501</ele>
        <time>2011-06-01T13:23:16Z</time>
      </trkpt>
      <trkpt lat="44.61041" lon="3.90539">
        <ele>1001.913</ele>
        <time>2011-06-01T13:23:26Z</time>
      </trkpt>
      <trkpt lat="44.61031" lon="3.90552">
        <ele>1000.957</ele>
        <time>2011-06-01T13:23:36Z</time>
      </trkpt>
      <trkpt lat="44.61019" lon="3.90563">
        <ele>1000.975</ele>
        <time>2011-06-01T13:23:46Z</time>
      </trkpt>
      <trkpt lat="44.61008" lon="3.90575">
        <ele>1000.232</ele>
        <time>2011-06-01T13:23:56Z</time>
      </trkpt>
      <trkpt lat="44.60998" lon="3.90587">
        <ele>999.906</ele>
        <time>2011-06-01T13:24:06Z</time>
      </trkpt>
      <trkpt lat="44.60987" lon="3.90596">
        <ele>1000.089</ele>
        <time>2011-06-01T13:24:16Z</time>
      </trkpt>
      <trkpt lat="44.60975" lon="3.90606">
        <ele>998.825</ele>
        <time>2011-06-01T13:24:26Z</time>
      </trkpt>
      <trkpt lat="44.60964" lon="3.90615">
        <ele>999.63</ele>
        <time>2011-06-01T13:24:36Z</time>
      </trkpt>
      <trkpt lat="44.60952" lon="3.90624">
        <ele>999.554</ele>
        <time>2011-06-01T13:24:46Z</time>
      </trkpt>
      <trkpt lat="44.60939" lon="3.90631">
        <ele>999.169</ele>
        <time>2011-06-01T13:24:56Z</time>
      </trkpt>
      <trkpt lat="44.60927" lon="3.90639">
        <ele>997.664</ele>
        <time>2011-06-01T13:25:06Z</time>
      </trkpt>
      <trkpt lat="44.60915" lon="3.90647">
        <ele>998.724</ele>
        <time>2011-06-01T13:25:16Z</time>
      </trkpt>
      <trkpt lat="44.60903" lon="3.90654">
        <ele>998.748</ele>
        <time>2011-06-01T13:25:26Z</time>
      </trkpt>
      <trkpt lat="44.6089" lon="3.90661">
        <ele>998.339</ele>
        <time>2011-06-01T13:25:36Z</time>
      </trkpt>
      <trkpt lat="44.60877" lon="3.90666">
        <ele>998.612</ele>
        <time>2011-06-01T13:25:46Z</time>
      </trkpt>
      <trkpt lat="44.60864" lon="3.90669">
        <ele>999.204</ele>
        <time>2011-06-01T13:25:56Z</time>
      </trkpt>
      <trkpt lat="44.60851" lon="3.90671">
        <ele>999.119</ele>
        <time>2011-06-01T13:26:06Z</time>
      </trkpt>
      <trkpt lat="44.60838" lon="3.90675">
        <ele>999.88</ele>
        <time>2011-06-01T13:26:16Z</time>
      </trkpt>
      <trkpt lat="44.60826" lon="3.90668">
        <ele>998.619</ele>
        <time>2011-06-01T13:26:26Z</time>
      </trkpt>
      <trkpt lat="44.60816" lon="3.90656">
        <ele>997.144</ele>
        <time>2011-06-01T13:26:36Z</time>
      </trkpt>
      <trkpt lat="44.60804" lon="3.90646">
        <ele>995.791</ele>
        <time>2011-06-01T13:26:46Z</time>
      </trkpt>
      <trkpt lat="44.60792" lon="3.9064">
        <ele>993.522</ele>
        <time>2011-06-01T13:26:56Z</time>
      </trkpt>
      <trkpt lat="44.60789" lon="3.90642">
        <ele>993.87</ele>
        <time>2011-06-01T13:27:06Z</time>
      </trkpt>
      <trkpt lat="44.60785" lon="3.90641">
        <ele>993.202</ele>
        <time>2011-06-01T13:27:16Z</time>
      </trkpt>
      <trkpt lat="44.60772" lon="3.90646">
        <ele>993.282</ele>
        <time>2011-06-01T13:27:26Z</time>
      </trkpt>
      <trkpt lat="44.60763" lon="3.90652">
        <ele>993.081</ele>
        <time>2011-06-01T13:27:36Z</time>
      </trkpt>
      <trkpt lat="44.60757" lon="3.90661">
        <ele>992.863</ele>
        <time>2011-06-01T13:27:46Z</time>
      </trkpt>
      <trkpt lat="44.60753" lon="3.9065">
        <ele>992.14</ele>
        <time>2011-06-01T13:27:56Z</time>
      </trkpt>
      <trkpt lat="44.60746" lon="3.90638">
        <ele>993.265</ele>
        <time>2011-06-01T13:28:06Z</time>
      </trkpt>
      <trkpt lat="44.6074" lon="3.90629">
        <ele>994.615</ele>
        <time>2011-06-01T13:28:16Z</time>
      </trkpt>
      <trkpt lat="44.60734" lon="3.90618">
        <ele>995.624</ele>
        <time>2011-06-01T13:28:26Z</time>
      </trkpt>
      <trkpt lat="44.60728" lon="3.90606">
        <ele>998.855</ele>
        <time>2011-06-01T13:28:36Z</time>
      </trkpt>
      <trkpt lat="44.60723" lon="3.90595">
        <ele>998.773</ele>
        <time>2011-06-01T13:28:46Z</time>
      </trkpt>
      <trkpt lat="44.60716" lon="3.90589">
        <ele>1000.546</ele>
        <time>2011-06-01T13:28:56Z</time>
      </trkpt>
      <trkpt lat="44.60708" lon="3.90586">
        <ele>1002.625</ele>
        <time>2011-06-01T13:29:06Z</time>
      </trkpt>
      <trkpt lat="44.60696" lon="3.90579">
        <ele>1004.084</ele>
        <time>2011-06-01T13:29:16Z</time>
      </trkpt>
      <trkpt lat="44.60695" lon="3.90563">
        <ele>1001.5</ele>
        <time>2011-06-01T13:29:26Z</time>
      </trkpt>
      <trkpt lat="44.6069" lon="3.90547">
        <ele>1001.101</ele>
        <time>2011-06-01T13:29:36Z</time>
      </trkpt>
      <trkpt lat="44.60682" lon="3.9054">
        <ele>1001.89</ele>
        <time>2011-06-01T13:29:46Z</time>
      </trkpt>
      <trkpt lat="44.60675" lon="3.90532">
        <ele>1004.003</ele>
        <time>2011-06-01T13:29:56Z</time>
      </trkpt>
      <trkpt lat="44.60668" lon="3.90523">
        <ele>1005.474</ele>
        <time>2011-06-01T13:30:06Z</time>
      </trkpt>
      <trkpt lat="44.60659" lon="3.90514">
        <ele>1007.812</ele>
        <time>2011-06-01T13:30:16Z</time>
      </trkpt>
      <trkpt lat="44.60652" lon="3.90506">
        <ele>1009.724</ele>
        <time>2011-06-01T13:30:26Z</time>
      </trkpt>
      <trkpt lat="44.60643" lon="3.90495">
        <ele>1011.616</ele>
        <time>2011-06-01T13:30:36Z</time>
      </trkpt>
      <trkpt lat="44.60633" lon="3.90495">
        <ele>1013.974</ele>
        <time>2011-06-01T13:30:46Z</time>
      </trkpt>
      <trkpt lat="44.60628" lon="3.90504">
        <ele>1014.938</ele>
        <time>2011-06-01T13:30:56Z</time>
      </trkpt>
      <trkpt lat="44.60618" lon="3.90511">
        <ele>1014.359</ele>
        <time>2011-06-01T13:31:06Z</time>
      </trkpt>
      <trkpt lat="44.60607" lon="3.90516">
        <ele>1014.941</ele>
        <time>2011-06-01T13:31:16Z</time>
      </trkpt>
      <trkpt lat="44.60596" lon="3.90516">
        <ele>1015.375</ele>
        <time>2011-06-01T13:31:26Z</time>
      </trkpt>
      <trkpt lat="44.60586" lon="3.9052">
        <ele>1015.969</ele>
        <time>2011-06-01T13:31:36Z</time>
      </trkpt>
      <trkpt lat="44.60574" lon="3.90522">
        <ele>1015.777</ele>
        <time>2011-06-01T13:31:46Z</time>
      </trkpt>
      <trkpt lat="44.60564" lon="3.90526">
        <ele>1016.45</ele>
        <time>2011-06-01T13:31:56Z</time>
      </trkpt>
      <trkpt lat="44.60552" lon="3.90525">
        <ele>1015.658</ele>
        <time>2011-06-01T13:32:06Z</time>
      </trkpt>
      <trkpt lat="44.60541" lon="3.9052">
        <ele>1016.49</ele>
        <time>2011-06-01T13:32:16Z</time>
      </trkpt>
      <trkpt lat="44.60528" lon="3.90517">
        <ele>1016.822</ele>
        <time>2011-06-01T13:32:26Z</time>
      </trkpt>
      <trkpt lat="44.60513" lon="3.90515">
        <ele>1017.242</ele>
        <time>2011-06-01T13:32:36Z</time>
      </trkpt>
      <trkpt lat="44.60501" lon="3.90514">
        <ele>1017.968</ele>
        <time>2011-06-01T13:32:46Z</time>
      </trkpt>
      <trkpt lat="44.60488" lon="3.90515">
        <ele>1018.679</ele>
        <time>2011-06-01T13:32:56Z</time>
      </trkpt>
      <trkpt lat="44.60475" lon="3.9051">
        <ele>1020.057</ele>
        <time>2011-06-01T13:33:06Z</time>
      </trkpt>
      <trkpt lat="44.60463" lon="3.90506">
        <ele>1019.033</ele>
        <time>2011-06-01T13:33:16Z</time>
      </trkpt>
      <trkpt lat="44.60451" lon="3.90502">
        <ele>1020.259</ele>
        <time>2011-06-01T13:33:26Z</time>
      </trkpt>
      <trkpt lat="44.60438" lon="3.90501">
        <ele>1019.344</ele>
        <time>2011-06-01T13:33:36Z</time>
      </trkpt>
      <trkpt lat="44.60425" lon="3.90497">
        <ele>1019.447</ele>
        <time>2011-06-01T13:33:46Z</time>
      </trkpt>
      <trkpt lat="44.60413" lon="3.90491">
        <ele>1019.846</ele>
        <time>2011-06-01T13:33:56Z</time>
      </trkpt>
      <trkpt lat="44.60403" lon="3.90491">
        <ele>1019.647</ele>
        <time>2011-06-01T13:34:06Z</time>
      </trkpt>
      <trkpt lat="44.60391" lon="3.90482">
        <ele>1020.159</ele>
        <time>2011-06-01T13:34:16Z</time>
      </trkpt>
      <trkpt lat="44.60381" lon="3.90476">
        <ele>1021.089</ele>
        <time>2011-06-01T13:34:26Z</time>
      </trkpt>
      <trkpt lat="44.60371" lon="3.90472">
        <ele>1021.731</ele>
        <time>2011-06-01T13:34:36Z</time>
      </trkpt>
      <trkpt lat="44.60359" lon="3.90469">
        <ele>1022.637</ele>
        <time>2011-06-01T13:34:46Z</time>
      </trkpt>
      <trkpt lat="44.60348" lon="3.90465">
        <ele>1022.589</ele>
        <time>2011-06-01T13:34:56Z</time>
      </trkpt>
      <trkpt lat="44.60336" lon="3.9046">
        <ele>1022.838</ele>
        <time>2011-06-01T13:35:06Z</time>
      </trkpt>
      <trkpt lat="44.60326" lon="3.90449">
        <ele>1023.99</ele>
        <time>2011-06-01T13:35:16Z</time>
      </trkpt>
      <trkpt lat="44.60312" lon="3.90447">
        <ele>1024.042</ele>
        <time>2011-06-01T13:35:26Z</time>
      </trkpt>
      <trkpt lat="44.60292" lon="3.90444">
        <ele>1024.745</ele>
        <time>2011-06-01T13:35:36Z</time>
      </trkpt>
      <trkpt lat="44.60281" lon="3.90443">
        <ele>1023.739</ele>
        <time>2011-06-01T13:35:46Z</time>
      </trkpt>
      <trkpt lat="44.60267" lon="3.90447">
        <ele>1024.375</ele>
        <time>2011-06-01T13:35:56Z</time>
      </trkpt>
      <trkpt lat="44.60256" lon="3.90448">
        <ele>1025.953</ele>
        <time>2011-06-01T13:36:06Z</time>
      </trkpt>
      <trkpt lat="44.60248" lon="3.90448">
        <ele>1025.38</ele>
        <time>2011-06-01T13:36:16Z</time>
      </trkpt>
      <trkpt lat="44.6023" lon="3.90443">
        <ele>1025.623</ele>
        <time>2011-06-01T13:36:26Z</time>
      </trkpt>
      <trkpt lat="44.60222" lon="3.90444">
        <ele>1025.567</ele>
        <time>2011-06-01T13:36:36Z</time>
      </trkpt>
      <trkpt lat="44.60208" lon="3.90449">
        <ele>1025.969</ele>
        <time>2011-06-01T13:36:46Z</time>
      </trkpt>
      <trkpt lat="44.60193" lon="3.90454">
        <ele>1025.58</ele>
        <time>2011-06-01T13:36:56Z</time>
      </trkpt>
      <trkpt lat="44.60179" lon="3.90456">
        <ele>1026.172</ele>
        <time>2011-06-01T13:37:06Z</time>
      </trkpt>
      <trkpt lat="44.60165" lon="3.90456">
        <ele>1026.294</ele>
        <time>2011-06-01T13:37:16Z</time>
      </trkpt>
      <trkpt lat="44.60152" lon="3.90451">
        <ele>1026.394</ele>
        <time>2011-06-01T13:37:26Z</time>
      </trkpt>
      <trkpt lat="44.6014" lon="3.90447">
        <ele>1026.677</ele>
        <time>2011-06-01T13:37:36Z</time>
      </trkpt>
      <trkpt lat="44.60128" lon="3.90437">
        <ele>1027.068</ele>
        <time>2011-06-01T13:37:46Z</time>
      </trkpt>
      <trkpt lat="44.60118" lon="3.90432">
        <ele>1027.211</ele>
        <time>2011-06-01T13:37:56Z</time>
      </trkpt>
      <trkpt lat="44.60108" lon="3.90437">
        <ele>1026.69</ele>
        <time>2011-06-01T13:38:06Z</time>
      </trkpt>
      <trkpt lat="44.60095" lon="3.90443">
        <ele>1027.02</ele>
        <time>2011-06-01T13:38:16Z</time>
      </trkpt>
      <trkpt lat="44.60083" lon="3.90445">
        <ele>1027.055</ele>
        <time>2011-06-01T13:38:26Z</time>
      </trkpt>
      <trkpt lat="44.60069" lon="3.90445">
        <ele>1028.532</ele>
        <time>2011-06-01T13:38:36Z</time>
      </trkpt>
      <trkpt lat="44.60058" lon="3.90443">
        <ele>1028.497</ele>
        <time>2011-06-01T13:38:46Z</time>
      </trkpt>
      <trkpt lat="44.60045" lon="3.90441">
        <ele>1030.078</ele>
        <time>2011-06-01T13:38:56Z</time>
      </trkpt>
      <trkpt lat="44.60037" lon="3.9044">
        <ele>1030.751</ele>
        <time>2011-06-01T13:39:06Z</time>
      </trkpt>
      <trkpt lat="44.6003" lon="3.9043">
        <ele>1032.54</ele>
        <time>2011-06-01T13:39:16Z</time>
      </trkpt>
      <trkpt lat="44.60018" lon="3.90423">
        <ele>1032.012</ele>
        <time>2011-06-01T13:39:26Z</time>
      </trkpt>
      <trkpt lat="44.60009" lon="3.90419">
        <ele>1032.836</ele>
        <time>2011-06-01T13:39:36Z</time>
      </trkpt>
      <trkpt lat="44.59998" lon="3.90417">
        <ele>1033.814</ele>
        <time>2011-06-01T13:39:46Z</time>
      </trkpt>
      <trkpt lat="44.59986" lon="3.9041">
        <ele>1034.562</ele>
        <time>2011-06-01T13:39:56Z</time>
      </trkpt>
      <trkpt lat="44.59975" lon="3.90402">
        <ele>1034.237</ele>
        <time>2011-06-01T13:40:06Z</time>
      </trkpt>
      <trkpt lat="44.59962" lon="3.90393">
        <ele>1036.047</ele>
        <time>2011-06-01T13:40:16Z</time>
      </trkpt>
      <trkpt lat="44.59954" lon="3.90377">
        <ele>1035.729</ele>
        <time>2011-06-01T13:40:26Z</time>
      </trkpt>
      <trkpt lat="44.59946" lon="3.90366">
        <ele>1037.426</ele>
        <time>2011-06-01T13:40:36Z</time>
      </trkpt>
      <trkpt lat="44.59931" lon="3.90359">
        <ele>1037.822</ele>
        <time>2011-06-01T13:40:46Z</time>
      </trkpt>
      <trkpt lat="44.59924" lon="3.90348">
        <ele>1038.092</ele>
        <time>2011-06-01T13:40:56Z</time>
      </trkpt>
      <trkpt lat="44.59909" lon="3.90343">
        <ele>1037.384</ele>
        <time>2011-06-01T13:41:06Z</time>
      </trkpt>
      <trkpt lat="44.59896" lon="3.90339">
        <ele>1037.344</ele>
        <time>2011-06-01T13:41:16Z</time>
      </trkpt>
      <trkpt lat="44.59884" lon="3.90334">
        <ele>1038.028</ele>
        <time>2011-06-01T13:41:26Z</time>
      </trkpt>
      <trkpt lat="44.59875" lon="3.90328">
        <ele>1037.003</ele>
        <time>2011-06-01T13:41:36Z</time>
      </trkpt>
      <trkpt lat="44.59868" lon="3.90312">
        <ele>1037.304</ele>
        <time>2011-06-01T13:41:46Z</time>
      </trkpt>
      <trkpt lat="44.59861" lon="3.90301">
        <ele>1036.964</ele>
        <time>2011-06-01T13:41:56Z</time>
      </trkpt>
      <trkpt lat="44.59858" lon="3.90282">
        <ele>1037.577</ele>
        <time>2011-06-01T13:42:06Z</time>
      </trkpt>
      <trkpt lat="44.59858" lon="3.90266">
        <ele>1039.432</ele>
        <time>2011-06-01T13:42:16Z</time>
      </trkpt>
      <trkpt lat="44.59851" lon="3.90248">
        <ele>1038.904</ele>
        <time>2011-06-01T13:42:26Z</time>
      </trkpt>
      <trkpt lat="44.59849" lon="3.90238">
        <ele>1039.037</ele>
        <time>2011-06-01T13:42:36Z</time>
      </trkpt>
      <trkpt lat="44.59846" lon="3.90221">
        <ele>1039.651</ele>
        <time>2011-06-01T13:42:46Z</time>
      </trkpt>
      <trkpt lat="44.59836" lon="3.9022">
        <ele>1040.099</ele>
        <time>2011-06-01T13:42:56Z</time>
      </trkpt>
      <trkpt lat="44.5983" lon="3.9023">
        <ele>1039.993</ele>
        <time>2011-06-01T13:43:06Z</time>
      </trkpt>
      <trkpt lat="44.59821" lon="3.90244">
        <ele>1039.69</ele>
        <time>2011-06-01T13:43:16Z</time>
      </trkpt>
      <trkpt lat="44.59815" lon="3.90259">
        <ele>1039.094</ele>
        <time>2011-06-01T13:43:26Z</time>
      </trkpt>
      <trkpt lat="44.5981" lon="3.90271">
        <ele>1039.025</ele>
        <time>2011-06-01T13:43:36Z</time>
      </trkpt>
      <trkpt lat="44.59799" lon="3.90284">
        <ele>1038.276</ele>
        <time>2011-06-01T13:43:46Z</time>
      </trkpt>
      <trkpt lat="44.59789" lon="3.90294">
        <ele>1038.716</ele>
        <time>2011-06-01T13:43:56Z</time>
      </trkpt>
      <trkpt lat="44.59778" lon="3.90297">
        <ele>1039.464</ele>
        <time>2011-06-01T13:44:06Z</time>
      </trkpt>
      <trkpt lat="44.59763" lon="3.90297">
        <ele>1039.645</ele>
        <time>2011-06-01T13:44:16Z</time>
      </trkpt>
      <trkpt lat="44.59752" lon="3.90292">
        <ele>1039.095</ele>
        <time>2011-06-01T13:44:26Z</time>
      </trkpt>
      <trkpt lat="44.59738" lon="3.90289">
        <ele>1039.682</ele>
        <time>2011-06-01T13:44:36Z</time>
      </trkpt>
      <trkpt lat="44.59725" lon="3.90289">
        <ele>1038.91</ele>
        <time>2011-06-01T13:44:46Z</time>
      </trkpt>
      <trkpt lat="44.5971" lon="3.90294">
        <ele>1039.763</ele>
        <time>2011-06-01T13:44:56Z</time>
      </trkpt>
      <trkpt lat="44.59698" lon="3.90298">
        <ele>1038.376</ele>
        <time>2011-06-01T13:45:06Z</time>
      </trkpt>
      <trkpt lat="44.59686" lon="3.903">
        <ele>1040.279</ele>
        <time>2011-06-01T13:45:16Z</time>
      </trkpt>
      <trkpt lat="44.59672" lon="3.90305">
        <ele>1039.972</ele>
        <time>2011-06-01T13:45:26Z</time>
      </trkpt>
      <trkpt lat="44.5966" lon="3.9031">
        <ele>1040.366</ele>
        <time>2011-06-01T13:45:36Z</time>
      </trkpt>
      <trkpt lat="44.5965" lon="3.90312">
        <ele>1040.543</ele>
        <time>2011-06-01T13:45:46Z</time>
      </trkpt>
      <trkpt lat="44.59635" lon="3.90311">
        <ele>1040.939</ele>
        <time>2011-06-01T13:45:56Z</time>
      </trkpt>
      <trkpt lat="44.59621" lon="3.90318">
        <ele>1039.774</ele>
        <time>2011-06-01T13:46:06Z</time>
      </trkpt>
      <trkpt lat="44.5961" lon="3.90315">
        <ele>1040.979</ele>
        <time>2011-06-01T13:46:16Z</time>
      </trkpt>
      <trkpt lat="44.59596" lon="3.90312">
        <ele>1040.839</ele>
        <time>2011-06-01T13:46:26Z</time>
      </trkpt>
      <trkpt lat="44.59583" lon="3.9031">
        <ele>1040.601</ele>
        <time>2011-06-01T13:46:36Z</time>
      </trkpt>
      <trkpt lat="44.59571" lon="3.90307">
        <ele>1041</ele>
        <time>2011-06-01T13:46:46Z</time>
      </trkpt>
      <trkpt lat="44.59559" lon="3.90306">
        <ele>1040.934</ele>
        <time>2011-06-01T13:46:56Z</time>
      </trkpt>
      <trkpt lat="44.59549" lon="3.90312">
        <ele>1039.259</ele>
        <time>2011-06-01T13:47:06Z</time>
      </trkpt>
      <trkpt lat="44.59539" lon="3.90317">
        <ele>1037.108</ele>
        <time>2011-06-01T13:47:16Z</time>
      </trkpt>
      <trkpt lat="44.59527" lon="3.90319">
        <ele>1035.581</ele>
        <time>2011-06-01T13:47:26Z</time>
      </trkpt>
      <trkpt lat="44.59515" lon="3.90322">
        <ele>1035.586</ele>
        <time>2011-06-01T13:47:36Z</time>
      </trkpt>
      <trkpt lat="44.59506" lon="3.90327">
        <ele>1034.606</ele>
        <time>2011-06-01T13:47:46Z</time>
      </trkpt>
      <trkpt lat="44.59498" lon="3.90329">
        <ele>1032.357</ele>
        <time>2011-06-01T13:47:56Z</time>
      </trkpt>
      <trkpt lat="44.59486" lon="3.90333">
        <ele>1031.281</ele>
        <time>2011-06-01T13:48:06Z</time>
      </trkpt>
      <trkpt lat="44.59476" lon="3.90333">
        <ele>1031.978</ele>
        <time>2011-06-01T13:48:16Z</time>
      </trkpt>
      <trkpt lat="44.59464" lon="3.90335">
        <ele>1029.77</ele>
        <time>2011-06-01T13:48:26Z</time>
      </trkpt>
      <trkpt lat="44.59453" lon="3.90338">
        <ele>1029.369</ele>
        <time>2011-06-01T13:48:36Z</time>
      </trkpt>
      <trkpt lat="44.59443" lon="3.9034">
        <ele>1029.448</ele>
        <time>2011-06-01T13:48:46Z</time>
      </trkpt>
      <trkpt lat="44.59442" lon="3.90342">
        <ele>1029.432</ele>
        <time>2011-06-01T13:48:56Z</time>
      </trkpt>
      <trkpt lat="44.5943" lon="3.90349">
        <ele>1027.396</ele>
        <time>2011-06-01T13:49:06Z</time>
      </trkpt>
      <trkpt lat="44.59425" lon="3.90349">
        <ele>1027.159</ele>
        <time>2011-06-01T13:49:16Z</time>
      </trkpt>
      <trkpt lat="44.59414" lon="3.90356">
        <ele>1026.292</ele>
        <time>2011-06-01T13:49:26Z</time>
      </trkpt>
      <trkpt lat="44.59406" lon="3.90369">
        <ele>1026.058</ele>
        <time>2011-06-01T13:49:36Z</time>
      </trkpt>
      <trkpt lat="44.594" lon="3.9037">
        <ele>1026.781</ele>
        <time>2011-06-01T13:49:46Z</time>
      </trkpt>
      <trkpt lat="44.59397" lon="3.90372">
        <ele>1025.725</ele>
        <time>2011-06-01T13:49:56Z</time>
      </trkpt>
      <trkpt lat="44.59398" lon="3.90375">
        <ele>1024.948</ele>
        <time>2011-06-01T13:50:06Z</time>
      </trkpt>
      <trkpt lat="44.59407" lon="3.90388">
        <ele>1025.087</ele>
        <time>2011-06-01T13:50:16Z</time>
      </trkpt>
      <trkpt lat="44.59416" lon="3.90392">
        <ele>1023.686</ele>
        <time>2011-06-01T13:50:26Z</time>
      </trkpt>
      <trkpt lat="44.59426" lon="3.90391">
        <ele>1022.172</ele>
        <time>2011-06-01T13:50:36Z</time>
      </trkpt>
      <trkpt lat="44.59436" lon="3.90396">
        <ele>1023.154</ele>
        <time>2011-06-01T13:50:46Z</time>
      </trkpt>
      <trkpt lat="44.59438" lon="3.90407">
        <ele>1021.289</ele>
        <time>2011-06-01T13:50:56Z</time>
      </trkpt>
      <trkpt lat="44.59439" lon="3.90419">
        <ele>1020.787</ele>
        <time>2011-06-01T13:51:06Z</time>
      </trkpt>
      <trkpt lat="44.59435" lon="3.90424">
        <ele>1021.453</ele>
        <time>2011-06-01T13:51:16Z</time>
      </trkpt>
      <trkpt lat="44.59427" lon="3.90426">
        <ele>1020.285</ele>
        <time>2011-06-01T13:51:26Z</time>
      </trkpt>
      <trkpt lat="44.59415" lon="3.90427">
        <ele>1022.003</ele>
        <time>2011-06-01T13:51:36Z</time>
      </trkpt>
      <trkpt lat="44.59405" lon="3.90426">
        <ele>1022.334</ele>
        <time>2011-06-01T13:51:46Z</time>
      </trkpt>
      <trkpt lat="44.59393" lon="3.90431">
        <ele>1022.666</ele>
        <time>2011-06-01T13:51:56Z</time>
      </trkpt>
      <trkpt lat="44.5938" lon="3.90436">
        <ele>1022.47</ele>
        <time>2011-06-01T13:52:06Z</time>
      </trkpt>
      <trkpt lat="44.59368" lon="3.90444">
        <ele>1022.953</ele>
        <time>2011-06-01T13:52:16Z</time>
      </trkpt>
      <trkpt lat="44.59361" lon="3.90454">
        <ele>1022.9</ele>
        <time>2011-06-01T13:52:26Z</time>
      </trkpt>
      <trkpt lat="44.59351" lon="3.90465">
        <ele>1021.531</ele>
        <time>2011-06-01T13:52:36Z</time>
      </trkpt>
      <trkpt lat="44.5934" lon="3.90464">
        <ele>1022.853</ele>
        <time>2011-06-01T13:52:46Z</time>
      </trkpt>
      <trkpt lat="44.59347" lon="3.90468">
        <ele>1021.77</ele>
        <time>2011-06-01T13:52:56Z</time>
      </trkpt>
      <trkpt lat="44.59353" lon="3.90471">
        <ele>1022.034</ele>
        <time>2011-06-01T13:53:06Z</time>
      </trkpt>
      <trkpt lat="44.59359" lon="3.90472">
        <ele>1022.56</ele>
        <time>2011-06-01T13:53:16Z</time>
      </trkpt>
      <trkpt lat="44.5935" lon="3.90465">
        <ele>1021.735</ele>
        <time>2011-06-01T13:53:26Z</time>
      </trkpt>
      <trkpt lat="44.5934" lon="3.90459">
        <ele>1023.251</ele>
        <time>2011-06-01T13:53:36Z</time>
      </trkpt>
      <trkpt lat="44.59336" lon="3.90459">
        <ele>1022.637</ele>
        <time>2011-06-01T13:53:46Z</time>
      </trkpt>
      <trkpt lat="44.59326" lon="3.90463">
        <ele>1021.933</ele>
        <time>2011-06-01T13:53:56Z</time>
      </trkpt>
      <trkpt lat="44.59315" lon="3.90464">
        <ele>1021.857</ele>
        <time>2011-06-01T13:54:06Z</time>
      </trkpt>
      <trkpt lat="44.59306" lon="3.90465">
        <ele>1022.041</ele>
        <time>2011-06-01T13:54:16Z</time>
      </trkpt>
      <trkpt lat="44.59296" lon="3.90463">
        <ele>1021.949</ele>
        <time>2011-06-01T13:54:26Z</time>
      </trkpt>
      <trkpt lat="44.59284" lon="3.90457">
        <ele>1021.925</ele>
        <time>2011-06-01T13:54:36Z</time>
      </trkpt>
      <trkpt lat="44.59274" lon="3.90456">
        <ele>1021.962</ele>
        <time>2011-06-01T13:54:46Z</time>
      </trkpt>
      <trkpt lat="44.59262" lon="3.9045">
        <ele>1022.32</ele>
        <time>2011-06-01T13:54:56Z</time>
      </trkpt>
      <trkpt lat="44.59247" lon="3.90449">
        <ele>1022.042</ele>
        <time>2011-06-01T13:55:06Z</time>
      </trkpt>
      <trkpt lat="44.59235" lon="3.90449">
        <ele>1021.142</ele>
        <time>2011-06-01T13:55:16Z</time>
      </trkpt>
      <trkpt lat="44.59228" lon="3.90452">
        <ele>1020.478</ele>
        <time>2011-06-01T13:55:26Z</time>
      </trkpt>
      <trkpt lat="44.59218" lon="3.90458">
        <ele>1019.437</ele>
        <time>2011-06-01T13:55:36Z</time>
      </trkpt>
      <trkpt lat="44.59208" lon="3.90469">
        <ele>1018.202</ele>
        <time>2011-06-01T13:55:46Z</time>
      </trkpt>
      <trkpt lat="44.59199" lon="3.9048">
        <ele>1018.609</ele>
        <time>2011-06-01T13:55:56Z</time>
      </trkpt>
      <trkpt lat="44.59196" lon="3.90498">
        <ele>1018.114</ele>
        <time>2011-06-01T13:56:06Z</time>
      </trkpt>
      <trkpt lat="44.59195" lon="3.90515">
        <ele>1018.272</ele>
        <time>2011-06-01T13:56:16Z</time>
      </trkpt>
      <trkpt lat="44.59194" lon="3.90525">
        <ele>1018.133</ele>
        <time>2011-06-01T13:56:26Z</time>
      </trkpt>
      <trkpt lat="44.59185" lon="3.90534">
        <ele>1018.59</ele>
        <time>2011-06-01T13:56:36Z</time>
      </trkpt>
      <trkpt lat="44.59182" lon="3.90551">
        <ele>1018.981</ele>
        <time>2011-06-01T13:56:46Z</time>
      </trkpt>
      <trkpt lat="44.59188" lon="3.90569">
        <ele>1017.327</ele>
        <time>2011-06-01T13:56:56Z</time>
      </trkpt>
      <trkpt lat="44.59197" lon="3.90572">
        <ele>1014.428</ele>
        <time>2011-06-01T13:57:06Z</time>
      </trkpt>
      <trkpt lat="44.59197" lon="3.90568">
        <ele>1015.365</ele>
        <time>2011-06-01T13:57:16Z</time>
      </trkpt>
      <trkpt lat="44.59197" lon="3.90567">
        <ele>1015.102</ele>
        <time>2011-06-01T13:57:26Z</time>
      </trkpt>
      <trkpt lat="44.59197" lon="3.90567">
        <ele>1015.098</ele>
        <time>2011-06-01T13:57:31Z</time>
      </trkpt>
      <trkpt lat="44.59196" lon="3.90567">
        <ele>1015.095</ele>
        <time>2011-06-01T13:57:36Z</time>
      </trkpt>
      <trkpt lat="44.59193" lon="3.90565">
        <ele>1016.181</ele>
        <time>2011-06-01T13:57:46Z</time>
      </trkpt>
      <trkpt lat="44.59191" lon="3.90563">
        <ele>1014.974</ele>
        <time>2011-06-01T13:57:56Z</time>
      </trkpt>
      <trkpt lat="44.5919" lon="3.90563">
        <ele>1016.263</ele>
        <time>2011-06-01T13:58:06Z</time>
      </trkpt>
      <trkpt lat="44.5919" lon="3.90562">
        <ele>1015.688</ele>
        <time>2011-06-01T13:58:16Z</time>
      </trkpt>
      <trkpt lat="44.5919" lon="3.90561">
        <ele>1016.09</ele>
        <time>2011-06-01T13:58:26Z</time>
      </trkpt>
      <trkpt lat="44.5919" lon="3.90559">
        <ele>1016.243</ele>
        <time>2011-06-01T13:58:36Z</time>
      </trkpt>
      <trkpt lat="44.59191" lon="3.90557">
        <ele>1016.067</ele>
        <time>2011-06-01T13:58:46Z</time>
      </trkpt>
      <trkpt lat="44.59191" lon="3.90557">
        <ele>1016.452</ele>
        <time>2011-06-01T13:58:56Z</time>
      </trkpt>
      <trkpt lat="44.59188" lon="3.90553">
        <ele>1016.111</ele>
        <time>2011-06-01T13:59:06Z</time>
      </trkpt>
      <trkpt lat="44.59189" lon="3.90545">
        <ele>1017.575</ele>
        <time>2011-06-01T13:59:16Z</time>
      </trkpt>
      <trkpt lat="44.5919" lon="3.90544">
        <ele>1016.806</ele>
        <time>2011-06-01T13:59:26Z</time>
      </trkpt>
      <trkpt lat="44.59189" lon="3.90541">
        <ele>1017.035</ele>
        <time>2011-06-01T13:59:36Z</time>
      </trkpt>
      <trkpt lat="44.59188" lon="3.90539">
        <ele>1018.082</ele>
        <time>2011-06-01T13:59:46Z</time>
      </trkpt>
    </trkseg>
  </trk>
  <trk>
    <name><![CDATA[ACTIVE LOG155955]]></name>
    <trkseg>
      <trkpt lat="44.5919" lon="3.90544">
        <ele>1017.17</ele>
        <time>2011-06-01T13:59:55Z</time>
      </trkpt>
      <trkpt lat="44.5919" lon="3.90544">
        <ele>1016.837</ele>
        <time>2011-06-01T14:00:05Z</time>
      </trkpt>
    </trkseg>
  </trk>
  <trk>
    <name><![CDATA[ACTIVE LOG160013]]></name>
    <trkseg>
      <trkpt lat="44.59243" lon="3.90604">
        <ele>1017.123</ele>
        <time>2011-06-01T14:00:13Z</time>
      </trkpt>
      <trkpt lat="44.59246" lon="3.90605">
        <ele>1016.792</ele>
        <time>2011-06-01T14:00:23Z</time>
      </trkpt>
      <trkpt lat="44.59242" lon="3.90577">
        <ele>1016.198</ele>
        <time>2011-06-01T14:00:33Z</time>
      </trkpt>
      <trkpt lat="44.59233" lon="3.9057">
        <ele>1016.697</ele>
        <time>2011-06-01T14:00:43Z</time>
      </trkpt>
      <trkpt lat="44.59229" lon="3.90572">
        <ele>1017.324</ele>
        <time>2011-06-01T14:00:53Z</time>
      </trkpt>
      <trkpt lat="44.59215" lon="3.90568">
        <ele>1017.263</ele>
        <time>2011-06-01T14:01:03Z</time>
      </trkpt>
      <trkpt lat="44.5922" lon="3.90576">
        <ele>1014.834</ele>
        <time>2011-06-01T14:01:13Z</time>
      </trkpt>
      <trkpt lat="44.59219" lon="3.90579">
        <ele>1016.507</ele>
        <time>2011-06-01T14:01:23Z</time>
      </trkpt>
      <trkpt lat="44.59219" lon="3.90579">
        <ele>1015.854</ele>
        <time>2011-06-01T14:01:33Z</time>
      </trkpt>
      <trkpt lat="44.59219" lon="3.90578">
        <ele>1016.325</ele>
        <time>2011-06-01T14:01:43Z</time>
      </trkpt>
      <trkpt lat="44.59219" lon="3.90577">
        <ele>1016.483</ele>
        <time>2011-06-01T14:01:53Z</time>
      </trkpt>
      <trkpt lat="44.59215" lon="3.90577">
        <ele>1016.14</ele>
        <time>2011-06-01T14:02:03Z</time>
      </trkpt>
      <trkpt lat="44.59212" lon="3.90579">
        <ele>1016.242</ele>
        <time>2011-06-01T14:02:13Z</time>
      </trkpt>
      <trkpt lat="44.59212" lon="3.90579">
        <ele>1016.746</ele>
        <time>2011-06-01T14:02:23Z</time>
      </trkpt>
      <trkpt lat="44.59213" lon="3.90579">
        <ele>1015.37</ele>
        <time>2011-06-01T14:02:33Z</time>
      </trkpt>
      <trkpt lat="44.59215" lon="3.90578">
        <ele>1016.852</ele>
        <time>2011-06-01T14:02:43Z</time>
      </trkpt>
      <trkpt lat="44.59216" lon="3.90577">
        <ele>1016.017</ele>
        <time>2011-06-01T14:02:53Z</time>
      </trkpt>
      <trkpt lat="44.59217" lon="3.90577">
        <ele>1016.361</ele>
        <time>2011-06-01T14:03:03Z</time>
      </trkpt>
      <trkpt lat="44.59219" lon="3.90577">
        <ele>1016.683</ele>
        <time>2011-06-01T14:03:13Z</time>
      </trkpt>
      <trkpt lat="44.5922" lon="3.90577">
        <ele>1017.172</ele>
        <time>2011-06-01T14:03:23Z</time>
      </trkpt>
      <trkpt lat="44.59222" lon="3.90576">
        <ele>1016.501</ele>
        <time>2011-06-01T14:03:33Z</time>
      </trkpt>
      <trkpt lat="44.59223" lon="3.90575">
        <ele>1015.93</ele>
        <time>2011-06-01T14:03:43Z</time>
      </trkpt>
      <trkpt lat="44.59222" lon="3.90574">
        <ele>1018.02</ele>
        <time>2011-06-01T14:03:53Z</time>
      </trkpt>
      <trkpt lat="44.59221" lon="3.90572">
        <ele>1017.521</ele>
        <time>2011-06-01T14:04:03Z</time>
      </trkpt>
      <trkpt lat="44.5922" lon="3.90572">
        <ele>1017.367</ele>
        <time>2011-06-01T14:04:13Z</time>
      </trkpt>
      <trkpt lat="44.59219" lon="3.9057">
        <ele>1016.599</ele>
        <time>2011-06-01T14:04:23Z</time>
      </trkpt>
      <trkpt lat="44.59217" lon="3.90566">
        <ele>1015.335</ele>
        <time>2011-06-01T14:04:33Z</time>
      </trkpt>
      <trkpt lat="44.59216" lon="3.90564">
        <ele>1017.009</ele>
        <time>2011-06-01T14:04:43Z</time>
      </trkpt>
      <trkpt lat="44.59216" lon="3.90562">
        <ele>1012.886</ele>
        <time>2011-06-01T14:04:53Z</time>
      </trkpt>
      <trkpt lat="44.59215" lon="3.9056">
        <ele>1015.217</ele>
        <time>2011-06-01T14:05:03Z</time>
      </trkpt>
      <trkpt lat="44.59216" lon="3.90559">
        <ele>1015.139</ele>
        <time>2011-06-01T14:05:13Z</time>
      </trkpt>
      <trkpt lat="44.59217" lon="3.90558">
        <ele>1015.573</ele>
        <time>2011-06-01T14:05:23Z</time>
      </trkpt>
      <trkpt lat="44.59219" lon="3.90559">
        <ele>1015.688</ele>
        <time>2011-06-01T14:05:33Z</time>
      </trkpt>
      <trkpt lat="44.59222" lon="3.90567">
        <ele>1016.961</ele>
        <time>2011-06-01T14:05:43Z</time>
      </trkpt>
      <trkpt lat="44.59223" lon="3.90568">
        <ele>1016.071</ele>
        <time>2011-06-01T14:05:53Z</time>
      </trkpt>
      <trkpt lat="44.59223" lon="3.90569">
        <ele>1016.151</ele>
        <time>2011-06-01T14:06:03Z</time>
      </trkpt>
      <trkpt lat="44.59224" lon="3.90569">
        <ele>1016.063</ele>
        <time>2011-06-01T14:06:13Z</time>
      </trkpt>
      <trkpt lat="44.59224" lon="3.90569">
        <ele>1015.875</ele>
        <time>2011-06-01T14:06:23Z</time>
      </trkpt>
      <trkpt lat="44.59224" lon="3.90569">
        <ele>1015.638</ele>
        <time>2011-06-01T14:06:33Z</time>
      </trkpt>
      <trkpt lat="44.59224" lon="3.90569">
        <ele>1015.195</ele>
        <time>2011-06-01T14:06:43Z</time>
      </trkpt>
      <trkpt lat="44.59224" lon="3.90569">
        <ele>1015.584</ele>
        <time>2011-06-01T14:06:53Z</time>
      </trkpt>
      <trkpt lat="44.59224" lon="3.90569">
        <ele>1016.011</ele>
        <time>2011-06-01T14:07:03Z</time>
      </trkpt>
      <trkpt lat="44.59224" lon="3.90569">
        <ele>1015.774</ele>
        <time>2011-06-01T14:07:13Z</time>
      </trkpt>
      <trkpt lat="44.59224" lon="3.90569">
        <ele>1015.757</ele>
        <time>2011-06-01T14:07:23Z</time>
      </trkpt>
      <trkpt lat="44.59223" lon="3.90569">
        <ele>1015.467</ele>
        <time>2011-06-01T14:07:33Z</time>
      </trkpt>
      <trkpt lat="44.59223" lon="3.90569">
        <ele>1014.501</ele>
        <time>2011-06-01T14:07:43Z</time>
      </trkpt>
      <trkpt lat="44.59223" lon="3.90569">
        <ele>1014.889</ele>
        <time>2011-06-01T14:07:53Z</time>
      </trkpt>
      <trkpt lat="44.59223" lon="3.90569">
        <ele>1014.757</ele>
        <time>2011-06-01T14:08:03Z</time>
      </trkpt>
      <trkpt lat="44.59223" lon="3.90569">
        <ele>1014.205</ele>
        <time>2011-06-01T14:08:13Z</time>
      </trkpt>
      <trkpt lat="44.59223" lon="3.90569">
        <ele>1014.435</ele>
        <time>2011-06-01T14:08:23Z</time>
      </trkpt>
      <trkpt lat="44.59223" lon="3.90569">
        <ele>1014.617</ele>
        <time>2011-06-01T14:08:33Z</time>
      </trkpt>
      <trkpt lat="44.59223" lon="3.90569">
        <ele>1014.979</ele>
        <time>2011-06-01T14:08:43Z</time>
      </trkpt>
      <trkpt lat="44.59223" lon="3.90569">
        <ele>1014.549</ele>
        <time>2011-06-01T14:08:53Z</time>
      </trkpt>
      <trkpt lat="44.59223" lon="3.90569">
        <ele>1014.161</ele>
        <time>2011-06-01T14:09:03Z</time>
      </trkpt>
      <trkpt lat="44.59223" lon="3.90569">
        <ele>1014.73</ele>
        <time>2011-06-01T14:09:13Z</time>
      </trkpt>
      <trkpt lat="44.59223" lon="3.90569">
        <ele>1013.537</ele>
        <time>2011-06-01T14:09:23Z</time>
      </trkpt>
      <trkpt lat="44.59223" lon="3.90569">
        <ele>1015.506</ele>
        <time>2011-06-01T14:09:33Z</time>
      </trkpt>
      <trkpt lat="44.59223" lon="3.90569">
        <ele>1014.813</ele>
        <time>2011-06-01T14:09:43Z</time>
      </trkpt>
      <trkpt lat="44.59223" lon="3.90569">
        <ele>1014.721</ele>
        <time>2011-06-01T14:09:53Z</time>
      </trkpt>
      <trkpt lat="44.59223" lon="3.90568">
        <ele>1014.363</ele>
        <time>2011-06-01T14:10:03Z</time>
      </trkpt>
      <trkpt lat="44.59223" lon="3.90568">
        <ele>1014.552</ele>
        <time>2011-06-01T14:10:13Z</time>
      </trkpt>
      <trkpt lat="44.59223" lon="3.90568">
        <ele>1014.848</ele>
        <time>2011-06-01T14:10:23Z</time>
      </trkpt>
      <trkpt lat="44.59222" lon="3.90568">
        <ele>1014.606</ele>
        <time>2011-06-01T14:10:33Z</time>
      </trkpt>
      <trkpt lat="44.59222" lon="3.90568">
        <ele>1013.977</ele>
        <time>2011-06-01T14:10:43Z</time>
      </trkpt>
      <trkpt lat="44.59222" lon="3.90568">
        <ele>1013.129</ele>
        <time>2011-06-01T14:10:53Z</time>
      </trkpt>
      <trkpt lat="44.59222" lon="3.90568">
        <ele>1013.634</ele>
        <time>2011-06-01T14:11:03Z</time>
      </trkpt>
      <trkpt lat="44.59222" lon="3.90568">
        <ele>1013.036</ele>
        <time>2011-06-01T14:11:13Z</time>
      </trkpt>
      <trkpt lat="44.59222" lon="3.90568">
        <ele>1014.586</ele>
        <time>2011-06-01T14:11:23Z</time>
      </trkpt>
      <trkpt lat="44.59222" lon="3.90568">
        <ele>1014.075</ele>
        <time>2011-06-01T14:11:33Z</time>
      </trkpt>
      <trkpt lat="44.59222" lon="3.90568">
        <ele>1014.344</ele>
        <time>2011-06-01T14:11:43Z</time>
      </trkpt>
      <trkpt lat="44.59222" lon="3.90568">
        <ele>1014.863</ele>
        <time>2011-06-01T14:11:53Z</time>
      </trkpt>
      <trkpt lat="44.59222" lon="3.90568">
        <ele>1014.963</ele>
        <time>2011-06-01T14:12:03Z</time>
      </trkpt>
      <trkpt lat="44.59222" lon="3.90568">
        <ele>1013.429</ele>
        <time>2011-06-01T14:12:13Z</time>
      </trkpt>
      <trkpt lat="44.59222" lon="3.90568">
        <ele>1014.27</ele>
        <time>2011-06-01T14:12:23Z</time>
      </trkpt>
      <trkpt lat="44.59222" lon="3.90568">
        <ele>1013.631</ele>
        <time>2011-06-01T14:12:33Z</time>
      </trkpt>
      <trkpt lat="44.59222" lon="3.90569">
        <ele>1013.822</ele>
        <time>2011-06-01T14:12:43Z</time>
      </trkpt>
      <trkpt lat="44.59222" lon="3.90569">
        <ele>1013.425</ele>
        <time>2011-06-01T14:12:53Z</time>
      </trkpt>
      <trkpt lat="44.59222" lon="3.90569">
        <ele>1013.533</ele>
        <time>2011-06-01T14:13:03Z</time>
      </trkpt>
      <trkpt lat="44.59222" lon="3.90569">
        <ele>1014.432</ele>
        <time>2011-06-01T14:13:13Z</time>
      </trkpt>
      <trkpt lat="44.59223" lon="3.9057">
        <ele>1014.04</ele>
        <time>2011-06-01T14:13:23Z</time>
      </trkpt>
      <trkpt lat="44.59223" lon="3.90569">
        <ele>1013.761</ele>
        <time>2011-06-01T14:13:33Z</time>
      </trkpt>
      <trkpt lat="44.59223" lon="3.90569">
        <ele>1014.295</ele>
        <time>2011-06-01T14:13:43Z</time>
      </trkpt>
      <trkpt lat="44.59223" lon="3.9057">
        <ele>1013.877</ele>
        <time>2011-06-01T14:13:53Z</time>
      </trkpt>
      <trkpt lat="44.59224" lon="3.9057">
        <ele>1014.097</ele>
        <time>2011-06-01T14:14:03Z</time>
      </trkpt>
      <trkpt lat="44.59224" lon="3.90571">
        <ele>1013.993</ele>
        <time>2011-06-01T14:14:13Z</time>
      </trkpt>
      <trkpt lat="44.59225" lon="3.90571">
        <ele>1013.375</ele>
        <time>2011-06-01T14:14:23Z</time>
      </trkpt>
      <trkpt lat="44.59226" lon="3.9057">
        <ele>1014.523</ele>
        <time>2011-06-01T14:14:33Z</time>
      </trkpt>
      <trkpt lat="44.59227" lon="3.90568">
        <ele>1014.46</ele>
        <time>2011-06-01T14:14:43Z</time>
      </trkpt>
      <trkpt lat="44.59227" lon="3.90568">
        <ele>1013.715</ele>
        <time>2011-06-01T14:14:53Z</time>
      </trkpt>
      <trkpt lat="44.59226" lon="3.90569">
        <ele>1014.142</ele>
        <time>2011-06-01T14:15:03Z</time>
      </trkpt>
      <trkpt lat="44.59226" lon="3.90568">
        <ele>1013.335</ele>
        <time>2011-06-01T14:15:13Z</time>
      </trkpt>
      <trkpt lat="44.59226" lon="3.90569">
        <ele>1012.624</ele>
        <time>2011-06-01T14:15:23Z</time>
      </trkpt>
      <trkpt lat="44.59226" lon="3.90569">
        <ele>1013.737</ele>
        <time>2011-06-01T14:15:33Z</time>
      </trkpt>
      <trkpt lat="44.59226" lon="3.90569">
        <ele>1013.486</ele>
        <time>2011-06-01T14:15:43Z</time>
      </trkpt>
      <trkpt lat="44.59226" lon="3.9057">
        <ele>1013.693</ele>
        <time>2011-06-01T14:15:53Z</time>
      </trkpt>
      <trkpt lat="44.59226" lon="3.90572">
        <ele>1013.473</ele>
        <time>2011-06-01T14:16:03Z</time>
      </trkpt>
      <trkpt lat="44.59225" lon="3.90572">
        <ele>1013.359</ele>
        <time>2011-06-01T14:16:13Z</time>
      </trkpt>
      <trkpt lat="44.59224" lon="3.90572">
        <ele>1013.592</ele>
        <time>2011-06-01T14:16:23Z</time>
      </trkpt>
      <trkpt lat="44.59223" lon="3.90572">
        <ele>1013.448</ele>
        <time>2011-06-01T14:16:33Z</time>
      </trkpt>
      <trkpt lat="44.59222" lon="3.90572">
        <ele>1013.473</ele>
        <time>2011-06-01T14:16:43Z</time>
      </trkpt>
      <trkpt lat="44.5922" lon="3.90572">
        <ele>1013.058</ele>
        <time>2011-06-01T14:16:53Z</time>
      </trkpt>
      <trkpt lat="44.59219" lon="3.90571">
        <ele>1013.125</ele>
        <time>2011-06-01T14:17:03Z</time>
      </trkpt>
      <trkpt lat="44.59218" lon="3.90571">
        <ele>1014.191</ele>
        <time>2011-06-01T14:17:13Z</time>
      </trkpt>
      <trkpt lat="44.59217" lon="3.90572">
        <ele>1014.159</ele>
        <time>2011-06-01T14:17:23Z</time>
      </trkpt>
      <trkpt lat="44.59216" lon="3.90572">
        <ele>1013.945</ele>
        <time>2011-06-01T14:17:33Z</time>
      </trkpt>
      <trkpt lat="44.59216" lon="3.90572">
        <ele>1015.003</ele>
        <time>2011-06-01T14:17:43Z</time>
      </trkpt>
      <trkpt lat="44.59216" lon="3.90572">
        <ele>1013.998</ele>
        <time>2011-06-01T14:17:53Z</time>
      </trkpt>
      <trkpt lat="44.59216" lon="3.90572">
        <ele>1013.986</ele>
        <time>2011-06-01T14:18:03Z</time>
      </trkpt>
      <trkpt lat="44.59217" lon="3.90571">
        <ele>1014.902</ele>
        <time>2011-06-01T14:18:13Z</time>
      </trkpt>
      <trkpt lat="44.59222" lon="3.9057">
        <ele>1015.026</ele>
        <time>2011-06-01T14:18:23Z</time>
      </trkpt>
      <trkpt lat="44.59227" lon="3.9057">
        <ele>1014.139</ele>
        <time>2011-06-01T14:18:33Z</time>
      </trkpt>
      <trkpt lat="44.59231" lon="3.9057">
        <ele>1014.951</ele>
        <time>2011-06-01T14:18:43Z</time>
      </trkpt>
      <trkpt lat="44.59232" lon="3.9057">
        <ele>1013.815</ele>
        <time>2011-06-01T14:18:53Z</time>
      </trkpt>
      <trkpt lat="44.59234" lon="3.90569">
        <ele>1014.214</ele>
        <time>2011-06-01T14:19:03Z</time>
      </trkpt>
      <trkpt lat="44.59237" lon="3.90569">
        <ele>1015.685</ele>
        <time>2011-06-01T14:19:13Z</time>
      </trkpt>
      <trkpt lat="44.59238" lon="3.9057">
        <ele>1014.738</ele>
        <time>2011-06-01T14:19:23Z</time>
      </trkpt>
      <trkpt lat="44.5924" lon="3.9057">
        <ele>1014.203</ele>
        <time>2011-06-01T14:19:33Z</time>
      </trkpt>
      <trkpt lat="44.59235" lon="3.90571">
        <ele>1015.85</ele>
        <time>2011-06-01T14:19:43Z</time>
      </trkpt>
      <trkpt lat="44.59224" lon="3.90571">
        <ele>1015.038</ele>
        <time>2011-06-01T14:19:53Z</time>
      </trkpt>
      <trkpt lat="44.59216" lon="3.90572">
        <ele>1015.116</ele>
        <time>2011-06-01T14:20:03Z</time>
      </trkpt>
      <trkpt lat="44.59213" lon="3.90572">
        <ele>1015.014</ele>
        <time>2011-06-01T14:20:13Z</time>
      </trkpt>
      <trkpt lat="44.59214" lon="3.90572">
        <ele>1014.679</ele>
        <time>2011-06-01T14:20:23Z</time>
      </trkpt>
      <trkpt lat="44.59214" lon="3.90571">
        <ele>1015.13</ele>
        <time>2011-06-01T14:20:33Z</time>
      </trkpt>
      <trkpt lat="44.59213" lon="3.9057">
        <ele>1015.627</ele>
        <time>2011-06-01T14:20:43Z</time>
      </trkpt>
      <trkpt lat="44.59213" lon="3.9057">
        <ele>1015.374</ele>
        <time>2011-06-01T14:20:53Z</time>
      </trkpt>
      <trkpt lat="44.59213" lon="3.9057">
        <ele>1014.551</ele>
        <time>2011-06-01T14:21:03Z</time>
      </trkpt>
      <trkpt lat="44.59214" lon="3.9057">
        <ele>1015.069</ele>
        <time>2011-06-01T14:21:13Z</time>
      </trkpt>
      <trkpt lat="44.59217" lon="3.90571">
        <ele>1015.075</ele>
        <time>2011-06-01T14:21:23Z</time>
      </trkpt>
      <trkpt lat="44.59219" lon="3.90569">
        <ele>1015.314</ele>
        <time>2011-06-01T14:21:33Z</time>
      </trkpt>
      <trkpt lat="44.59221" lon="3.90565">
        <ele>1015.51</ele>
        <time>2011-06-01T14:21:43Z</time>
      </trkpt>
      <trkpt lat="44.59222" lon="3.90565">
        <ele>1016.075</ele>
        <time>2011-06-01T14:21:53Z</time>
      </trkpt>
      <trkpt lat="44.59227" lon="3.90566">
        <ele>1015.679</ele>
        <time>2011-06-01T14:22:03Z</time>
      </trkpt>
      <trkpt lat="44.5923" lon="3.90566">
        <ele>1015.592</ele>
        <time>2011-06-01T14:22:13Z</time>
      </trkpt>
      <trkpt lat="44.59229" lon="3.90565">
        <ele>1015.962</ele>
        <time>2011-06-01T14:22:23Z</time>
      </trkpt>
      <trkpt lat="44.5923" lon="3.90565">
        <ele>1015.893</ele>
        <time>2011-06-01T14:22:33Z</time>
      </trkpt>
      <trkpt lat="44.59228" lon="3.90564">
        <ele>1015.431</ele>
        <time>2011-06-01T14:22:43Z</time>
      </trkpt>
      <trkpt lat="44.59226" lon="3.90564">
        <ele>1014.722</ele>
        <time>2011-06-01T14:22:53Z</time>
      </trkpt>
      <trkpt lat="44.5922" lon="3.90571">
        <ele>1016.028</ele>
        <time>2011-06-01T14:23:03Z</time>
      </trkpt>
      <trkpt lat="44.59218" lon="3.90575">
        <ele>1015.917</ele>
        <time>2011-06-01T14:23:13Z</time>
      </trkpt>
      <trkpt lat="44.59217" lon="3.90576">
        <ele>1015.386</ele>
        <time>2011-06-01T14:23:23Z</time>
      </trkpt>
      <trkpt lat="44.59218" lon="3.90577">
        <ele>1015.476</ele>
        <time>2011-06-01T14:23:33Z</time>
      </trkpt>
      <trkpt lat="44.59219" lon="3.90577">
        <ele>1015.713</ele>
        <time>2011-06-01T14:23:43Z</time>
      </trkpt>
      <trkpt lat="44.59221" lon="3.90576">
        <ele>1016.176</ele>
        <time>2011-06-01T14:23:53Z</time>
      </trkpt>
      <trkpt lat="44.59219" lon="3.90575">
        <ele>1015.831</ele>
        <time>2011-06-01T14:24:03Z</time>
      </trkpt>
      <trkpt lat="44.59217" lon="3.90575">
        <ele>1016.373</ele>
        <time>2011-06-01T14:24:13Z</time>
      </trkpt>
    </trkseg>
  </trk>
  <trk>
    <name><![CDATA[ACTIVE LOG180159]]></name>
    <trkseg>
      <trkpt lat="44.59268" lon="3.90631">
        <ele>1012.011</ele>
        <time>2011-06-01T16:01:59Z</time>
      </trkpt>
      <trkpt lat="44.59269" lon="3.90612">
        <ele>1010.914</ele>
        <time>2011-06-01T16:02:09Z</time>
      </trkpt>
      <trkpt lat="44.59239" lon="3.90571">
        <ele>1011.115</ele>
        <time>2011-06-01T16:02:19Z</time>
      </trkpt>
      <trkpt lat="44.59232" lon="3.90562">
        <ele>1009.953</ele>
        <time>2011-06-01T16:02:29Z</time>
      </trkpt>
      <trkpt lat="44.59233" lon="3.90567">
        <ele>1010.719</ele>
        <time>2011-06-01T16:02:39Z</time>
      </trkpt>
      <trkpt lat="44.59232" lon="3.90567">
        <ele>1013.216</ele>
        <time>2011-06-01T16:02:49Z</time>
      </trkpt>
      <trkpt lat="44.5923" lon="3.90567">
        <ele>1014.534</ele>
        <time>2011-06-01T16:02:59Z</time>
      </trkpt>
      <trkpt lat="44.59229" lon="3.90568">
        <ele>1016.421</ele>
        <time>2011-06-01T16:03:09Z</time>
      </trkpt>
      <trkpt lat="44.59228" lon="3.90569">
        <ele>1017.617</ele>
        <time>2011-06-01T16:03:19Z</time>
      </trkpt>
      <trkpt lat="44.59226" lon="3.90569">
        <ele>1018.108</ele>
        <time>2011-06-01T16:03:29Z</time>
      </trkpt>
      <trkpt lat="44.59227" lon="3.90569">
        <ele>1018.909</ele>
        <time>2011-06-01T16:03:39Z</time>
      </trkpt>
      <trkpt lat="44.59227" lon="3.90569">
        <ele>1018.667</ele>
        <time>2011-06-01T16:03:49Z</time>
      </trkpt>
      <trkpt lat="44.59227" lon="3.90569">
        <ele>1018.645</ele>
        <time>2011-06-01T16:03:59Z</time>
      </trkpt>
      <trkpt lat="44.59227" lon="3.90569">
        <ele>1018.665</ele>
        <time>2011-06-01T16:04:09Z</time>
      </trkpt>
      <trkpt lat="44.59227" lon="3.90569">
        <ele>1017.669</ele>
        <time>2011-06-01T16:04:19Z</time>
      </trkpt>
      <trkpt lat="44.59227" lon="3.90569">
        <ele>1018.285</ele>
        <time>2011-06-01T16:04:29Z</time>
      </trkpt>
      <trkpt lat="44.59227" lon="3.90569">
        <ele>1018.447</ele>
        <time>2011-06-01T16:04:39Z</time>
      </trkpt>
      <trkpt lat="44.59227" lon="3.90569">
        <ele>1019.905</ele>
        <time>2011-06-01T16:04:49Z</time>
      </trkpt>
      <trkpt lat="44.59227" lon="3.90569">
        <ele>1019.974</ele>
        <time>2011-06-01T16:04:59Z</time>
      </trkpt>
      <trkpt lat="44.59228" lon="3.90569">
        <ele>1019.488</ele>
        <time>2011-06-01T16:05:09Z</time>
      </trkpt>
      <trkpt lat="44.59229" lon="3.90571">
        <ele>1018.393</ele>
        <time>2011-06-01T16:05:19Z</time>
      </trkpt>
      <trkpt lat="44.59231" lon="3.90572">
        <ele>1018.779</ele>
        <time>2011-06-01T16:05:29Z</time>
      </trkpt>
      <trkpt lat="44.59232" lon="3.90574">
        <ele>1018.053</ele>
        <time>2011-06-01T16:05:39Z</time>
      </trkpt>
      <trkpt lat="44.59232" lon="3.90573">
        <ele>1018.874</ele>
        <time>2011-06-01T16:05:49Z</time>
      </trkpt>
      <trkpt lat="44.59232" lon="3.90572">
        <ele>1018.637</ele>
        <time>2011-06-01T16:05:59Z</time>
      </trkpt>
      <trkpt lat="44.59231" lon="3.90572">
        <ele>1017.768</ele>
        <time>2011-06-01T16:06:09Z</time>
      </trkpt>
      <trkpt lat="44.59232" lon="3.90571">
        <ele>1018.974</ele>
        <time>2011-06-01T16:06:19Z</time>
      </trkpt>
      <trkpt lat="44.59231" lon="3.90571">
        <ele>1018.915</ele>
        <time>2011-06-01T16:06:29Z</time>
      </trkpt>
      <trkpt lat="44.59231" lon="3.9057">
        <ele>1018.899</ele>
        <time>2011-06-01T16:06:39Z</time>
      </trkpt>
      <trkpt lat="44.59231" lon="3.9057">
        <ele>1018.869</ele>
        <time>2011-06-01T16:06:49Z</time>
      </trkpt>
      <trkpt lat="44.59229" lon="3.90568">
        <ele>1018.425</ele>
        <time>2011-06-01T16:06:59Z</time>
      </trkpt>
      <trkpt lat="44.59228" lon="3.90568">
        <ele>1019.351</ele>
        <time>2011-06-01T16:07:09Z</time>
      </trkpt>
      <trkpt lat="44.59225" lon="3.90566">
        <ele>1018.427</ele>
        <time>2011-06-01T16:07:19Z</time>
      </trkpt>
      <trkpt lat="44.59224" lon="3.90565">
        <ele>1019.111</ele>
        <time>2011-06-01T16:07:29Z</time>
      </trkpt>
      <trkpt lat="44.59223" lon="3.90564">
        <ele>1019.249</ele>
        <time>2011-06-01T16:07:39Z</time>
      </trkpt>
      <trkpt lat="44.59222" lon="3.90564">
        <ele>1018.391</ele>
        <time>2011-06-01T16:07:49Z</time>
      </trkpt>
      <trkpt lat="44.59222" lon="3.90565">
        <ele>1019.513</ele>
        <time>2011-06-01T16:07:59Z</time>
      </trkpt>
      <trkpt lat="44.59226" lon="3.90568">
        <ele>1019.815</ele>
        <time>2011-06-01T16:08:09Z</time>
      </trkpt>
      <trkpt lat="44.59232" lon="3.90571">
        <ele>1019.091</ele>
        <time>2011-06-01T16:08:19Z</time>
      </trkpt>
      <trkpt lat="44.59232" lon="3.90573">
        <ele>1018.892</ele>
        <time>2011-06-01T16:08:29Z</time>
      </trkpt>
      <trkpt lat="44.59233" lon="3.90573">
        <ele>1019.525</ele>
        <time>2011-06-01T16:08:39Z</time>
      </trkpt>
      <trkpt lat="44.59234" lon="3.90573">
        <ele>1019.442</ele>
        <time>2011-06-01T16:08:49Z</time>
      </trkpt>
      <trkpt lat="44.59234" lon="3.90573">
        <ele>1019.63</ele>
        <time>2011-06-01T16:08:59Z</time>
      </trkpt>
      <trkpt lat="44.59233" lon="3.90572">
        <ele>1019.577</ele>
        <time>2011-06-01T16:09:09Z</time>
      </trkpt>
      <trkpt lat="44.59231" lon="3.9057">
        <ele>1019.322</ele>
        <time>2011-06-01T16:09:19Z</time>
      </trkpt>
      <trkpt lat="44.59228" lon="3.90566">
        <ele>1018.521</ele>
        <time>2011-06-01T16:09:29Z</time>
      </trkpt>
      <trkpt lat="44.59225" lon="3.90563">
        <ele>1018.876</ele>
        <time>2011-06-01T16:09:39Z</time>
      </trkpt>
      <trkpt lat="44.59222" lon="3.90564">
        <ele>1018.904</ele>
        <time>2011-06-01T16:09:49Z</time>
      </trkpt>
      <trkpt lat="44.59223" lon="3.90563">
        <ele>1019.675</ele>
        <time>2011-06-01T16:09:59Z</time>
      </trkpt>
      <trkpt lat="44.59223" lon="3.90562">
        <ele>1019.036</ele>
        <time>2011-06-01T16:10:09Z</time>
      </trkpt>
      <trkpt lat="44.59224" lon="3.90561">
        <ele>1019.77</ele>
        <time>2011-06-01T16:10:19Z</time>
      </trkpt>
      <trkpt lat="44.59227" lon="3.90565">
        <ele>1020.367</ele>
        <time>2011-06-01T16:10:29Z</time>
      </trkpt>
      <trkpt lat="44.5923" lon="3.90567">
        <ele>1019.527</ele>
        <time>2011-06-01T16:10:39Z</time>
      </trkpt>
      <trkpt lat="44.59231" lon="3.90572">
        <ele>1020.875</ele>
        <time>2011-06-01T16:10:49Z</time>
      </trkpt>
      <trkpt lat="44.59228" lon="3.90569">
        <ele>1020.523</ele>
        <time>2011-06-01T16:10:59Z</time>
      </trkpt>
      <trkpt lat="44.59228" lon="3.90568">
        <ele>1018.756</ele>
        <time>2011-06-01T16:11:09Z</time>
      </trkpt>
      <trkpt lat="44.59228" lon="3.90568">
        <ele>1020.552</ele>
        <time>2011-06-01T16:11:19Z</time>
      </trkpt>
      <trkpt lat="44.59228" lon="3.90568">
        <ele>1019.242</ele>
        <time>2011-06-01T16:11:29Z</time>
      </trkpt>
      <trkpt lat="44.59228" lon="3.90568">
        <ele>1019.535</ele>
        <time>2011-06-01T16:11:39Z</time>
      </trkpt>
      <trkpt lat="44.59228" lon="3.90568">
        <ele>1020.047</ele>
        <time>2011-06-01T16:11:49Z</time>
      </trkpt>
      <trkpt lat="44.59228" lon="3.90568">
        <ele>1019.899</ele>
        <time>2011-06-01T16:11:59Z</time>
      </trkpt>
      <trkpt lat="44.59228" lon="3.90568">
        <ele>1020.465</ele>
        <time>2011-06-01T16:12:09Z</time>
      </trkpt>
      <trkpt lat="44.59228" lon="3.90568">
        <ele>1020.086</ele>
        <time>2011-06-01T16:12:19Z</time>
      </trkpt>
      <trkpt lat="44.59228" lon="3.90568">
        <ele>1019.598</ele>
        <time>2011-06-01T16:12:29Z</time>
      </trkpt>
      <trkpt lat="44.59228" lon="3.90568">
        <ele>1019.336</ele>
        <time>2011-06-01T16:12:39Z</time>
      </trkpt>
      <trkpt lat="44.59228" lon="3.90568">
        <ele>1020.135</ele>
        <time>2011-06-01T16:12:49Z</time>
      </trkpt>
      <trkpt lat="44.59228" lon="3.90568">
        <ele>1020.042</ele>
        <time>2011-06-01T16:12:59Z</time>
      </trkpt>
      <trkpt lat="44.59228" lon="3.90568">
        <ele>1020.41</ele>
        <time>2011-06-01T16:13:09Z</time>
      </trkpt>
      <trkpt lat="44.59228" lon="3.90568">
        <ele>1019.809</ele>
        <time>2011-06-01T16:13:19Z</time>
      </trkpt>
      <trkpt lat="44.59228" lon="3.90568">
        <ele>1019.461</ele>
        <time>2011-06-01T16:13:29Z</time>
      </trkpt>
      <trkpt lat="44.59228" lon="3.90568">
        <ele>1019.006</ele>
        <time>2011-06-01T16:13:39Z</time>
      </trkpt>
      <trkpt lat="44.59228" lon="3.90568">
        <ele>1020.076</ele>
        <time>2011-06-01T16:13:49Z</time>
      </trkpt>
      <trkpt lat="44.59228" lon="3.90568">
        <ele>1019.765</ele>
        <time>2011-06-01T16:13:59Z</time>
      </trkpt>
      <trkpt lat="44.59229" lon="3.90568">
        <ele>1020.019</ele>
        <time>2011-06-01T16:14:09Z</time>
      </trkpt>
      <trkpt lat="44.59229" lon="3.90568">
        <ele>1019.557</ele>
        <time>2011-06-01T16:14:19Z</time>
      </trkpt>
      <trkpt lat="44.59229" lon="3.90568">
        <ele>1019.259</ele>
        <time>2011-06-01T16:14:29Z</time>
      </trkpt>
      <trkpt lat="44.59229" lon="3.90568">
        <ele>1019.802</ele>
        <time>2011-06-01T16:14:39Z</time>
      </trkpt>
      <trkpt lat="44.59229" lon="3.90568">
        <ele>1019.773</ele>
        <time>2011-06-01T16:14:49Z</time>
      </trkpt>
      <trkpt lat="44.59229" lon="3.90566">
        <ele>1018.834</ele>
        <time>2011-06-01T16:14:59Z</time>
      </trkpt>
      <trkpt lat="44.59229" lon="3.90567">
        <ele>1020.065</ele>
        <time>2011-06-01T16:15:09Z</time>
      </trkpt>
      <trkpt lat="44.59229" lon="3.90567">
        <ele>1019.718</ele>
        <time>2011-06-01T16:15:19Z</time>
      </trkpt>
      <trkpt lat="44.59229" lon="3.90567">
        <ele>1021.057</ele>
        <time>2011-06-01T16:15:29Z</time>
      </trkpt>
      <trkpt lat="44.59229" lon="3.90567">
        <ele>1018.903</ele>
        <time>2011-06-01T16:15:39Z</time>
      </trkpt>
      <trkpt lat="44.59228" lon="3.90568">
        <ele>1019.384</ele>
        <time>2011-06-01T16:15:49Z</time>
      </trkpt>
      <trkpt lat="44.59224" lon="3.90566">
        <ele>1019.112</ele>
        <time>2011-06-01T16:15:59Z</time>
      </trkpt>
      <trkpt lat="44.59223" lon="3.90566">
        <ele>1019.351</ele>
        <time>2011-06-01T16:16:09Z</time>
      </trkpt>
      <trkpt lat="44.59222" lon="3.90566">
        <ele>1018.936</ele>
        <time>2011-06-01T16:16:19Z</time>
      </trkpt>
      <trkpt lat="44.5922" lon="3.90565">
        <ele>1017.547</ele>
        <time>2011-06-01T16:16:29Z</time>
      </trkpt>
      <trkpt lat="44.59219" lon="3.90566">
        <ele>1019.578</ele>
        <time>2011-06-01T16:16:39Z</time>
      </trkpt>
      <trkpt lat="44.59219" lon="3.90566">
        <ele>1019.15</ele>
        <time>2011-06-01T16:16:49Z</time>
      </trkpt>
      <trkpt lat="44.59221" lon="3.90567">
        <ele>1018.489</ele>
        <time>2011-06-01T16:16:59Z</time>
      </trkpt>
      <trkpt lat="44.59221" lon="3.90566">
        <ele>1019.069</ele>
        <time>2011-06-01T16:17:09Z</time>
      </trkpt>
      <trkpt lat="44.59213" lon="3.9056">
        <ele>1018.911</ele>
        <time>2011-06-01T16:17:19Z</time>
      </trkpt>
      <trkpt lat="44.5921" lon="3.90557">
        <ele>1020.475</ele>
        <time>2011-06-01T16:17:29Z</time>
      </trkpt>
      <trkpt lat="44.5921" lon="3.90554">
        <ele>1018.397</ele>
        <time>2011-06-01T16:17:39Z</time>
      </trkpt>
      <trkpt lat="44.59212" lon="3.90561">
        <ele>1019.03</ele>
        <time>2011-06-01T16:17:49Z</time>
      </trkpt>
      <trkpt lat="44.59212" lon="3.90561">
        <ele>1019.678</ele>
        <time>2011-06-01T16:17:59Z</time>
      </trkpt>
      <trkpt lat="44.59213" lon="3.90562">
        <ele>1020.199</ele>
        <time>2011-06-01T16:18:09Z</time>
      </trkpt>
      <trkpt lat="44.59216" lon="3.90565">
        <ele>1018.565</ele>
        <time>2011-06-01T16:18:19Z</time>
      </trkpt>
      <trkpt lat="44.59222" lon="3.90572">
        <ele>1020.16</ele>
        <time>2011-06-01T16:18:29Z</time>
      </trkpt>
      <trkpt lat="44.59228" lon="3.90574">
        <ele>1019.162</ele>
        <time>2011-06-01T16:18:39Z</time>
      </trkpt>
      <trkpt lat="44.59227" lon="3.90574">
        <ele>1019.835</ele>
        <time>2011-06-01T16:18:49Z</time>
      </trkpt>
      <trkpt lat="44.59229" lon="3.90576">
        <ele>1019.157</ele>
        <time>2011-06-01T16:18:59Z</time>
      </trkpt>
      <trkpt lat="44.5923" lon="3.90578">
        <ele>1018.519</ele>
        <time>2011-06-01T16:19:09Z</time>
      </trkpt>
      <trkpt lat="44.59231" lon="3.90579">
        <ele>1020.098</ele>
        <time>2011-06-01T16:19:19Z</time>
      </trkpt>
      <trkpt lat="44.59231" lon="3.90579">
        <ele>1019.121</ele>
        <time>2011-06-01T16:19:29Z</time>
      </trkpt>
      <trkpt lat="44.59231" lon="3.9058">
        <ele>1018.53</ele>
        <time>2011-06-01T16:19:39Z</time>
      </trkpt>
      <trkpt lat="44.59231" lon="3.90581">
        <ele>1019.174</ele>
        <time>2011-06-01T16:19:49Z</time>
      </trkpt>
      <trkpt lat="44.5923" lon="3.90579">
        <ele>1019.6</ele>
        <time>2011-06-01T16:19:59Z</time>
      </trkpt>
      <trkpt lat="44.59227" lon="3.90574">
        <ele>1020.036</ele>
        <time>2011-06-01T16:20:09Z</time>
      </trkpt>
      <trkpt lat="44.59225" lon="3.90571">
        <ele>1018.372</ele>
        <time>2011-06-01T16:20:19Z</time>
      </trkpt>
      <trkpt lat="44.59224" lon="3.9057">
        <ele>1018.169</ele>
        <time>2011-06-01T16:20:29Z</time>
      </trkpt>
      <trkpt lat="44.59223" lon="3.90569">
        <ele>1018.016</ele>
        <time>2011-06-01T16:20:39Z</time>
      </trkpt>
      <trkpt lat="44.59224" lon="3.9057">
        <ele>1019.694</ele>
        <time>2011-06-01T16:20:49Z</time>
      </trkpt>
      <trkpt lat="44.59224" lon="3.90571">
        <ele>1018.782</ele>
        <time>2011-06-01T16:20:59Z</time>
      </trkpt>
      <trkpt lat="44.59225" lon="3.90571">
        <ele>1020.003</ele>
        <time>2011-06-01T16:21:09Z</time>
      </trkpt>
      <trkpt lat="44.59226" lon="3.90572">
        <ele>1020.785</ele>
        <time>2011-06-01T16:21:19Z</time>
      </trkpt>
      <trkpt lat="44.59226" lon="3.90573">
        <ele>1019.807</ele>
        <time>2011-06-01T16:21:29Z</time>
      </trkpt>
      <trkpt lat="44.59226" lon="3.90574">
        <ele>1020.745</ele>
        <time>2011-06-01T16:21:39Z</time>
      </trkpt>
      <trkpt lat="44.59223" lon="3.90574">
        <ele>1019.76</ele>
        <time>2011-06-01T16:21:49Z</time>
      </trkpt>
      <trkpt lat="44.59223" lon="3.90573">
        <ele>1018.66</ele>
        <time>2011-06-01T16:22:00Z</time>
      </trkpt>
      <trkpt lat="44.59223" lon="3.90573">
        <ele>1019.519</ele>
        <time>2011-06-01T16:22:09Z</time>
      </trkpt>
      <trkpt lat="44.59223" lon="3.90572">
        <ele>1019.525</ele>
        <time>2011-06-01T16:22:19Z</time>
      </trkpt>
      <trkpt lat="44.59224" lon="3.90573">
        <ele>1019.263</ele>
        <time>2011-06-01T16:22:29Z</time>
      </trkpt>
      <trkpt lat="44.59226" lon="3.90574">
        <ele>1019.815</ele>
        <time>2011-06-01T16:22:39Z</time>
      </trkpt>
      <trkpt lat="44.59226" lon="3.90575">
        <ele>1018.877</ele>
        <time>2011-06-01T16:22:49Z</time>
      </trkpt>
      <trkpt lat="44.59225" lon="3.90577">
        <ele>1019.177</ele>
        <time>2011-06-01T16:22:59Z</time>
      </trkpt>
      <trkpt lat="44.59223" lon="3.90577">
        <ele>1019.766</ele>
        <time>2011-06-01T16:23:09Z</time>
      </trkpt>
      <trkpt lat="44.59222" lon="3.90575">
        <ele>1020.06</ele>
        <time>2011-06-01T16:23:19Z</time>
      </trkpt>
      <trkpt lat="44.59222" lon="3.90574">
        <ele>1018.227</ele>
        <time>2011-06-01T16:23:29Z</time>
      </trkpt>
      <trkpt lat="44.59223" lon="3.90574">
        <ele>1018.562</ele>
        <time>2011-06-01T16:23:39Z</time>
      </trkpt>
      <trkpt lat="44.59224" lon="3.90574">
        <ele>1020.694</ele>
        <time>2011-06-01T16:23:49Z</time>
      </trkpt>
      <trkpt lat="44.59225" lon="3.90576">
        <ele>1020.395</ele>
        <time>2011-06-01T16:23:59Z</time>
      </trkpt>
      <trkpt lat="44.59225" lon="3.90577">
        <ele>1019.903</ele>
        <time>2011-06-01T16:24:09Z</time>
      </trkpt>
      <trkpt lat="44.59226" lon="3.90576">
        <ele>1018.563</ele>
        <time>2011-06-01T16:24:19Z</time>
      </trkpt>
      <trkpt lat="44.59226" lon="3.90575">
        <ele>1021.383</ele>
        <time>2011-06-01T16:24:29Z</time>
      </trkpt>
      <trkpt lat="44.59226" lon="3.90576">
        <ele>1019.624</ele>
        <time>2011-06-01T16:25:05Z</time>
      </trkpt>
      <trkpt lat="44.59222" lon="3.90576">
        <ele>1019.934</ele>
        <time>2011-06-01T16:25:16Z</time>
      </trkpt>
      <trkpt lat="44.59219" lon="3.90575">
        <ele>1019.971</ele>
        <time>2011-06-01T16:25:26Z</time>
      </trkpt>
      <trkpt lat="44.59216" lon="3.90572">
        <ele>1019.754</ele>
        <time>2011-06-01T16:25:36Z</time>
      </trkpt>
      <trkpt lat="44.59217" lon="3.90571">
        <ele>1019.706</ele>
        <time>2011-06-01T16:25:46Z</time>
      </trkpt>
      <trkpt lat="44.59219" lon="3.90572">
        <ele>1020.832</ele>
        <time>2011-06-01T16:25:56Z</time>
      </trkpt>
      <trkpt lat="44.59221" lon="3.90572">
        <ele>1020.675</ele>
        <time>2011-06-01T16:26:06Z</time>
      </trkpt>
      <trkpt lat="44.59223" lon="3.9057">
        <ele>1019.034</ele>
        <time>2011-06-01T16:26:16Z</time>
      </trkpt>
      <trkpt lat="44.59228" lon="3.90569">
        <ele>1020.338</ele>
        <time>2011-06-01T16:26:26Z</time>
      </trkpt>
      <trkpt lat="44.59229" lon="3.90569">
        <ele>1018.57</ele>
        <time>2011-06-01T16:26:36Z</time>
      </trkpt>
      <trkpt lat="44.59227" lon="3.90569">
        <ele>1019.875</ele>
        <time>2011-06-01T16:26:46Z</time>
      </trkpt>
      <trkpt lat="44.59225" lon="3.9057">
        <ele>1020.585</ele>
        <time>2011-06-01T16:26:56Z</time>
      </trkpt>
      <trkpt lat="44.59223" lon="3.9057">
        <ele>1019.839</ele>
        <time>2011-06-01T16:27:06Z</time>
      </trkpt>
      <trkpt lat="44.59223" lon="3.9057">
        <ele>1020.548</ele>
        <time>2011-06-01T16:27:16Z</time>
      </trkpt>
      <trkpt lat="44.59223" lon="3.9057">
        <ele>1018.119</ele>
        <time>2011-06-01T16:27:26Z</time>
      </trkpt>
      <trkpt lat="44.59223" lon="3.9057">
        <ele>1019.835</ele>
        <time>2011-06-01T16:27:36Z</time>
      </trkpt>
      <trkpt lat="44.59223" lon="3.9057">
        <ele>1020.971</ele>
        <time>2011-06-01T16:27:52Z</time>
      </trkpt>
      <trkpt lat="44.59223" lon="3.9057">
        <ele>1019.81</ele>
        <time>2011-06-01T16:28:03Z</time>
      </trkpt>
      <trkpt lat="44.59223" lon="3.9057">
        <ele>1020.559</ele>
        <time>2011-06-01T16:28:13Z</time>
      </trkpt>
      <trkpt lat="44.59222" lon="3.90571">
        <ele>1019.915</ele>
        <time>2011-06-01T16:28:23Z</time>
      </trkpt>
      <trkpt lat="44.59222" lon="3.90573">
        <ele>1018.897</ele>
        <time>2011-06-01T16:28:33Z</time>
      </trkpt>
      <trkpt lat="44.59222" lon="3.90574">
        <ele>1019.475</ele>
        <time>2011-06-01T16:28:43Z</time>
      </trkpt>
      <trkpt lat="44.59223" lon="3.90575">
        <ele>1019.07</ele>
        <time>2011-06-01T16:28:53Z</time>
      </trkpt>
      <trkpt lat="44.59225" lon="3.90575">
        <ele>1019.567</ele>
        <time>2011-06-01T16:29:03Z</time>
      </trkpt>
      <trkpt lat="44.59225" lon="3.90575">
        <ele>1019.661</ele>
        <time>2011-06-01T16:29:13Z</time>
      </trkpt>
      <trkpt lat="44.59225" lon="3.90575">
        <ele>1019.573</ele>
        <time>2011-06-01T16:29:23Z</time>
      </trkpt>
      <trkpt lat="44.59225" lon="3.90575">
        <ele>1019.76</ele>
        <time>2011-06-01T16:29:33Z</time>
      </trkpt>
      <trkpt lat="44.59225" lon="3.90575">
        <ele>1018.391</ele>
        <time>2011-06-01T16:29:43Z</time>
      </trkpt>
      <trkpt lat="44.59225" lon="3.90575">
        <ele>1019.848</ele>
        <time>2011-06-01T16:29:53Z</time>
      </trkpt>
      <trkpt lat="44.59225" lon="3.90575">
        <ele>1019.435</ele>
        <time>2011-06-01T16:30:03Z</time>
      </trkpt>
      <trkpt lat="44.59224" lon="3.90575">
        <ele>1019.771</ele>
        <time>2011-06-01T16:30:13Z</time>
      </trkpt>
      <trkpt lat="44.59224" lon="3.90575">
        <ele>1019.465</ele>
        <time>2011-06-01T16:30:23Z</time>
      </trkpt>
      <trkpt lat="44.59224" lon="3.90576">
        <ele>1017.536</ele>
        <time>2011-06-01T16:30:33Z</time>
      </trkpt>
      <trkpt lat="44.59224" lon="3.90576">
        <ele>1020.182</ele>
        <time>2011-06-01T16:30:43Z</time>
      </trkpt>
      <trkpt lat="44.59224" lon="3.90575">
        <ele>1019.268</ele>
        <time>2011-06-01T16:30:53Z</time>
      </trkpt>
      <trkpt lat="44.59224" lon="3.90575">
        <ele>1020.236</ele>
        <time>2011-06-01T16:31:03Z</time>
      </trkpt>
      <trkpt lat="44.59224" lon="3.90575">
        <ele>1018.136</ele>
        <time>2011-06-01T16:31:13Z</time>
      </trkpt>
      <trkpt lat="44.59224" lon="3.90575">
        <ele>1018.593</ele>
        <time>2011-06-01T16:31:23Z</time>
      </trkpt>
      <trkpt lat="44.59224" lon="3.90575">
        <ele>1018.631</ele>
        <time>2011-06-01T16:31:33Z</time>
      </trkpt>
      <trkpt lat="44.59223" lon="3.90574">
        <ele>1019.149</ele>
        <time>2011-06-01T16:31:43Z</time>
      </trkpt>
      <trkpt lat="44.59223" lon="3.90573">
        <ele>1020.811</ele>
        <time>2011-06-01T16:31:53Z</time>
      </trkpt>
      <trkpt lat="44.59223" lon="3.90573">
        <ele>1019.063</ele>
        <time>2011-06-01T16:32:03Z</time>
      </trkpt>
      <trkpt lat="44.59223" lon="3.90573">
        <ele>1020.218</ele>
        <time>2011-06-01T16:32:13Z</time>
      </trkpt>
      <trkpt lat="44.59223" lon="3.90572">
        <ele>1020.057</ele>
        <time>2011-06-01T16:32:23Z</time>
      </trkpt>
      <trkpt lat="44.59223" lon="3.90572">
        <ele>1019.771</ele>
        <time>2011-06-01T16:32:33Z</time>
      </trkpt>
      <trkpt lat="44.59223" lon="3.90573">
        <ele>1021.558</ele>
        <time>2011-06-01T16:32:43Z</time>
      </trkpt>
      <trkpt lat="44.59223" lon="3.90573">
        <ele>1020.23</ele>
        <time>2011-06-01T16:32:53Z</time>
      </trkpt>
      <trkpt lat="44.59223" lon="3.90573">
        <ele>1019.479</ele>
        <time>2011-06-01T16:33:03Z</time>
      </trkpt>
      <trkpt lat="44.59223" lon="3.90573">
        <ele>1020.924</ele>
        <time>2011-06-01T16:33:13Z</time>
      </trkpt>
      <trkpt lat="44.59226" lon="3.90573">
        <ele>1020.713</ele>
        <time>2011-06-01T16:33:23Z</time>
      </trkpt>
      <trkpt lat="44.59225" lon="3.90573">
        <ele>1020.204</ele>
        <time>2011-06-01T16:33:33Z</time>
      </trkpt>
      <trkpt lat="44.59225" lon="3.90573">
        <ele>1020.42</ele>
        <time>2011-06-01T16:33:43Z</time>
      </trkpt>
      <trkpt lat="44.59225" lon="3.90573">
        <ele>1019.74</ele>
        <time>2011-06-01T16:33:53Z</time>
      </trkpt>
      <trkpt lat="44.59225" lon="3.90573">
        <ele>1019.838</ele>
        <time>2011-06-01T16:34:03Z</time>
      </trkpt>
      <trkpt lat="44.59225" lon="3.90573">
        <ele>1019.3</ele>
        <time>2011-06-01T16:34:13Z</time>
      </trkpt>
      <trkpt lat="44.59225" lon="3.90573">
        <ele>1019.96</ele>
        <time>2011-06-01T16:34:23Z</time>
      </trkpt>
      <trkpt lat="44.59224" lon="3.90572">
        <ele>1020.117</ele>
        <time>2011-06-01T16:34:33Z</time>
      </trkpt>
      <trkpt lat="44.59223" lon="3.90572">
        <ele>1020.074</ele>
        <time>2011-06-01T16:34:43Z</time>
      </trkpt>
      <trkpt lat="44.59221" lon="3.90572">
        <ele>1020.043</ele>
        <time>2011-06-01T16:34:53Z</time>
      </trkpt>
      <trkpt lat="44.5922" lon="3.90572">
        <ele>1019.399</ele>
        <time>2011-06-01T16:35:03Z</time>
      </trkpt>
      <trkpt lat="44.5922" lon="3.90572">
        <ele>1019.075</ele>
        <time>2011-06-01T16:35:13Z</time>
      </trkpt>
      <trkpt lat="44.5922" lon="3.90572">
        <ele>1018.398</ele>
        <time>2011-06-01T16:35:23Z</time>
      </trkpt>
      <trkpt lat="44.5922" lon="3.90572">
        <ele>1018.968</ele>
        <time>2011-06-01T16:35:33Z</time>
      </trkpt>
      <trkpt lat="44.59222" lon="3.90573">
        <ele>1019.309</ele>
        <time>2011-06-01T16:35:43Z</time>
      </trkpt>
      <trkpt lat="44.59224" lon="3.90574">
        <ele>1020.241</ele>
        <time>2011-06-01T16:35:53Z</time>
      </trkpt>
      <trkpt lat="44.59223" lon="3.90574">
        <ele>1017.851</ele>
        <time>2011-06-01T16:36:03Z</time>
      </trkpt>
      <trkpt lat="44.59222" lon="3.90575">
        <ele>1018.149</ele>
        <time>2011-06-01T16:36:13Z</time>
      </trkpt>
      <trkpt lat="44.59222" lon="3.90572">
        <ele>1018.203</ele>
        <time>2011-06-01T16:36:30Z</time>
      </trkpt>
      <trkpt lat="44.59223" lon="3.90571">
        <ele>1018.864</ele>
        <time>2011-06-01T16:36:41Z</time>
      </trkpt>
      <trkpt lat="44.59224" lon="3.9057">
        <ele>1020.389</ele>
        <time>2011-06-01T16:36:51Z</time>
      </trkpt>
      <trkpt lat="44.59235" lon="3.90573">
        <ele>1017.186</ele>
        <time>2011-06-01T16:38:15Z</time>
      </trkpt>
      <trkpt lat="44.59235" lon="3.90573">
        <ele>1019.289</ele>
        <time>2011-06-01T16:38:26Z</time>
      </trkpt>
      <trkpt lat="44.59233" lon="3.90572">
        <ele>1019.263</ele>
        <time>2011-06-01T16:38:42Z</time>
      </trkpt>
      <trkpt lat="44.59227" lon="3.90572">
        <ele>1018.922</ele>
        <time>2011-06-01T16:38:53Z</time>
      </trkpt>
      <trkpt lat="44.59223" lon="3.90574">
        <ele>1019.627</ele>
        <time>2011-06-01T16:39:03Z</time>
      </trkpt>
      <trkpt lat="44.5922" lon="3.90574">
        <ele>1020.111</ele>
        <time>2011-06-01T16:39:13Z</time>
      </trkpt>
      <trkpt lat="44.59218" lon="3.90575">
        <ele>1020.041</ele>
        <time>2011-06-01T16:39:23Z</time>
      </trkpt>
      <trkpt lat="44.59219" lon="3.90574">
        <ele>1019.34</ele>
        <time>2011-06-01T16:39:33Z</time>
      </trkpt>
      <trkpt lat="44.5922" lon="3.90573">
        <ele>1018.275</ele>
        <time>2011-06-01T16:39:43Z</time>
      </trkpt>
      <trkpt lat="44.5922" lon="3.90572">
        <ele>1019.308</ele>
        <time>2011-06-01T16:39:53Z</time>
      </trkpt>
      <trkpt lat="44.59222" lon="3.90572">
        <ele>1019.771</ele>
        <time>2011-06-01T16:40:03Z</time>
      </trkpt>
      <trkpt lat="44.59224" lon="3.90573">
        <ele>1020.009</ele>
        <time>2011-06-01T16:40:13Z</time>
      </trkpt>
      <trkpt lat="44.59225" lon="3.90573">
        <ele>1019.544</ele>
        <time>2011-06-01T16:40:23Z</time>
      </trkpt>
      <trkpt lat="44.59225" lon="3.90573">
        <ele>1019.58</ele>
        <time>2011-06-01T16:40:33Z</time>
      </trkpt>
      <trkpt lat="44.59225" lon="3.90573">
        <ele>1020.303</ele>
        <time>2011-06-01T16:40:43Z</time>
      </trkpt>
      <trkpt lat="44.59225" lon="3.90574">
        <ele>1019.923</ele>
        <time>2011-06-01T16:40:53Z</time>
      </trkpt>
      <trkpt lat="44.59225" lon="3.90573">
        <ele>1020.674</ele>
        <time>2011-06-01T16:41:03Z</time>
      </trkpt>
    </trkseg>
  </trk>
  <trk>
    <name><![CDATA[ACTIVE LOG184150]]></name>
    <trkseg>
      <trkpt lat="44.5924" lon="3.90564">
        <ele>1021.257</ele>
        <time>2011-06-01T16:41:49Z</time>
      </trkpt>
      <trkpt lat="44.59226" lon="3.90575">
        <ele>1020.334</ele>
        <time>2011-06-01T16:42:00Z</time>
      </trkpt>
    </trkseg>
  </trk>
</gpx>